<?xml version="1.0" encoding="UTF-8" standalone="no" ?>
<gpx xmlns="http://www.topografix.com/GPX/1/1" xmlns:xsi="http://www.w3.org/2001/XMLSchema-instance" xsi:schemaLocation="http://www.topografix.com/GPX/1/1 http://www.topografix.com/GPX/1/1/gpx.xsd" version="1.1" creator="VisuGPX - https://www.visugpx.com">
  <metadata>
    <name>Terwagne Linchet Terwagne</name>
  </metadata>
  <trk>
    <name><![CDATA[Terwagne Linchet Terwagne_1]]></name>
    <trkseg>
      <trkpt lat="50.44277" lon="5.33034">
        <ele>231.9</ele>
        <time>2020-08-18T12:38:04Z</time>
      </trkpt>
      <trkpt lat="50.44277" lon="5.33034">
        <ele>231.9</ele>
        <time>2020-08-18T12:38:05Z</time>
      </trkpt>
      <trkpt lat="50.44276" lon="5.33035">
        <ele>231.9</ele>
        <time>2020-08-18T12:38:06Z</time>
      </trkpt>
      <trkpt lat="50.44275" lon="5.33036">
        <ele>231.9</ele>
        <time>2020-08-18T12:38:07Z</time>
      </trkpt>
      <trkpt lat="50.44275" lon="5.33037">
        <ele>231.9</ele>
        <time>2020-08-18T12:38:08Z</time>
      </trkpt>
      <trkpt lat="50.44274" lon="5.33037">
        <ele>231.9</ele>
        <time>2020-08-18T12:38:09Z</time>
      </trkpt>
      <trkpt lat="50.44274" lon="5.33037">
        <ele>231.9</ele>
        <time>2020-08-18T12:38:10Z</time>
      </trkpt>
      <trkpt lat="50.44273" lon="5.33036">
        <ele>231.9</ele>
        <time>2020-08-18T12:38:11Z</time>
      </trkpt>
      <trkpt lat="50.44273" lon="5.33035">
        <ele>232</ele>
        <time>2020-08-18T12:38:12Z</time>
      </trkpt>
      <trkpt lat="50.44273" lon="5.33034">
        <ele>232</ele>
        <time>2020-08-18T12:38:13Z</time>
      </trkpt>
      <trkpt lat="50.44273" lon="5.33032">
        <ele>232</ele>
        <time>2020-08-18T12:38:14Z</time>
      </trkpt>
      <trkpt lat="50.44273" lon="5.3303">
        <ele>232</ele>
        <time>2020-08-18T12:38:15Z</time>
      </trkpt>
      <trkpt lat="50.44272" lon="5.33029">
        <ele>232</ele>
        <time>2020-08-18T12:38:16Z</time>
      </trkpt>
      <trkpt lat="50.44271" lon="5.33027">
        <ele>232</ele>
        <time>2020-08-18T12:38:17Z</time>
      </trkpt>
      <trkpt lat="50.4427" lon="5.33025">
        <ele>232.1</ele>
        <time>2020-08-18T12:38:18Z</time>
      </trkpt>
      <trkpt lat="50.4427" lon="5.33024">
        <ele>232.1</ele>
        <time>2020-08-18T12:38:19Z</time>
      </trkpt>
      <trkpt lat="50.44269" lon="5.33022">
        <ele>232.1</ele>
        <time>2020-08-18T12:38:20Z</time>
      </trkpt>
      <trkpt lat="50.44268" lon="5.33021">
        <ele>232.1</ele>
        <time>2020-08-18T12:38:21Z</time>
      </trkpt>
      <trkpt lat="50.44268" lon="5.33019">
        <ele>232.2</ele>
        <time>2020-08-18T12:38:22Z</time>
      </trkpt>
      <trkpt lat="50.44267" lon="5.33017">
        <ele>232.2</ele>
        <time>2020-08-18T12:38:23Z</time>
      </trkpt>
      <trkpt lat="50.44267" lon="5.33014">
        <ele>232.2</ele>
        <time>2020-08-18T12:38:24Z</time>
      </trkpt>
      <trkpt lat="50.44266" lon="5.3301">
        <ele>232.3</ele>
        <time>2020-08-18T12:38:25Z</time>
      </trkpt>
      <trkpt lat="50.44266" lon="5.33005">
        <ele>232.4</ele>
        <time>2020-08-18T12:38:26Z</time>
      </trkpt>
      <trkpt lat="50.44265" lon="5.33001">
        <ele>232.4</ele>
        <time>2020-08-18T12:38:27Z</time>
      </trkpt>
      <trkpt lat="50.44265" lon="5.32998">
        <ele>232.3</ele>
        <time>2020-08-18T12:38:28Z</time>
      </trkpt>
      <trkpt lat="50.44264" lon="5.32995">
        <ele>232.3</ele>
        <time>2020-08-18T12:38:29Z</time>
      </trkpt>
      <trkpt lat="50.44263" lon="5.32994">
        <ele>232.3</ele>
        <time>2020-08-18T12:38:30Z</time>
      </trkpt>
      <trkpt lat="50.44262" lon="5.32992">
        <ele>232.3</ele>
        <time>2020-08-18T12:38:31Z</time>
      </trkpt>
      <trkpt lat="50.4426" lon="5.32991">
        <ele>232.3</ele>
        <time>2020-08-18T12:38:32Z</time>
      </trkpt>
      <trkpt lat="50.44259" lon="5.3299">
        <ele>232.3</ele>
        <time>2020-08-18T12:38:33Z</time>
      </trkpt>
      <trkpt lat="50.44259" lon="5.32989">
        <ele>232.3</ele>
        <time>2020-08-18T12:38:34Z</time>
      </trkpt>
      <trkpt lat="50.44259" lon="5.32988">
        <ele>232.3</ele>
        <time>2020-08-18T12:38:35Z</time>
      </trkpt>
      <trkpt lat="50.44259" lon="5.32986">
        <ele>232.2</ele>
        <time>2020-08-18T12:38:36Z</time>
      </trkpt>
      <trkpt lat="50.44259" lon="5.32985">
        <ele>232.2</ele>
        <time>2020-08-18T12:38:37Z</time>
      </trkpt>
      <trkpt lat="50.44258" lon="5.32984">
        <ele>232.2</ele>
        <time>2020-08-18T12:38:38Z</time>
      </trkpt>
      <trkpt lat="50.44258" lon="5.32982">
        <ele>232.1</ele>
        <time>2020-08-18T12:38:39Z</time>
      </trkpt>
      <trkpt lat="50.44257" lon="5.3298">
        <ele>232.1</ele>
        <time>2020-08-18T12:38:40Z</time>
      </trkpt>
      <trkpt lat="50.44257" lon="5.32978">
        <ele>232.1</ele>
        <time>2020-08-18T12:38:41Z</time>
      </trkpt>
      <trkpt lat="50.44257" lon="5.32976">
        <ele>232</ele>
        <time>2020-08-18T12:38:42Z</time>
      </trkpt>
      <trkpt lat="50.44255" lon="5.32976">
        <ele>232</ele>
        <time>2020-08-18T12:38:43Z</time>
      </trkpt>
      <trkpt lat="50.44254" lon="5.32975">
        <ele>232</ele>
        <time>2020-08-18T12:38:44Z</time>
      </trkpt>
      <trkpt lat="50.44253" lon="5.32975">
        <ele>232</ele>
        <time>2020-08-18T12:38:45Z</time>
      </trkpt>
      <trkpt lat="50.44251" lon="5.32975">
        <ele>232</ele>
        <time>2020-08-18T12:38:46Z</time>
      </trkpt>
      <trkpt lat="50.44251" lon="5.32974">
        <ele>232</ele>
        <time>2020-08-18T12:38:47Z</time>
      </trkpt>
      <trkpt lat="50.4425" lon="5.32974">
        <ele>232</ele>
        <time>2020-08-18T12:38:48Z</time>
      </trkpt>
      <trkpt lat="50.44249" lon="5.32973">
        <ele>232</ele>
        <time>2020-08-18T12:38:49Z</time>
      </trkpt>
      <trkpt lat="50.44249" lon="5.32972">
        <ele>232</ele>
        <time>2020-08-18T12:38:50Z</time>
      </trkpt>
      <trkpt lat="50.44249" lon="5.32972">
        <ele>232</ele>
        <time>2020-08-18T12:38:51Z</time>
      </trkpt>
      <trkpt lat="50.44249" lon="5.32971">
        <ele>232</ele>
        <time>2020-08-18T12:38:52Z</time>
      </trkpt>
      <trkpt lat="50.44249" lon="5.3297">
        <ele>231.9</ele>
        <time>2020-08-18T12:38:53Z</time>
      </trkpt>
      <trkpt lat="50.44248" lon="5.32969">
        <ele>231.9</ele>
        <time>2020-08-18T12:38:54Z</time>
      </trkpt>
      <trkpt lat="50.44247" lon="5.32968">
        <ele>231.9</ele>
        <time>2020-08-18T12:38:55Z</time>
      </trkpt>
      <trkpt lat="50.44247" lon="5.32968">
        <ele>231.9</ele>
        <time>2020-08-18T12:38:56Z</time>
      </trkpt>
      <trkpt lat="50.44246" lon="5.32969">
        <ele>231.9</ele>
        <time>2020-08-18T12:38:57Z</time>
      </trkpt>
      <trkpt lat="50.44244" lon="5.32969">
        <ele>231.9</ele>
        <time>2020-08-18T12:38:58Z</time>
      </trkpt>
      <trkpt lat="50.44243" lon="5.32969">
        <ele>231.9</ele>
        <time>2020-08-18T12:38:59Z</time>
      </trkpt>
      <trkpt lat="50.44241" lon="5.32968">
        <ele>231.9</ele>
        <time>2020-08-18T12:39:00Z</time>
      </trkpt>
      <trkpt lat="50.44241" lon="5.32968">
        <ele>231.9</ele>
        <time>2020-08-18T12:39:01Z</time>
      </trkpt>
      <trkpt lat="50.44239" lon="5.32968">
        <ele>231.9</ele>
        <time>2020-08-18T12:39:02Z</time>
      </trkpt>
      <trkpt lat="50.44239" lon="5.32968">
        <ele>231.9</ele>
        <time>2020-08-18T12:39:03Z</time>
      </trkpt>
      <trkpt lat="50.44238" lon="5.32968">
        <ele>231.8</ele>
        <time>2020-08-18T12:39:04Z</time>
      </trkpt>
      <trkpt lat="50.44237" lon="5.32967">
        <ele>231.8</ele>
        <time>2020-08-18T12:39:05Z</time>
      </trkpt>
      <trkpt lat="50.44237" lon="5.32966">
        <ele>231.8</ele>
        <time>2020-08-18T12:39:06Z</time>
      </trkpt>
      <trkpt lat="50.44236" lon="5.32965">
        <ele>231.8</ele>
        <time>2020-08-18T12:39:07Z</time>
      </trkpt>
      <trkpt lat="50.44235" lon="5.32964">
        <ele>231.8</ele>
        <time>2020-08-18T12:39:08Z</time>
      </trkpt>
      <trkpt lat="50.44234" lon="5.32963">
        <ele>231.7</ele>
        <time>2020-08-18T12:39:09Z</time>
      </trkpt>
      <trkpt lat="50.44233" lon="5.32962">
        <ele>231.7</ele>
        <time>2020-08-18T12:39:10Z</time>
      </trkpt>
      <trkpt lat="50.44232" lon="5.32961">
        <ele>231.7</ele>
        <time>2020-08-18T12:39:11Z</time>
      </trkpt>
      <trkpt lat="50.44231" lon="5.3296">
        <ele>231.7</ele>
        <time>2020-08-18T12:39:12Z</time>
      </trkpt>
      <trkpt lat="50.44231" lon="5.32958">
        <ele>231.6</ele>
        <time>2020-08-18T12:39:13Z</time>
      </trkpt>
      <trkpt lat="50.4423" lon="5.32956">
        <ele>231.6</ele>
        <time>2020-08-18T12:39:14Z</time>
      </trkpt>
      <trkpt lat="50.4423" lon="5.32954">
        <ele>231.5</ele>
        <time>2020-08-18T12:39:15Z</time>
      </trkpt>
      <trkpt lat="50.4423" lon="5.32952">
        <ele>231.5</ele>
        <time>2020-08-18T12:39:16Z</time>
      </trkpt>
      <trkpt lat="50.4423" lon="5.3295">
        <ele>231.5</ele>
        <time>2020-08-18T12:39:17Z</time>
      </trkpt>
      <trkpt lat="50.4423" lon="5.32948">
        <ele>231.4</ele>
        <time>2020-08-18T12:39:18Z</time>
      </trkpt>
      <trkpt lat="50.4423" lon="5.32946">
        <ele>231.4</ele>
        <time>2020-08-18T12:39:19Z</time>
      </trkpt>
      <trkpt lat="50.44229" lon="5.32945">
        <ele>231.4</ele>
        <time>2020-08-18T12:39:20Z</time>
      </trkpt>
      <trkpt lat="50.44229" lon="5.32943">
        <ele>231.4</ele>
        <time>2020-08-18T12:39:21Z</time>
      </trkpt>
      <trkpt lat="50.44228" lon="5.32942">
        <ele>231.4</ele>
        <time>2020-08-18T12:39:22Z</time>
      </trkpt>
      <trkpt lat="50.44228" lon="5.32941">
        <ele>231.3</ele>
        <time>2020-08-18T12:39:23Z</time>
      </trkpt>
      <trkpt lat="50.44227" lon="5.3294">
        <ele>231.3</ele>
        <time>2020-08-18T12:39:24Z</time>
      </trkpt>
      <trkpt lat="50.44227" lon="5.32939">
        <ele>231.3</ele>
        <time>2020-08-18T12:39:25Z</time>
      </trkpt>
      <trkpt lat="50.44226" lon="5.32939">
        <ele>231.3</ele>
        <time>2020-08-18T12:39:26Z</time>
      </trkpt>
      <trkpt lat="50.44225" lon="5.32938">
        <ele>231.3</ele>
        <time>2020-08-18T12:39:27Z</time>
      </trkpt>
      <trkpt lat="50.44223" lon="5.32937">
        <ele>231.3</ele>
        <time>2020-08-18T12:39:28Z</time>
      </trkpt>
      <trkpt lat="50.44223" lon="5.32937">
        <ele>231.3</ele>
        <time>2020-08-18T12:39:29Z</time>
      </trkpt>
      <trkpt lat="50.44221" lon="5.32936">
        <ele>231.2</ele>
        <time>2020-08-18T12:39:30Z</time>
      </trkpt>
      <trkpt lat="50.44219" lon="5.32935">
        <ele>231.2</ele>
        <time>2020-08-18T12:39:31Z</time>
      </trkpt>
      <trkpt lat="50.44219" lon="5.32934">
        <ele>231.2</ele>
        <time>2020-08-18T12:39:32Z</time>
      </trkpt>
      <trkpt lat="50.44217" lon="5.32932">
        <ele>231.2</ele>
        <time>2020-08-18T12:39:34Z</time>
      </trkpt>
      <trkpt lat="50.44217" lon="5.32932">
        <ele>231.2</ele>
        <time>2020-08-18T12:39:35Z</time>
      </trkpt>
      <trkpt lat="50.44217" lon="5.32932">
        <ele>231.2</ele>
        <time>2020-08-18T12:39:36Z</time>
      </trkpt>
      <trkpt lat="50.44217" lon="5.32931">
        <ele>231.2</ele>
        <time>2020-08-18T12:39:37Z</time>
      </trkpt>
      <trkpt lat="50.44217" lon="5.3293">
        <ele>231.1</ele>
        <time>2020-08-18T12:39:38Z</time>
      </trkpt>
      <trkpt lat="50.44217" lon="5.32929">
        <ele>231.1</ele>
        <time>2020-08-18T12:39:39Z</time>
      </trkpt>
      <trkpt lat="50.44217" lon="5.32927">
        <ele>231.1</ele>
        <time>2020-08-18T12:39:40Z</time>
      </trkpt>
      <trkpt lat="50.44217" lon="5.32926">
        <ele>231.1</ele>
        <time>2020-08-18T12:39:41Z</time>
      </trkpt>
      <trkpt lat="50.44217" lon="5.32925">
        <ele>231.1</ele>
        <time>2020-08-18T12:39:42Z</time>
      </trkpt>
      <trkpt lat="50.44217" lon="5.32924">
        <ele>231.1</ele>
        <time>2020-08-18T12:39:43Z</time>
      </trkpt>
      <trkpt lat="50.44218" lon="5.32923">
        <ele>231.1</ele>
        <time>2020-08-18T12:39:44Z</time>
      </trkpt>
      <trkpt lat="50.44219" lon="5.32922">
        <ele>231.1</ele>
        <time>2020-08-18T12:39:45Z</time>
      </trkpt>
      <trkpt lat="50.4422" lon="5.3292">
        <ele>231.1</ele>
        <time>2020-08-18T12:39:46Z</time>
      </trkpt>
      <trkpt lat="50.44221" lon="5.32918">
        <ele>231.1</ele>
        <time>2020-08-18T12:39:47Z</time>
      </trkpt>
      <trkpt lat="50.4422" lon="5.32916">
        <ele>227.7</ele>
        <time>2020-08-18T12:39:48Z</time>
      </trkpt>
      <trkpt lat="50.4422" lon="5.32915">
        <ele>227.7</ele>
        <time>2020-08-18T12:39:49Z</time>
      </trkpt>
      <trkpt lat="50.4422" lon="5.32914">
        <ele>227.7</ele>
        <time>2020-08-18T12:39:50Z</time>
      </trkpt>
      <trkpt lat="50.44219" lon="5.32913">
        <ele>227.6</ele>
        <time>2020-08-18T12:39:51Z</time>
      </trkpt>
      <trkpt lat="50.44219" lon="5.32912">
        <ele>227.6</ele>
        <time>2020-08-18T12:39:52Z</time>
      </trkpt>
      <trkpt lat="50.44218" lon="5.32911">
        <ele>227.5</ele>
        <time>2020-08-18T12:39:53Z</time>
      </trkpt>
      <trkpt lat="50.44218" lon="5.3291">
        <ele>227.5</ele>
        <time>2020-08-18T12:39:54Z</time>
      </trkpt>
      <trkpt lat="50.44217" lon="5.32909">
        <ele>227.4</ele>
        <time>2020-08-18T12:39:55Z</time>
      </trkpt>
      <trkpt lat="50.44217" lon="5.32909">
        <ele>227.4</ele>
        <time>2020-08-18T12:39:56Z</time>
      </trkpt>
      <trkpt lat="50.44217" lon="5.32908">
        <ele>227.4</ele>
        <time>2020-08-18T12:39:57Z</time>
      </trkpt>
      <trkpt lat="50.44216" lon="5.32907">
        <ele>227.3</ele>
        <time>2020-08-18T12:39:58Z</time>
      </trkpt>
      <trkpt lat="50.44215" lon="5.32907">
        <ele>227.3</ele>
        <time>2020-08-18T12:39:59Z</time>
      </trkpt>
      <trkpt lat="50.44214" lon="5.32906">
        <ele>227.2</ele>
        <time>2020-08-18T12:40:00Z</time>
      </trkpt>
      <trkpt lat="50.44214" lon="5.32906">
        <ele>227.2</ele>
        <time>2020-08-18T12:40:01Z</time>
      </trkpt>
      <trkpt lat="50.44213" lon="5.32906">
        <ele>227.2</ele>
        <time>2020-08-18T12:40:02Z</time>
      </trkpt>
      <trkpt lat="50.44212" lon="5.32905">
        <ele>227.2</ele>
        <time>2020-08-18T12:40:03Z</time>
      </trkpt>
      <trkpt lat="50.44211" lon="5.32906">
        <ele>227.2</ele>
        <time>2020-08-18T12:40:04Z</time>
      </trkpt>
      <trkpt lat="50.4421" lon="5.32905">
        <ele>227.1</ele>
        <time>2020-08-18T12:40:05Z</time>
      </trkpt>
      <trkpt lat="50.44209" lon="5.32904">
        <ele>227.1</ele>
        <time>2020-08-18T12:40:06Z</time>
      </trkpt>
      <trkpt lat="50.44209" lon="5.32903">
        <ele>227</ele>
        <time>2020-08-18T12:40:07Z</time>
      </trkpt>
      <trkpt lat="50.44209" lon="5.32901">
        <ele>227</ele>
        <time>2020-08-18T12:40:08Z</time>
      </trkpt>
      <trkpt lat="50.44209" lon="5.32898">
        <ele>226.8</ele>
        <time>2020-08-18T12:40:09Z</time>
      </trkpt>
      <trkpt lat="50.44209" lon="5.32896">
        <ele>226.8</ele>
        <time>2020-08-18T12:40:10Z</time>
      </trkpt>
      <trkpt lat="50.44208" lon="5.32894">
        <ele>226.7</ele>
        <time>2020-08-18T12:40:11Z</time>
      </trkpt>
      <trkpt lat="50.44208" lon="5.32892">
        <ele>226.6</ele>
        <time>2020-08-18T12:40:12Z</time>
      </trkpt>
      <trkpt lat="50.44207" lon="5.3289">
        <ele>226.5</ele>
        <time>2020-08-18T12:40:13Z</time>
      </trkpt>
      <trkpt lat="50.44207" lon="5.32889">
        <ele>226.4</ele>
        <time>2020-08-18T12:40:14Z</time>
      </trkpt>
      <trkpt lat="50.44206" lon="5.32888">
        <ele>226.4</ele>
        <time>2020-08-18T12:40:15Z</time>
      </trkpt>
      <trkpt lat="50.44206" lon="5.32887">
        <ele>226.3</ele>
        <time>2020-08-18T12:40:16Z</time>
      </trkpt>
      <trkpt lat="50.44205" lon="5.32887">
        <ele>226.3</ele>
        <time>2020-08-18T12:40:17Z</time>
      </trkpt>
      <trkpt lat="50.44204" lon="5.32886">
        <ele>226.2</ele>
        <time>2020-08-18T12:40:18Z</time>
      </trkpt>
      <trkpt lat="50.44204" lon="5.32886">
        <ele>226.2</ele>
        <time>2020-08-18T12:40:19Z</time>
      </trkpt>
      <trkpt lat="50.44202" lon="5.32886">
        <ele>226.2</ele>
        <time>2020-08-18T12:40:20Z</time>
      </trkpt>
      <trkpt lat="50.44202" lon="5.32887">
        <ele>226.3</ele>
        <time>2020-08-18T12:40:21Z</time>
      </trkpt>
      <trkpt lat="50.44201" lon="5.32887">
        <ele>226.3</ele>
        <time>2020-08-18T12:40:22Z</time>
      </trkpt>
      <trkpt lat="50.442" lon="5.32887">
        <ele>226.3</ele>
        <time>2020-08-18T12:40:23Z</time>
      </trkpt>
      <trkpt lat="50.44199" lon="5.32887">
        <ele>226.2</ele>
        <time>2020-08-18T12:40:24Z</time>
      </trkpt>
      <trkpt lat="50.44198" lon="5.32886">
        <ele>226.2</ele>
        <time>2020-08-18T12:40:25Z</time>
      </trkpt>
      <trkpt lat="50.44198" lon="5.32886">
        <ele>226.2</ele>
        <time>2020-08-18T12:40:26Z</time>
      </trkpt>
      <trkpt lat="50.44198" lon="5.32884">
        <ele>226.1</ele>
        <time>2020-08-18T12:40:27Z</time>
      </trkpt>
      <trkpt lat="50.44198" lon="5.32883">
        <ele>226</ele>
        <time>2020-08-18T12:40:28Z</time>
      </trkpt>
      <trkpt lat="50.44198" lon="5.32882">
        <ele>226</ele>
        <time>2020-08-18T12:40:29Z</time>
      </trkpt>
      <trkpt lat="50.44196" lon="5.32881">
        <ele>225.9</ele>
        <time>2020-08-18T12:40:30Z</time>
      </trkpt>
      <trkpt lat="50.44196" lon="5.3288">
        <ele>225.8</ele>
        <time>2020-08-18T12:40:31Z</time>
      </trkpt>
      <trkpt lat="50.44195" lon="5.3288">
        <ele>225.8</ele>
        <time>2020-08-18T12:40:32Z</time>
      </trkpt>
      <trkpt lat="50.44193" lon="5.3288">
        <ele>225.8</ele>
        <time>2020-08-18T12:40:33Z</time>
      </trkpt>
      <trkpt lat="50.44192" lon="5.3288">
        <ele>225.8</ele>
        <time>2020-08-18T12:40:34Z</time>
      </trkpt>
      <trkpt lat="50.44191" lon="5.32879">
        <ele>225.7</ele>
        <time>2020-08-18T12:40:35Z</time>
      </trkpt>
      <trkpt lat="50.4419" lon="5.32878">
        <ele>225.7</ele>
        <time>2020-08-18T12:40:36Z</time>
      </trkpt>
      <trkpt lat="50.44189" lon="5.32877">
        <ele>225.6</ele>
        <time>2020-08-18T12:40:37Z</time>
      </trkpt>
      <trkpt lat="50.44188" lon="5.32875">
        <ele>225.5</ele>
        <time>2020-08-18T12:40:38Z</time>
      </trkpt>
      <trkpt lat="50.44187" lon="5.32873">
        <ele>225.3</ele>
        <time>2020-08-18T12:40:39Z</time>
      </trkpt>
      <trkpt lat="50.44187" lon="5.32872">
        <ele>225.3</ele>
        <time>2020-08-18T12:40:40Z</time>
      </trkpt>
      <trkpt lat="50.44186" lon="5.3287">
        <ele>225.1</ele>
        <time>2020-08-18T12:40:41Z</time>
      </trkpt>
      <trkpt lat="50.44186" lon="5.32869">
        <ele>225</ele>
        <time>2020-08-18T12:40:42Z</time>
      </trkpt>
      <trkpt lat="50.44185" lon="5.32868">
        <ele>224.9</ele>
        <time>2020-08-18T12:40:43Z</time>
      </trkpt>
      <trkpt lat="50.44184" lon="5.32867">
        <ele>224.9</ele>
        <time>2020-08-18T12:40:44Z</time>
      </trkpt>
      <trkpt lat="50.44184" lon="5.32866">
        <ele>224.8</ele>
        <time>2020-08-18T12:40:45Z</time>
      </trkpt>
      <trkpt lat="50.44183" lon="5.32865">
        <ele>224.7</ele>
        <time>2020-08-18T12:40:46Z</time>
      </trkpt>
      <trkpt lat="50.44183" lon="5.32864">
        <ele>224.6</ele>
        <time>2020-08-18T12:40:47Z</time>
      </trkpt>
      <trkpt lat="50.44183" lon="5.32863">
        <ele>224.5</ele>
        <time>2020-08-18T12:40:48Z</time>
      </trkpt>
      <trkpt lat="50.44183" lon="5.32862">
        <ele>224.5</ele>
        <time>2020-08-18T12:40:49Z</time>
      </trkpt>
      <trkpt lat="50.44183" lon="5.32861">
        <ele>224.4</ele>
        <time>2020-08-18T12:40:50Z</time>
      </trkpt>
      <trkpt lat="50.44184" lon="5.32861">
        <ele>224.4</ele>
        <time>2020-08-18T12:40:51Z</time>
      </trkpt>
      <trkpt lat="50.44184" lon="5.3286">
        <ele>224.3</ele>
        <time>2020-08-18T12:40:52Z</time>
      </trkpt>
      <trkpt lat="50.44186" lon="5.32861">
        <ele>224.5</ele>
        <time>2020-08-18T12:40:56Z</time>
      </trkpt>
      <trkpt lat="50.44186" lon="5.32862">
        <ele>224.5</ele>
        <time>2020-08-18T12:40:57Z</time>
      </trkpt>
      <trkpt lat="50.44186" lon="5.32862">
        <ele>224.5</ele>
        <time>2020-08-18T12:40:58Z</time>
      </trkpt>
      <trkpt lat="50.44187" lon="5.32862">
        <ele>224.6</ele>
        <time>2020-08-18T12:40:59Z</time>
      </trkpt>
      <trkpt lat="50.44187" lon="5.32862">
        <ele>224.6</ele>
        <time>2020-08-18T12:41:00Z</time>
      </trkpt>
      <trkpt lat="50.44187" lon="5.32861">
        <ele>224.5</ele>
        <time>2020-08-18T12:41:01Z</time>
      </trkpt>
      <trkpt lat="50.44188" lon="5.32861">
        <ele>224.5</ele>
        <time>2020-08-18T12:41:02Z</time>
      </trkpt>
      <trkpt lat="50.44188" lon="5.32861">
        <ele>224.5</ele>
        <time>2020-08-18T12:41:03Z</time>
      </trkpt>
      <trkpt lat="50.44188" lon="5.3286">
        <ele>224.5</ele>
        <time>2020-08-18T12:41:04Z</time>
      </trkpt>
      <trkpt lat="50.44188" lon="5.32859">
        <ele>224.4</ele>
        <time>2020-08-18T12:41:05Z</time>
      </trkpt>
      <trkpt lat="50.44188" lon="5.32858">
        <ele>224.3</ele>
        <time>2020-08-18T12:41:06Z</time>
      </trkpt>
      <trkpt lat="50.44188" lon="5.32858">
        <ele>224.3</ele>
        <time>2020-08-18T12:41:07Z</time>
      </trkpt>
      <trkpt lat="50.44188" lon="5.32857">
        <ele>224.3</ele>
        <time>2020-08-18T12:41:08Z</time>
      </trkpt>
      <trkpt lat="50.44187" lon="5.32856">
        <ele>224.2</ele>
        <time>2020-08-18T12:41:09Z</time>
      </trkpt>
      <trkpt lat="50.44187" lon="5.32854">
        <ele>224</ele>
        <time>2020-08-18T12:41:10Z</time>
      </trkpt>
      <trkpt lat="50.44186" lon="5.32853">
        <ele>223.9</ele>
        <time>2020-08-18T12:41:11Z</time>
      </trkpt>
      <trkpt lat="50.44186" lon="5.32852">
        <ele>223.8</ele>
        <time>2020-08-18T12:41:12Z</time>
      </trkpt>
      <trkpt lat="50.44186" lon="5.32851">
        <ele>223.8</ele>
        <time>2020-08-18T12:41:13Z</time>
      </trkpt>
      <trkpt lat="50.44186" lon="5.32849">
        <ele>223.6</ele>
        <time>2020-08-18T12:41:14Z</time>
      </trkpt>
      <trkpt lat="50.44186" lon="5.32847">
        <ele>223.5</ele>
        <time>2020-08-18T12:41:15Z</time>
      </trkpt>
      <trkpt lat="50.44186" lon="5.32845">
        <ele>223.4</ele>
        <time>2020-08-18T12:41:16Z</time>
      </trkpt>
      <trkpt lat="50.44186" lon="5.32843">
        <ele>223.3</ele>
        <time>2020-08-18T12:41:17Z</time>
      </trkpt>
      <trkpt lat="50.44187" lon="5.32841">
        <ele>223.2</ele>
        <time>2020-08-18T12:41:18Z</time>
      </trkpt>
      <trkpt lat="50.44187" lon="5.32839">
        <ele>223.1</ele>
        <time>2020-08-18T12:41:19Z</time>
      </trkpt>
      <trkpt lat="50.44187" lon="5.32836">
        <ele>223</ele>
        <time>2020-08-18T12:41:20Z</time>
      </trkpt>
      <trkpt lat="50.44187" lon="5.32834">
        <ele>223</ele>
        <time>2020-08-18T12:41:21Z</time>
      </trkpt>
      <trkpt lat="50.44187" lon="5.32832">
        <ele>220.7</ele>
        <time>2020-08-18T12:41:22Z</time>
      </trkpt>
      <trkpt lat="50.44187" lon="5.32829">
        <ele>220.7</ele>
        <time>2020-08-18T12:41:23Z</time>
      </trkpt>
      <trkpt lat="50.44187" lon="5.32828">
        <ele>220.7</ele>
        <time>2020-08-18T12:41:24Z</time>
      </trkpt>
      <trkpt lat="50.44187" lon="5.32827">
        <ele>220.7</ele>
        <time>2020-08-18T12:41:25Z</time>
      </trkpt>
      <trkpt lat="50.44187" lon="5.32825">
        <ele>220.7</ele>
        <time>2020-08-18T12:41:26Z</time>
      </trkpt>
      <trkpt lat="50.44187" lon="5.32824">
        <ele>220.7</ele>
        <time>2020-08-18T12:41:27Z</time>
      </trkpt>
      <trkpt lat="50.44187" lon="5.32822">
        <ele>220.7</ele>
        <time>2020-08-18T12:41:28Z</time>
      </trkpt>
      <trkpt lat="50.44187" lon="5.32821">
        <ele>220.7</ele>
        <time>2020-08-18T12:41:29Z</time>
      </trkpt>
      <trkpt lat="50.44188" lon="5.32819">
        <ele>220.7</ele>
        <time>2020-08-18T12:41:30Z</time>
      </trkpt>
      <trkpt lat="50.44188" lon="5.32817">
        <ele>220.7</ele>
        <time>2020-08-18T12:41:31Z</time>
      </trkpt>
      <trkpt lat="50.44189" lon="5.32815">
        <ele>220.8</ele>
        <time>2020-08-18T12:41:32Z</time>
      </trkpt>
      <trkpt lat="50.4419" lon="5.32813">
        <ele>220.8</ele>
        <time>2020-08-18T12:41:33Z</time>
      </trkpt>
      <trkpt lat="50.4419" lon="5.3281">
        <ele>220.8</ele>
        <time>2020-08-18T12:41:34Z</time>
      </trkpt>
      <trkpt lat="50.4419" lon="5.32808">
        <ele>220.8</ele>
        <time>2020-08-18T12:41:35Z</time>
      </trkpt>
      <trkpt lat="50.4419" lon="5.32806">
        <ele>220.8</ele>
        <time>2020-08-18T12:41:36Z</time>
      </trkpt>
      <trkpt lat="50.4419" lon="5.32803">
        <ele>220.8</ele>
        <time>2020-08-18T12:41:37Z</time>
      </trkpt>
      <trkpt lat="50.4419" lon="5.32801">
        <ele>220.8</ele>
        <time>2020-08-18T12:41:38Z</time>
      </trkpt>
      <trkpt lat="50.44189" lon="5.32799">
        <ele>220.8</ele>
        <time>2020-08-18T12:41:39Z</time>
      </trkpt>
      <trkpt lat="50.44189" lon="5.32797">
        <ele>220.8</ele>
        <time>2020-08-18T12:41:40Z</time>
      </trkpt>
      <trkpt lat="50.44188" lon="5.32796">
        <ele>220.8</ele>
        <time>2020-08-18T12:41:41Z</time>
      </trkpt>
      <trkpt lat="50.44188" lon="5.32795">
        <ele>220.8</ele>
        <time>2020-08-18T12:41:42Z</time>
      </trkpt>
      <trkpt lat="50.44188" lon="5.32794">
        <ele>220.8</ele>
        <time>2020-08-18T12:41:43Z</time>
      </trkpt>
      <trkpt lat="50.44187" lon="5.32793">
        <ele>220.8</ele>
        <time>2020-08-18T12:41:44Z</time>
      </trkpt>
      <trkpt lat="50.44187" lon="5.32792">
        <ele>220.8</ele>
        <time>2020-08-18T12:41:45Z</time>
      </trkpt>
      <trkpt lat="50.44187" lon="5.32791">
        <ele>220.8</ele>
        <time>2020-08-18T12:41:46Z</time>
      </trkpt>
      <trkpt lat="50.44186" lon="5.3279">
        <ele>220.7</ele>
        <time>2020-08-18T12:41:47Z</time>
      </trkpt>
      <trkpt lat="50.44186" lon="5.32788">
        <ele>220.7</ele>
        <time>2020-08-18T12:41:48Z</time>
      </trkpt>
      <trkpt lat="50.44185" lon="5.32787">
        <ele>220.7</ele>
        <time>2020-08-18T12:41:49Z</time>
      </trkpt>
      <trkpt lat="50.44185" lon="5.32786">
        <ele>220.7</ele>
        <time>2020-08-18T12:41:50Z</time>
      </trkpt>
      <trkpt lat="50.44184" lon="5.32785">
        <ele>220.7</ele>
        <time>2020-08-18T12:41:51Z</time>
      </trkpt>
      <trkpt lat="50.44184" lon="5.32785">
        <ele>220.7</ele>
        <time>2020-08-18T12:41:52Z</time>
      </trkpt>
      <trkpt lat="50.44184" lon="5.32784">
        <ele>220.7</ele>
        <time>2020-08-18T12:41:53Z</time>
      </trkpt>
      <trkpt lat="50.44183" lon="5.32783">
        <ele>220.7</ele>
        <time>2020-08-18T12:41:54Z</time>
      </trkpt>
      <trkpt lat="50.44183" lon="5.32783">
        <ele>220.7</ele>
        <time>2020-08-18T12:41:55Z</time>
      </trkpt>
      <trkpt lat="50.44183" lon="5.32781">
        <ele>220.7</ele>
        <time>2020-08-18T12:41:56Z</time>
      </trkpt>
      <trkpt lat="50.44183" lon="5.3278">
        <ele>220.7</ele>
        <time>2020-08-18T12:41:57Z</time>
      </trkpt>
      <trkpt lat="50.44182" lon="5.32779">
        <ele>220.7</ele>
        <time>2020-08-18T12:41:58Z</time>
      </trkpt>
      <trkpt lat="50.44182" lon="5.32777">
        <ele>220.6</ele>
        <time>2020-08-18T12:41:59Z</time>
      </trkpt>
      <trkpt lat="50.44182" lon="5.32776">
        <ele>220.6</ele>
        <time>2020-08-18T12:42:00Z</time>
      </trkpt>
      <trkpt lat="50.44181" lon="5.32774">
        <ele>220.6</ele>
        <time>2020-08-18T12:42:01Z</time>
      </trkpt>
      <trkpt lat="50.44181" lon="5.32772">
        <ele>220.6</ele>
        <time>2020-08-18T12:42:02Z</time>
      </trkpt>
      <trkpt lat="50.44181" lon="5.32771">
        <ele>220.6</ele>
        <time>2020-08-18T12:42:03Z</time>
      </trkpt>
      <trkpt lat="50.44181" lon="5.3277">
        <ele>220.6</ele>
        <time>2020-08-18T12:42:04Z</time>
      </trkpt>
      <trkpt lat="50.44181" lon="5.32769">
        <ele>220.6</ele>
        <time>2020-08-18T12:42:05Z</time>
      </trkpt>
      <trkpt lat="50.44181" lon="5.32769">
        <ele>220.6</ele>
        <time>2020-08-18T12:42:06Z</time>
      </trkpt>
      <trkpt lat="50.44181" lon="5.32768">
        <ele>220.5</ele>
        <time>2020-08-18T12:42:07Z</time>
      </trkpt>
      <trkpt lat="50.44182" lon="5.32767">
        <ele>220.6</ele>
        <time>2020-08-18T12:42:08Z</time>
      </trkpt>
      <trkpt lat="50.44183" lon="5.32767">
        <ele>220.6</ele>
        <time>2020-08-18T12:42:09Z</time>
      </trkpt>
      <trkpt lat="50.44183" lon="5.32766">
        <ele>220.6</ele>
        <time>2020-08-18T12:42:10Z</time>
      </trkpt>
      <trkpt lat="50.44183" lon="5.32765">
        <ele>220.5</ele>
        <time>2020-08-18T12:42:11Z</time>
      </trkpt>
      <trkpt lat="50.44183" lon="5.32765">
        <ele>220.5</ele>
        <time>2020-08-18T12:42:12Z</time>
      </trkpt>
      <trkpt lat="50.44182" lon="5.32764">
        <ele>220.5</ele>
        <time>2020-08-18T12:42:13Z</time>
      </trkpt>
      <trkpt lat="50.44181" lon="5.32763">
        <ele>220.5</ele>
        <time>2020-08-18T12:42:14Z</time>
      </trkpt>
      <trkpt lat="50.44181" lon="5.32762">
        <ele>220.5</ele>
        <time>2020-08-18T12:42:15Z</time>
      </trkpt>
      <trkpt lat="50.4418" lon="5.3276">
        <ele>220.4</ele>
        <time>2020-08-18T12:42:16Z</time>
      </trkpt>
      <trkpt lat="50.4418" lon="5.32758">
        <ele>220.4</ele>
        <time>2020-08-18T12:42:17Z</time>
      </trkpt>
      <trkpt lat="50.44179" lon="5.32756">
        <ele>220.4</ele>
        <time>2020-08-18T12:42:18Z</time>
      </trkpt>
      <trkpt lat="50.44178" lon="5.32754">
        <ele>220.4</ele>
        <time>2020-08-18T12:42:18Z</time>
      </trkpt>
      <trkpt lat="50.44177" lon="5.32752">
        <ele>220.3</ele>
        <time>2020-08-18T12:42:19Z</time>
      </trkpt>
      <trkpt lat="50.44177" lon="5.3275">
        <ele>221.4</ele>
        <time>2020-08-18T12:42:20Z</time>
      </trkpt>
      <trkpt lat="50.44177" lon="5.32749">
        <ele>221.4</ele>
        <time>2020-08-18T12:42:21Z</time>
      </trkpt>
      <trkpt lat="50.44176" lon="5.32747">
        <ele>221.4</ele>
        <time>2020-08-18T12:42:22Z</time>
      </trkpt>
      <trkpt lat="50.44175" lon="5.32745">
        <ele>221.4</ele>
        <time>2020-08-18T12:42:23Z</time>
      </trkpt>
      <trkpt lat="50.44175" lon="5.32743">
        <ele>221.5</ele>
        <time>2020-08-18T12:42:24Z</time>
      </trkpt>
      <trkpt lat="50.44174" lon="5.32742">
        <ele>221.5</ele>
        <time>2020-08-18T12:42:25Z</time>
      </trkpt>
      <trkpt lat="50.44174" lon="5.3274">
        <ele>221.7</ele>
        <time>2020-08-18T12:42:26Z</time>
      </trkpt>
      <trkpt lat="50.44173" lon="5.32739">
        <ele>221.8</ele>
        <time>2020-08-18T12:42:27Z</time>
      </trkpt>
      <trkpt lat="50.44173" lon="5.32737">
        <ele>222</ele>
        <time>2020-08-18T12:42:28Z</time>
      </trkpt>
      <trkpt lat="50.44173" lon="5.32736">
        <ele>222.1</ele>
        <time>2020-08-18T12:42:29Z</time>
      </trkpt>
      <trkpt lat="50.44172" lon="5.32735">
        <ele>222.1</ele>
        <time>2020-08-18T12:42:30Z</time>
      </trkpt>
      <trkpt lat="50.44172" lon="5.32734">
        <ele>222.2</ele>
        <time>2020-08-18T12:42:31Z</time>
      </trkpt>
      <trkpt lat="50.44172" lon="5.32733">
        <ele>222.3</ele>
        <time>2020-08-18T12:42:32Z</time>
      </trkpt>
      <trkpt lat="50.44172" lon="5.32731">
        <ele>222.5</ele>
        <time>2020-08-18T12:42:33Z</time>
      </trkpt>
      <trkpt lat="50.44171" lon="5.3273">
        <ele>222.6</ele>
        <time>2020-08-18T12:42:34Z</time>
      </trkpt>
      <trkpt lat="50.44171" lon="5.32728">
        <ele>222.8</ele>
        <time>2020-08-18T12:42:35Z</time>
      </trkpt>
      <trkpt lat="50.4417" lon="5.32727">
        <ele>222.9</ele>
        <time>2020-08-18T12:42:36Z</time>
      </trkpt>
      <trkpt lat="50.44169" lon="5.32726">
        <ele>223</ele>
        <time>2020-08-18T12:42:37Z</time>
      </trkpt>
      <trkpt lat="50.44168" lon="5.32725">
        <ele>223</ele>
        <time>2020-08-18T12:42:38Z</time>
      </trkpt>
      <trkpt lat="50.44168" lon="5.32723">
        <ele>223.2</ele>
        <time>2020-08-18T12:42:39Z</time>
      </trkpt>
      <trkpt lat="50.44167" lon="5.32722">
        <ele>223.3</ele>
        <time>2020-08-18T12:42:40Z</time>
      </trkpt>
      <trkpt lat="50.44166" lon="5.32721">
        <ele>226.1</ele>
        <time>2020-08-18T12:42:41Z</time>
      </trkpt>
      <trkpt lat="50.44166" lon="5.32719">
        <ele>226.4</ele>
        <time>2020-08-18T12:42:42Z</time>
      </trkpt>
      <trkpt lat="50.44165" lon="5.32717">
        <ele>226.6</ele>
        <time>2020-08-18T12:42:43Z</time>
      </trkpt>
      <trkpt lat="50.44165" lon="5.32716">
        <ele>226.7</ele>
        <time>2020-08-18T12:42:44Z</time>
      </trkpt>
      <trkpt lat="50.44164" lon="5.32715">
        <ele>226.9</ele>
        <time>2020-08-18T12:42:45Z</time>
      </trkpt>
      <trkpt lat="50.44164" lon="5.32713">
        <ele>227.1</ele>
        <time>2020-08-18T12:42:46Z</time>
      </trkpt>
      <trkpt lat="50.44164" lon="5.32711">
        <ele>227.3</ele>
        <time>2020-08-18T12:42:47Z</time>
      </trkpt>
      <trkpt lat="50.44163" lon="5.3271">
        <ele>227.4</ele>
        <time>2020-08-18T12:42:48Z</time>
      </trkpt>
      <trkpt lat="50.44163" lon="5.32709">
        <ele>227.5</ele>
        <time>2020-08-18T12:42:49Z</time>
      </trkpt>
      <trkpt lat="50.44162" lon="5.32707">
        <ele>227.7</ele>
        <time>2020-08-18T12:42:50Z</time>
      </trkpt>
      <trkpt lat="50.44161" lon="5.32706">
        <ele>227.8</ele>
        <time>2020-08-18T12:42:51Z</time>
      </trkpt>
      <trkpt lat="50.4416" lon="5.32704">
        <ele>228</ele>
        <time>2020-08-18T12:42:52Z</time>
      </trkpt>
      <trkpt lat="50.44159" lon="5.32703">
        <ele>228.1</ele>
        <time>2020-08-18T12:42:53Z</time>
      </trkpt>
      <trkpt lat="50.44157" lon="5.32702">
        <ele>228.2</ele>
        <time>2020-08-18T12:42:54Z</time>
      </trkpt>
      <trkpt lat="50.44157" lon="5.32701">
        <ele>228.3</ele>
        <time>2020-08-18T12:42:55Z</time>
      </trkpt>
      <trkpt lat="50.44156" lon="5.327">
        <ele>228.4</ele>
        <time>2020-08-18T12:42:56Z</time>
      </trkpt>
      <trkpt lat="50.44156" lon="5.32699">
        <ele>228.5</ele>
        <time>2020-08-18T12:42:57Z</time>
      </trkpt>
      <trkpt lat="50.44155" lon="5.32698">
        <ele>228.6</ele>
        <time>2020-08-18T12:42:58Z</time>
      </trkpt>
      <trkpt lat="50.44154" lon="5.32697">
        <ele>228.6</ele>
        <time>2020-08-18T12:42:59Z</time>
      </trkpt>
      <trkpt lat="50.44154" lon="5.32696">
        <ele>228.7</ele>
        <time>2020-08-18T12:43:00Z</time>
      </trkpt>
      <trkpt lat="50.44154" lon="5.32696">
        <ele>228.7</ele>
        <time>2020-08-18T12:43:01Z</time>
      </trkpt>
      <trkpt lat="50.44153" lon="5.32695">
        <ele>228.8</ele>
        <time>2020-08-18T12:43:03Z</time>
      </trkpt>
      <trkpt lat="50.44153" lon="5.32694">
        <ele>228.9</ele>
        <time>2020-08-18T12:43:04Z</time>
      </trkpt>
      <trkpt lat="50.44153" lon="5.32694">
        <ele>228.9</ele>
        <time>2020-08-18T12:43:05Z</time>
      </trkpt>
      <trkpt lat="50.44152" lon="5.32694">
        <ele>228.9</ele>
        <time>2020-08-18T12:43:06Z</time>
      </trkpt>
      <trkpt lat="50.44151" lon="5.32695">
        <ele>228.8</ele>
        <time>2020-08-18T12:43:08Z</time>
      </trkpt>
      <trkpt lat="50.44151" lon="5.32694">
        <ele>228.9</ele>
        <time>2020-08-18T12:43:09Z</time>
      </trkpt>
      <trkpt lat="50.44151" lon="5.32694">
        <ele>228.9</ele>
        <time>2020-08-18T12:43:10Z</time>
      </trkpt>
      <trkpt lat="50.4415" lon="5.32693">
        <ele>229</ele>
        <time>2020-08-18T12:43:11Z</time>
      </trkpt>
      <trkpt lat="50.4415" lon="5.32692">
        <ele>229</ele>
        <time>2020-08-18T12:43:12Z</time>
      </trkpt>
      <trkpt lat="50.44149" lon="5.32692">
        <ele>229</ele>
        <time>2020-08-18T12:43:13Z</time>
      </trkpt>
      <trkpt lat="50.44149" lon="5.32691">
        <ele>229.1</ele>
        <time>2020-08-18T12:43:14Z</time>
      </trkpt>
      <trkpt lat="50.44148" lon="5.3269">
        <ele>229.1</ele>
        <time>2020-08-18T12:43:15Z</time>
      </trkpt>
      <trkpt lat="50.44148" lon="5.32689">
        <ele>229.2</ele>
        <time>2020-08-18T12:43:16Z</time>
      </trkpt>
      <trkpt lat="50.44148" lon="5.32688">
        <ele>229.3</ele>
        <time>2020-08-18T12:43:17Z</time>
      </trkpt>
      <trkpt lat="50.44148" lon="5.32686">
        <ele>229.4</ele>
        <time>2020-08-18T12:43:18Z</time>
      </trkpt>
      <trkpt lat="50.44148" lon="5.32684">
        <ele>229.5</ele>
        <time>2020-08-18T12:43:19Z</time>
      </trkpt>
      <trkpt lat="50.44148" lon="5.32683">
        <ele>229.5</ele>
        <time>2020-08-18T12:43:20Z</time>
      </trkpt>
      <trkpt lat="50.44148" lon="5.32681">
        <ele>229.6</ele>
        <time>2020-08-18T12:43:21Z</time>
      </trkpt>
      <trkpt lat="50.44148" lon="5.32679">
        <ele>229.7</ele>
        <time>2020-08-18T12:43:22Z</time>
      </trkpt>
      <trkpt lat="50.44148" lon="5.32678">
        <ele>229.7</ele>
        <time>2020-08-18T12:43:23Z</time>
      </trkpt>
      <trkpt lat="50.44148" lon="5.32677">
        <ele>229.8</ele>
        <time>2020-08-18T12:43:24Z</time>
      </trkpt>
      <trkpt lat="50.44148" lon="5.32675">
        <ele>229.8</ele>
        <time>2020-08-18T12:43:25Z</time>
      </trkpt>
      <trkpt lat="50.44148" lon="5.32674">
        <ele>229.9</ele>
        <time>2020-08-18T12:43:26Z</time>
      </trkpt>
      <trkpt lat="50.44147" lon="5.32673">
        <ele>229.9</ele>
        <time>2020-08-18T12:43:27Z</time>
      </trkpt>
      <trkpt lat="50.44147" lon="5.32672">
        <ele>229.9</ele>
        <time>2020-08-18T12:43:28Z</time>
      </trkpt>
      <trkpt lat="50.44146" lon="5.32671">
        <ele>229.9</ele>
        <time>2020-08-18T12:43:29Z</time>
      </trkpt>
      <trkpt lat="50.44146" lon="5.3267">
        <ele>230</ele>
        <time>2020-08-18T12:43:30Z</time>
      </trkpt>
      <trkpt lat="50.44145" lon="5.32669">
        <ele>230</ele>
        <time>2020-08-18T12:43:31Z</time>
      </trkpt>
      <trkpt lat="50.44145" lon="5.32668">
        <ele>230</ele>
        <time>2020-08-18T12:43:32Z</time>
      </trkpt>
      <trkpt lat="50.44144" lon="5.32667">
        <ele>230</ele>
        <time>2020-08-18T12:43:33Z</time>
      </trkpt>
      <trkpt lat="50.44144" lon="5.32667">
        <ele>230</ele>
        <time>2020-08-18T12:43:34Z</time>
      </trkpt>
      <trkpt lat="50.44144" lon="5.32666">
        <ele>233.4</ele>
        <time>2020-08-18T12:43:35Z</time>
      </trkpt>
      <trkpt lat="50.44143" lon="5.32666">
        <ele>233.5</ele>
        <time>2020-08-18T12:43:36Z</time>
      </trkpt>
      <trkpt lat="50.44143" lon="5.32665">
        <ele>233.5</ele>
        <time>2020-08-18T12:43:37Z</time>
      </trkpt>
      <trkpt lat="50.44142" lon="5.32664">
        <ele>233.5</ele>
        <time>2020-08-18T12:43:38Z</time>
      </trkpt>
      <trkpt lat="50.44141" lon="5.32664">
        <ele>233.6</ele>
        <time>2020-08-18T12:43:39Z</time>
      </trkpt>
      <trkpt lat="50.44141" lon="5.32663">
        <ele>233.6</ele>
        <time>2020-08-18T12:43:40Z</time>
      </trkpt>
      <trkpt lat="50.44141" lon="5.32662">
        <ele>233.6</ele>
        <time>2020-08-18T12:43:41Z</time>
      </trkpt>
      <trkpt lat="50.4414" lon="5.32661">
        <ele>233.7</ele>
        <time>2020-08-18T12:43:42Z</time>
      </trkpt>
      <trkpt lat="50.4414" lon="5.3266">
        <ele>233.7</ele>
        <time>2020-08-18T12:43:43Z</time>
      </trkpt>
      <trkpt lat="50.44139" lon="5.32659">
        <ele>233.8</ele>
        <time>2020-08-18T12:43:44Z</time>
      </trkpt>
      <trkpt lat="50.44138" lon="5.32658">
        <ele>233.9</ele>
        <time>2020-08-18T12:43:45Z</time>
      </trkpt>
      <trkpt lat="50.44138" lon="5.32658">
        <ele>233.9</ele>
        <time>2020-08-18T12:43:46Z</time>
      </trkpt>
      <trkpt lat="50.44138" lon="5.32657">
        <ele>233.9</ele>
        <time>2020-08-18T12:43:47Z</time>
      </trkpt>
      <trkpt lat="50.44138" lon="5.32656">
        <ele>233.9</ele>
        <time>2020-08-18T12:43:48Z</time>
      </trkpt>
      <trkpt lat="50.44138" lon="5.32656">
        <ele>233.9</ele>
        <time>2020-08-18T12:43:49Z</time>
      </trkpt>
      <trkpt lat="50.44138" lon="5.32655">
        <ele>233.9</ele>
        <time>2020-08-18T12:43:50Z</time>
      </trkpt>
      <trkpt lat="50.44137" lon="5.32655">
        <ele>234</ele>
        <time>2020-08-18T12:43:51Z</time>
      </trkpt>
      <trkpt lat="50.44136" lon="5.32654">
        <ele>234</ele>
        <time>2020-08-18T12:43:52Z</time>
      </trkpt>
      <trkpt lat="50.44136" lon="5.32653">
        <ele>234.1</ele>
        <time>2020-08-18T12:43:53Z</time>
      </trkpt>
      <trkpt lat="50.44136" lon="5.32652">
        <ele>234.1</ele>
        <time>2020-08-18T12:43:54Z</time>
      </trkpt>
      <trkpt lat="50.44136" lon="5.3265">
        <ele>234.1</ele>
        <time>2020-08-18T12:43:55Z</time>
      </trkpt>
      <trkpt lat="50.44135" lon="5.32647">
        <ele>234.3</ele>
        <time>2020-08-18T12:43:56Z</time>
      </trkpt>
      <trkpt lat="50.44135" lon="5.32645">
        <ele>234.3</ele>
        <time>2020-08-18T12:43:57Z</time>
      </trkpt>
      <trkpt lat="50.44133" lon="5.32642">
        <ele>234.4</ele>
        <time>2020-08-18T12:43:58Z</time>
      </trkpt>
      <trkpt lat="50.44132" lon="5.32639">
        <ele>234.6</ele>
        <time>2020-08-18T12:43:59Z</time>
      </trkpt>
      <trkpt lat="50.44132" lon="5.32638">
        <ele>234.6</ele>
        <time>2020-08-18T12:44:00Z</time>
      </trkpt>
      <trkpt lat="50.44132" lon="5.32637">
        <ele>234.6</ele>
        <time>2020-08-18T12:44:01Z</time>
      </trkpt>
      <trkpt lat="50.44132" lon="5.32635">
        <ele>234.7</ele>
        <time>2020-08-18T12:44:03Z</time>
      </trkpt>
      <trkpt lat="50.44132" lon="5.32634">
        <ele>234.7</ele>
        <time>2020-08-18T12:44:04Z</time>
      </trkpt>
      <trkpt lat="50.44132" lon="5.32633">
        <ele>234.7</ele>
        <time>2020-08-18T12:44:05Z</time>
      </trkpt>
      <trkpt lat="50.44132" lon="5.32633">
        <ele>234.7</ele>
        <time>2020-08-18T12:44:06Z</time>
      </trkpt>
      <trkpt lat="50.44132" lon="5.32632">
        <ele>234.8</ele>
        <time>2020-08-18T12:44:07Z</time>
      </trkpt>
      <trkpt lat="50.44133" lon="5.3263">
        <ele>234.8</ele>
        <time>2020-08-18T12:44:08Z</time>
      </trkpt>
      <trkpt lat="50.44133" lon="5.32629">
        <ele>234.8</ele>
        <time>2020-08-18T12:44:09Z</time>
      </trkpt>
      <trkpt lat="50.44133" lon="5.32628">
        <ele>234.9</ele>
        <time>2020-08-18T12:44:10Z</time>
      </trkpt>
      <trkpt lat="50.44133" lon="5.32627">
        <ele>234.9</ele>
        <time>2020-08-18T12:44:11Z</time>
      </trkpt>
      <trkpt lat="50.44133" lon="5.32625">
        <ele>235</ele>
        <time>2020-08-18T12:44:12Z</time>
      </trkpt>
      <trkpt lat="50.44132" lon="5.32624">
        <ele>235</ele>
        <time>2020-08-18T12:44:13Z</time>
      </trkpt>
      <trkpt lat="50.44132" lon="5.32623">
        <ele>235</ele>
        <time>2020-08-18T12:44:14Z</time>
      </trkpt>
      <trkpt lat="50.4413" lon="5.32622">
        <ele>235.1</ele>
        <time>2020-08-18T12:44:15Z</time>
      </trkpt>
      <trkpt lat="50.44129" lon="5.32621">
        <ele>235.1</ele>
        <time>2020-08-18T12:44:16Z</time>
      </trkpt>
      <trkpt lat="50.44128" lon="5.32621">
        <ele>235.1</ele>
        <time>2020-08-18T12:44:17Z</time>
      </trkpt>
      <trkpt lat="50.44128" lon="5.32621">
        <ele>235.1</ele>
        <time>2020-08-18T12:44:18Z</time>
      </trkpt>
      <trkpt lat="50.44127" lon="5.3262">
        <ele>235.1</ele>
        <time>2020-08-18T12:44:19Z</time>
      </trkpt>
      <trkpt lat="50.44127" lon="5.3262">
        <ele>235.1</ele>
        <time>2020-08-18T12:44:20Z</time>
      </trkpt>
      <trkpt lat="50.44126" lon="5.32619">
        <ele>235.1</ele>
        <time>2020-08-18T12:44:21Z</time>
      </trkpt>
      <trkpt lat="50.44126" lon="5.32618">
        <ele>235.2</ele>
        <time>2020-08-18T12:44:22Z</time>
      </trkpt>
      <trkpt lat="50.44126" lon="5.32617">
        <ele>235.2</ele>
        <time>2020-08-18T12:44:23Z</time>
      </trkpt>
      <trkpt lat="50.44126" lon="5.32617">
        <ele>235.2</ele>
        <time>2020-08-18T12:44:24Z</time>
      </trkpt>
      <trkpt lat="50.44125" lon="5.32616">
        <ele>235.2</ele>
        <time>2020-08-18T12:44:25Z</time>
      </trkpt>
      <trkpt lat="50.44124" lon="5.32615">
        <ele>235.2</ele>
        <time>2020-08-18T12:44:26Z</time>
      </trkpt>
      <trkpt lat="50.44124" lon="5.32614">
        <ele>235.3</ele>
        <time>2020-08-18T12:44:27Z</time>
      </trkpt>
      <trkpt lat="50.44124" lon="5.32614">
        <ele>235.3</ele>
        <time>2020-08-18T12:44:28Z</time>
      </trkpt>
      <trkpt lat="50.44123" lon="5.32612">
        <ele>235.3</ele>
        <time>2020-08-18T12:44:30Z</time>
      </trkpt>
      <trkpt lat="50.44123" lon="5.32612">
        <ele>235.3</ele>
        <time>2020-08-18T12:44:31Z</time>
      </trkpt>
      <trkpt lat="50.44122" lon="5.32612">
        <ele>235.3</ele>
        <time>2020-08-18T12:44:32Z</time>
      </trkpt>
      <trkpt lat="50.44122" lon="5.32612">
        <ele>235.3</ele>
        <time>2020-08-18T12:44:33Z</time>
      </trkpt>
      <trkpt lat="50.44122" lon="5.32611">
        <ele>235.3</ele>
        <time>2020-08-18T12:44:34Z</time>
      </trkpt>
      <trkpt lat="50.4412" lon="5.3261">
        <ele>235.3</ele>
        <time>2020-08-18T12:44:35Z</time>
      </trkpt>
      <trkpt lat="50.4412" lon="5.32609">
        <ele>235.4</ele>
        <time>2020-08-18T12:44:36Z</time>
      </trkpt>
      <trkpt lat="50.4412" lon="5.32608">
        <ele>235.4</ele>
        <time>2020-08-18T12:44:37Z</time>
      </trkpt>
      <trkpt lat="50.4412" lon="5.32607">
        <ele>235.4</ele>
        <time>2020-08-18T12:44:38Z</time>
      </trkpt>
      <trkpt lat="50.44119" lon="5.32606">
        <ele>235.4</ele>
        <time>2020-08-18T12:44:39Z</time>
      </trkpt>
      <trkpt lat="50.44119" lon="5.32605">
        <ele>235.4</ele>
        <time>2020-08-18T12:44:40Z</time>
      </trkpt>
      <trkpt lat="50.44119" lon="5.32604">
        <ele>235.4</ele>
        <time>2020-08-18T12:44:41Z</time>
      </trkpt>
      <trkpt lat="50.44119" lon="5.32602">
        <ele>235.5</ele>
        <time>2020-08-18T12:44:42Z</time>
      </trkpt>
      <trkpt lat="50.44119" lon="5.32601">
        <ele>235.5</ele>
        <time>2020-08-18T12:44:43Z</time>
      </trkpt>
      <trkpt lat="50.44119" lon="5.326">
        <ele>235.5</ele>
        <time>2020-08-18T12:44:44Z</time>
      </trkpt>
      <trkpt lat="50.44119" lon="5.32598">
        <ele>235.5</ele>
        <time>2020-08-18T12:44:45Z</time>
      </trkpt>
      <trkpt lat="50.44119" lon="5.32597">
        <ele>235.6</ele>
        <time>2020-08-18T12:44:46Z</time>
      </trkpt>
      <trkpt lat="50.44119" lon="5.32596">
        <ele>235.6</ele>
        <time>2020-08-18T12:44:47Z</time>
      </trkpt>
      <trkpt lat="50.44119" lon="5.32595">
        <ele>235.6</ele>
        <time>2020-08-18T12:44:48Z</time>
      </trkpt>
      <trkpt lat="50.44119" lon="5.32594">
        <ele>235.6</ele>
        <time>2020-08-18T12:44:49Z</time>
      </trkpt>
      <trkpt lat="50.44119" lon="5.32593">
        <ele>235.6</ele>
        <time>2020-08-18T12:44:50Z</time>
      </trkpt>
      <trkpt lat="50.44118" lon="5.32592">
        <ele>235.6</ele>
        <time>2020-08-18T12:44:51Z</time>
      </trkpt>
      <trkpt lat="50.44117" lon="5.32591">
        <ele>235.6</ele>
        <time>2020-08-18T12:44:52Z</time>
      </trkpt>
      <trkpt lat="50.44117" lon="5.32589">
        <ele>235.6</ele>
        <time>2020-08-18T12:44:53Z</time>
      </trkpt>
      <trkpt lat="50.44117" lon="5.32587">
        <ele>235.7</ele>
        <time>2020-08-18T12:44:54Z</time>
      </trkpt>
      <trkpt lat="50.44118" lon="5.32586">
        <ele>235.7</ele>
        <time>2020-08-18T12:44:55Z</time>
      </trkpt>
      <trkpt lat="50.44117" lon="5.32585">
        <ele>235.7</ele>
        <time>2020-08-18T12:44:56Z</time>
      </trkpt>
      <trkpt lat="50.44117" lon="5.32585">
        <ele>235.7</ele>
        <time>2020-08-18T12:44:57Z</time>
      </trkpt>
      <trkpt lat="50.44117" lon="5.32585">
        <ele>235.7</ele>
        <time>2020-08-18T12:44:58Z</time>
      </trkpt>
      <trkpt lat="50.44116" lon="5.32585">
        <ele>235.7</ele>
        <time>2020-08-18T12:44:59Z</time>
      </trkpt>
      <trkpt lat="50.44115" lon="5.32585">
        <ele>235.7</ele>
        <time>2020-08-18T12:45:00Z</time>
      </trkpt>
      <trkpt lat="50.44114" lon="5.32584">
        <ele>235.7</ele>
        <time>2020-08-18T12:45:01Z</time>
      </trkpt>
      <trkpt lat="50.44113" lon="5.32583">
        <ele>237.2</ele>
        <time>2020-08-18T12:45:02Z</time>
      </trkpt>
      <trkpt lat="50.44112" lon="5.32583">
        <ele>237.2</ele>
        <time>2020-08-18T12:45:03Z</time>
      </trkpt>
      <trkpt lat="50.44112" lon="5.32582">
        <ele>237.2</ele>
        <time>2020-08-18T12:45:04Z</time>
      </trkpt>
      <trkpt lat="50.44111" lon="5.32581">
        <ele>237.2</ele>
        <time>2020-08-18T12:45:05Z</time>
      </trkpt>
      <trkpt lat="50.44111" lon="5.32581">
        <ele>237.2</ele>
        <time>2020-08-18T12:45:06Z</time>
      </trkpt>
      <trkpt lat="50.44111" lon="5.3258">
        <ele>237.2</ele>
        <time>2020-08-18T12:45:07Z</time>
      </trkpt>
      <trkpt lat="50.44111" lon="5.32579">
        <ele>237.2</ele>
        <time>2020-08-18T12:45:08Z</time>
      </trkpt>
      <trkpt lat="50.44111" lon="5.32579">
        <ele>237.2</ele>
        <time>2020-08-18T12:45:09Z</time>
      </trkpt>
      <trkpt lat="50.44111" lon="5.32578">
        <ele>237.2</ele>
        <time>2020-08-18T12:45:10Z</time>
      </trkpt>
      <trkpt lat="50.44111" lon="5.32577">
        <ele>237.2</ele>
        <time>2020-08-18T12:45:11Z</time>
      </trkpt>
      <trkpt lat="50.44111" lon="5.32576">
        <ele>237.2</ele>
        <time>2020-08-18T12:45:12Z</time>
      </trkpt>
      <trkpt lat="50.44111" lon="5.32575">
        <ele>237.2</ele>
        <time>2020-08-18T12:45:13Z</time>
      </trkpt>
      <trkpt lat="50.44111" lon="5.32574">
        <ele>237.2</ele>
        <time>2020-08-18T12:45:14Z</time>
      </trkpt>
      <trkpt lat="50.44111" lon="5.32573">
        <ele>237.2</ele>
        <time>2020-08-18T12:45:15Z</time>
      </trkpt>
      <trkpt lat="50.4411" lon="5.32573">
        <ele>237.2</ele>
        <time>2020-08-18T12:45:16Z</time>
      </trkpt>
      <trkpt lat="50.44109" lon="5.32572">
        <ele>237.2</ele>
        <time>2020-08-18T12:45:17Z</time>
      </trkpt>
      <trkpt lat="50.44109" lon="5.32571">
        <ele>237.2</ele>
        <time>2020-08-18T12:45:18Z</time>
      </trkpt>
      <trkpt lat="50.44109" lon="5.3257">
        <ele>237.2</ele>
        <time>2020-08-18T12:45:19Z</time>
      </trkpt>
      <trkpt lat="50.44109" lon="5.32569">
        <ele>237.2</ele>
        <time>2020-08-18T12:45:20Z</time>
      </trkpt>
      <trkpt lat="50.44108" lon="5.32568">
        <ele>237.2</ele>
        <time>2020-08-18T12:45:21Z</time>
      </trkpt>
      <trkpt lat="50.44108" lon="5.32567">
        <ele>237.2</ele>
        <time>2020-08-18T12:45:22Z</time>
      </trkpt>
      <trkpt lat="50.44107" lon="5.32567">
        <ele>237.2</ele>
        <time>2020-08-18T12:45:23Z</time>
      </trkpt>
      <trkpt lat="50.44105" lon="5.32565">
        <ele>237.2</ele>
        <time>2020-08-18T12:45:25Z</time>
      </trkpt>
      <trkpt lat="50.44105" lon="5.32565">
        <ele>237.2</ele>
        <time>2020-08-18T12:45:26Z</time>
      </trkpt>
      <trkpt lat="50.44105" lon="5.32565">
        <ele>237.2</ele>
        <time>2020-08-18T12:45:27Z</time>
      </trkpt>
      <trkpt lat="50.44104" lon="5.32565">
        <ele>237.2</ele>
        <time>2020-08-18T12:45:28Z</time>
      </trkpt>
      <trkpt lat="50.44103" lon="5.32564">
        <ele>237.2</ele>
        <time>2020-08-18T12:45:29Z</time>
      </trkpt>
      <trkpt lat="50.44102" lon="5.32563">
        <ele>237.2</ele>
        <time>2020-08-18T12:45:30Z</time>
      </trkpt>
      <trkpt lat="50.44101" lon="5.32562">
        <ele>237.2</ele>
        <time>2020-08-18T12:45:31Z</time>
      </trkpt>
      <trkpt lat="50.44101" lon="5.3256">
        <ele>237.2</ele>
        <time>2020-08-18T12:45:32Z</time>
      </trkpt>
      <trkpt lat="50.44099" lon="5.32558">
        <ele>237.2</ele>
        <time>2020-08-18T12:45:33Z</time>
      </trkpt>
      <trkpt lat="50.44099" lon="5.32556">
        <ele>237.2</ele>
        <time>2020-08-18T12:45:34Z</time>
      </trkpt>
      <trkpt lat="50.44098" lon="5.32554">
        <ele>237.2</ele>
        <time>2020-08-18T12:45:35Z</time>
      </trkpt>
      <trkpt lat="50.44096" lon="5.32552">
        <ele>237.2</ele>
        <time>2020-08-18T12:45:36Z</time>
      </trkpt>
      <trkpt lat="50.44096" lon="5.32552">
        <ele>237.2</ele>
        <time>2020-08-18T12:45:37Z</time>
      </trkpt>
      <trkpt lat="50.44095" lon="5.32552">
        <ele>237.2</ele>
        <time>2020-08-18T12:45:38Z</time>
      </trkpt>
      <trkpt lat="50.44093" lon="5.32551">
        <ele>237.2</ele>
        <time>2020-08-18T12:45:40Z</time>
      </trkpt>
      <trkpt lat="50.44093" lon="5.32552">
        <ele>237.2</ele>
        <time>2020-08-18T12:45:42Z</time>
      </trkpt>
      <trkpt lat="50.44093" lon="5.32553">
        <ele>237.2</ele>
        <time>2020-08-18T12:45:44Z</time>
      </trkpt>
      <trkpt lat="50.44093" lon="5.32553">
        <ele>237.2</ele>
        <time>2020-08-18T12:45:45Z</time>
      </trkpt>
      <trkpt lat="50.44093" lon="5.32554">
        <ele>237.2</ele>
        <time>2020-08-18T12:45:46Z</time>
      </trkpt>
      <trkpt lat="50.44093" lon="5.32554">
        <ele>237.2</ele>
        <time>2020-08-18T12:45:47Z</time>
      </trkpt>
      <trkpt lat="50.44091" lon="5.32555">
        <ele>237.1</ele>
        <time>2020-08-18T12:45:48Z</time>
      </trkpt>
      <trkpt lat="50.44091" lon="5.32556">
        <ele>237.1</ele>
        <time>2020-08-18T12:45:49Z</time>
      </trkpt>
      <trkpt lat="50.4409" lon="5.32556">
        <ele>237.1</ele>
        <time>2020-08-18T12:45:50Z</time>
      </trkpt>
      <trkpt lat="50.44091" lon="5.32557">
        <ele>237.1</ele>
        <time>2020-08-18T12:45:51Z</time>
      </trkpt>
      <trkpt lat="50.44091" lon="5.32557">
        <ele>237.1</ele>
        <time>2020-08-18T12:45:52Z</time>
      </trkpt>
      <trkpt lat="50.44091" lon="5.32558">
        <ele>237.1</ele>
        <time>2020-08-18T12:45:53Z</time>
      </trkpt>
      <trkpt lat="50.44091" lon="5.32558">
        <ele>237.1</ele>
        <time>2020-08-18T12:45:54Z</time>
      </trkpt>
      <trkpt lat="50.44091" lon="5.32559">
        <ele>237.1</ele>
        <time>2020-08-18T12:45:55Z</time>
      </trkpt>
      <trkpt lat="50.44091" lon="5.32559">
        <ele>237.1</ele>
        <time>2020-08-18T12:45:56Z</time>
      </trkpt>
      <trkpt lat="50.44092" lon="5.3256">
        <ele>237</ele>
        <time>2020-08-18T12:45:57Z</time>
      </trkpt>
      <trkpt lat="50.44092" lon="5.32561">
        <ele>237</ele>
        <time>2020-08-18T12:45:58Z</time>
      </trkpt>
      <trkpt lat="50.44092" lon="5.32563">
        <ele>237</ele>
        <time>2020-08-18T12:45:59Z</time>
      </trkpt>
      <trkpt lat="50.44091" lon="5.32564">
        <ele>236.9</ele>
        <time>2020-08-18T12:46:00Z</time>
      </trkpt>
      <trkpt lat="50.4409" lon="5.32566">
        <ele>236.9</ele>
        <time>2020-08-18T12:46:01Z</time>
      </trkpt>
      <trkpt lat="50.4409" lon="5.32568">
        <ele>236.8</ele>
        <time>2020-08-18T12:46:02Z</time>
      </trkpt>
      <trkpt lat="50.44088" lon="5.32569">
        <ele>236.8</ele>
        <time>2020-08-18T12:46:03Z</time>
      </trkpt>
      <trkpt lat="50.44087" lon="5.3257">
        <ele>236.7</ele>
        <time>2020-08-18T12:46:04Z</time>
      </trkpt>
      <trkpt lat="50.44087" lon="5.32571">
        <ele>236.7</ele>
        <time>2020-08-18T12:46:05Z</time>
      </trkpt>
      <trkpt lat="50.44085" lon="5.32572">
        <ele>236.6</ele>
        <time>2020-08-18T12:46:06Z</time>
      </trkpt>
      <trkpt lat="50.44084" lon="5.32573">
        <ele>236.6</ele>
        <time>2020-08-18T12:46:07Z</time>
      </trkpt>
      <trkpt lat="50.44083" lon="5.32574">
        <ele>236.5</ele>
        <time>2020-08-18T12:46:08Z</time>
      </trkpt>
      <trkpt lat="50.44083" lon="5.32574">
        <ele>236.5</ele>
        <time>2020-08-18T12:46:09Z</time>
      </trkpt>
      <trkpt lat="50.44082" lon="5.32574">
        <ele>236.5</ele>
        <time>2020-08-18T12:46:10Z</time>
      </trkpt>
      <trkpt lat="50.44082" lon="5.32573">
        <ele>236.5</ele>
        <time>2020-08-18T12:46:11Z</time>
      </trkpt>
      <trkpt lat="50.44081" lon="5.32573">
        <ele>236.5</ele>
        <time>2020-08-18T12:46:12Z</time>
      </trkpt>
      <trkpt lat="50.44081" lon="5.32572">
        <ele>236.5</ele>
        <time>2020-08-18T12:46:13Z</time>
      </trkpt>
      <trkpt lat="50.44081" lon="5.32572">
        <ele>236.5</ele>
        <time>2020-08-18T12:46:14Z</time>
      </trkpt>
      <trkpt lat="50.44081" lon="5.32572">
        <ele>236.5</ele>
        <time>2020-08-18T12:46:15Z</time>
      </trkpt>
      <trkpt lat="50.44081" lon="5.32571">
        <ele>236.6</ele>
        <time>2020-08-18T12:46:16Z</time>
      </trkpt>
      <trkpt lat="50.44081" lon="5.32571">
        <ele>236.6</ele>
        <time>2020-08-18T12:46:17Z</time>
      </trkpt>
      <trkpt lat="50.4408" lon="5.32571">
        <ele>236.6</ele>
        <time>2020-08-18T12:46:18Z</time>
      </trkpt>
      <trkpt lat="50.4408" lon="5.3257">
        <ele>236.6</ele>
        <time>2020-08-18T12:46:19Z</time>
      </trkpt>
      <trkpt lat="50.4408" lon="5.3257">
        <ele>236.6</ele>
        <time>2020-08-18T12:46:20Z</time>
      </trkpt>
      <trkpt lat="50.4408" lon="5.3257">
        <ele>236.6</ele>
        <time>2020-08-18T12:46:21Z</time>
      </trkpt>
      <trkpt lat="50.4408" lon="5.3257">
        <ele>236.6</ele>
        <time>2020-08-18T12:46:22Z</time>
      </trkpt>
      <trkpt lat="50.4408" lon="5.3257">
        <ele>236.6</ele>
        <time>2020-08-18T12:46:23Z</time>
      </trkpt>
      <trkpt lat="50.4408" lon="5.32571">
        <ele>236.6</ele>
        <time>2020-08-18T12:46:24Z</time>
      </trkpt>
      <trkpt lat="50.44081" lon="5.32571">
        <ele>236.6</ele>
        <time>2020-08-18T12:46:57Z</time>
      </trkpt>
      <trkpt lat="50.44081" lon="5.32571">
        <ele>236.6</ele>
        <time>2020-08-18T12:46:58Z</time>
      </trkpt>
      <trkpt lat="50.44081" lon="5.32571">
        <ele>236.6</ele>
        <time>2020-08-18T12:46:59Z</time>
      </trkpt>
      <trkpt lat="50.4408" lon="5.32572">
        <ele>236.6</ele>
        <time>2020-08-18T12:47:00Z</time>
      </trkpt>
      <trkpt lat="50.44078" lon="5.3257">
        <ele>236.6</ele>
        <time>2020-08-18T12:47:03Z</time>
      </trkpt>
      <trkpt lat="50.44078" lon="5.32569">
        <ele>236.7</ele>
        <time>2020-08-18T12:47:04Z</time>
      </trkpt>
      <trkpt lat="50.44078" lon="5.32569">
        <ele>236.7</ele>
        <time>2020-08-18T12:47:05Z</time>
      </trkpt>
      <trkpt lat="50.44078" lon="5.32568">
        <ele>236.7</ele>
        <time>2020-08-18T12:47:06Z</time>
      </trkpt>
      <trkpt lat="50.44077" lon="5.32566">
        <ele>236.7</ele>
        <time>2020-08-18T12:47:12Z</time>
      </trkpt>
      <trkpt lat="50.44077" lon="5.32566">
        <ele>236.7</ele>
        <time>2020-08-18T12:47:15Z</time>
      </trkpt>
      <trkpt lat="50.44077" lon="5.32565">
        <ele>236.8</ele>
        <time>2020-08-18T12:47:16Z</time>
      </trkpt>
      <trkpt lat="50.44077" lon="5.32565">
        <ele>236.8</ele>
        <time>2020-08-18T12:47:17Z</time>
      </trkpt>
      <trkpt lat="50.44076" lon="5.32565">
        <ele>236.8</ele>
        <time>2020-08-18T12:47:18Z</time>
      </trkpt>
      <trkpt lat="50.44075" lon="5.32565">
        <ele>236.8</ele>
        <time>2020-08-18T12:47:19Z</time>
      </trkpt>
      <trkpt lat="50.44075" lon="5.32566">
        <ele>236.8</ele>
        <time>2020-08-18T12:47:35Z</time>
      </trkpt>
      <trkpt lat="50.44074" lon="5.32566">
        <ele>236.8</ele>
        <time>2020-08-18T12:47:36Z</time>
      </trkpt>
      <trkpt lat="50.44074" lon="5.32566">
        <ele>236.8</ele>
        <time>2020-08-18T12:47:37Z</time>
      </trkpt>
      <trkpt lat="50.44067" lon="5.3257">
        <ele>236.9</ele>
        <time>2020-08-18T12:47:57Z</time>
      </trkpt>
      <trkpt lat="50.44066" lon="5.32569">
        <ele>236.9</ele>
        <time>2020-08-18T12:47:59Z</time>
      </trkpt>
      <trkpt lat="50.44066" lon="5.32569">
        <ele>236.9</ele>
        <time>2020-08-18T12:48:00Z</time>
      </trkpt>
      <trkpt lat="50.44066" lon="5.32569">
        <ele>236.9</ele>
        <time>2020-08-18T12:48:01Z</time>
      </trkpt>
      <trkpt lat="50.44066" lon="5.32568">
        <ele>236.9</ele>
        <time>2020-08-18T12:48:02Z</time>
      </trkpt>
      <trkpt lat="50.44066" lon="5.32567">
        <ele>236.9</ele>
        <time>2020-08-18T12:48:03Z</time>
      </trkpt>
      <trkpt lat="50.44066" lon="5.32566">
        <ele>237</ele>
        <time>2020-08-18T12:48:04Z</time>
      </trkpt>
      <trkpt lat="50.44066" lon="5.32565">
        <ele>237</ele>
        <time>2020-08-18T12:48:05Z</time>
      </trkpt>
      <trkpt lat="50.44066" lon="5.32565">
        <ele>237</ele>
        <time>2020-08-18T12:48:06Z</time>
      </trkpt>
      <trkpt lat="50.44065" lon="5.32565">
        <ele>237</ele>
        <time>2020-08-18T12:48:07Z</time>
      </trkpt>
      <trkpt lat="50.44065" lon="5.32564">
        <ele>237</ele>
        <time>2020-08-18T12:48:08Z</time>
      </trkpt>
      <trkpt lat="50.44066" lon="5.32564">
        <ele>237</ele>
        <time>2020-08-18T12:48:09Z</time>
      </trkpt>
      <trkpt lat="50.44066" lon="5.32563">
        <ele>237</ele>
        <time>2020-08-18T12:48:10Z</time>
      </trkpt>
      <trkpt lat="50.44067" lon="5.32563">
        <ele>237</ele>
        <time>2020-08-18T12:48:11Z</time>
      </trkpt>
      <trkpt lat="50.44067" lon="5.32562">
        <ele>237</ele>
        <time>2020-08-18T12:48:12Z</time>
      </trkpt>
      <trkpt lat="50.44068" lon="5.32562">
        <ele>237</ele>
        <time>2020-08-18T12:48:13Z</time>
      </trkpt>
      <trkpt lat="50.44069" lon="5.32562">
        <ele>236.9</ele>
        <time>2020-08-18T12:48:17Z</time>
      </trkpt>
      <trkpt lat="50.44068" lon="5.32562">
        <ele>237</ele>
        <time>2020-08-18T12:48:18Z</time>
      </trkpt>
      <trkpt lat="50.44068" lon="5.32561">
        <ele>237</ele>
        <time>2020-08-18T12:48:19Z</time>
      </trkpt>
      <trkpt lat="50.44069" lon="5.32561">
        <ele>236.9</ele>
        <time>2020-08-18T12:48:20Z</time>
      </trkpt>
      <trkpt lat="50.44069" lon="5.32561">
        <ele>236.9</ele>
        <time>2020-08-18T12:48:21Z</time>
      </trkpt>
      <trkpt lat="50.44069" lon="5.3256">
        <ele>237</ele>
        <time>2020-08-18T12:48:22Z</time>
      </trkpt>
      <trkpt lat="50.44069" lon="5.3256">
        <ele>237</ele>
        <time>2020-08-18T12:48:23Z</time>
      </trkpt>
      <trkpt lat="50.44069" lon="5.32559">
        <ele>237</ele>
        <time>2020-08-18T12:48:24Z</time>
      </trkpt>
      <trkpt lat="50.44069" lon="5.32558">
        <ele>237</ele>
        <time>2020-08-18T12:48:25Z</time>
      </trkpt>
      <trkpt lat="50.4407" lon="5.32558">
        <ele>237</ele>
        <time>2020-08-18T12:48:26Z</time>
      </trkpt>
      <trkpt lat="50.4407" lon="5.32557">
        <ele>237</ele>
        <time>2020-08-18T12:48:27Z</time>
      </trkpt>
      <trkpt lat="50.44072" lon="5.32557">
        <ele>236.9</ele>
        <time>2020-08-18T12:48:28Z</time>
      </trkpt>
      <trkpt lat="50.44072" lon="5.32556">
        <ele>236.9</ele>
        <time>2020-08-18T12:48:29Z</time>
      </trkpt>
      <trkpt lat="50.44073" lon="5.32554">
        <ele>237</ele>
        <time>2020-08-18T12:48:30Z</time>
      </trkpt>
      <trkpt lat="50.44074" lon="5.32553">
        <ele>237</ele>
        <time>2020-08-18T12:48:31Z</time>
      </trkpt>
      <trkpt lat="50.44074" lon="5.32553">
        <ele>237</ele>
        <time>2020-08-18T12:48:32Z</time>
      </trkpt>
      <trkpt lat="50.44074" lon="5.32552">
        <ele>237</ele>
        <time>2020-08-18T12:48:33Z</time>
      </trkpt>
      <trkpt lat="50.44074" lon="5.32551">
        <ele>237</ele>
        <time>2020-08-18T12:48:34Z</time>
      </trkpt>
      <trkpt lat="50.44074" lon="5.3255">
        <ele>237</ele>
        <time>2020-08-18T12:48:35Z</time>
      </trkpt>
      <trkpt lat="50.44075" lon="5.32548">
        <ele>237</ele>
        <time>2020-08-18T12:48:36Z</time>
      </trkpt>
      <trkpt lat="50.44075" lon="5.32546">
        <ele>237</ele>
        <time>2020-08-18T12:48:37Z</time>
      </trkpt>
      <trkpt lat="50.44076" lon="5.32544">
        <ele>237</ele>
        <time>2020-08-18T12:48:38Z</time>
      </trkpt>
      <trkpt lat="50.44077" lon="5.32542">
        <ele>237</ele>
        <time>2020-08-18T12:48:39Z</time>
      </trkpt>
      <trkpt lat="50.44077" lon="5.3254">
        <ele>237</ele>
        <time>2020-08-18T12:48:40Z</time>
      </trkpt>
      <trkpt lat="50.44077" lon="5.3254">
        <ele>237</ele>
        <time>2020-08-18T12:48:41Z</time>
      </trkpt>
      <trkpt lat="50.44077" lon="5.32539">
        <ele>237</ele>
        <time>2020-08-18T12:48:42Z</time>
      </trkpt>
      <trkpt lat="50.44077" lon="5.32538">
        <ele>237</ele>
        <time>2020-08-18T12:48:43Z</time>
      </trkpt>
      <trkpt lat="50.44078" lon="5.32537">
        <ele>237</ele>
        <time>2020-08-18T12:48:44Z</time>
      </trkpt>
      <trkpt lat="50.44078" lon="5.32536">
        <ele>237</ele>
        <time>2020-08-18T12:48:45Z</time>
      </trkpt>
      <trkpt lat="50.44078" lon="5.32535">
        <ele>237</ele>
        <time>2020-08-18T12:48:46Z</time>
      </trkpt>
      <trkpt lat="50.4408" lon="5.32534">
        <ele>237</ele>
        <time>2020-08-18T12:48:47Z</time>
      </trkpt>
      <trkpt lat="50.44081" lon="5.32532">
        <ele>237</ele>
        <time>2020-08-18T12:48:48Z</time>
      </trkpt>
      <trkpt lat="50.44082" lon="5.32531">
        <ele>237</ele>
        <time>2020-08-18T12:48:49Z</time>
      </trkpt>
      <trkpt lat="50.44084" lon="5.32531">
        <ele>237.3</ele>
        <time>2020-08-18T12:48:50Z</time>
      </trkpt>
      <trkpt lat="50.44085" lon="5.32531">
        <ele>237.3</ele>
        <time>2020-08-18T12:48:51Z</time>
      </trkpt>
      <trkpt lat="50.44086" lon="5.3253">
        <ele>237.4</ele>
        <time>2020-08-18T12:48:52Z</time>
      </trkpt>
      <trkpt lat="50.44087" lon="5.3253">
        <ele>237.4</ele>
        <time>2020-08-18T12:48:53Z</time>
      </trkpt>
      <trkpt lat="50.44088" lon="5.32529">
        <ele>237.4</ele>
        <time>2020-08-18T12:48:54Z</time>
      </trkpt>
      <trkpt lat="50.44089" lon="5.32529">
        <ele>237.4</ele>
        <time>2020-08-18T12:48:55Z</time>
      </trkpt>
      <trkpt lat="50.4409" lon="5.32529">
        <ele>237.4</ele>
        <time>2020-08-18T12:48:56Z</time>
      </trkpt>
      <trkpt lat="50.4409" lon="5.32529">
        <ele>237.4</ele>
        <time>2020-08-18T12:48:57Z</time>
      </trkpt>
      <trkpt lat="50.4409" lon="5.32529">
        <ele>237.4</ele>
        <time>2020-08-18T12:48:58Z</time>
      </trkpt>
      <trkpt lat="50.4409" lon="5.32529">
        <ele>237.4</ele>
        <time>2020-08-18T12:48:59Z</time>
      </trkpt>
      <trkpt lat="50.44091" lon="5.32528">
        <ele>237.4</ele>
        <time>2020-08-18T12:49:00Z</time>
      </trkpt>
      <trkpt lat="50.44092" lon="5.32528">
        <ele>237.4</ele>
        <time>2020-08-18T12:49:01Z</time>
      </trkpt>
      <trkpt lat="50.44093" lon="5.32527">
        <ele>237.4</ele>
        <time>2020-08-18T12:49:02Z</time>
      </trkpt>
      <trkpt lat="50.44094" lon="5.32527">
        <ele>237.4</ele>
        <time>2020-08-18T12:49:03Z</time>
      </trkpt>
      <trkpt lat="50.44095" lon="5.32526">
        <ele>237.4</ele>
        <time>2020-08-18T12:49:04Z</time>
      </trkpt>
      <trkpt lat="50.44095" lon="5.32526">
        <ele>237.4</ele>
        <time>2020-08-18T12:49:05Z</time>
      </trkpt>
      <trkpt lat="50.44096" lon="5.32525">
        <ele>237.4</ele>
        <time>2020-08-18T12:49:06Z</time>
      </trkpt>
      <trkpt lat="50.44096" lon="5.32525">
        <ele>237.4</ele>
        <time>2020-08-18T12:49:07Z</time>
      </trkpt>
      <trkpt lat="50.44098" lon="5.32525">
        <ele>237.5</ele>
        <time>2020-08-18T12:49:08Z</time>
      </trkpt>
      <trkpt lat="50.44099" lon="5.32525">
        <ele>237.5</ele>
        <time>2020-08-18T12:49:09Z</time>
      </trkpt>
      <trkpt lat="50.44099" lon="5.32525">
        <ele>237.5</ele>
        <time>2020-08-18T12:49:10Z</time>
      </trkpt>
      <trkpt lat="50.44101" lon="5.32525">
        <ele>237.5</ele>
        <time>2020-08-18T12:49:11Z</time>
      </trkpt>
      <trkpt lat="50.44102" lon="5.32524">
        <ele>237.5</ele>
        <time>2020-08-18T12:49:12Z</time>
      </trkpt>
      <trkpt lat="50.44103" lon="5.32523">
        <ele>237.5</ele>
        <time>2020-08-18T12:49:13Z</time>
      </trkpt>
      <trkpt lat="50.44103" lon="5.32522">
        <ele>237.5</ele>
        <time>2020-08-18T12:49:14Z</time>
      </trkpt>
      <trkpt lat="50.44104" lon="5.32521">
        <ele>237.5</ele>
        <time>2020-08-18T12:49:15Z</time>
      </trkpt>
      <trkpt lat="50.44104" lon="5.3252">
        <ele>237.5</ele>
        <time>2020-08-18T12:49:16Z</time>
      </trkpt>
      <trkpt lat="50.44104" lon="5.32519">
        <ele>237.5</ele>
        <time>2020-08-18T12:49:17Z</time>
      </trkpt>
      <trkpt lat="50.44104" lon="5.32517">
        <ele>237.5</ele>
        <time>2020-08-18T12:49:18Z</time>
      </trkpt>
      <trkpt lat="50.44104" lon="5.32516">
        <ele>237.5</ele>
        <time>2020-08-18T12:49:19Z</time>
      </trkpt>
      <trkpt lat="50.44105" lon="5.32514">
        <ele>237.6</ele>
        <time>2020-08-18T12:49:20Z</time>
      </trkpt>
      <trkpt lat="50.44106" lon="5.32512">
        <ele>237.6</ele>
        <time>2020-08-18T12:49:21Z</time>
      </trkpt>
      <trkpt lat="50.44107" lon="5.32511">
        <ele>237.6</ele>
        <time>2020-08-18T12:49:22Z</time>
      </trkpt>
      <trkpt lat="50.44108" lon="5.32509">
        <ele>237.6</ele>
        <time>2020-08-18T12:49:23Z</time>
      </trkpt>
      <trkpt lat="50.44109" lon="5.32508">
        <ele>237.6</ele>
        <time>2020-08-18T12:49:24Z</time>
      </trkpt>
      <trkpt lat="50.44111" lon="5.32506">
        <ele>237.7</ele>
        <time>2020-08-18T12:49:25Z</time>
      </trkpt>
      <trkpt lat="50.44112" lon="5.32504">
        <ele>237.7</ele>
        <time>2020-08-18T12:49:26Z</time>
      </trkpt>
      <trkpt lat="50.44114" lon="5.32502">
        <ele>237.8</ele>
        <time>2020-08-18T12:49:27Z</time>
      </trkpt>
      <trkpt lat="50.44115" lon="5.32501">
        <ele>237.8</ele>
        <time>2020-08-18T12:49:28Z</time>
      </trkpt>
      <trkpt lat="50.44116" lon="5.325">
        <ele>237.8</ele>
        <time>2020-08-18T12:49:29Z</time>
      </trkpt>
      <trkpt lat="50.44117" lon="5.32499">
        <ele>237.5</ele>
        <time>2020-08-18T12:49:30Z</time>
      </trkpt>
      <trkpt lat="50.44119" lon="5.32498">
        <ele>237.6</ele>
        <time>2020-08-18T12:49:31Z</time>
      </trkpt>
      <trkpt lat="50.4412" lon="5.32496">
        <ele>237.6</ele>
        <time>2020-08-18T12:49:32Z</time>
      </trkpt>
      <trkpt lat="50.44122" lon="5.32494">
        <ele>237.6</ele>
        <time>2020-08-18T12:49:33Z</time>
      </trkpt>
      <trkpt lat="50.44124" lon="5.32493">
        <ele>237.7</ele>
        <time>2020-08-18T12:49:34Z</time>
      </trkpt>
      <trkpt lat="50.44125" lon="5.3249">
        <ele>237.7</ele>
        <time>2020-08-18T12:49:35Z</time>
      </trkpt>
      <trkpt lat="50.44126" lon="5.32488">
        <ele>237.7</ele>
        <time>2020-08-18T12:49:36Z</time>
      </trkpt>
      <trkpt lat="50.44127" lon="5.32486">
        <ele>237.7</ele>
        <time>2020-08-18T12:49:37Z</time>
      </trkpt>
      <trkpt lat="50.44128" lon="5.32485">
        <ele>237.7</ele>
        <time>2020-08-18T12:49:38Z</time>
      </trkpt>
      <trkpt lat="50.44128" lon="5.32484">
        <ele>237.7</ele>
        <time>2020-08-18T12:49:39Z</time>
      </trkpt>
      <trkpt lat="50.44129" lon="5.32483">
        <ele>237.7</ele>
        <time>2020-08-18T12:49:40Z</time>
      </trkpt>
      <trkpt lat="50.4413" lon="5.32482">
        <ele>237.7</ele>
        <time>2020-08-18T12:49:41Z</time>
      </trkpt>
      <trkpt lat="50.4413" lon="5.32482">
        <ele>237.7</ele>
        <time>2020-08-18T12:49:42Z</time>
      </trkpt>
      <trkpt lat="50.44131" lon="5.3248">
        <ele>237.7</ele>
        <time>2020-08-18T12:49:43Z</time>
      </trkpt>
      <trkpt lat="50.44132" lon="5.32479">
        <ele>237.7</ele>
        <time>2020-08-18T12:49:44Z</time>
      </trkpt>
      <trkpt lat="50.44132" lon="5.32478">
        <ele>237.7</ele>
        <time>2020-08-18T12:49:45Z</time>
      </trkpt>
      <trkpt lat="50.44132" lon="5.32477">
        <ele>237.7</ele>
        <time>2020-08-18T12:49:46Z</time>
      </trkpt>
      <trkpt lat="50.44132" lon="5.32476">
        <ele>237.7</ele>
        <time>2020-08-18T12:49:47Z</time>
      </trkpt>
      <trkpt lat="50.44132" lon="5.32475">
        <ele>237.7</ele>
        <time>2020-08-18T12:49:48Z</time>
      </trkpt>
      <trkpt lat="50.44133" lon="5.32474">
        <ele>237.7</ele>
        <time>2020-08-18T12:49:49Z</time>
      </trkpt>
      <trkpt lat="50.44133" lon="5.32474">
        <ele>237.7</ele>
        <time>2020-08-18T12:49:50Z</time>
      </trkpt>
      <trkpt lat="50.44133" lon="5.32473">
        <ele>237.6</ele>
        <time>2020-08-18T12:49:51Z</time>
      </trkpt>
      <trkpt lat="50.44133" lon="5.32472">
        <ele>237.6</ele>
        <time>2020-08-18T12:49:52Z</time>
      </trkpt>
      <trkpt lat="50.44133" lon="5.32471">
        <ele>237.6</ele>
        <time>2020-08-18T12:49:53Z</time>
      </trkpt>
      <trkpt lat="50.44134" lon="5.3247">
        <ele>237.6</ele>
        <time>2020-08-18T12:49:54Z</time>
      </trkpt>
      <trkpt lat="50.44134" lon="5.32469">
        <ele>237.6</ele>
        <time>2020-08-18T12:49:55Z</time>
      </trkpt>
      <trkpt lat="50.44134" lon="5.32468">
        <ele>237.6</ele>
        <time>2020-08-18T12:49:56Z</time>
      </trkpt>
      <trkpt lat="50.44134" lon="5.32467">
        <ele>237.6</ele>
        <time>2020-08-18T12:49:57Z</time>
      </trkpt>
      <trkpt lat="50.44134" lon="5.32466">
        <ele>237.6</ele>
        <time>2020-08-18T12:49:58Z</time>
      </trkpt>
      <trkpt lat="50.44134" lon="5.32465">
        <ele>237.5</ele>
        <time>2020-08-18T12:49:59Z</time>
      </trkpt>
      <trkpt lat="50.44134" lon="5.32464">
        <ele>237.5</ele>
        <time>2020-08-18T12:50:00Z</time>
      </trkpt>
      <trkpt lat="50.44133" lon="5.32463">
        <ele>237.5</ele>
        <time>2020-08-18T12:50:01Z</time>
      </trkpt>
      <trkpt lat="50.44134" lon="5.32462">
        <ele>237.5</ele>
        <time>2020-08-18T12:50:02Z</time>
      </trkpt>
      <trkpt lat="50.44134" lon="5.32461">
        <ele>237.5</ele>
        <time>2020-08-18T12:50:03Z</time>
      </trkpt>
      <trkpt lat="50.44135" lon="5.3246">
        <ele>237.5</ele>
        <time>2020-08-18T12:50:04Z</time>
      </trkpt>
      <trkpt lat="50.44135" lon="5.3246">
        <ele>237.5</ele>
        <time>2020-08-18T12:50:05Z</time>
      </trkpt>
      <trkpt lat="50.44135" lon="5.32459">
        <ele>237.5</ele>
        <time>2020-08-18T12:50:06Z</time>
      </trkpt>
      <trkpt lat="50.44135" lon="5.32459">
        <ele>237.5</ele>
        <time>2020-08-18T12:50:07Z</time>
      </trkpt>
      <trkpt lat="50.44135" lon="5.32458">
        <ele>237.5</ele>
        <time>2020-08-18T12:50:08Z</time>
      </trkpt>
      <trkpt lat="50.44136" lon="5.32456">
        <ele>237.4</ele>
        <time>2020-08-18T12:50:09Z</time>
      </trkpt>
      <trkpt lat="50.44136" lon="5.32455">
        <ele>237.4</ele>
        <time>2020-08-18T12:50:10Z</time>
      </trkpt>
      <trkpt lat="50.44136" lon="5.32454">
        <ele>237.4</ele>
        <time>2020-08-18T12:50:11Z</time>
      </trkpt>
      <trkpt lat="50.44136" lon="5.32453">
        <ele>237.4</ele>
        <time>2020-08-18T12:50:12Z</time>
      </trkpt>
      <trkpt lat="50.44137" lon="5.32452">
        <ele>237.4</ele>
        <time>2020-08-18T12:50:13Z</time>
      </trkpt>
      <trkpt lat="50.44138" lon="5.32451">
        <ele>237.4</ele>
        <time>2020-08-18T12:50:14Z</time>
      </trkpt>
      <trkpt lat="50.44138" lon="5.3245">
        <ele>237.4</ele>
        <time>2020-08-18T12:50:15Z</time>
      </trkpt>
      <trkpt lat="50.44139" lon="5.32449">
        <ele>237.4</ele>
        <time>2020-08-18T12:50:16Z</time>
      </trkpt>
      <trkpt lat="50.4414" lon="5.32449">
        <ele>237.4</ele>
        <time>2020-08-18T12:50:17Z</time>
      </trkpt>
      <trkpt lat="50.44141" lon="5.32447">
        <ele>237.4</ele>
        <time>2020-08-18T12:50:18Z</time>
      </trkpt>
      <trkpt lat="50.44141" lon="5.32446">
        <ele>237.4</ele>
        <time>2020-08-18T12:50:19Z</time>
      </trkpt>
      <trkpt lat="50.44142" lon="5.32444">
        <ele>237.4</ele>
        <time>2020-08-18T12:50:20Z</time>
      </trkpt>
      <trkpt lat="50.44143" lon="5.32443">
        <ele>237.4</ele>
        <time>2020-08-18T12:50:21Z</time>
      </trkpt>
      <trkpt lat="50.44144" lon="5.32442">
        <ele>237.4</ele>
        <time>2020-08-18T12:50:22Z</time>
      </trkpt>
      <trkpt lat="50.44144" lon="5.32441">
        <ele>237.4</ele>
        <time>2020-08-18T12:50:23Z</time>
      </trkpt>
      <trkpt lat="50.44145" lon="5.3244">
        <ele>237.4</ele>
        <time>2020-08-18T12:50:24Z</time>
      </trkpt>
      <trkpt lat="50.44146" lon="5.32439">
        <ele>237.5</ele>
        <time>2020-08-18T12:50:25Z</time>
      </trkpt>
      <trkpt lat="50.44147" lon="5.32439">
        <ele>237.5</ele>
        <time>2020-08-18T12:50:26Z</time>
      </trkpt>
      <trkpt lat="50.44148" lon="5.32438">
        <ele>237.5</ele>
        <time>2020-08-18T12:50:27Z</time>
      </trkpt>
      <trkpt lat="50.44149" lon="5.32437">
        <ele>237.5</ele>
        <time>2020-08-18T12:50:28Z</time>
      </trkpt>
      <trkpt lat="50.4415" lon="5.32436">
        <ele>237.5</ele>
        <time>2020-08-18T12:50:29Z</time>
      </trkpt>
      <trkpt lat="50.4415" lon="5.32435">
        <ele>237.5</ele>
        <time>2020-08-18T12:50:30Z</time>
      </trkpt>
      <trkpt lat="50.44151" lon="5.32434">
        <ele>237.5</ele>
        <time>2020-08-18T12:50:31Z</time>
      </trkpt>
      <trkpt lat="50.44153" lon="5.32433">
        <ele>237.6</ele>
        <time>2020-08-18T12:50:32Z</time>
      </trkpt>
      <trkpt lat="50.44153" lon="5.32432">
        <ele>237.6</ele>
        <time>2020-08-18T12:50:33Z</time>
      </trkpt>
      <trkpt lat="50.44154" lon="5.3243">
        <ele>237.6</ele>
        <time>2020-08-18T12:50:34Z</time>
      </trkpt>
      <trkpt lat="50.44156" lon="5.32429">
        <ele>237.6</ele>
        <time>2020-08-18T12:50:35Z</time>
      </trkpt>
      <trkpt lat="50.44156" lon="5.32427">
        <ele>237.6</ele>
        <time>2020-08-18T12:50:36Z</time>
      </trkpt>
      <trkpt lat="50.44157" lon="5.32424">
        <ele>237.7</ele>
        <time>2020-08-18T12:50:38Z</time>
      </trkpt>
      <trkpt lat="50.44157" lon="5.32424">
        <ele>237.7</ele>
        <time>2020-08-18T12:50:39Z</time>
      </trkpt>
      <trkpt lat="50.44158" lon="5.32424">
        <ele>237.7</ele>
        <time>2020-08-18T12:50:40Z</time>
      </trkpt>
      <trkpt lat="50.44159" lon="5.32423">
        <ele>237.7</ele>
        <time>2020-08-18T12:50:41Z</time>
      </trkpt>
      <trkpt lat="50.44159" lon="5.32421">
        <ele>237.8</ele>
        <time>2020-08-18T12:50:42Z</time>
      </trkpt>
      <trkpt lat="50.44159" lon="5.32419">
        <ele>237.8</ele>
        <time>2020-08-18T12:50:43Z</time>
      </trkpt>
      <trkpt lat="50.4416" lon="5.32418">
        <ele>237.8</ele>
        <time>2020-08-18T12:50:44Z</time>
      </trkpt>
      <trkpt lat="50.4416" lon="5.32416">
        <ele>237.2</ele>
        <time>2020-08-18T12:50:45Z</time>
      </trkpt>
      <trkpt lat="50.44161" lon="5.32415">
        <ele>237.3</ele>
        <time>2020-08-18T12:50:46Z</time>
      </trkpt>
      <trkpt lat="50.44161" lon="5.32415">
        <ele>237.3</ele>
        <time>2020-08-18T12:50:47Z</time>
      </trkpt>
      <trkpt lat="50.44162" lon="5.32415">
        <ele>237.4</ele>
        <time>2020-08-18T12:50:48Z</time>
      </trkpt>
      <trkpt lat="50.44162" lon="5.32414">
        <ele>237.3</ele>
        <time>2020-08-18T12:50:48Z</time>
      </trkpt>
      <trkpt lat="50.44163" lon="5.32414">
        <ele>237.4</ele>
        <time>2020-08-18T12:50:49Z</time>
      </trkpt>
      <trkpt lat="50.44163" lon="5.32414">
        <ele>237.4</ele>
        <time>2020-08-18T12:50:50Z</time>
      </trkpt>
      <trkpt lat="50.44163" lon="5.32413">
        <ele>237.4</ele>
        <time>2020-08-18T12:50:51Z</time>
      </trkpt>
      <trkpt lat="50.44164" lon="5.32412">
        <ele>237.3</ele>
        <time>2020-08-18T12:50:52Z</time>
      </trkpt>
      <trkpt lat="50.44164" lon="5.32411">
        <ele>237.2</ele>
        <time>2020-08-18T12:50:53Z</time>
      </trkpt>
      <trkpt lat="50.44165" lon="5.32409">
        <ele>237.1</ele>
        <time>2020-08-18T12:50:54Z</time>
      </trkpt>
      <trkpt lat="50.44165" lon="5.32408">
        <ele>237</ele>
        <time>2020-08-18T12:50:55Z</time>
      </trkpt>
      <trkpt lat="50.44166" lon="5.32406">
        <ele>236.8</ele>
        <time>2020-08-18T12:50:56Z</time>
      </trkpt>
      <trkpt lat="50.44167" lon="5.32404">
        <ele>236.7</ele>
        <time>2020-08-18T12:50:57Z</time>
      </trkpt>
      <trkpt lat="50.44168" lon="5.32401">
        <ele>236.5</ele>
        <time>2020-08-18T12:50:58Z</time>
      </trkpt>
      <trkpt lat="50.44169" lon="5.32399">
        <ele>236.4</ele>
        <time>2020-08-18T12:50:59Z</time>
      </trkpt>
      <trkpt lat="50.4417" lon="5.32397">
        <ele>236.3</ele>
        <time>2020-08-18T12:51:00Z</time>
      </trkpt>
      <trkpt lat="50.44172" lon="5.32395">
        <ele>236.1</ele>
        <time>2020-08-18T12:51:01Z</time>
      </trkpt>
      <trkpt lat="50.44173" lon="5.32393">
        <ele>236</ele>
        <time>2020-08-18T12:51:02Z</time>
      </trkpt>
      <trkpt lat="50.44175" lon="5.32392">
        <ele>235.9</ele>
        <time>2020-08-18T12:51:03Z</time>
      </trkpt>
      <trkpt lat="50.44176" lon="5.3239">
        <ele>235.8</ele>
        <time>2020-08-18T12:51:04Z</time>
      </trkpt>
      <trkpt lat="50.44177" lon="5.32389">
        <ele>235.8</ele>
        <time>2020-08-18T12:51:05Z</time>
      </trkpt>
      <trkpt lat="50.44177" lon="5.32387">
        <ele>235.7</ele>
        <time>2020-08-18T12:51:06Z</time>
      </trkpt>
      <trkpt lat="50.44178" lon="5.32386">
        <ele>235.7</ele>
        <time>2020-08-18T12:51:07Z</time>
      </trkpt>
      <trkpt lat="50.44178" lon="5.32385">
        <ele>235.6</ele>
        <time>2020-08-18T12:51:08Z</time>
      </trkpt>
      <trkpt lat="50.44178" lon="5.32385">
        <ele>235.6</ele>
        <time>2020-08-18T12:51:09Z</time>
      </trkpt>
      <trkpt lat="50.44179" lon="5.32384">
        <ele>235.6</ele>
        <time>2020-08-18T12:51:10Z</time>
      </trkpt>
      <trkpt lat="50.4418" lon="5.32383">
        <ele>235.5</ele>
        <time>2020-08-18T12:51:11Z</time>
      </trkpt>
      <trkpt lat="50.44181" lon="5.32382">
        <ele>235.5</ele>
        <time>2020-08-18T12:51:12Z</time>
      </trkpt>
      <trkpt lat="50.44181" lon="5.32381">
        <ele>235.5</ele>
        <time>2020-08-18T12:51:13Z</time>
      </trkpt>
      <trkpt lat="50.44183" lon="5.32379">
        <ele>235.4</ele>
        <time>2020-08-18T12:51:14Z</time>
      </trkpt>
      <trkpt lat="50.44184" lon="5.32377">
        <ele>235.3</ele>
        <time>2020-08-18T12:51:15Z</time>
      </trkpt>
      <trkpt lat="50.44185" lon="5.32375">
        <ele>235.3</ele>
        <time>2020-08-18T12:51:16Z</time>
      </trkpt>
      <trkpt lat="50.44186" lon="5.32374">
        <ele>235.2</ele>
        <time>2020-08-18T12:51:17Z</time>
      </trkpt>
      <trkpt lat="50.44187" lon="5.32372">
        <ele>235.2</ele>
        <time>2020-08-18T12:51:18Z</time>
      </trkpt>
      <trkpt lat="50.44187" lon="5.32371">
        <ele>235.2</ele>
        <time>2020-08-18T12:51:19Z</time>
      </trkpt>
      <trkpt lat="50.44188" lon="5.3237">
        <ele>235.1</ele>
        <time>2020-08-18T12:51:20Z</time>
      </trkpt>
      <trkpt lat="50.44189" lon="5.32368">
        <ele>235.1</ele>
        <time>2020-08-18T12:51:21Z</time>
      </trkpt>
      <trkpt lat="50.44189" lon="5.32367">
        <ele>235.1</ele>
        <time>2020-08-18T12:51:22Z</time>
      </trkpt>
      <trkpt lat="50.4419" lon="5.32366">
        <ele>235</ele>
        <time>2020-08-18T12:51:23Z</time>
      </trkpt>
      <trkpt lat="50.4419" lon="5.32364">
        <ele>235</ele>
        <time>2020-08-18T12:51:24Z</time>
      </trkpt>
      <trkpt lat="50.44191" lon="5.32363">
        <ele>235</ele>
        <time>2020-08-18T12:51:25Z</time>
      </trkpt>
      <trkpt lat="50.44191" lon="5.32362">
        <ele>235</ele>
        <time>2020-08-18T12:51:26Z</time>
      </trkpt>
      <trkpt lat="50.44191" lon="5.32361">
        <ele>235</ele>
        <time>2020-08-18T12:51:27Z</time>
      </trkpt>
      <trkpt lat="50.44192" lon="5.3236">
        <ele>235</ele>
        <time>2020-08-18T12:51:28Z</time>
      </trkpt>
      <trkpt lat="50.44192" lon="5.32358">
        <ele>234.9</ele>
        <time>2020-08-18T12:51:29Z</time>
      </trkpt>
      <trkpt lat="50.44192" lon="5.32357">
        <ele>234.9</ele>
        <time>2020-08-18T12:51:30Z</time>
      </trkpt>
      <trkpt lat="50.44192" lon="5.32355">
        <ele>234.9</ele>
        <time>2020-08-18T12:51:31Z</time>
      </trkpt>
      <trkpt lat="50.44193" lon="5.32353">
        <ele>234.9</ele>
        <time>2020-08-18T12:51:32Z</time>
      </trkpt>
      <trkpt lat="50.44193" lon="5.32351">
        <ele>234.8</ele>
        <time>2020-08-18T12:51:33Z</time>
      </trkpt>
      <trkpt lat="50.44194" lon="5.32349">
        <ele>234.8</ele>
        <time>2020-08-18T12:51:34Z</time>
      </trkpt>
      <trkpt lat="50.44194" lon="5.32347">
        <ele>234.8</ele>
        <time>2020-08-18T12:51:35Z</time>
      </trkpt>
      <trkpt lat="50.44195" lon="5.32345">
        <ele>234.8</ele>
        <time>2020-08-18T12:51:36Z</time>
      </trkpt>
      <trkpt lat="50.44195" lon="5.32344">
        <ele>234.8</ele>
        <time>2020-08-18T12:51:37Z</time>
      </trkpt>
      <trkpt lat="50.44196" lon="5.32343">
        <ele>234.8</ele>
        <time>2020-08-18T12:51:38Z</time>
      </trkpt>
      <trkpt lat="50.44196" lon="5.32343">
        <ele>234.8</ele>
        <time>2020-08-18T12:51:39Z</time>
      </trkpt>
      <trkpt lat="50.44197" lon="5.32342">
        <ele>234.8</ele>
        <time>2020-08-18T12:51:40Z</time>
      </trkpt>
      <trkpt lat="50.44198" lon="5.32341">
        <ele>234.8</ele>
        <time>2020-08-18T12:51:41Z</time>
      </trkpt>
      <trkpt lat="50.44198" lon="5.3234">
        <ele>234.8</ele>
        <time>2020-08-18T12:51:42Z</time>
      </trkpt>
      <trkpt lat="50.44199" lon="5.32339">
        <ele>234.8</ele>
        <time>2020-08-18T12:51:43Z</time>
      </trkpt>
      <trkpt lat="50.44201" lon="5.32339">
        <ele>234.8</ele>
        <time>2020-08-18T12:51:44Z</time>
      </trkpt>
      <trkpt lat="50.44202" lon="5.32339">
        <ele>234.8</ele>
        <time>2020-08-18T12:51:45Z</time>
      </trkpt>
      <trkpt lat="50.44203" lon="5.32338">
        <ele>234.8</ele>
        <time>2020-08-18T12:51:46Z</time>
      </trkpt>
      <trkpt lat="50.44204" lon="5.32338">
        <ele>234.8</ele>
        <time>2020-08-18T12:51:47Z</time>
      </trkpt>
      <trkpt lat="50.44205" lon="5.32337">
        <ele>234.8</ele>
        <time>2020-08-18T12:51:48Z</time>
      </trkpt>
      <trkpt lat="50.44205" lon="5.32336">
        <ele>234.8</ele>
        <time>2020-08-18T12:51:49Z</time>
      </trkpt>
      <trkpt lat="50.44205" lon="5.32336">
        <ele>234.8</ele>
        <time>2020-08-18T12:51:50Z</time>
      </trkpt>
      <trkpt lat="50.44206" lon="5.32335">
        <ele>234.8</ele>
        <time>2020-08-18T12:51:51Z</time>
      </trkpt>
      <trkpt lat="50.44206" lon="5.32334">
        <ele>234.8</ele>
        <time>2020-08-18T12:51:52Z</time>
      </trkpt>
      <trkpt lat="50.44207" lon="5.32332">
        <ele>234</ele>
        <time>2020-08-18T12:51:53Z</time>
      </trkpt>
      <trkpt lat="50.44207" lon="5.3233">
        <ele>234</ele>
        <time>2020-08-18T12:51:54Z</time>
      </trkpt>
      <trkpt lat="50.44207" lon="5.32329">
        <ele>234</ele>
        <time>2020-08-18T12:51:55Z</time>
      </trkpt>
      <trkpt lat="50.44207" lon="5.32327">
        <ele>234</ele>
        <time>2020-08-18T12:51:56Z</time>
      </trkpt>
      <trkpt lat="50.44207" lon="5.32325">
        <ele>234</ele>
        <time>2020-08-18T12:51:57Z</time>
      </trkpt>
      <trkpt lat="50.44207" lon="5.32324">
        <ele>234</ele>
        <time>2020-08-18T12:51:58Z</time>
      </trkpt>
      <trkpt lat="50.44207" lon="5.32322">
        <ele>234</ele>
        <time>2020-08-18T12:51:59Z</time>
      </trkpt>
      <trkpt lat="50.44207" lon="5.32321">
        <ele>234</ele>
        <time>2020-08-18T12:52:00Z</time>
      </trkpt>
      <trkpt lat="50.44207" lon="5.3232">
        <ele>234</ele>
        <time>2020-08-18T12:52:01Z</time>
      </trkpt>
      <trkpt lat="50.44206" lon="5.32319">
        <ele>233.9</ele>
        <time>2020-08-18T12:52:02Z</time>
      </trkpt>
      <trkpt lat="50.44206" lon="5.32318">
        <ele>233.9</ele>
        <time>2020-08-18T12:52:03Z</time>
      </trkpt>
      <trkpt lat="50.44207" lon="5.32317">
        <ele>233.9</ele>
        <time>2020-08-18T12:52:04Z</time>
      </trkpt>
      <trkpt lat="50.44207" lon="5.32317">
        <ele>233.9</ele>
        <time>2020-08-18T12:52:05Z</time>
      </trkpt>
      <trkpt lat="50.44206" lon="5.32314">
        <ele>233.9</ele>
        <time>2020-08-18T12:52:07Z</time>
      </trkpt>
      <trkpt lat="50.44206" lon="5.32314">
        <ele>233.9</ele>
        <time>2020-08-18T12:52:08Z</time>
      </trkpt>
      <trkpt lat="50.44206" lon="5.32312">
        <ele>233.9</ele>
        <time>2020-08-18T12:52:09Z</time>
      </trkpt>
      <trkpt lat="50.44206" lon="5.32311">
        <ele>233.9</ele>
        <time>2020-08-18T12:52:10Z</time>
      </trkpt>
      <trkpt lat="50.44206" lon="5.32309">
        <ele>233.9</ele>
        <time>2020-08-18T12:52:11Z</time>
      </trkpt>
      <trkpt lat="50.44207" lon="5.32308">
        <ele>233.9</ele>
        <time>2020-08-18T12:52:12Z</time>
      </trkpt>
      <trkpt lat="50.44208" lon="5.32306">
        <ele>233.9</ele>
        <time>2020-08-18T12:52:13Z</time>
      </trkpt>
      <trkpt lat="50.44209" lon="5.32304">
        <ele>233.9</ele>
        <time>2020-08-18T12:52:14Z</time>
      </trkpt>
      <trkpt lat="50.4421" lon="5.32302">
        <ele>233.9</ele>
        <time>2020-08-18T12:52:15Z</time>
      </trkpt>
      <trkpt lat="50.44211" lon="5.32301">
        <ele>233.9</ele>
        <time>2020-08-18T12:52:16Z</time>
      </trkpt>
      <trkpt lat="50.44211" lon="5.323">
        <ele>233.9</ele>
        <time>2020-08-18T12:52:17Z</time>
      </trkpt>
      <trkpt lat="50.44211" lon="5.323">
        <ele>233.9</ele>
        <time>2020-08-18T12:52:18Z</time>
      </trkpt>
      <trkpt lat="50.44211" lon="5.32299">
        <ele>233.9</ele>
        <time>2020-08-18T12:52:19Z</time>
      </trkpt>
      <trkpt lat="50.44211" lon="5.32298">
        <ele>233.8</ele>
        <time>2020-08-18T12:52:20Z</time>
      </trkpt>
      <trkpt lat="50.44212" lon="5.32297">
        <ele>233.8</ele>
        <time>2020-08-18T12:52:21Z</time>
      </trkpt>
      <trkpt lat="50.44212" lon="5.32296">
        <ele>233.8</ele>
        <time>2020-08-18T12:52:22Z</time>
      </trkpt>
      <trkpt lat="50.44214" lon="5.32294">
        <ele>233.9</ele>
        <time>2020-08-18T12:52:23Z</time>
      </trkpt>
      <trkpt lat="50.44215" lon="5.32292">
        <ele>233.9</ele>
        <time>2020-08-18T12:52:24Z</time>
      </trkpt>
      <trkpt lat="50.44217" lon="5.32289">
        <ele>233.9</ele>
        <time>2020-08-18T12:52:25Z</time>
      </trkpt>
      <trkpt lat="50.44218" lon="5.32287">
        <ele>233.9</ele>
        <time>2020-08-18T12:52:26Z</time>
      </trkpt>
      <trkpt lat="50.44219" lon="5.32284">
        <ele>233.9</ele>
        <time>2020-08-18T12:52:27Z</time>
      </trkpt>
      <trkpt lat="50.4422" lon="5.32282">
        <ele>233.9</ele>
        <time>2020-08-18T12:52:28Z</time>
      </trkpt>
      <trkpt lat="50.44221" lon="5.32281">
        <ele>233.9</ele>
        <time>2020-08-18T12:52:29Z</time>
      </trkpt>
      <trkpt lat="50.44222" lon="5.32279">
        <ele>233.9</ele>
        <time>2020-08-18T12:52:30Z</time>
      </trkpt>
      <trkpt lat="50.44223" lon="5.32277">
        <ele>233.9</ele>
        <time>2020-08-18T12:52:31Z</time>
      </trkpt>
      <trkpt lat="50.44224" lon="5.32276">
        <ele>233.9</ele>
        <time>2020-08-18T12:52:32Z</time>
      </trkpt>
      <trkpt lat="50.44226" lon="5.32272">
        <ele>234</ele>
        <time>2020-08-18T12:52:34Z</time>
      </trkpt>
      <trkpt lat="50.44226" lon="5.32272">
        <ele>234</ele>
        <time>2020-08-18T12:52:35Z</time>
      </trkpt>
      <trkpt lat="50.44225" lon="5.32272">
        <ele>234</ele>
        <time>2020-08-18T12:52:36Z</time>
      </trkpt>
      <trkpt lat="50.44225" lon="5.32272">
        <ele>234</ele>
        <time>2020-08-18T12:52:37Z</time>
      </trkpt>
      <trkpt lat="50.44226" lon="5.32272">
        <ele>234</ele>
        <time>2020-08-18T12:52:38Z</time>
      </trkpt>
      <trkpt lat="50.44226" lon="5.32271">
        <ele>234</ele>
        <time>2020-08-18T12:52:39Z</time>
      </trkpt>
      <trkpt lat="50.44226" lon="5.32269">
        <ele>234</ele>
        <time>2020-08-18T12:52:40Z</time>
      </trkpt>
      <trkpt lat="50.44226" lon="5.32267">
        <ele>234</ele>
        <time>2020-08-18T12:52:41Z</time>
      </trkpt>
      <trkpt lat="50.44226" lon="5.32266">
        <ele>234</ele>
        <time>2020-08-18T12:52:42Z</time>
      </trkpt>
      <trkpt lat="50.44226" lon="5.32265">
        <ele>234</ele>
        <time>2020-08-18T12:52:43Z</time>
      </trkpt>
      <trkpt lat="50.44226" lon="5.32264">
        <ele>234</ele>
        <time>2020-08-18T12:52:44Z</time>
      </trkpt>
      <trkpt lat="50.44225" lon="5.32264">
        <ele>234</ele>
        <time>2020-08-18T12:52:45Z</time>
      </trkpt>
      <trkpt lat="50.44225" lon="5.32264">
        <ele>234</ele>
        <time>2020-08-18T12:52:46Z</time>
      </trkpt>
      <trkpt lat="50.44224" lon="5.32264">
        <ele>234</ele>
        <time>2020-08-18T12:52:47Z</time>
      </trkpt>
      <trkpt lat="50.44224" lon="5.32263">
        <ele>234</ele>
        <time>2020-08-18T12:52:48Z</time>
      </trkpt>
      <trkpt lat="50.44224" lon="5.32262">
        <ele>234</ele>
        <time>2020-08-18T12:52:49Z</time>
      </trkpt>
      <trkpt lat="50.44224" lon="5.3226">
        <ele>234</ele>
        <time>2020-08-18T12:52:50Z</time>
      </trkpt>
      <trkpt lat="50.44225" lon="5.32259">
        <ele>234</ele>
        <time>2020-08-18T12:52:51Z</time>
      </trkpt>
      <trkpt lat="50.44225" lon="5.32257">
        <ele>234</ele>
        <time>2020-08-18T12:52:52Z</time>
      </trkpt>
      <trkpt lat="50.44225" lon="5.32255">
        <ele>234</ele>
        <time>2020-08-18T12:52:53Z</time>
      </trkpt>
      <trkpt lat="50.44226" lon="5.32253">
        <ele>234</ele>
        <time>2020-08-18T12:52:54Z</time>
      </trkpt>
      <trkpt lat="50.44227" lon="5.32252">
        <ele>234.1</ele>
        <time>2020-08-18T12:52:55Z</time>
      </trkpt>
      <trkpt lat="50.44227" lon="5.32251">
        <ele>234.1</ele>
        <time>2020-08-18T12:52:56Z</time>
      </trkpt>
      <trkpt lat="50.44228" lon="5.32251">
        <ele>234.1</ele>
        <time>2020-08-18T12:52:57Z</time>
      </trkpt>
      <trkpt lat="50.44229" lon="5.32251">
        <ele>234.1</ele>
        <time>2020-08-18T12:52:58Z</time>
      </trkpt>
      <trkpt lat="50.4423" lon="5.32251">
        <ele>234.2</ele>
        <time>2020-08-18T12:52:59Z</time>
      </trkpt>
      <trkpt lat="50.4423" lon="5.3225">
        <ele>233.4</ele>
        <time>2020-08-18T12:53:00Z</time>
      </trkpt>
      <trkpt lat="50.4423" lon="5.32249">
        <ele>233.4</ele>
        <time>2020-08-18T12:53:01Z</time>
      </trkpt>
      <trkpt lat="50.4423" lon="5.32249">
        <ele>233.4</ele>
        <time>2020-08-18T12:53:02Z</time>
      </trkpt>
      <trkpt lat="50.4423" lon="5.32248">
        <ele>233.4</ele>
        <time>2020-08-18T12:53:03Z</time>
      </trkpt>
      <trkpt lat="50.4423" lon="5.32247">
        <ele>233.4</ele>
        <time>2020-08-18T12:53:04Z</time>
      </trkpt>
      <trkpt lat="50.4423" lon="5.32246">
        <ele>233.4</ele>
        <time>2020-08-18T12:53:05Z</time>
      </trkpt>
      <trkpt lat="50.44231" lon="5.32246">
        <ele>233.5</ele>
        <time>2020-08-18T12:53:06Z</time>
      </trkpt>
      <trkpt lat="50.44231" lon="5.32245">
        <ele>233.4</ele>
        <time>2020-08-18T12:53:07Z</time>
      </trkpt>
      <trkpt lat="50.44232" lon="5.32243">
        <ele>233.5</ele>
        <time>2020-08-18T12:53:08Z</time>
      </trkpt>
      <trkpt lat="50.44232" lon="5.32242">
        <ele>233.4</ele>
        <time>2020-08-18T12:53:09Z</time>
      </trkpt>
      <trkpt lat="50.44232" lon="5.32241">
        <ele>233.4</ele>
        <time>2020-08-18T12:53:10Z</time>
      </trkpt>
      <trkpt lat="50.44233" lon="5.3224">
        <ele>233.4</ele>
        <time>2020-08-18T12:53:11Z</time>
      </trkpt>
      <trkpt lat="50.44233" lon="5.32238">
        <ele>233.4</ele>
        <time>2020-08-18T12:53:12Z</time>
      </trkpt>
      <trkpt lat="50.44233" lon="5.32236">
        <ele>233.3</ele>
        <time>2020-08-18T12:53:13Z</time>
      </trkpt>
      <trkpt lat="50.44233" lon="5.32235">
        <ele>233.3</ele>
        <time>2020-08-18T12:53:14Z</time>
      </trkpt>
      <trkpt lat="50.44234" lon="5.32233">
        <ele>233.3</ele>
        <time>2020-08-18T12:53:15Z</time>
      </trkpt>
      <trkpt lat="50.44234" lon="5.32232">
        <ele>233.2</ele>
        <time>2020-08-18T12:53:16Z</time>
      </trkpt>
      <trkpt lat="50.44235" lon="5.32231">
        <ele>233.2</ele>
        <time>2020-08-18T12:53:17Z</time>
      </trkpt>
      <trkpt lat="50.44235" lon="5.32229">
        <ele>233.2</ele>
        <time>2020-08-18T12:53:18Z</time>
      </trkpt>
      <trkpt lat="50.44236" lon="5.32228">
        <ele>233.1</ele>
        <time>2020-08-18T12:53:19Z</time>
      </trkpt>
      <trkpt lat="50.44236" lon="5.32227">
        <ele>233.1</ele>
        <time>2020-08-18T12:53:20Z</time>
      </trkpt>
      <trkpt lat="50.44236" lon="5.32226">
        <ele>233.1</ele>
        <time>2020-08-18T12:53:21Z</time>
      </trkpt>
      <trkpt lat="50.44237" lon="5.32225">
        <ele>233.1</ele>
        <time>2020-08-18T12:53:22Z</time>
      </trkpt>
      <trkpt lat="50.44237" lon="5.32224">
        <ele>233</ele>
        <time>2020-08-18T12:53:23Z</time>
      </trkpt>
      <trkpt lat="50.44238" lon="5.32223">
        <ele>233</ele>
        <time>2020-08-18T12:53:24Z</time>
      </trkpt>
      <trkpt lat="50.44239" lon="5.32221">
        <ele>233</ele>
        <time>2020-08-18T12:53:25Z</time>
      </trkpt>
      <trkpt lat="50.44239" lon="5.32219">
        <ele>232.9</ele>
        <time>2020-08-18T12:53:26Z</time>
      </trkpt>
      <trkpt lat="50.4424" lon="5.32217">
        <ele>232.9</ele>
        <time>2020-08-18T12:53:27Z</time>
      </trkpt>
      <trkpt lat="50.44241" lon="5.32216">
        <ele>232.9</ele>
        <time>2020-08-18T12:53:28Z</time>
      </trkpt>
      <trkpt lat="50.4424" lon="5.32214">
        <ele>232.8</ele>
        <time>2020-08-18T12:53:29Z</time>
      </trkpt>
      <trkpt lat="50.4424" lon="5.32213">
        <ele>232.8</ele>
        <time>2020-08-18T12:53:30Z</time>
      </trkpt>
      <trkpt lat="50.44241" lon="5.32212">
        <ele>232.8</ele>
        <time>2020-08-18T12:53:31Z</time>
      </trkpt>
      <trkpt lat="50.44241" lon="5.32211">
        <ele>232.7</ele>
        <time>2020-08-18T12:53:32Z</time>
      </trkpt>
      <trkpt lat="50.44241" lon="5.32209">
        <ele>232.7</ele>
        <time>2020-08-18T12:53:33Z</time>
      </trkpt>
      <trkpt lat="50.44241" lon="5.32208">
        <ele>232.7</ele>
        <time>2020-08-18T12:53:34Z</time>
      </trkpt>
      <trkpt lat="50.44242" lon="5.32208">
        <ele>232.7</ele>
        <time>2020-08-18T12:53:35Z</time>
      </trkpt>
      <trkpt lat="50.44243" lon="5.32207">
        <ele>232.7</ele>
        <time>2020-08-18T12:53:36Z</time>
      </trkpt>
      <trkpt lat="50.44244" lon="5.32207">
        <ele>232.7</ele>
        <time>2020-08-18T12:53:37Z</time>
      </trkpt>
      <trkpt lat="50.44245" lon="5.32207">
        <ele>232.7</ele>
        <time>2020-08-18T12:53:38Z</time>
      </trkpt>
      <trkpt lat="50.44246" lon="5.32206">
        <ele>232.6</ele>
        <time>2020-08-18T12:53:39Z</time>
      </trkpt>
      <trkpt lat="50.44247" lon="5.32205">
        <ele>232.6</ele>
        <time>2020-08-18T12:53:40Z</time>
      </trkpt>
      <trkpt lat="50.44247" lon="5.32204">
        <ele>232.6</ele>
        <time>2020-08-18T12:53:41Z</time>
      </trkpt>
      <trkpt lat="50.44247" lon="5.32203">
        <ele>232.6</ele>
        <time>2020-08-18T12:53:42Z</time>
      </trkpt>
      <trkpt lat="50.44249" lon="5.32202">
        <ele>232.6</ele>
        <time>2020-08-18T12:53:43Z</time>
      </trkpt>
      <trkpt lat="50.4425" lon="5.32201">
        <ele>229.2</ele>
        <time>2020-08-18T12:53:44Z</time>
      </trkpt>
      <trkpt lat="50.44251" lon="5.32199">
        <ele>229.2</ele>
        <time>2020-08-18T12:53:45Z</time>
      </trkpt>
      <trkpt lat="50.44253" lon="5.32198">
        <ele>229.2</ele>
        <time>2020-08-18T12:53:46Z</time>
      </trkpt>
      <trkpt lat="50.44253" lon="5.32197">
        <ele>229.2</ele>
        <time>2020-08-18T12:53:47Z</time>
      </trkpt>
      <trkpt lat="50.44254" lon="5.32195">
        <ele>229.2</ele>
        <time>2020-08-18T12:53:48Z</time>
      </trkpt>
      <trkpt lat="50.44255" lon="5.32194">
        <ele>229.2</ele>
        <time>2020-08-18T12:53:49Z</time>
      </trkpt>
      <trkpt lat="50.44255" lon="5.32192">
        <ele>229.2</ele>
        <time>2020-08-18T12:53:50Z</time>
      </trkpt>
      <trkpt lat="50.44256" lon="5.3219">
        <ele>229.3</ele>
        <time>2020-08-18T12:53:51Z</time>
      </trkpt>
      <trkpt lat="50.44257" lon="5.32189">
        <ele>229.3</ele>
        <time>2020-08-18T12:53:52Z</time>
      </trkpt>
      <trkpt lat="50.44258" lon="5.32187">
        <ele>229.3</ele>
        <time>2020-08-18T12:53:53Z</time>
      </trkpt>
      <trkpt lat="50.44258" lon="5.32185">
        <ele>229.4</ele>
        <time>2020-08-18T12:53:54Z</time>
      </trkpt>
      <trkpt lat="50.44259" lon="5.32183">
        <ele>229.5</ele>
        <time>2020-08-18T12:53:55Z</time>
      </trkpt>
      <trkpt lat="50.44259" lon="5.32181">
        <ele>229.6</ele>
        <time>2020-08-18T12:53:56Z</time>
      </trkpt>
      <trkpt lat="50.44259" lon="5.32179">
        <ele>229.8</ele>
        <time>2020-08-18T12:53:57Z</time>
      </trkpt>
      <trkpt lat="50.4426" lon="5.32177">
        <ele>229.8</ele>
        <time>2020-08-18T12:53:58Z</time>
      </trkpt>
      <trkpt lat="50.44261" lon="5.32174">
        <ele>229.9</ele>
        <time>2020-08-18T12:53:59Z</time>
      </trkpt>
      <trkpt lat="50.44262" lon="5.32172">
        <ele>229.9</ele>
        <time>2020-08-18T12:54:00Z</time>
      </trkpt>
      <trkpt lat="50.44262" lon="5.3217">
        <ele>229.9</ele>
        <time>2020-08-18T12:54:01Z</time>
      </trkpt>
      <trkpt lat="50.44264" lon="5.32168">
        <ele>229.7</ele>
        <time>2020-08-18T12:54:02Z</time>
      </trkpt>
      <trkpt lat="50.44265" lon="5.32167">
        <ele>229.6</ele>
        <time>2020-08-18T12:54:03Z</time>
      </trkpt>
      <trkpt lat="50.44265" lon="5.32166">
        <ele>229.2</ele>
        <time>2020-08-18T12:54:04Z</time>
      </trkpt>
      <trkpt lat="50.44266" lon="5.32165">
        <ele>229</ele>
        <time>2020-08-18T12:54:05Z</time>
      </trkpt>
      <trkpt lat="50.44267" lon="5.32164">
        <ele>228.9</ele>
        <time>2020-08-18T12:54:06Z</time>
      </trkpt>
      <trkpt lat="50.44267" lon="5.32163">
        <ele>228.8</ele>
        <time>2020-08-18T12:54:07Z</time>
      </trkpt>
      <trkpt lat="50.44268" lon="5.32161">
        <ele>228.6</ele>
        <time>2020-08-18T12:54:08Z</time>
      </trkpt>
      <trkpt lat="50.44269" lon="5.3216">
        <ele>228.5</ele>
        <time>2020-08-18T12:54:09Z</time>
      </trkpt>
      <trkpt lat="50.4427" lon="5.32159">
        <ele>228.3</ele>
        <time>2020-08-18T12:54:10Z</time>
      </trkpt>
      <trkpt lat="50.4427" lon="5.32158">
        <ele>228.3</ele>
        <time>2020-08-18T12:54:11Z</time>
      </trkpt>
      <trkpt lat="50.4427" lon="5.32156">
        <ele>228.2</ele>
        <time>2020-08-18T12:54:12Z</time>
      </trkpt>
      <trkpt lat="50.44271" lon="5.32153">
        <ele>228</ele>
        <time>2020-08-18T12:54:13Z</time>
      </trkpt>
      <trkpt lat="50.44271" lon="5.32151">
        <ele>227.9</ele>
        <time>2020-08-18T12:54:14Z</time>
      </trkpt>
      <trkpt lat="50.44272" lon="5.32149">
        <ele>227.7</ele>
        <time>2020-08-18T12:54:15Z</time>
      </trkpt>
      <trkpt lat="50.44272" lon="5.32147">
        <ele>227.7</ele>
        <time>2020-08-18T12:54:16Z</time>
      </trkpt>
      <trkpt lat="50.44273" lon="5.32145">
        <ele>227.5</ele>
        <time>2020-08-18T12:54:17Z</time>
      </trkpt>
      <trkpt lat="50.44273" lon="5.32143">
        <ele>227.4</ele>
        <time>2020-08-18T12:54:18Z</time>
      </trkpt>
      <trkpt lat="50.44273" lon="5.32141">
        <ele>227.4</ele>
        <time>2020-08-18T12:54:19Z</time>
      </trkpt>
      <trkpt lat="50.44275" lon="5.32137">
        <ele>227.1</ele>
        <time>2020-08-18T12:54:21Z</time>
      </trkpt>
      <trkpt lat="50.44275" lon="5.32137">
        <ele>227.1</ele>
        <time>2020-08-18T12:54:22Z</time>
      </trkpt>
      <trkpt lat="50.44276" lon="5.32136">
        <ele>227</ele>
        <time>2020-08-18T12:54:24Z</time>
      </trkpt>
      <trkpt lat="50.44276" lon="5.32136">
        <ele>227</ele>
        <time>2020-08-18T12:54:25Z</time>
      </trkpt>
      <trkpt lat="50.44276" lon="5.32137">
        <ele>227.1</ele>
        <time>2020-08-18T12:54:26Z</time>
      </trkpt>
      <trkpt lat="50.44276" lon="5.32137">
        <ele>227.1</ele>
        <time>2020-08-18T12:54:27Z</time>
      </trkpt>
      <trkpt lat="50.44276" lon="5.32137">
        <ele>227.1</ele>
        <time>2020-08-18T12:54:28Z</time>
      </trkpt>
      <trkpt lat="50.44276" lon="5.32137">
        <ele>227.1</ele>
        <time>2020-08-18T12:54:29Z</time>
      </trkpt>
      <trkpt lat="50.44277" lon="5.32137">
        <ele>227</ele>
        <time>2020-08-18T12:54:30Z</time>
      </trkpt>
      <trkpt lat="50.44278" lon="5.32136">
        <ele>226.9</ele>
        <time>2020-08-18T12:54:31Z</time>
      </trkpt>
      <trkpt lat="50.44279" lon="5.32135">
        <ele>226.8</ele>
        <time>2020-08-18T12:54:32Z</time>
      </trkpt>
      <trkpt lat="50.4428" lon="5.32134">
        <ele>226.8</ele>
        <time>2020-08-18T12:54:33Z</time>
      </trkpt>
      <trkpt lat="50.4428" lon="5.32133">
        <ele>226.7</ele>
        <time>2020-08-18T12:54:34Z</time>
      </trkpt>
      <trkpt lat="50.4428" lon="5.32133">
        <ele>226.7</ele>
        <time>2020-08-18T12:54:35Z</time>
      </trkpt>
      <trkpt lat="50.4428" lon="5.32132">
        <ele>226.7</ele>
        <time>2020-08-18T12:54:36Z</time>
      </trkpt>
      <trkpt lat="50.44281" lon="5.32132">
        <ele>226.7</ele>
        <time>2020-08-18T12:54:37Z</time>
      </trkpt>
      <trkpt lat="50.44281" lon="5.32131">
        <ele>226.6</ele>
        <time>2020-08-18T12:54:38Z</time>
      </trkpt>
      <trkpt lat="50.44282" lon="5.32131">
        <ele>226.6</ele>
        <time>2020-08-18T12:54:39Z</time>
      </trkpt>
      <trkpt lat="50.44283" lon="5.3213">
        <ele>226.5</ele>
        <time>2020-08-18T12:54:40Z</time>
      </trkpt>
      <trkpt lat="50.44283" lon="5.32129">
        <ele>226.5</ele>
        <time>2020-08-18T12:54:41Z</time>
      </trkpt>
      <trkpt lat="50.44283" lon="5.32128">
        <ele>226.5</ele>
        <time>2020-08-18T12:54:42Z</time>
      </trkpt>
      <trkpt lat="50.44283" lon="5.32127">
        <ele>226.5</ele>
        <time>2020-08-18T12:54:43Z</time>
      </trkpt>
      <trkpt lat="50.44283" lon="5.32125">
        <ele>226.5</ele>
        <time>2020-08-18T12:54:44Z</time>
      </trkpt>
      <trkpt lat="50.44283" lon="5.32124">
        <ele>226.5</ele>
        <time>2020-08-18T12:54:45Z</time>
      </trkpt>
      <trkpt lat="50.44283" lon="5.32123">
        <ele>226.4</ele>
        <time>2020-08-18T12:54:46Z</time>
      </trkpt>
      <trkpt lat="50.44283" lon="5.32121">
        <ele>226.4</ele>
        <time>2020-08-18T12:54:47Z</time>
      </trkpt>
      <trkpt lat="50.44283" lon="5.3212">
        <ele>226.4</ele>
        <time>2020-08-18T12:54:48Z</time>
      </trkpt>
      <trkpt lat="50.44283" lon="5.32119">
        <ele>226.4</ele>
        <time>2020-08-18T12:54:49Z</time>
      </trkpt>
      <trkpt lat="50.44283" lon="5.32118">
        <ele>226.4</ele>
        <time>2020-08-18T12:54:50Z</time>
      </trkpt>
      <trkpt lat="50.44284" lon="5.32117">
        <ele>226.3</ele>
        <time>2020-08-18T12:54:51Z</time>
      </trkpt>
      <trkpt lat="50.44284" lon="5.32116">
        <ele>226.3</ele>
        <time>2020-08-18T12:54:52Z</time>
      </trkpt>
      <trkpt lat="50.44284" lon="5.32114">
        <ele>226.3</ele>
        <time>2020-08-18T12:54:53Z</time>
      </trkpt>
      <trkpt lat="50.44284" lon="5.32113">
        <ele>226.3</ele>
        <time>2020-08-18T12:54:54Z</time>
      </trkpt>
      <trkpt lat="50.44284" lon="5.32112">
        <ele>226.3</ele>
        <time>2020-08-18T12:54:55Z</time>
      </trkpt>
      <trkpt lat="50.44285" lon="5.32111">
        <ele>226.3</ele>
        <time>2020-08-18T12:54:56Z</time>
      </trkpt>
      <trkpt lat="50.44285" lon="5.3211">
        <ele>226.3</ele>
        <time>2020-08-18T12:54:57Z</time>
      </trkpt>
      <trkpt lat="50.44286" lon="5.32109">
        <ele>226.2</ele>
        <time>2020-08-18T12:54:58Z</time>
      </trkpt>
      <trkpt lat="50.44286" lon="5.32108">
        <ele>226.2</ele>
        <time>2020-08-18T12:54:59Z</time>
      </trkpt>
      <trkpt lat="50.44286" lon="5.32108">
        <ele>226.2</ele>
        <time>2020-08-18T12:55:00Z</time>
      </trkpt>
      <trkpt lat="50.44286" lon="5.32108">
        <ele>226.2</ele>
        <time>2020-08-18T12:55:01Z</time>
      </trkpt>
      <trkpt lat="50.44286" lon="5.32108">
        <ele>226.2</ele>
        <time>2020-08-18T12:55:02Z</time>
      </trkpt>
      <trkpt lat="50.44286" lon="5.32107">
        <ele>226.2</ele>
        <time>2020-08-18T12:55:03Z</time>
      </trkpt>
      <trkpt lat="50.44286" lon="5.32105">
        <ele>226.2</ele>
        <time>2020-08-18T12:55:03Z</time>
      </trkpt>
      <trkpt lat="50.44287" lon="5.32104">
        <ele>226.1</ele>
        <time>2020-08-18T12:55:04Z</time>
      </trkpt>
      <trkpt lat="50.44288" lon="5.32103">
        <ele>226.1</ele>
        <time>2020-08-18T12:55:05Z</time>
      </trkpt>
      <trkpt lat="50.44289" lon="5.32103">
        <ele>226</ele>
        <time>2020-08-18T12:55:06Z</time>
      </trkpt>
      <trkpt lat="50.4429" lon="5.32104">
        <ele>226</ele>
        <time>2020-08-18T12:55:07Z</time>
      </trkpt>
      <trkpt lat="50.44291" lon="5.32105">
        <ele>225.9</ele>
        <time>2020-08-18T12:55:08Z</time>
      </trkpt>
      <trkpt lat="50.44292" lon="5.32105">
        <ele>225.9</ele>
        <time>2020-08-18T12:55:09Z</time>
      </trkpt>
      <trkpt lat="50.44294" lon="5.32104">
        <ele>225.7</ele>
        <time>2020-08-18T12:55:10Z</time>
      </trkpt>
      <trkpt lat="50.44295" lon="5.32104">
        <ele>225.7</ele>
        <time>2020-08-18T12:55:11Z</time>
      </trkpt>
      <trkpt lat="50.44296" lon="5.32103">
        <ele>225.6</ele>
        <time>2020-08-18T12:55:12Z</time>
      </trkpt>
      <trkpt lat="50.44297" lon="5.32102">
        <ele>225.6</ele>
        <time>2020-08-18T12:55:13Z</time>
      </trkpt>
      <trkpt lat="50.44298" lon="5.32102">
        <ele>225.5</ele>
        <time>2020-08-18T12:55:14Z</time>
      </trkpt>
      <trkpt lat="50.44298" lon="5.32101">
        <ele>225.5</ele>
        <time>2020-08-18T12:55:15Z</time>
      </trkpt>
      <trkpt lat="50.44298" lon="5.32101">
        <ele>225.5</ele>
        <time>2020-08-18T12:55:16Z</time>
      </trkpt>
      <trkpt lat="50.44298" lon="5.321">
        <ele>225.5</ele>
        <time>2020-08-18T12:55:17Z</time>
      </trkpt>
      <trkpt lat="50.44297" lon="5.321">
        <ele>225.5</ele>
        <time>2020-08-18T12:55:18Z</time>
      </trkpt>
      <trkpt lat="50.44297" lon="5.32099">
        <ele>225.5</ele>
        <time>2020-08-18T12:55:19Z</time>
      </trkpt>
      <trkpt lat="50.44296" lon="5.32097">
        <ele>225.6</ele>
        <time>2020-08-18T12:55:20Z</time>
      </trkpt>
      <trkpt lat="50.44296" lon="5.32096">
        <ele>225.6</ele>
        <time>2020-08-18T12:55:21Z</time>
      </trkpt>
      <trkpt lat="50.44296" lon="5.32094">
        <ele>225.6</ele>
        <time>2020-08-18T12:55:22Z</time>
      </trkpt>
      <trkpt lat="50.44296" lon="5.32093">
        <ele>225.6</ele>
        <time>2020-08-18T12:55:23Z</time>
      </trkpt>
      <trkpt lat="50.44297" lon="5.32091">
        <ele>225.5</ele>
        <time>2020-08-18T12:55:24Z</time>
      </trkpt>
      <trkpt lat="50.44297" lon="5.32089">
        <ele>225.5</ele>
        <time>2020-08-18T12:55:25Z</time>
      </trkpt>
      <trkpt lat="50.44297" lon="5.32087">
        <ele>225.5</ele>
        <time>2020-08-18T12:55:26Z</time>
      </trkpt>
      <trkpt lat="50.44298" lon="5.32085">
        <ele>225.4</ele>
        <time>2020-08-18T12:55:27Z</time>
      </trkpt>
      <trkpt lat="50.44298" lon="5.32084">
        <ele>225.4</ele>
        <time>2020-08-18T12:55:28Z</time>
      </trkpt>
      <trkpt lat="50.44299" lon="5.32082">
        <ele>225.6</ele>
        <time>2020-08-18T12:55:29Z</time>
      </trkpt>
      <trkpt lat="50.443" lon="5.32081">
        <ele>225.6</ele>
        <time>2020-08-18T12:55:30Z</time>
      </trkpt>
      <trkpt lat="50.44301" lon="5.3208">
        <ele>225.5</ele>
        <time>2020-08-18T12:55:31Z</time>
      </trkpt>
      <trkpt lat="50.44301" lon="5.32079">
        <ele>225.5</ele>
        <time>2020-08-18T12:55:32Z</time>
      </trkpt>
      <trkpt lat="50.44302" lon="5.32078">
        <ele>225.5</ele>
        <time>2020-08-18T12:55:33Z</time>
      </trkpt>
      <trkpt lat="50.44304" lon="5.32077">
        <ele>225.3</ele>
        <time>2020-08-18T12:55:34Z</time>
      </trkpt>
      <trkpt lat="50.44304" lon="5.32076">
        <ele>225.4</ele>
        <time>2020-08-18T12:55:35Z</time>
      </trkpt>
      <trkpt lat="50.44305" lon="5.32074">
        <ele>225.3</ele>
        <time>2020-08-18T12:55:36Z</time>
      </trkpt>
      <trkpt lat="50.44305" lon="5.32072">
        <ele>225.4</ele>
        <time>2020-08-18T12:55:37Z</time>
      </trkpt>
      <trkpt lat="50.44307" lon="5.3207">
        <ele>225.3</ele>
        <time>2020-08-18T12:55:38Z</time>
      </trkpt>
      <trkpt lat="50.44307" lon="5.32069">
        <ele>225.3</ele>
        <time>2020-08-18T12:55:39Z</time>
      </trkpt>
      <trkpt lat="50.44308" lon="5.32067">
        <ele>225.3</ele>
        <time>2020-08-18T12:55:40Z</time>
      </trkpt>
      <trkpt lat="50.44309" lon="5.32065">
        <ele>225.3</ele>
        <time>2020-08-18T12:55:41Z</time>
      </trkpt>
      <trkpt lat="50.44309" lon="5.32062">
        <ele>225.4</ele>
        <time>2020-08-18T12:55:42Z</time>
      </trkpt>
      <trkpt lat="50.4431" lon="5.3206">
        <ele>225.4</ele>
        <time>2020-08-18T12:55:43Z</time>
      </trkpt>
      <trkpt lat="50.4431" lon="5.32059">
        <ele>225.4</ele>
        <time>2020-08-18T12:55:44Z</time>
      </trkpt>
      <trkpt lat="50.4431" lon="5.32057">
        <ele>225.4</ele>
        <time>2020-08-18T12:55:45Z</time>
      </trkpt>
      <trkpt lat="50.44311" lon="5.32055">
        <ele>225.5</ele>
        <time>2020-08-18T12:55:46Z</time>
      </trkpt>
      <trkpt lat="50.44312" lon="5.32054">
        <ele>225.4</ele>
        <time>2020-08-18T12:55:47Z</time>
      </trkpt>
      <trkpt lat="50.44313" lon="5.32053">
        <ele>225.4</ele>
        <time>2020-08-18T12:55:48Z</time>
      </trkpt>
      <trkpt lat="50.44313" lon="5.32052">
        <ele>225.5</ele>
        <time>2020-08-18T12:55:49Z</time>
      </trkpt>
      <trkpt lat="50.44314" lon="5.32051">
        <ele>225.4</ele>
        <time>2020-08-18T12:55:50Z</time>
      </trkpt>
      <trkpt lat="50.44315" lon="5.3205">
        <ele>225.4</ele>
        <time>2020-08-18T12:55:51Z</time>
      </trkpt>
      <trkpt lat="50.44316" lon="5.32049">
        <ele>225.4</ele>
        <time>2020-08-18T12:55:52Z</time>
      </trkpt>
      <trkpt lat="50.44317" lon="5.32048">
        <ele>225.4</ele>
        <time>2020-08-18T12:55:53Z</time>
      </trkpt>
      <trkpt lat="50.44317" lon="5.32047">
        <ele>225.4</ele>
        <time>2020-08-18T12:55:54Z</time>
      </trkpt>
      <trkpt lat="50.44318" lon="5.32046">
        <ele>225.4</ele>
        <time>2020-08-18T12:55:55Z</time>
      </trkpt>
      <trkpt lat="50.44318" lon="5.32044">
        <ele>225.5</ele>
        <time>2020-08-18T12:55:56Z</time>
      </trkpt>
      <trkpt lat="50.44319" lon="5.32043">
        <ele>225.5</ele>
        <time>2020-08-18T12:55:57Z</time>
      </trkpt>
      <trkpt lat="50.44319" lon="5.3204">
        <ele>225.5</ele>
        <time>2020-08-18T12:55:58Z</time>
      </trkpt>
      <trkpt lat="50.4432" lon="5.32039">
        <ele>225.5</ele>
        <time>2020-08-18T12:55:59Z</time>
      </trkpt>
      <trkpt lat="50.4432" lon="5.32037">
        <ele>225.5</ele>
        <time>2020-08-18T12:56:00Z</time>
      </trkpt>
      <trkpt lat="50.44321" lon="5.32036">
        <ele>225.5</ele>
        <time>2020-08-18T12:56:01Z</time>
      </trkpt>
      <trkpt lat="50.44322" lon="5.32035">
        <ele>225.5</ele>
        <time>2020-08-18T12:56:02Z</time>
      </trkpt>
      <trkpt lat="50.44323" lon="5.32033">
        <ele>225.5</ele>
        <time>2020-08-18T12:56:03Z</time>
      </trkpt>
      <trkpt lat="50.44324" lon="5.32031">
        <ele>225.4</ele>
        <time>2020-08-18T12:56:04Z</time>
      </trkpt>
      <trkpt lat="50.44325" lon="5.32029">
        <ele>225.4</ele>
        <time>2020-08-18T12:56:05Z</time>
      </trkpt>
      <trkpt lat="50.44325" lon="5.32027">
        <ele>225.4</ele>
        <time>2020-08-18T12:56:06Z</time>
      </trkpt>
      <trkpt lat="50.44326" lon="5.32026">
        <ele>225.4</ele>
        <time>2020-08-18T12:56:07Z</time>
      </trkpt>
      <trkpt lat="50.44326" lon="5.32024">
        <ele>225.3</ele>
        <time>2020-08-18T12:56:08Z</time>
      </trkpt>
      <trkpt lat="50.44327" lon="5.32021">
        <ele>225.3</ele>
        <time>2020-08-18T12:56:10Z</time>
      </trkpt>
      <trkpt lat="50.44327" lon="5.32021">
        <ele>225.3</ele>
        <time>2020-08-18T12:56:11Z</time>
      </trkpt>
      <trkpt lat="50.44328" lon="5.3202">
        <ele>225.2</ele>
        <time>2020-08-18T12:56:12Z</time>
      </trkpt>
      <trkpt lat="50.44328" lon="5.32018">
        <ele>225.2</ele>
        <time>2020-08-18T12:56:13Z</time>
      </trkpt>
      <trkpt lat="50.44329" lon="5.32017">
        <ele>225.1</ele>
        <time>2020-08-18T12:56:14Z</time>
      </trkpt>
      <trkpt lat="50.4433" lon="5.32017">
        <ele>225.1</ele>
        <time>2020-08-18T12:56:15Z</time>
      </trkpt>
      <trkpt lat="50.4433" lon="5.32016">
        <ele>225.1</ele>
        <time>2020-08-18T12:56:16Z</time>
      </trkpt>
      <trkpt lat="50.44331" lon="5.32016">
        <ele>225</ele>
        <time>2020-08-18T12:56:17Z</time>
      </trkpt>
      <trkpt lat="50.44331" lon="5.32016">
        <ele>225</ele>
        <time>2020-08-18T12:56:18Z</time>
      </trkpt>
      <trkpt lat="50.44332" lon="5.32016">
        <ele>225</ele>
        <time>2020-08-18T12:56:19Z</time>
      </trkpt>
      <trkpt lat="50.44333" lon="5.32015">
        <ele>225</ele>
        <time>2020-08-18T12:56:20Z</time>
      </trkpt>
      <trkpt lat="50.44334" lon="5.32014">
        <ele>223.9</ele>
        <time>2020-08-18T12:56:21Z</time>
      </trkpt>
      <trkpt lat="50.44334" lon="5.32014">
        <ele>223.9</ele>
        <time>2020-08-18T12:56:22Z</time>
      </trkpt>
      <trkpt lat="50.44335" lon="5.32013">
        <ele>223.9</ele>
        <time>2020-08-18T12:56:23Z</time>
      </trkpt>
      <trkpt lat="50.44336" lon="5.32012">
        <ele>223.9</ele>
        <time>2020-08-18T12:56:24Z</time>
      </trkpt>
      <trkpt lat="50.44336" lon="5.32011">
        <ele>223.9</ele>
        <time>2020-08-18T12:56:25Z</time>
      </trkpt>
      <trkpt lat="50.44337" lon="5.3201">
        <ele>223.9</ele>
        <time>2020-08-18T12:56:27Z</time>
      </trkpt>
      <trkpt lat="50.44336" lon="5.32009">
        <ele>223.9</ele>
        <time>2020-08-18T12:56:29Z</time>
      </trkpt>
      <trkpt lat="50.44336" lon="5.32009">
        <ele>223.9</ele>
        <time>2020-08-18T12:56:30Z</time>
      </trkpt>
      <trkpt lat="50.44336" lon="5.32009">
        <ele>223.9</ele>
        <time>2020-08-18T12:56:31Z</time>
      </trkpt>
      <trkpt lat="50.44336" lon="5.32008">
        <ele>223.9</ele>
        <time>2020-08-18T12:56:32Z</time>
      </trkpt>
      <trkpt lat="50.44337" lon="5.32007">
        <ele>224</ele>
        <time>2020-08-18T12:56:33Z</time>
      </trkpt>
      <trkpt lat="50.44337" lon="5.32007">
        <ele>224</ele>
        <time>2020-08-18T12:56:34Z</time>
      </trkpt>
      <trkpt lat="50.44337" lon="5.32006">
        <ele>224</ele>
        <time>2020-08-18T12:56:35Z</time>
      </trkpt>
      <trkpt lat="50.44338" lon="5.32005">
        <ele>224</ele>
        <time>2020-08-18T12:56:36Z</time>
      </trkpt>
      <trkpt lat="50.44338" lon="5.32004">
        <ele>224</ele>
        <time>2020-08-18T12:56:37Z</time>
      </trkpt>
      <trkpt lat="50.44339" lon="5.32003">
        <ele>224</ele>
        <time>2020-08-18T12:56:38Z</time>
      </trkpt>
      <trkpt lat="50.4434" lon="5.32002">
        <ele>224</ele>
        <time>2020-08-18T12:56:39Z</time>
      </trkpt>
      <trkpt lat="50.44341" lon="5.32001">
        <ele>224</ele>
        <time>2020-08-18T12:56:40Z</time>
      </trkpt>
      <trkpt lat="50.44342" lon="5.32001">
        <ele>224</ele>
        <time>2020-08-18T12:56:41Z</time>
      </trkpt>
      <trkpt lat="50.44342" lon="5.32001">
        <ele>224</ele>
        <time>2020-08-18T12:56:42Z</time>
      </trkpt>
      <trkpt lat="50.44343" lon="5.32001">
        <ele>224</ele>
        <time>2020-08-18T12:56:43Z</time>
      </trkpt>
      <trkpt lat="50.44344" lon="5.32001">
        <ele>224</ele>
        <time>2020-08-18T12:56:44Z</time>
      </trkpt>
      <trkpt lat="50.44345" lon="5.32001">
        <ele>224</ele>
        <time>2020-08-18T12:56:45Z</time>
      </trkpt>
      <trkpt lat="50.44346" lon="5.32">
        <ele>224</ele>
        <time>2020-08-18T12:56:46Z</time>
      </trkpt>
      <trkpt lat="50.44346" lon="5.31999">
        <ele>224.4</ele>
        <time>2020-08-18T12:56:47Z</time>
      </trkpt>
      <trkpt lat="50.44346" lon="5.31999">
        <ele>224.4</ele>
        <time>2020-08-18T12:56:48Z</time>
      </trkpt>
      <trkpt lat="50.44347" lon="5.31998">
        <ele>224.4</ele>
        <time>2020-08-18T12:56:49Z</time>
      </trkpt>
      <trkpt lat="50.44347" lon="5.31997">
        <ele>224.4</ele>
        <time>2020-08-18T12:56:50Z</time>
      </trkpt>
      <trkpt lat="50.44349" lon="5.31996">
        <ele>224.5</ele>
        <time>2020-08-18T12:56:51Z</time>
      </trkpt>
      <trkpt lat="50.44349" lon="5.31995">
        <ele>224.5</ele>
        <time>2020-08-18T12:56:52Z</time>
      </trkpt>
      <trkpt lat="50.4435" lon="5.31993">
        <ele>224.5</ele>
        <time>2020-08-18T12:56:53Z</time>
      </trkpt>
      <trkpt lat="50.44351" lon="5.31992">
        <ele>224.5</ele>
        <time>2020-08-18T12:56:54Z</time>
      </trkpt>
      <trkpt lat="50.44352" lon="5.31991">
        <ele>224.6</ele>
        <time>2020-08-18T12:56:55Z</time>
      </trkpt>
      <trkpt lat="50.44352" lon="5.3199">
        <ele>224.6</ele>
        <time>2020-08-18T12:56:56Z</time>
      </trkpt>
      <trkpt lat="50.44354" lon="5.31989">
        <ele>224.6</ele>
        <time>2020-08-18T12:56:57Z</time>
      </trkpt>
      <trkpt lat="50.44354" lon="5.31988">
        <ele>224.6</ele>
        <time>2020-08-18T12:56:58Z</time>
      </trkpt>
      <trkpt lat="50.44354" lon="5.31987">
        <ele>224.6</ele>
        <time>2020-08-18T12:56:59Z</time>
      </trkpt>
      <trkpt lat="50.44355" lon="5.31986">
        <ele>224.7</ele>
        <time>2020-08-18T12:57:00Z</time>
      </trkpt>
      <trkpt lat="50.44355" lon="5.31984">
        <ele>224.7</ele>
        <time>2020-08-18T12:57:01Z</time>
      </trkpt>
      <trkpt lat="50.44355" lon="5.31983">
        <ele>224.7</ele>
        <time>2020-08-18T12:57:02Z</time>
      </trkpt>
      <trkpt lat="50.44356" lon="5.31982">
        <ele>224.7</ele>
        <time>2020-08-18T12:57:03Z</time>
      </trkpt>
      <trkpt lat="50.44356" lon="5.31982">
        <ele>224.7</ele>
        <time>2020-08-18T12:57:04Z</time>
      </trkpt>
      <trkpt lat="50.44356" lon="5.31981">
        <ele>224.7</ele>
        <time>2020-08-18T12:57:05Z</time>
      </trkpt>
      <trkpt lat="50.44357" lon="5.31981">
        <ele>224.7</ele>
        <time>2020-08-18T12:57:06Z</time>
      </trkpt>
      <trkpt lat="50.44358" lon="5.3198">
        <ele>224.8</ele>
        <time>2020-08-18T12:57:07Z</time>
      </trkpt>
      <trkpt lat="50.44359" lon="5.31979">
        <ele>224.8</ele>
        <time>2020-08-18T12:57:08Z</time>
      </trkpt>
      <trkpt lat="50.4436" lon="5.31978">
        <ele>224.8</ele>
        <time>2020-08-18T12:57:09Z</time>
      </trkpt>
      <trkpt lat="50.44361" lon="5.31977">
        <ele>224.8</ele>
        <time>2020-08-18T12:57:10Z</time>
      </trkpt>
      <trkpt lat="50.44362" lon="5.31976">
        <ele>224.8</ele>
        <time>2020-08-18T12:57:11Z</time>
      </trkpt>
      <trkpt lat="50.44362" lon="5.31975">
        <ele>224.8</ele>
        <time>2020-08-18T12:57:12Z</time>
      </trkpt>
      <trkpt lat="50.44363" lon="5.31974">
        <ele>224.8</ele>
        <time>2020-08-18T12:57:13Z</time>
      </trkpt>
      <trkpt lat="50.44364" lon="5.31973">
        <ele>224.9</ele>
        <time>2020-08-18T12:57:14Z</time>
      </trkpt>
      <trkpt lat="50.44365" lon="5.31971">
        <ele>224.9</ele>
        <time>2020-08-18T12:57:15Z</time>
      </trkpt>
      <trkpt lat="50.44366" lon="5.31971">
        <ele>224.9</ele>
        <time>2020-08-18T12:57:16Z</time>
      </trkpt>
      <trkpt lat="50.44367" lon="5.3197">
        <ele>224.9</ele>
        <time>2020-08-18T12:57:17Z</time>
      </trkpt>
      <trkpt lat="50.44367" lon="5.31969">
        <ele>224.9</ele>
        <time>2020-08-18T12:57:18Z</time>
      </trkpt>
      <trkpt lat="50.44367" lon="5.31968">
        <ele>224.9</ele>
        <time>2020-08-18T12:57:19Z</time>
      </trkpt>
      <trkpt lat="50.44367" lon="5.31967">
        <ele>224.9</ele>
        <time>2020-08-18T12:57:20Z</time>
      </trkpt>
      <trkpt lat="50.44367" lon="5.31966">
        <ele>224.9</ele>
        <time>2020-08-18T12:57:21Z</time>
      </trkpt>
      <trkpt lat="50.44367" lon="5.31964">
        <ele>225</ele>
        <time>2020-08-18T12:57:22Z</time>
      </trkpt>
      <trkpt lat="50.44368" lon="5.31961">
        <ele>225</ele>
        <time>2020-08-18T12:57:24Z</time>
      </trkpt>
      <trkpt lat="50.44368" lon="5.3196">
        <ele>225</ele>
        <time>2020-08-18T12:57:25Z</time>
      </trkpt>
      <trkpt lat="50.44368" lon="5.3196">
        <ele>225</ele>
        <time>2020-08-18T12:57:26Z</time>
      </trkpt>
      <trkpt lat="50.44369" lon="5.31959">
        <ele>225</ele>
        <time>2020-08-18T12:57:28Z</time>
      </trkpt>
      <trkpt lat="50.44369" lon="5.31959">
        <ele>225</ele>
        <time>2020-08-18T12:57:29Z</time>
      </trkpt>
      <trkpt lat="50.4437" lon="5.31959">
        <ele>225</ele>
        <time>2020-08-18T12:57:30Z</time>
      </trkpt>
      <trkpt lat="50.4437" lon="5.31959">
        <ele>225</ele>
        <time>2020-08-18T12:57:31Z</time>
      </trkpt>
      <trkpt lat="50.4437" lon="5.31959">
        <ele>225</ele>
        <time>2020-08-18T12:57:32Z</time>
      </trkpt>
      <trkpt lat="50.44371" lon="5.31957">
        <ele>225</ele>
        <time>2020-08-18T12:57:33Z</time>
      </trkpt>
      <trkpt lat="50.44371" lon="5.31956">
        <ele>225.1</ele>
        <time>2020-08-18T12:57:34Z</time>
      </trkpt>
      <trkpt lat="50.44371" lon="5.31954">
        <ele>225.1</ele>
        <time>2020-08-18T12:57:35Z</time>
      </trkpt>
      <trkpt lat="50.44371" lon="5.31953">
        <ele>225.1</ele>
        <time>2020-08-18T12:57:36Z</time>
      </trkpt>
      <trkpt lat="50.44372" lon="5.31952">
        <ele>225.1</ele>
        <time>2020-08-18T12:57:37Z</time>
      </trkpt>
      <trkpt lat="50.44373" lon="5.31951">
        <ele>225.1</ele>
        <time>2020-08-18T12:57:38Z</time>
      </trkpt>
      <trkpt lat="50.44373" lon="5.3195">
        <ele>225.1</ele>
        <time>2020-08-18T12:57:39Z</time>
      </trkpt>
      <trkpt lat="50.44373" lon="5.31949">
        <ele>225.1</ele>
        <time>2020-08-18T12:57:40Z</time>
      </trkpt>
      <trkpt lat="50.44374" lon="5.31948">
        <ele>225.1</ele>
        <time>2020-08-18T12:57:41Z</time>
      </trkpt>
      <trkpt lat="50.44375" lon="5.31946">
        <ele>225.1</ele>
        <time>2020-08-18T12:57:42Z</time>
      </trkpt>
      <trkpt lat="50.44375" lon="5.31944">
        <ele>225.2</ele>
        <time>2020-08-18T12:57:43Z</time>
      </trkpt>
      <trkpt lat="50.44376" lon="5.31941">
        <ele>225.2</ele>
        <time>2020-08-18T12:57:44Z</time>
      </trkpt>
      <trkpt lat="50.44376" lon="5.31939">
        <ele>225.2</ele>
        <time>2020-08-18T12:57:45Z</time>
      </trkpt>
      <trkpt lat="50.44377" lon="5.31936">
        <ele>225.2</ele>
        <time>2020-08-18T12:57:46Z</time>
      </trkpt>
      <trkpt lat="50.44378" lon="5.31934">
        <ele>225.2</ele>
        <time>2020-08-18T12:57:47Z</time>
      </trkpt>
      <trkpt lat="50.44378" lon="5.31931">
        <ele>225.3</ele>
        <time>2020-08-18T12:57:48Z</time>
      </trkpt>
      <trkpt lat="50.44379" lon="5.31929">
        <ele>225.3</ele>
        <time>2020-08-18T12:57:49Z</time>
      </trkpt>
      <trkpt lat="50.4438" lon="5.31928">
        <ele>225.2</ele>
        <time>2020-08-18T12:57:50Z</time>
      </trkpt>
      <trkpt lat="50.44381" lon="5.31926">
        <ele>225.2</ele>
        <time>2020-08-18T12:57:51Z</time>
      </trkpt>
      <trkpt lat="50.44382" lon="5.31925">
        <ele>225.2</ele>
        <time>2020-08-18T12:57:52Z</time>
      </trkpt>
      <trkpt lat="50.44382" lon="5.31925">
        <ele>225.2</ele>
        <time>2020-08-18T12:57:53Z</time>
      </trkpt>
      <trkpt lat="50.44383" lon="5.31923">
        <ele>225.2</ele>
        <time>2020-08-18T12:57:54Z</time>
      </trkpt>
      <trkpt lat="50.44384" lon="5.31922">
        <ele>225.2</ele>
        <time>2020-08-18T12:57:55Z</time>
      </trkpt>
      <trkpt lat="50.44384" lon="5.31921">
        <ele>225.2</ele>
        <time>2020-08-18T12:57:56Z</time>
      </trkpt>
      <trkpt lat="50.44385" lon="5.3192">
        <ele>225.2</ele>
        <time>2020-08-18T12:57:57Z</time>
      </trkpt>
      <trkpt lat="50.44386" lon="5.31919">
        <ele>225.2</ele>
        <time>2020-08-18T12:57:58Z</time>
      </trkpt>
      <trkpt lat="50.44387" lon="5.31919">
        <ele>225.2</ele>
        <time>2020-08-18T12:57:59Z</time>
      </trkpt>
      <trkpt lat="50.44387" lon="5.31918">
        <ele>225.2</ele>
        <time>2020-08-18T12:58:00Z</time>
      </trkpt>
      <trkpt lat="50.44388" lon="5.31917">
        <ele>225.2</ele>
        <time>2020-08-18T12:58:01Z</time>
      </trkpt>
      <trkpt lat="50.44389" lon="5.31916">
        <ele>226.6</ele>
        <time>2020-08-18T12:58:02Z</time>
      </trkpt>
      <trkpt lat="50.44389" lon="5.31916">
        <ele>226.6</ele>
        <time>2020-08-18T12:58:03Z</time>
      </trkpt>
      <trkpt lat="50.44389" lon="5.31915">
        <ele>226.6</ele>
        <time>2020-08-18T12:58:04Z</time>
      </trkpt>
      <trkpt lat="50.44389" lon="5.31914">
        <ele>226.6</ele>
        <time>2020-08-18T12:58:05Z</time>
      </trkpt>
      <trkpt lat="50.44389" lon="5.31913">
        <ele>226.6</ele>
        <time>2020-08-18T12:58:06Z</time>
      </trkpt>
      <trkpt lat="50.4439" lon="5.31912">
        <ele>226.6</ele>
        <time>2020-08-18T12:58:07Z</time>
      </trkpt>
      <trkpt lat="50.4439" lon="5.31911">
        <ele>226.6</ele>
        <time>2020-08-18T12:58:08Z</time>
      </trkpt>
      <trkpt lat="50.44391" lon="5.31909">
        <ele>226.6</ele>
        <time>2020-08-18T12:58:09Z</time>
      </trkpt>
      <trkpt lat="50.44391" lon="5.31908">
        <ele>226.6</ele>
        <time>2020-08-18T12:58:10Z</time>
      </trkpt>
      <trkpt lat="50.44391" lon="5.31907">
        <ele>226.7</ele>
        <time>2020-08-18T12:58:11Z</time>
      </trkpt>
      <trkpt lat="50.44391" lon="5.31906">
        <ele>226.7</ele>
        <time>2020-08-18T12:58:12Z</time>
      </trkpt>
      <trkpt lat="50.44392" lon="5.31905">
        <ele>226.7</ele>
        <time>2020-08-18T12:58:13Z</time>
      </trkpt>
      <trkpt lat="50.44392" lon="5.31904">
        <ele>226.7</ele>
        <time>2020-08-18T12:58:14Z</time>
      </trkpt>
      <trkpt lat="50.44393" lon="5.31902">
        <ele>226.7</ele>
        <time>2020-08-18T12:58:15Z</time>
      </trkpt>
      <trkpt lat="50.44394" lon="5.319">
        <ele>226.7</ele>
        <time>2020-08-18T12:58:16Z</time>
      </trkpt>
      <trkpt lat="50.44395" lon="5.31899">
        <ele>226.7</ele>
        <time>2020-08-18T12:58:17Z</time>
      </trkpt>
      <trkpt lat="50.44395" lon="5.31896">
        <ele>226.8</ele>
        <time>2020-08-18T12:58:18Z</time>
      </trkpt>
      <trkpt lat="50.44395" lon="5.31895">
        <ele>226.8</ele>
        <time>2020-08-18T12:58:19Z</time>
      </trkpt>
      <trkpt lat="50.44396" lon="5.31893">
        <ele>226.9</ele>
        <time>2020-08-18T12:58:20Z</time>
      </trkpt>
      <trkpt lat="50.44397" lon="5.31891">
        <ele>226.9</ele>
        <time>2020-08-18T12:58:21Z</time>
      </trkpt>
      <trkpt lat="50.44397" lon="5.31889">
        <ele>227</ele>
        <time>2020-08-18T12:58:22Z</time>
      </trkpt>
      <trkpt lat="50.44398" lon="5.31888">
        <ele>227</ele>
        <time>2020-08-18T12:58:23Z</time>
      </trkpt>
      <trkpt lat="50.44398" lon="5.31887">
        <ele>227</ele>
        <time>2020-08-18T12:58:24Z</time>
      </trkpt>
      <trkpt lat="50.44399" lon="5.31887">
        <ele>227</ele>
        <time>2020-08-18T12:58:25Z</time>
      </trkpt>
      <trkpt lat="50.44399" lon="5.31887">
        <ele>227</ele>
        <time>2020-08-18T12:58:26Z</time>
      </trkpt>
      <trkpt lat="50.44399" lon="5.31887">
        <ele>227</ele>
        <time>2020-08-18T12:58:27Z</time>
      </trkpt>
      <trkpt lat="50.44399" lon="5.31887">
        <ele>227</ele>
        <time>2020-08-18T12:58:28Z</time>
      </trkpt>
      <trkpt lat="50.44399" lon="5.31886">
        <ele>227</ele>
        <time>2020-08-18T12:58:29Z</time>
      </trkpt>
      <trkpt lat="50.444" lon="5.31886">
        <ele>227</ele>
        <time>2020-08-18T12:58:30Z</time>
      </trkpt>
      <trkpt lat="50.44401" lon="5.31885">
        <ele>227.1</ele>
        <time>2020-08-18T12:58:31Z</time>
      </trkpt>
      <trkpt lat="50.44401" lon="5.31884">
        <ele>227.1</ele>
        <time>2020-08-18T12:58:32Z</time>
      </trkpt>
      <trkpt lat="50.44402" lon="5.31883">
        <ele>227.1</ele>
        <time>2020-08-18T12:58:33Z</time>
      </trkpt>
      <trkpt lat="50.44402" lon="5.31882">
        <ele>227.1</ele>
        <time>2020-08-18T12:58:34Z</time>
      </trkpt>
      <trkpt lat="50.44402" lon="5.31882">
        <ele>227.1</ele>
        <time>2020-08-18T12:58:35Z</time>
      </trkpt>
      <trkpt lat="50.44402" lon="5.31881">
        <ele>227.2</ele>
        <time>2020-08-18T12:58:36Z</time>
      </trkpt>
      <trkpt lat="50.44403" lon="5.31881">
        <ele>227.2</ele>
        <time>2020-08-18T12:58:37Z</time>
      </trkpt>
      <trkpt lat="50.44403" lon="5.3188">
        <ele>227.2</ele>
        <time>2020-08-18T12:58:38Z</time>
      </trkpt>
      <trkpt lat="50.44404" lon="5.3188">
        <ele>227.2</ele>
        <time>2020-08-18T12:58:39Z</time>
      </trkpt>
      <trkpt lat="50.44404" lon="5.31879">
        <ele>227.2</ele>
        <time>2020-08-18T12:58:40Z</time>
      </trkpt>
      <trkpt lat="50.44405" lon="5.31879">
        <ele>227.2</ele>
        <time>2020-08-18T12:58:41Z</time>
      </trkpt>
      <trkpt lat="50.44405" lon="5.31878">
        <ele>227.2</ele>
        <time>2020-08-18T12:58:42Z</time>
      </trkpt>
      <trkpt lat="50.44406" lon="5.31876">
        <ele>227.3</ele>
        <time>2020-08-18T12:58:43Z</time>
      </trkpt>
      <trkpt lat="50.44406" lon="5.31875">
        <ele>227.3</ele>
        <time>2020-08-18T12:58:44Z</time>
      </trkpt>
      <trkpt lat="50.44407" lon="5.31875">
        <ele>227.3</ele>
        <time>2020-08-18T12:58:45Z</time>
      </trkpt>
      <trkpt lat="50.44407" lon="5.31875">
        <ele>227.3</ele>
        <time>2020-08-18T12:58:46Z</time>
      </trkpt>
      <trkpt lat="50.44407" lon="5.31875">
        <ele>227.3</ele>
        <time>2020-08-18T12:58:47Z</time>
      </trkpt>
      <trkpt lat="50.44407" lon="5.31875">
        <ele>227.3</ele>
        <time>2020-08-18T12:58:48Z</time>
      </trkpt>
      <trkpt lat="50.44407" lon="5.31875">
        <ele>227.3</ele>
        <time>2020-08-18T12:58:49Z</time>
      </trkpt>
      <trkpt lat="50.44407" lon="5.31874">
        <ele>227.4</ele>
        <time>2020-08-18T12:58:50Z</time>
      </trkpt>
      <trkpt lat="50.44407" lon="5.31873">
        <ele>227.4</ele>
        <time>2020-08-18T12:58:51Z</time>
      </trkpt>
      <trkpt lat="50.44407" lon="5.31871">
        <ele>227.5</ele>
        <time>2020-08-18T12:58:52Z</time>
      </trkpt>
      <trkpt lat="50.44408" lon="5.31869">
        <ele>227.5</ele>
        <time>2020-08-18T12:58:53Z</time>
      </trkpt>
      <trkpt lat="50.44409" lon="5.31868">
        <ele>227.6</ele>
        <time>2020-08-18T12:58:54Z</time>
      </trkpt>
      <trkpt lat="50.4441" lon="5.31867">
        <ele>227.6</ele>
        <time>2020-08-18T12:58:55Z</time>
      </trkpt>
      <trkpt lat="50.44411" lon="5.31866">
        <ele>227.6</ele>
        <time>2020-08-18T12:58:56Z</time>
      </trkpt>
      <trkpt lat="50.44412" lon="5.31864">
        <ele>227.7</ele>
        <time>2020-08-18T12:58:57Z</time>
      </trkpt>
      <trkpt lat="50.44412" lon="5.31862">
        <ele>227.8</ele>
        <time>2020-08-18T12:58:58Z</time>
      </trkpt>
      <trkpt lat="50.44413" lon="5.31861">
        <ele>227.8</ele>
        <time>2020-08-18T12:58:59Z</time>
      </trkpt>
      <trkpt lat="50.44414" lon="5.3186">
        <ele>227.8</ele>
        <time>2020-08-18T12:59:00Z</time>
      </trkpt>
      <trkpt lat="50.44415" lon="5.31858">
        <ele>227.9</ele>
        <time>2020-08-18T12:59:01Z</time>
      </trkpt>
      <trkpt lat="50.44416" lon="5.31857">
        <ele>227.9</ele>
        <time>2020-08-18T12:59:02Z</time>
      </trkpt>
      <trkpt lat="50.44416" lon="5.31855">
        <ele>228</ele>
        <time>2020-08-18T12:59:03Z</time>
      </trkpt>
      <trkpt lat="50.44417" lon="5.31853">
        <ele>228.1</ele>
        <time>2020-08-18T12:59:04Z</time>
      </trkpt>
      <trkpt lat="50.44418" lon="5.31851">
        <ele>228.2</ele>
        <time>2020-08-18T12:59:05Z</time>
      </trkpt>
      <trkpt lat="50.44419" lon="5.3185">
        <ele>228.2</ele>
        <time>2020-08-18T12:59:06Z</time>
      </trkpt>
      <trkpt lat="50.44419" lon="5.31848">
        <ele>228.3</ele>
        <time>2020-08-18T12:59:07Z</time>
      </trkpt>
      <trkpt lat="50.4442" lon="5.31848">
        <ele>228.3</ele>
        <time>2020-08-18T12:59:08Z</time>
      </trkpt>
      <trkpt lat="50.44421" lon="5.31847">
        <ele>228.3</ele>
        <time>2020-08-18T12:59:09Z</time>
      </trkpt>
      <trkpt lat="50.44422" lon="5.31847">
        <ele>228.3</ele>
        <time>2020-08-18T12:59:10Z</time>
      </trkpt>
      <trkpt lat="50.44424" lon="5.31847">
        <ele>228.3</ele>
        <time>2020-08-18T12:59:11Z</time>
      </trkpt>
      <trkpt lat="50.44425" lon="5.31847">
        <ele>228.3</ele>
        <time>2020-08-18T12:59:12Z</time>
      </trkpt>
      <trkpt lat="50.44427" lon="5.31846">
        <ele>228.3</ele>
        <time>2020-08-18T12:59:13Z</time>
      </trkpt>
      <trkpt lat="50.44428" lon="5.31845">
        <ele>228.3</ele>
        <time>2020-08-18T12:59:14Z</time>
      </trkpt>
      <trkpt lat="50.44429" lon="5.31845">
        <ele>228.3</ele>
        <time>2020-08-18T12:59:15Z</time>
      </trkpt>
      <trkpt lat="50.44429" lon="5.31843">
        <ele>228.4</ele>
        <time>2020-08-18T12:59:16Z</time>
      </trkpt>
      <trkpt lat="50.44429" lon="5.31841">
        <ele>228.4</ele>
        <time>2020-08-18T12:59:17Z</time>
      </trkpt>
      <trkpt lat="50.44429" lon="5.31839">
        <ele>228.4</ele>
        <time>2020-08-18T12:59:18Z</time>
      </trkpt>
      <trkpt lat="50.44429" lon="5.31838">
        <ele>228.5</ele>
        <time>2020-08-18T12:59:18Z</time>
      </trkpt>
      <trkpt lat="50.4443" lon="5.31837">
        <ele>228.5</ele>
        <time>2020-08-18T12:59:19Z</time>
      </trkpt>
      <trkpt lat="50.44431" lon="5.31836">
        <ele>228.5</ele>
        <time>2020-08-18T12:59:20Z</time>
      </trkpt>
      <trkpt lat="50.44432" lon="5.31835">
        <ele>228.4</ele>
        <time>2020-08-18T12:59:21Z</time>
      </trkpt>
      <trkpt lat="50.44432" lon="5.31834">
        <ele>228.5</ele>
        <time>2020-08-18T12:59:22Z</time>
      </trkpt>
      <trkpt lat="50.44432" lon="5.31833">
        <ele>229.3</ele>
        <time>2020-08-18T12:59:23Z</time>
      </trkpt>
      <trkpt lat="50.44432" lon="5.31832">
        <ele>229.3</ele>
        <time>2020-08-18T12:59:24Z</time>
      </trkpt>
      <trkpt lat="50.44432" lon="5.31831">
        <ele>229.3</ele>
        <time>2020-08-18T12:59:25Z</time>
      </trkpt>
      <trkpt lat="50.44432" lon="5.31829">
        <ele>229.4</ele>
        <time>2020-08-18T12:59:26Z</time>
      </trkpt>
      <trkpt lat="50.44433" lon="5.31829">
        <ele>229.4</ele>
        <time>2020-08-18T12:59:27Z</time>
      </trkpt>
      <trkpt lat="50.44434" lon="5.31827">
        <ele>229.4</ele>
        <time>2020-08-18T12:59:28Z</time>
      </trkpt>
      <trkpt lat="50.44434" lon="5.31825">
        <ele>229.4</ele>
        <time>2020-08-18T12:59:29Z</time>
      </trkpt>
      <trkpt lat="50.44436" lon="5.31824">
        <ele>229.4</ele>
        <time>2020-08-18T12:59:30Z</time>
      </trkpt>
      <trkpt lat="50.44437" lon="5.31822">
        <ele>229.4</ele>
        <time>2020-08-18T12:59:31Z</time>
      </trkpt>
      <trkpt lat="50.44437" lon="5.3182">
        <ele>229.5</ele>
        <time>2020-08-18T12:59:32Z</time>
      </trkpt>
      <trkpt lat="50.44438" lon="5.31819">
        <ele>229.5</ele>
        <time>2020-08-18T12:59:33Z</time>
      </trkpt>
      <trkpt lat="50.44439" lon="5.31818">
        <ele>229.5</ele>
        <time>2020-08-18T12:59:34Z</time>
      </trkpt>
      <trkpt lat="50.44439" lon="5.31818">
        <ele>229.5</ele>
        <time>2020-08-18T12:59:35Z</time>
      </trkpt>
      <trkpt lat="50.4444" lon="5.31819">
        <ele>229.5</ele>
        <time>2020-08-18T12:59:36Z</time>
      </trkpt>
      <trkpt lat="50.4444" lon="5.3182">
        <ele>229.5</ele>
        <time>2020-08-18T12:59:37Z</time>
      </trkpt>
      <trkpt lat="50.44441" lon="5.3182">
        <ele>229.5</ele>
        <time>2020-08-18T12:59:38Z</time>
      </trkpt>
      <trkpt lat="50.44441" lon="5.3182">
        <ele>229.5</ele>
        <time>2020-08-18T12:59:39Z</time>
      </trkpt>
      <trkpt lat="50.44442" lon="5.3182">
        <ele>229.5</ele>
        <time>2020-08-18T12:59:40Z</time>
      </trkpt>
      <trkpt lat="50.44443" lon="5.3182">
        <ele>229.5</ele>
        <time>2020-08-18T12:59:41Z</time>
      </trkpt>
      <trkpt lat="50.44444" lon="5.31819">
        <ele>229.5</ele>
        <time>2020-08-18T12:59:42Z</time>
      </trkpt>
      <trkpt lat="50.44445" lon="5.31819">
        <ele>229.5</ele>
        <time>2020-08-18T12:59:43Z</time>
      </trkpt>
      <trkpt lat="50.44445" lon="5.31818">
        <ele>229.5</ele>
        <time>2020-08-18T12:59:44Z</time>
      </trkpt>
      <trkpt lat="50.44446" lon="5.31817">
        <ele>229.5</ele>
        <time>2020-08-18T12:59:45Z</time>
      </trkpt>
      <trkpt lat="50.44446" lon="5.31816">
        <ele>229.5</ele>
        <time>2020-08-18T12:59:46Z</time>
      </trkpt>
      <trkpt lat="50.44445" lon="5.31815">
        <ele>229.5</ele>
        <time>2020-08-18T12:59:47Z</time>
      </trkpt>
      <trkpt lat="50.44445" lon="5.31814">
        <ele>229.5</ele>
        <time>2020-08-18T12:59:48Z</time>
      </trkpt>
      <trkpt lat="50.44444" lon="5.31813">
        <ele>229.5</ele>
        <time>2020-08-18T12:59:49Z</time>
      </trkpt>
      <trkpt lat="50.44444" lon="5.31812">
        <ele>229.5</ele>
        <time>2020-08-18T12:59:50Z</time>
      </trkpt>
      <trkpt lat="50.44444" lon="5.31811">
        <ele>229.5</ele>
        <time>2020-08-18T12:59:51Z</time>
      </trkpt>
      <trkpt lat="50.44444" lon="5.31809">
        <ele>229.5</ele>
        <time>2020-08-18T12:59:52Z</time>
      </trkpt>
      <trkpt lat="50.44444" lon="5.31807">
        <ele>229.5</ele>
        <time>2020-08-18T12:59:53Z</time>
      </trkpt>
      <trkpt lat="50.44444" lon="5.31804">
        <ele>229.6</ele>
        <time>2020-08-18T12:59:54Z</time>
      </trkpt>
      <trkpt lat="50.44444" lon="5.31801">
        <ele>229.6</ele>
        <time>2020-08-18T12:59:55Z</time>
      </trkpt>
      <trkpt lat="50.44444" lon="5.31798">
        <ele>229.6</ele>
        <time>2020-08-18T12:59:56Z</time>
      </trkpt>
      <trkpt lat="50.44445" lon="5.31795">
        <ele>229.6</ele>
        <time>2020-08-18T12:59:57Z</time>
      </trkpt>
      <trkpt lat="50.44445" lon="5.31792">
        <ele>229.6</ele>
        <time>2020-08-18T12:59:58Z</time>
      </trkpt>
      <trkpt lat="50.44445" lon="5.31789">
        <ele>229.6</ele>
        <time>2020-08-18T12:59:59Z</time>
      </trkpt>
      <trkpt lat="50.44445" lon="5.31786">
        <ele>229.6</ele>
        <time>2020-08-18T13:00:00Z</time>
      </trkpt>
      <trkpt lat="50.44446" lon="5.31784">
        <ele>229.6</ele>
        <time>2020-08-18T13:00:01Z</time>
      </trkpt>
      <trkpt lat="50.44446" lon="5.31782">
        <ele>229.6</ele>
        <time>2020-08-18T13:00:02Z</time>
      </trkpt>
      <trkpt lat="50.44447" lon="5.3178">
        <ele>229.6</ele>
        <time>2020-08-18T13:00:03Z</time>
      </trkpt>
      <trkpt lat="50.44448" lon="5.31778">
        <ele>229.6</ele>
        <time>2020-08-18T13:00:04Z</time>
      </trkpt>
      <trkpt lat="50.44449" lon="5.31775">
        <ele>229.6</ele>
        <time>2020-08-18T13:00:05Z</time>
      </trkpt>
      <trkpt lat="50.4445" lon="5.31773">
        <ele>229.5</ele>
        <time>2020-08-18T13:00:06Z</time>
      </trkpt>
      <trkpt lat="50.44451" lon="5.31771">
        <ele>229.5</ele>
        <time>2020-08-18T13:00:07Z</time>
      </trkpt>
      <trkpt lat="50.44452" lon="5.31768">
        <ele>229.5</ele>
        <time>2020-08-18T13:00:08Z</time>
      </trkpt>
      <trkpt lat="50.44452" lon="5.31766">
        <ele>229.5</ele>
        <time>2020-08-18T13:00:09Z</time>
      </trkpt>
      <trkpt lat="50.44453" lon="5.31764">
        <ele>229.5</ele>
        <time>2020-08-18T13:00:10Z</time>
      </trkpt>
      <trkpt lat="50.44453" lon="5.31762">
        <ele>229.5</ele>
        <time>2020-08-18T13:00:11Z</time>
      </trkpt>
      <trkpt lat="50.44454" lon="5.31761">
        <ele>229.5</ele>
        <time>2020-08-18T13:00:12Z</time>
      </trkpt>
      <trkpt lat="50.44455" lon="5.3176">
        <ele>229.4</ele>
        <time>2020-08-18T13:00:13Z</time>
      </trkpt>
      <trkpt lat="50.44455" lon="5.31758">
        <ele>229.4</ele>
        <time>2020-08-18T13:00:14Z</time>
      </trkpt>
      <trkpt lat="50.44456" lon="5.31756">
        <ele>229.4</ele>
        <time>2020-08-18T13:00:15Z</time>
      </trkpt>
      <trkpt lat="50.44457" lon="5.31755">
        <ele>229.4</ele>
        <time>2020-08-18T13:00:16Z</time>
      </trkpt>
      <trkpt lat="50.44458" lon="5.31753">
        <ele>229.3</ele>
        <time>2020-08-18T13:00:17Z</time>
      </trkpt>
      <trkpt lat="50.44458" lon="5.31751">
        <ele>229.3</ele>
        <time>2020-08-18T13:00:18Z</time>
      </trkpt>
      <trkpt lat="50.44458" lon="5.31748">
        <ele>227.1</ele>
        <time>2020-08-18T13:00:19Z</time>
      </trkpt>
      <trkpt lat="50.44458" lon="5.31745">
        <ele>227.1</ele>
        <time>2020-08-18T13:00:20Z</time>
      </trkpt>
      <trkpt lat="50.44458" lon="5.31742">
        <ele>227</ele>
        <time>2020-08-18T13:00:21Z</time>
      </trkpt>
      <trkpt lat="50.44458" lon="5.3174">
        <ele>227</ele>
        <time>2020-08-18T13:00:22Z</time>
      </trkpt>
      <trkpt lat="50.44458" lon="5.31737">
        <ele>226.9</ele>
        <time>2020-08-18T13:00:23Z</time>
      </trkpt>
      <trkpt lat="50.44458" lon="5.31734">
        <ele>226.9</ele>
        <time>2020-08-18T13:00:24Z</time>
      </trkpt>
      <trkpt lat="50.44459" lon="5.31732">
        <ele>226.8</ele>
        <time>2020-08-18T13:00:25Z</time>
      </trkpt>
      <trkpt lat="50.4446" lon="5.31731">
        <ele>226.7</ele>
        <time>2020-08-18T13:00:26Z</time>
      </trkpt>
      <trkpt lat="50.44461" lon="5.3173">
        <ele>226.6</ele>
        <time>2020-08-18T13:00:27Z</time>
      </trkpt>
      <trkpt lat="50.44461" lon="5.31728">
        <ele>226.6</ele>
        <time>2020-08-18T13:00:28Z</time>
      </trkpt>
      <trkpt lat="50.44463" lon="5.31727">
        <ele>226.5</ele>
        <time>2020-08-18T13:00:29Z</time>
      </trkpt>
      <trkpt lat="50.44463" lon="5.31725">
        <ele>226.4</ele>
        <time>2020-08-18T13:00:30Z</time>
      </trkpt>
      <trkpt lat="50.44464" lon="5.31724">
        <ele>226.3</ele>
        <time>2020-08-18T13:00:31Z</time>
      </trkpt>
      <trkpt lat="50.44464" lon="5.31723">
        <ele>226.3</ele>
        <time>2020-08-18T13:00:32Z</time>
      </trkpt>
      <trkpt lat="50.44465" lon="5.31723">
        <ele>226.3</ele>
        <time>2020-08-18T13:00:33Z</time>
      </trkpt>
      <trkpt lat="50.44465" lon="5.31722">
        <ele>226.2</ele>
        <time>2020-08-18T13:00:34Z</time>
      </trkpt>
      <trkpt lat="50.44465" lon="5.31721">
        <ele>226.2</ele>
        <time>2020-08-18T13:00:35Z</time>
      </trkpt>
      <trkpt lat="50.44466" lon="5.31721">
        <ele>226.2</ele>
        <time>2020-08-18T13:00:36Z</time>
      </trkpt>
      <trkpt lat="50.44466" lon="5.3172">
        <ele>226.1</ele>
        <time>2020-08-18T13:00:37Z</time>
      </trkpt>
      <trkpt lat="50.44467" lon="5.31719">
        <ele>226.1</ele>
        <time>2020-08-18T13:00:38Z</time>
      </trkpt>
      <trkpt lat="50.44467" lon="5.31719">
        <ele>226.1</ele>
        <time>2020-08-18T13:00:39Z</time>
      </trkpt>
      <trkpt lat="50.44467" lon="5.31719">
        <ele>226.1</ele>
        <time>2020-08-18T13:00:40Z</time>
      </trkpt>
      <trkpt lat="50.44468" lon="5.31718">
        <ele>226</ele>
        <time>2020-08-18T13:00:41Z</time>
      </trkpt>
      <trkpt lat="50.44468" lon="5.31718">
        <ele>226</ele>
        <time>2020-08-18T13:00:42Z</time>
      </trkpt>
      <trkpt lat="50.44468" lon="5.31717">
        <ele>226</ele>
        <time>2020-08-18T13:00:43Z</time>
      </trkpt>
      <trkpt lat="50.44468" lon="5.31717">
        <ele>226</ele>
        <time>2020-08-18T13:00:44Z</time>
      </trkpt>
      <trkpt lat="50.44469" lon="5.31717">
        <ele>225.9</ele>
        <time>2020-08-18T13:00:45Z</time>
      </trkpt>
      <trkpt lat="50.44469" lon="5.31716">
        <ele>225.9</ele>
        <time>2020-08-18T13:00:46Z</time>
      </trkpt>
      <trkpt lat="50.4447" lon="5.31716">
        <ele>225.9</ele>
        <time>2020-08-18T13:00:47Z</time>
      </trkpt>
      <trkpt lat="50.4447" lon="5.31715">
        <ele>225.8</ele>
        <time>2020-08-18T13:00:48Z</time>
      </trkpt>
      <trkpt lat="50.44471" lon="5.31714">
        <ele>225.7</ele>
        <time>2020-08-18T13:00:49Z</time>
      </trkpt>
      <trkpt lat="50.44471" lon="5.31713">
        <ele>225.7</ele>
        <time>2020-08-18T13:00:50Z</time>
      </trkpt>
      <trkpt lat="50.44472" lon="5.31713">
        <ele>225.7</ele>
        <time>2020-08-18T13:00:51Z</time>
      </trkpt>
      <trkpt lat="50.44472" lon="5.31712">
        <ele>225.6</ele>
        <time>2020-08-18T13:00:52Z</time>
      </trkpt>
      <trkpt lat="50.44471" lon="5.3171">
        <ele>225.6</ele>
        <time>2020-08-18T13:00:53Z</time>
      </trkpt>
      <trkpt lat="50.44471" lon="5.31708">
        <ele>225.5</ele>
        <time>2020-08-18T13:00:54Z</time>
      </trkpt>
      <trkpt lat="50.4447" lon="5.31707">
        <ele>225.5</ele>
        <time>2020-08-18T13:00:55Z</time>
      </trkpt>
      <trkpt lat="50.4447" lon="5.31705">
        <ele>225.4</ele>
        <time>2020-08-18T13:00:56Z</time>
      </trkpt>
      <trkpt lat="50.4447" lon="5.31704">
        <ele>225.3</ele>
        <time>2020-08-18T13:00:57Z</time>
      </trkpt>
      <trkpt lat="50.4447" lon="5.31703">
        <ele>225.3</ele>
        <time>2020-08-18T13:00:58Z</time>
      </trkpt>
      <trkpt lat="50.4447" lon="5.31702">
        <ele>225.2</ele>
        <time>2020-08-18T13:00:59Z</time>
      </trkpt>
      <trkpt lat="50.44471" lon="5.31701">
        <ele>225.1</ele>
        <time>2020-08-18T13:01:00Z</time>
      </trkpt>
      <trkpt lat="50.44471" lon="5.317">
        <ele>225.1</ele>
        <time>2020-08-18T13:01:01Z</time>
      </trkpt>
      <trkpt lat="50.44471" lon="5.31698">
        <ele>225</ele>
        <time>2020-08-18T13:01:02Z</time>
      </trkpt>
      <trkpt lat="50.44473" lon="5.31698">
        <ele>224.9</ele>
        <time>2020-08-18T13:01:03Z</time>
      </trkpt>
      <trkpt lat="50.44473" lon="5.31697">
        <ele>224.8</ele>
        <time>2020-08-18T13:01:04Z</time>
      </trkpt>
      <trkpt lat="50.44474" lon="5.31696">
        <ele>224.7</ele>
        <time>2020-08-18T13:01:05Z</time>
      </trkpt>
      <trkpt lat="50.44476" lon="5.31695">
        <ele>224.5</ele>
        <time>2020-08-18T13:01:07Z</time>
      </trkpt>
      <trkpt lat="50.44476" lon="5.31694">
        <ele>224.4</ele>
        <time>2020-08-18T13:01:08Z</time>
      </trkpt>
      <trkpt lat="50.44476" lon="5.31694">
        <ele>224.4</ele>
        <time>2020-08-18T13:01:09Z</time>
      </trkpt>
      <trkpt lat="50.44476" lon="5.31693">
        <ele>224.4</ele>
        <time>2020-08-18T13:01:10Z</time>
      </trkpt>
      <trkpt lat="50.44476" lon="5.31692">
        <ele>224.3</ele>
        <time>2020-08-18T13:01:11Z</time>
      </trkpt>
      <trkpt lat="50.44476" lon="5.3169">
        <ele>224.2</ele>
        <time>2020-08-18T13:01:12Z</time>
      </trkpt>
      <trkpt lat="50.44476" lon="5.31689">
        <ele>224.1</ele>
        <time>2020-08-18T13:01:13Z</time>
      </trkpt>
      <trkpt lat="50.44476" lon="5.31688">
        <ele>224</ele>
        <time>2020-08-18T13:01:14Z</time>
      </trkpt>
      <trkpt lat="50.44476" lon="5.31687">
        <ele>224</ele>
        <time>2020-08-18T13:01:15Z</time>
      </trkpt>
      <trkpt lat="50.44476" lon="5.31687">
        <ele>224</ele>
        <time>2020-08-18T13:01:16Z</time>
      </trkpt>
      <trkpt lat="50.44477" lon="5.31686">
        <ele>223.8</ele>
        <time>2020-08-18T13:01:17Z</time>
      </trkpt>
      <trkpt lat="50.44478" lon="5.31685">
        <ele>223.7</ele>
        <time>2020-08-18T13:01:18Z</time>
      </trkpt>
      <trkpt lat="50.44478" lon="5.31684">
        <ele>223.6</ele>
        <time>2020-08-18T13:01:19Z</time>
      </trkpt>
      <trkpt lat="50.44478" lon="5.31683">
        <ele>223.5</ele>
        <time>2020-08-18T13:01:20Z</time>
      </trkpt>
      <trkpt lat="50.44478" lon="5.31681">
        <ele>223.4</ele>
        <time>2020-08-18T13:01:21Z</time>
      </trkpt>
      <trkpt lat="50.44478" lon="5.3168">
        <ele>223.3</ele>
        <time>2020-08-18T13:01:22Z</time>
      </trkpt>
      <trkpt lat="50.44478" lon="5.31679">
        <ele>223.3</ele>
        <time>2020-08-18T13:01:23Z</time>
      </trkpt>
      <trkpt lat="50.44478" lon="5.31678">
        <ele>223.2</ele>
        <time>2020-08-18T13:01:24Z</time>
      </trkpt>
      <trkpt lat="50.44478" lon="5.31677">
        <ele>223.1</ele>
        <time>2020-08-18T13:01:25Z</time>
      </trkpt>
      <trkpt lat="50.44478" lon="5.31676">
        <ele>223.1</ele>
        <time>2020-08-18T13:01:26Z</time>
      </trkpt>
      <trkpt lat="50.44478" lon="5.31675">
        <ele>223</ele>
        <time>2020-08-18T13:01:27Z</time>
      </trkpt>
      <trkpt lat="50.44479" lon="5.31674">
        <ele>222.8</ele>
        <time>2020-08-18T13:01:28Z</time>
      </trkpt>
      <trkpt lat="50.44479" lon="5.31673">
        <ele>222.8</ele>
        <time>2020-08-18T13:01:29Z</time>
      </trkpt>
      <trkpt lat="50.44479" lon="5.31671">
        <ele>222.7</ele>
        <time>2020-08-18T13:01:30Z</time>
      </trkpt>
      <trkpt lat="50.44479" lon="5.3167">
        <ele>222.7</ele>
        <time>2020-08-18T13:01:31Z</time>
      </trkpt>
      <trkpt lat="50.4448" lon="5.31668">
        <ele>222.5</ele>
        <time>2020-08-18T13:01:32Z</time>
      </trkpt>
      <trkpt lat="50.4448" lon="5.31667">
        <ele>222.5</ele>
        <time>2020-08-18T13:01:33Z</time>
      </trkpt>
      <trkpt lat="50.44481" lon="5.31665">
        <ele>220.3</ele>
        <time>2020-08-18T13:01:34Z</time>
      </trkpt>
      <trkpt lat="50.44481" lon="5.31662">
        <ele>220.4</ele>
        <time>2020-08-18T13:01:35Z</time>
      </trkpt>
      <trkpt lat="50.44481" lon="5.3166">
        <ele>220.4</ele>
        <time>2020-08-18T13:01:36Z</time>
      </trkpt>
      <trkpt lat="50.44481" lon="5.31658">
        <ele>220.4</ele>
        <time>2020-08-18T13:01:37Z</time>
      </trkpt>
      <trkpt lat="50.44481" lon="5.31656">
        <ele>220.5</ele>
        <time>2020-08-18T13:01:38Z</time>
      </trkpt>
      <trkpt lat="50.44481" lon="5.31654">
        <ele>220.5</ele>
        <time>2020-08-18T13:01:39Z</time>
      </trkpt>
      <trkpt lat="50.44481" lon="5.31653">
        <ele>220.5</ele>
        <time>2020-08-18T13:01:40Z</time>
      </trkpt>
      <trkpt lat="50.44481" lon="5.31651">
        <ele>220.6</ele>
        <time>2020-08-18T13:01:41Z</time>
      </trkpt>
      <trkpt lat="50.44481" lon="5.3165">
        <ele>220.6</ele>
        <time>2020-08-18T13:01:42Z</time>
      </trkpt>
      <trkpt lat="50.44479" lon="5.31647">
        <ele>220.8</ele>
        <time>2020-08-18T13:01:43Z</time>
      </trkpt>
      <trkpt lat="50.44479" lon="5.31645">
        <ele>220.8</ele>
        <time>2020-08-18T13:01:44Z</time>
      </trkpt>
      <trkpt lat="50.44479" lon="5.31643">
        <ele>220.9</ele>
        <time>2020-08-18T13:01:45Z</time>
      </trkpt>
      <trkpt lat="50.44478" lon="5.31641">
        <ele>220.9</ele>
        <time>2020-08-18T13:01:46Z</time>
      </trkpt>
      <trkpt lat="50.44478" lon="5.3164">
        <ele>220.9</ele>
        <time>2020-08-18T13:01:47Z</time>
      </trkpt>
      <trkpt lat="50.44478" lon="5.31639">
        <ele>220.9</ele>
        <time>2020-08-18T13:01:48Z</time>
      </trkpt>
      <trkpt lat="50.44478" lon="5.31637">
        <ele>221</ele>
        <time>2020-08-18T13:01:49Z</time>
      </trkpt>
      <trkpt lat="50.44478" lon="5.31636">
        <ele>221</ele>
        <time>2020-08-18T13:01:50Z</time>
      </trkpt>
      <trkpt lat="50.44478" lon="5.31634">
        <ele>221</ele>
        <time>2020-08-18T13:01:51Z</time>
      </trkpt>
      <trkpt lat="50.44478" lon="5.31632">
        <ele>221</ele>
        <time>2020-08-18T13:01:52Z</time>
      </trkpt>
      <trkpt lat="50.44478" lon="5.31631">
        <ele>220.9</ele>
        <time>2020-08-18T13:01:53Z</time>
      </trkpt>
      <trkpt lat="50.44478" lon="5.31629">
        <ele>220.9</ele>
        <time>2020-08-18T13:01:54Z</time>
      </trkpt>
      <trkpt lat="50.44479" lon="5.31628">
        <ele>220.9</ele>
        <time>2020-08-18T13:01:55Z</time>
      </trkpt>
      <trkpt lat="50.44479" lon="5.31626">
        <ele>220.8</ele>
        <time>2020-08-18T13:01:56Z</time>
      </trkpt>
      <trkpt lat="50.44479" lon="5.31624">
        <ele>220.8</ele>
        <time>2020-08-18T13:01:57Z</time>
      </trkpt>
      <trkpt lat="50.44479" lon="5.31623">
        <ele>220.8</ele>
        <time>2020-08-18T13:01:58Z</time>
      </trkpt>
      <trkpt lat="50.44479" lon="5.31621">
        <ele>220.8</ele>
        <time>2020-08-18T13:01:59Z</time>
      </trkpt>
      <trkpt lat="50.44479" lon="5.31619">
        <ele>220.7</ele>
        <time>2020-08-18T13:02:00Z</time>
      </trkpt>
      <trkpt lat="50.44479" lon="5.31617">
        <ele>220.7</ele>
        <time>2020-08-18T13:02:01Z</time>
      </trkpt>
      <trkpt lat="50.4448" lon="5.31616">
        <ele>220.6</ele>
        <time>2020-08-18T13:02:02Z</time>
      </trkpt>
      <trkpt lat="50.44481" lon="5.31615">
        <ele>220.5</ele>
        <time>2020-08-18T13:02:03Z</time>
      </trkpt>
      <trkpt lat="50.44482" lon="5.31614">
        <ele>220.4</ele>
        <time>2020-08-18T13:02:04Z</time>
      </trkpt>
      <trkpt lat="50.44482" lon="5.31613">
        <ele>220.4</ele>
        <time>2020-08-18T13:02:05Z</time>
      </trkpt>
      <trkpt lat="50.44484" lon="5.31612">
        <ele>220.2</ele>
        <time>2020-08-18T13:02:06Z</time>
      </trkpt>
      <trkpt lat="50.44485" lon="5.31611">
        <ele>220.1</ele>
        <time>2020-08-18T13:02:07Z</time>
      </trkpt>
      <trkpt lat="50.44485" lon="5.3161">
        <ele>220.1</ele>
        <time>2020-08-18T13:02:08Z</time>
      </trkpt>
      <trkpt lat="50.44486" lon="5.3161">
        <ele>220</ele>
        <time>2020-08-18T13:02:09Z</time>
      </trkpt>
      <trkpt lat="50.44487" lon="5.31609">
        <ele>219.9</ele>
        <time>2020-08-18T13:02:10Z</time>
      </trkpt>
      <trkpt lat="50.44487" lon="5.31608">
        <ele>219.9</ele>
        <time>2020-08-18T13:02:11Z</time>
      </trkpt>
      <trkpt lat="50.44488" lon="5.31607">
        <ele>219.8</ele>
        <time>2020-08-18T13:02:12Z</time>
      </trkpt>
      <trkpt lat="50.44489" lon="5.31606">
        <ele>219.7</ele>
        <time>2020-08-18T13:02:13Z</time>
      </trkpt>
      <trkpt lat="50.44489" lon="5.31604">
        <ele>219.5</ele>
        <time>2020-08-18T13:02:14Z</time>
      </trkpt>
      <trkpt lat="50.44489" lon="5.31603">
        <ele>219.5</ele>
        <time>2020-08-18T13:02:15Z</time>
      </trkpt>
      <trkpt lat="50.44489" lon="5.31601">
        <ele>219.3</ele>
        <time>2020-08-18T13:02:16Z</time>
      </trkpt>
      <trkpt lat="50.44489" lon="5.31599">
        <ele>219.2</ele>
        <time>2020-08-18T13:02:17Z</time>
      </trkpt>
      <trkpt lat="50.44489" lon="5.31598">
        <ele>219.1</ele>
        <time>2020-08-18T13:02:18Z</time>
      </trkpt>
      <trkpt lat="50.44489" lon="5.31596">
        <ele>218.9</ele>
        <time>2020-08-18T13:02:19Z</time>
      </trkpt>
      <trkpt lat="50.44489" lon="5.31595">
        <ele>218.8</ele>
        <time>2020-08-18T13:02:20Z</time>
      </trkpt>
      <trkpt lat="50.44489" lon="5.31594">
        <ele>218.7</ele>
        <time>2020-08-18T13:02:21Z</time>
      </trkpt>
      <trkpt lat="50.44489" lon="5.31592">
        <ele>218.6</ele>
        <time>2020-08-18T13:02:22Z</time>
      </trkpt>
      <trkpt lat="50.44489" lon="5.31591">
        <ele>218.5</ele>
        <time>2020-08-18T13:02:23Z</time>
      </trkpt>
      <trkpt lat="50.44489" lon="5.31591">
        <ele>218.5</ele>
        <time>2020-08-18T13:02:24Z</time>
      </trkpt>
      <trkpt lat="50.44489" lon="5.31589">
        <ele>218.4</ele>
        <time>2020-08-18T13:02:25Z</time>
      </trkpt>
      <trkpt lat="50.44489" lon="5.31588">
        <ele>218.3</ele>
        <time>2020-08-18T13:02:26Z</time>
      </trkpt>
      <trkpt lat="50.44489" lon="5.31586">
        <ele>218.2</ele>
        <time>2020-08-18T13:02:27Z</time>
      </trkpt>
      <trkpt lat="50.44489" lon="5.31584">
        <ele>218.2</ele>
        <time>2020-08-18T13:02:28Z</time>
      </trkpt>
      <trkpt lat="50.44489" lon="5.31582">
        <ele>217.8</ele>
        <time>2020-08-18T13:02:29Z</time>
      </trkpt>
      <trkpt lat="50.44489" lon="5.3158">
        <ele>217.8</ele>
        <time>2020-08-18T13:02:30Z</time>
      </trkpt>
      <trkpt lat="50.44488" lon="5.31578">
        <ele>218</ele>
        <time>2020-08-18T13:02:31Z</time>
      </trkpt>
      <trkpt lat="50.44488" lon="5.31576">
        <ele>218.1</ele>
        <time>2020-08-18T13:02:32Z</time>
      </trkpt>
      <trkpt lat="50.44487" lon="5.31573">
        <ele>218.4</ele>
        <time>2020-08-18T13:02:33Z</time>
      </trkpt>
      <trkpt lat="50.44487" lon="5.31571">
        <ele>218.5</ele>
        <time>2020-08-18T13:02:34Z</time>
      </trkpt>
      <trkpt lat="50.44487" lon="5.31569">
        <ele>218.6</ele>
        <time>2020-08-18T13:02:35Z</time>
      </trkpt>
      <trkpt lat="50.44486" lon="5.31567">
        <ele>218.7</ele>
        <time>2020-08-18T13:02:36Z</time>
      </trkpt>
      <trkpt lat="50.44486" lon="5.31565">
        <ele>218.8</ele>
        <time>2020-08-18T13:02:37Z</time>
      </trkpt>
      <trkpt lat="50.44487" lon="5.31564">
        <ele>218.8</ele>
        <time>2020-08-18T13:02:38Z</time>
      </trkpt>
      <trkpt lat="50.44487" lon="5.31564">
        <ele>218.8</ele>
        <time>2020-08-18T13:02:39Z</time>
      </trkpt>
      <trkpt lat="50.44487" lon="5.31564">
        <ele>218.8</ele>
        <time>2020-08-18T13:02:40Z</time>
      </trkpt>
      <trkpt lat="50.44487" lon="5.31563">
        <ele>218.9</ele>
        <time>2020-08-18T13:02:41Z</time>
      </trkpt>
      <trkpt lat="50.44487" lon="5.31563">
        <ele>218.9</ele>
        <time>2020-08-18T13:02:42Z</time>
      </trkpt>
      <trkpt lat="50.44488" lon="5.31562">
        <ele>218.8</ele>
        <time>2020-08-18T13:02:43Z</time>
      </trkpt>
      <trkpt lat="50.44489" lon="5.31561">
        <ele>218.8</ele>
        <time>2020-08-18T13:02:44Z</time>
      </trkpt>
      <trkpt lat="50.44489" lon="5.31561">
        <ele>218.8</ele>
        <time>2020-08-18T13:02:45Z</time>
      </trkpt>
      <trkpt lat="50.44489" lon="5.3156">
        <ele>218.9</ele>
        <time>2020-08-18T13:02:46Z</time>
      </trkpt>
      <trkpt lat="50.44489" lon="5.31559">
        <ele>218.9</ele>
        <time>2020-08-18T13:02:47Z</time>
      </trkpt>
      <trkpt lat="50.44489" lon="5.31558">
        <ele>219</ele>
        <time>2020-08-18T13:02:48Z</time>
      </trkpt>
      <trkpt lat="50.44489" lon="5.31557">
        <ele>219</ele>
        <time>2020-08-18T13:02:49Z</time>
      </trkpt>
      <trkpt lat="50.44489" lon="5.31556">
        <ele>219</ele>
        <time>2020-08-18T13:02:50Z</time>
      </trkpt>
      <trkpt lat="50.44489" lon="5.31554">
        <ele>219.1</ele>
        <time>2020-08-18T13:02:51Z</time>
      </trkpt>
      <trkpt lat="50.44489" lon="5.31552">
        <ele>219.1</ele>
        <time>2020-08-18T13:02:52Z</time>
      </trkpt>
      <trkpt lat="50.44488" lon="5.31549">
        <ele>219.2</ele>
        <time>2020-08-18T13:02:53Z</time>
      </trkpt>
      <trkpt lat="50.44487" lon="5.31548">
        <ele>219.3</ele>
        <time>2020-08-18T13:02:54Z</time>
      </trkpt>
      <trkpt lat="50.44486" lon="5.31546">
        <ele>219.3</ele>
        <time>2020-08-18T13:02:55Z</time>
      </trkpt>
      <trkpt lat="50.44485" lon="5.31545">
        <ele>219.4</ele>
        <time>2020-08-18T13:02:56Z</time>
      </trkpt>
      <trkpt lat="50.44484" lon="5.31544">
        <ele>219.4</ele>
        <time>2020-08-18T13:02:57Z</time>
      </trkpt>
      <trkpt lat="50.44484" lon="5.31543">
        <ele>219.4</ele>
        <time>2020-08-18T13:02:58Z</time>
      </trkpt>
      <trkpt lat="50.44483" lon="5.31542">
        <ele>219.5</ele>
        <time>2020-08-18T13:02:59Z</time>
      </trkpt>
      <trkpt lat="50.44482" lon="5.3154">
        <ele>219.5</ele>
        <time>2020-08-18T13:03:00Z</time>
      </trkpt>
      <trkpt lat="50.44482" lon="5.31538">
        <ele>219.5</ele>
        <time>2020-08-18T13:03:01Z</time>
      </trkpt>
      <trkpt lat="50.44482" lon="5.31537">
        <ele>219.5</ele>
        <time>2020-08-18T13:03:02Z</time>
      </trkpt>
      <trkpt lat="50.44482" lon="5.31535">
        <ele>219.5</ele>
        <time>2020-08-18T13:03:03Z</time>
      </trkpt>
      <trkpt lat="50.44483" lon="5.31534">
        <ele>219.4</ele>
        <time>2020-08-18T13:03:04Z</time>
      </trkpt>
      <trkpt lat="50.44483" lon="5.31533">
        <ele>219.4</ele>
        <time>2020-08-18T13:03:05Z</time>
      </trkpt>
      <trkpt lat="50.44484" lon="5.31531">
        <ele>219.3</ele>
        <time>2020-08-18T13:03:06Z</time>
      </trkpt>
      <trkpt lat="50.44485" lon="5.3153">
        <ele>219.2</ele>
        <time>2020-08-18T13:03:07Z</time>
      </trkpt>
      <trkpt lat="50.44485" lon="5.31529">
        <ele>219.2</ele>
        <time>2020-08-18T13:03:08Z</time>
      </trkpt>
      <trkpt lat="50.44486" lon="5.31527">
        <ele>219.1</ele>
        <time>2020-08-18T13:03:09Z</time>
      </trkpt>
      <trkpt lat="50.44487" lon="5.31527">
        <ele>219.1</ele>
        <time>2020-08-18T13:03:10Z</time>
      </trkpt>
      <trkpt lat="50.44487" lon="5.31526">
        <ele>219</ele>
        <time>2020-08-18T13:03:11Z</time>
      </trkpt>
      <trkpt lat="50.44488" lon="5.31525">
        <ele>219</ele>
        <time>2020-08-18T13:03:12Z</time>
      </trkpt>
      <trkpt lat="50.44488" lon="5.31525">
        <ele>219</ele>
        <time>2020-08-18T13:03:13Z</time>
      </trkpt>
      <trkpt lat="50.44488" lon="5.31524">
        <ele>218.9</ele>
        <time>2020-08-18T13:03:14Z</time>
      </trkpt>
      <trkpt lat="50.44489" lon="5.31523">
        <ele>218.8</ele>
        <time>2020-08-18T13:03:15Z</time>
      </trkpt>
      <trkpt lat="50.44489" lon="5.31521">
        <ele>218.7</ele>
        <time>2020-08-18T13:03:16Z</time>
      </trkpt>
      <trkpt lat="50.44489" lon="5.3152">
        <ele>218.7</ele>
        <time>2020-08-18T13:03:17Z</time>
      </trkpt>
      <trkpt lat="50.4449" lon="5.31518">
        <ele>218.5</ele>
        <time>2020-08-18T13:03:18Z</time>
      </trkpt>
      <trkpt lat="50.44491" lon="5.31517">
        <ele>218.4</ele>
        <time>2020-08-18T13:03:19Z</time>
      </trkpt>
      <trkpt lat="50.44492" lon="5.31515">
        <ele>218.2</ele>
        <time>2020-08-18T13:03:20Z</time>
      </trkpt>
      <trkpt lat="50.44494" lon="5.31513">
        <ele>218</ele>
        <time>2020-08-18T13:03:21Z</time>
      </trkpt>
      <trkpt lat="50.44495" lon="5.31512">
        <ele>217.8</ele>
        <time>2020-08-18T13:03:22Z</time>
      </trkpt>
      <trkpt lat="50.44496" lon="5.3151">
        <ele>217.6</ele>
        <time>2020-08-18T13:03:23Z</time>
      </trkpt>
      <trkpt lat="50.44497" lon="5.31509">
        <ele>217.4</ele>
        <time>2020-08-18T13:03:24Z</time>
      </trkpt>
      <trkpt lat="50.44498" lon="5.31507">
        <ele>217.2</ele>
        <time>2020-08-18T13:03:25Z</time>
      </trkpt>
      <trkpt lat="50.44499" lon="5.31505">
        <ele>216.9</ele>
        <time>2020-08-18T13:03:26Z</time>
      </trkpt>
      <trkpt lat="50.445" lon="5.31504">
        <ele>216.2</ele>
        <time>2020-08-18T13:03:27Z</time>
      </trkpt>
      <trkpt lat="50.445" lon="5.31502">
        <ele>216.1</ele>
        <time>2020-08-18T13:03:28Z</time>
      </trkpt>
      <trkpt lat="50.445" lon="5.31501">
        <ele>216</ele>
        <time>2020-08-18T13:03:29Z</time>
      </trkpt>
      <trkpt lat="50.445" lon="5.315">
        <ele>216</ele>
        <time>2020-08-18T13:03:30Z</time>
      </trkpt>
      <trkpt lat="50.445" lon="5.31499">
        <ele>215.9</ele>
        <time>2020-08-18T13:03:31Z</time>
      </trkpt>
      <trkpt lat="50.445" lon="5.31498">
        <ele>215.8</ele>
        <time>2020-08-18T13:03:32Z</time>
      </trkpt>
      <trkpt lat="50.445" lon="5.31497">
        <ele>215.8</ele>
        <time>2020-08-18T13:03:33Z</time>
      </trkpt>
      <trkpt lat="50.445" lon="5.31495">
        <ele>215.6</ele>
        <time>2020-08-18T13:03:33Z</time>
      </trkpt>
      <trkpt lat="50.445" lon="5.31494">
        <ele>215.5</ele>
        <time>2020-08-18T13:03:34Z</time>
      </trkpt>
      <trkpt lat="50.44499" lon="5.31492">
        <ele>217.1</ele>
        <time>2020-08-18T13:03:35Z</time>
      </trkpt>
      <trkpt lat="50.44499" lon="5.31491">
        <ele>217.2</ele>
        <time>2020-08-18T13:03:36Z</time>
      </trkpt>
      <trkpt lat="50.44499" lon="5.31489">
        <ele>217.4</ele>
        <time>2020-08-18T13:03:37Z</time>
      </trkpt>
      <trkpt lat="50.44499" lon="5.31487">
        <ele>217.6</ele>
        <time>2020-08-18T13:03:38Z</time>
      </trkpt>
      <trkpt lat="50.44499" lon="5.31486">
        <ele>217.7</ele>
        <time>2020-08-18T13:03:39Z</time>
      </trkpt>
      <trkpt lat="50.44499" lon="5.31485">
        <ele>217.7</ele>
        <time>2020-08-18T13:03:40Z</time>
      </trkpt>
      <trkpt lat="50.44499" lon="5.31483">
        <ele>217.9</ele>
        <time>2020-08-18T13:03:41Z</time>
      </trkpt>
      <trkpt lat="50.44498" lon="5.31482">
        <ele>218</ele>
        <time>2020-08-18T13:03:42Z</time>
      </trkpt>
      <trkpt lat="50.44498" lon="5.3148">
        <ele>218.1</ele>
        <time>2020-08-18T13:03:43Z</time>
      </trkpt>
      <trkpt lat="50.44498" lon="5.31479">
        <ele>218.1</ele>
        <time>2020-08-18T13:03:44Z</time>
      </trkpt>
      <trkpt lat="50.44498" lon="5.31478">
        <ele>218.2</ele>
        <time>2020-08-18T13:03:45Z</time>
      </trkpt>
      <trkpt lat="50.44499" lon="5.31477">
        <ele>218.2</ele>
        <time>2020-08-18T13:03:46Z</time>
      </trkpt>
      <trkpt lat="50.44499" lon="5.31475">
        <ele>218.3</ele>
        <time>2020-08-18T13:03:47Z</time>
      </trkpt>
      <trkpt lat="50.445" lon="5.31474">
        <ele>214.8</ele>
        <time>2020-08-18T13:03:48Z</time>
      </trkpt>
      <trkpt lat="50.445" lon="5.31472">
        <ele>214.7</ele>
        <time>2020-08-18T13:03:49Z</time>
      </trkpt>
      <trkpt lat="50.445" lon="5.31471">
        <ele>214.7</ele>
        <time>2020-08-18T13:03:50Z</time>
      </trkpt>
      <trkpt lat="50.445" lon="5.31469">
        <ele>214.7</ele>
        <time>2020-08-18T13:03:51Z</time>
      </trkpt>
      <trkpt lat="50.445" lon="5.31468">
        <ele>214.7</ele>
        <time>2020-08-18T13:03:52Z</time>
      </trkpt>
      <trkpt lat="50.445" lon="5.31466">
        <ele>214.7</ele>
        <time>2020-08-18T13:03:53Z</time>
      </trkpt>
      <trkpt lat="50.44499" lon="5.31464">
        <ele>218.6</ele>
        <time>2020-08-18T13:03:54Z</time>
      </trkpt>
      <trkpt lat="50.44498" lon="5.31462">
        <ele>218.7</ele>
        <time>2020-08-18T13:03:55Z</time>
      </trkpt>
      <trkpt lat="50.44498" lon="5.3146">
        <ele>218.7</ele>
        <time>2020-08-18T13:03:56Z</time>
      </trkpt>
      <trkpt lat="50.44499" lon="5.31458">
        <ele>218.7</ele>
        <time>2020-08-18T13:03:57Z</time>
      </trkpt>
      <trkpt lat="50.445" lon="5.31457">
        <ele>214.7</ele>
        <time>2020-08-18T13:03:58Z</time>
      </trkpt>
      <trkpt lat="50.445" lon="5.31456">
        <ele>214.7</ele>
        <time>2020-08-18T13:03:59Z</time>
      </trkpt>
      <trkpt lat="50.445" lon="5.31455">
        <ele>214.7</ele>
        <time>2020-08-18T13:04:00Z</time>
      </trkpt>
      <trkpt lat="50.445" lon="5.31454">
        <ele>214.7</ele>
        <time>2020-08-18T13:04:01Z</time>
      </trkpt>
      <trkpt lat="50.44501" lon="5.31453">
        <ele>214.7</ele>
        <time>2020-08-18T13:04:02Z</time>
      </trkpt>
      <trkpt lat="50.44501" lon="5.31453">
        <ele>214.7</ele>
        <time>2020-08-18T13:04:03Z</time>
      </trkpt>
      <trkpt lat="50.445" lon="5.31452">
        <ele>214.7</ele>
        <time>2020-08-18T13:04:04Z</time>
      </trkpt>
      <trkpt lat="50.445" lon="5.31451">
        <ele>214.7</ele>
        <time>2020-08-18T13:04:05Z</time>
      </trkpt>
      <trkpt lat="50.445" lon="5.3145">
        <ele>214.7</ele>
        <time>2020-08-18T13:04:06Z</time>
      </trkpt>
      <trkpt lat="50.44499" lon="5.31449">
        <ele>218.7</ele>
        <time>2020-08-18T13:04:07Z</time>
      </trkpt>
      <trkpt lat="50.44498" lon="5.31448">
        <ele>218.7</ele>
        <time>2020-08-18T13:04:08Z</time>
      </trkpt>
      <trkpt lat="50.44497" lon="5.31447">
        <ele>218.7</ele>
        <time>2020-08-18T13:04:09Z</time>
      </trkpt>
      <trkpt lat="50.44497" lon="5.31446">
        <ele>218.6</ele>
        <time>2020-08-18T13:04:10Z</time>
      </trkpt>
      <trkpt lat="50.44497" lon="5.31444">
        <ele>218.6</ele>
        <time>2020-08-18T13:04:11Z</time>
      </trkpt>
      <trkpt lat="50.44497" lon="5.31443">
        <ele>218.6</ele>
        <time>2020-08-18T13:04:12Z</time>
      </trkpt>
      <trkpt lat="50.44497" lon="5.31441">
        <ele>218.5</ele>
        <time>2020-08-18T13:04:13Z</time>
      </trkpt>
      <trkpt lat="50.44497" lon="5.31439">
        <ele>218.5</ele>
        <time>2020-08-18T13:04:14Z</time>
      </trkpt>
      <trkpt lat="50.44497" lon="5.31437">
        <ele>218.4</ele>
        <time>2020-08-18T13:04:15Z</time>
      </trkpt>
      <trkpt lat="50.44497" lon="5.31436">
        <ele>218.4</ele>
        <time>2020-08-18T13:04:16Z</time>
      </trkpt>
      <trkpt lat="50.44497" lon="5.31435">
        <ele>218.3</ele>
        <time>2020-08-18T13:04:17Z</time>
      </trkpt>
      <trkpt lat="50.44497" lon="5.31434">
        <ele>218.3</ele>
        <time>2020-08-18T13:04:18Z</time>
      </trkpt>
      <trkpt lat="50.44497" lon="5.31433">
        <ele>218.3</ele>
        <time>2020-08-18T13:04:19Z</time>
      </trkpt>
      <trkpt lat="50.44496" lon="5.31432">
        <ele>218.2</ele>
        <time>2020-08-18T13:04:20Z</time>
      </trkpt>
      <trkpt lat="50.44495" lon="5.31432">
        <ele>218.3</ele>
        <time>2020-08-18T13:04:21Z</time>
      </trkpt>
      <trkpt lat="50.44494" lon="5.31432">
        <ele>218.3</ele>
        <time>2020-08-18T13:04:22Z</time>
      </trkpt>
      <trkpt lat="50.44492" lon="5.31431">
        <ele>218.3</ele>
        <time>2020-08-18T13:04:23Z</time>
      </trkpt>
      <trkpt lat="50.44491" lon="5.3143">
        <ele>218.3</ele>
        <time>2020-08-18T13:04:24Z</time>
      </trkpt>
      <trkpt lat="50.4449" lon="5.31429">
        <ele>218.3</ele>
        <time>2020-08-18T13:04:25Z</time>
      </trkpt>
      <trkpt lat="50.44489" lon="5.31428">
        <ele>218.3</ele>
        <time>2020-08-18T13:04:26Z</time>
      </trkpt>
      <trkpt lat="50.44489" lon="5.31427">
        <ele>218.3</ele>
        <time>2020-08-18T13:04:27Z</time>
      </trkpt>
      <trkpt lat="50.4449" lon="5.31425">
        <ele>218.2</ele>
        <time>2020-08-18T13:04:28Z</time>
      </trkpt>
      <trkpt lat="50.44491" lon="5.31423">
        <ele>218</ele>
        <time>2020-08-18T13:04:29Z</time>
      </trkpt>
      <trkpt lat="50.44492" lon="5.31421">
        <ele>217.9</ele>
        <time>2020-08-18T13:04:30Z</time>
      </trkpt>
      <trkpt lat="50.44492" lon="5.31419">
        <ele>217.8</ele>
        <time>2020-08-18T13:04:31Z</time>
      </trkpt>
      <trkpt lat="50.44494" lon="5.31417">
        <ele>217.6</ele>
        <time>2020-08-18T13:04:32Z</time>
      </trkpt>
      <trkpt lat="50.44494" lon="5.31415">
        <ele>217.5</ele>
        <time>2020-08-18T13:04:33Z</time>
      </trkpt>
      <trkpt lat="50.44494" lon="5.31413">
        <ele>217.6</ele>
        <time>2020-08-18T13:04:34Z</time>
      </trkpt>
      <trkpt lat="50.44494" lon="5.31411">
        <ele>217.7</ele>
        <time>2020-08-18T13:04:35Z</time>
      </trkpt>
      <trkpt lat="50.44494" lon="5.3141">
        <ele>217.7</ele>
        <time>2020-08-18T13:04:36Z</time>
      </trkpt>
      <trkpt lat="50.44494" lon="5.31408">
        <ele>217.8</ele>
        <time>2020-08-18T13:04:37Z</time>
      </trkpt>
      <trkpt lat="50.44494" lon="5.31407">
        <ele>217.9</ele>
        <time>2020-08-18T13:04:38Z</time>
      </trkpt>
      <trkpt lat="50.44494" lon="5.31406">
        <ele>217.9</ele>
        <time>2020-08-18T13:04:39Z</time>
      </trkpt>
      <trkpt lat="50.44494" lon="5.31405">
        <ele>217.9</ele>
        <time>2020-08-18T13:04:40Z</time>
      </trkpt>
      <trkpt lat="50.44495" lon="5.31404">
        <ele>218</ele>
        <time>2020-08-18T13:04:41Z</time>
      </trkpt>
      <trkpt lat="50.44497" lon="5.31401">
        <ele>218.1</ele>
        <time>2020-08-18T13:04:43Z</time>
      </trkpt>
      <trkpt lat="50.44497" lon="5.314">
        <ele>218.1</ele>
        <time>2020-08-18T13:04:44Z</time>
      </trkpt>
      <trkpt lat="50.44497" lon="5.314">
        <ele>218.1</ele>
        <time>2020-08-18T13:04:45Z</time>
      </trkpt>
      <trkpt lat="50.44497" lon="5.31399">
        <ele>218.1</ele>
        <time>2020-08-18T13:04:46Z</time>
      </trkpt>
      <trkpt lat="50.44497" lon="5.31399">
        <ele>218.1</ele>
        <time>2020-08-18T13:04:47Z</time>
      </trkpt>
      <trkpt lat="50.44497" lon="5.31393">
        <ele>218.3</ele>
        <time>2020-08-18T13:04:50Z</time>
      </trkpt>
      <trkpt lat="50.44499" lon="5.31392">
        <ele>218.3</ele>
        <time>2020-08-18T13:04:52Z</time>
      </trkpt>
      <trkpt lat="50.445" lon="5.31392">
        <ele>214.5</ele>
        <time>2020-08-18T13:04:53Z</time>
      </trkpt>
      <trkpt lat="50.445" lon="5.31391">
        <ele>214.5</ele>
        <time>2020-08-18T13:04:54Z</time>
      </trkpt>
      <trkpt lat="50.445" lon="5.31391">
        <ele>214.5</ele>
        <time>2020-08-18T13:04:55Z</time>
      </trkpt>
      <trkpt lat="50.44501" lon="5.3139">
        <ele>214.4</ele>
        <time>2020-08-18T13:04:56Z</time>
      </trkpt>
      <trkpt lat="50.44502" lon="5.3139">
        <ele>214.4</ele>
        <time>2020-08-18T13:04:57Z</time>
      </trkpt>
      <trkpt lat="50.44502" lon="5.3139">
        <ele>214.4</ele>
        <time>2020-08-18T13:04:58Z</time>
      </trkpt>
      <trkpt lat="50.44503" lon="5.3139">
        <ele>214.4</ele>
        <time>2020-08-18T13:05:01Z</time>
      </trkpt>
      <trkpt lat="50.44503" lon="5.31389">
        <ele>214.3</ele>
        <time>2020-08-18T13:05:04Z</time>
      </trkpt>
      <trkpt lat="50.44503" lon="5.31389">
        <ele>214.3</ele>
        <time>2020-08-18T13:05:05Z</time>
      </trkpt>
      <trkpt lat="50.44503" lon="5.31389">
        <ele>214.3</ele>
        <time>2020-08-18T13:05:06Z</time>
      </trkpt>
      <trkpt lat="50.44503" lon="5.31388">
        <ele>214.3</ele>
        <time>2020-08-18T13:05:07Z</time>
      </trkpt>
      <trkpt lat="50.44502" lon="5.31387">
        <ele>214.3</ele>
        <time>2020-08-18T13:05:08Z</time>
      </trkpt>
      <trkpt lat="50.44502" lon="5.31386">
        <ele>214.3</ele>
        <time>2020-08-18T13:05:09Z</time>
      </trkpt>
      <trkpt lat="50.44502" lon="5.31386">
        <ele>214.3</ele>
        <time>2020-08-18T13:05:10Z</time>
      </trkpt>
      <trkpt lat="50.44502" lon="5.31385">
        <ele>214.3</ele>
        <time>2020-08-18T13:05:11Z</time>
      </trkpt>
      <trkpt lat="50.44503" lon="5.31384">
        <ele>214.2</ele>
        <time>2020-08-18T13:05:12Z</time>
      </trkpt>
      <trkpt lat="50.44503" lon="5.31383">
        <ele>214.2</ele>
        <time>2020-08-18T13:05:13Z</time>
      </trkpt>
      <trkpt lat="50.44503" lon="5.31381">
        <ele>214.2</ele>
        <time>2020-08-18T13:05:14Z</time>
      </trkpt>
      <trkpt lat="50.44504" lon="5.31379">
        <ele>214.1</ele>
        <time>2020-08-18T13:05:15Z</time>
      </trkpt>
      <trkpt lat="50.44504" lon="5.31378">
        <ele>214.1</ele>
        <time>2020-08-18T13:05:16Z</time>
      </trkpt>
      <trkpt lat="50.44504" lon="5.31377">
        <ele>214.1</ele>
        <time>2020-08-18T13:05:17Z</time>
      </trkpt>
      <trkpt lat="50.44504" lon="5.31376">
        <ele>214.2</ele>
        <time>2020-08-18T13:05:18Z</time>
      </trkpt>
      <trkpt lat="50.44504" lon="5.31374">
        <ele>214.2</ele>
        <time>2020-08-18T13:05:19Z</time>
      </trkpt>
      <trkpt lat="50.44504" lon="5.31372">
        <ele>214.2</ele>
        <time>2020-08-18T13:05:20Z</time>
      </trkpt>
      <trkpt lat="50.44504" lon="5.3137">
        <ele>214.2</ele>
        <time>2020-08-18T13:05:21Z</time>
      </trkpt>
      <trkpt lat="50.44503" lon="5.31367">
        <ele>214.3</ele>
        <time>2020-08-18T13:05:22Z</time>
      </trkpt>
      <trkpt lat="50.44503" lon="5.31365">
        <ele>214.4</ele>
        <time>2020-08-18T13:05:23Z</time>
      </trkpt>
      <trkpt lat="50.44503" lon="5.31363">
        <ele>214.5</ele>
        <time>2020-08-18T13:05:24Z</time>
      </trkpt>
      <trkpt lat="50.44503" lon="5.3136">
        <ele>214.6</ele>
        <time>2020-08-18T13:05:25Z</time>
      </trkpt>
      <trkpt lat="50.44503" lon="5.31357">
        <ele>214.8</ele>
        <time>2020-08-18T13:05:26Z</time>
      </trkpt>
      <trkpt lat="50.44503" lon="5.31355">
        <ele>214.9</ele>
        <time>2020-08-18T13:05:27Z</time>
      </trkpt>
      <trkpt lat="50.44502" lon="5.31353">
        <ele>215.1</ele>
        <time>2020-08-18T13:05:28Z</time>
      </trkpt>
      <trkpt lat="50.44501" lon="5.31352">
        <ele>215.2</ele>
        <time>2020-08-18T13:05:29Z</time>
      </trkpt>
      <trkpt lat="50.445" lon="5.31351">
        <ele>215.3</ele>
        <time>2020-08-18T13:05:30Z</time>
      </trkpt>
      <trkpt lat="50.445" lon="5.31351">
        <ele>215.3</ele>
        <time>2020-08-18T13:05:31Z</time>
      </trkpt>
      <trkpt lat="50.445" lon="5.31351">
        <ele>215.3</ele>
        <time>2020-08-18T13:05:32Z</time>
      </trkpt>
      <trkpt lat="50.445" lon="5.31352">
        <ele>215.2</ele>
        <time>2020-08-18T13:05:33Z</time>
      </trkpt>
      <trkpt lat="50.445" lon="5.31352">
        <ele>215.2</ele>
        <time>2020-08-18T13:05:34Z</time>
      </trkpt>
      <trkpt lat="50.44499" lon="5.31352">
        <ele>218.5</ele>
        <time>2020-08-18T13:05:35Z</time>
      </trkpt>
      <trkpt lat="50.44499" lon="5.31352">
        <ele>218.5</ele>
        <time>2020-08-18T13:05:36Z</time>
      </trkpt>
      <trkpt lat="50.44498" lon="5.31351">
        <ele>218.5</ele>
        <time>2020-08-18T13:05:37Z</time>
      </trkpt>
      <trkpt lat="50.44498" lon="5.31348">
        <ele>218.5</ele>
        <time>2020-08-18T13:05:38Z</time>
      </trkpt>
      <trkpt lat="50.44498" lon="5.31346">
        <ele>218.4</ele>
        <time>2020-08-18T13:05:39Z</time>
      </trkpt>
      <trkpt lat="50.44498" lon="5.31343">
        <ele>218.3</ele>
        <time>2020-08-18T13:05:40Z</time>
      </trkpt>
      <trkpt lat="50.44498" lon="5.3134">
        <ele>218.3</ele>
        <time>2020-08-18T13:05:41Z</time>
      </trkpt>
      <trkpt lat="50.44498" lon="5.31338">
        <ele>218.2</ele>
        <time>2020-08-18T13:05:42Z</time>
      </trkpt>
      <trkpt lat="50.44498" lon="5.31336">
        <ele>218.1</ele>
        <time>2020-08-18T13:05:43Z</time>
      </trkpt>
      <trkpt lat="50.44498" lon="5.31334">
        <ele>218.1</ele>
        <time>2020-08-18T13:05:44Z</time>
      </trkpt>
      <trkpt lat="50.44499" lon="5.31332">
        <ele>218</ele>
        <time>2020-08-18T13:05:45Z</time>
      </trkpt>
      <trkpt lat="50.445" lon="5.31331">
        <ele>217.4</ele>
        <time>2020-08-18T13:05:46Z</time>
      </trkpt>
      <trkpt lat="50.445" lon="5.3133">
        <ele>217.2</ele>
        <time>2020-08-18T13:05:47Z</time>
      </trkpt>
      <trkpt lat="50.445" lon="5.31328">
        <ele>216.7</ele>
        <time>2020-08-18T13:05:48Z</time>
      </trkpt>
      <trkpt lat="50.445" lon="5.31327">
        <ele>216.5</ele>
        <time>2020-08-18T13:05:49Z</time>
      </trkpt>
      <trkpt lat="50.445" lon="5.31325">
        <ele>216.1</ele>
        <time>2020-08-18T13:05:50Z</time>
      </trkpt>
      <trkpt lat="50.445" lon="5.31324">
        <ele>216</ele>
        <time>2020-08-18T13:05:51Z</time>
      </trkpt>
      <trkpt lat="50.445" lon="5.31322">
        <ele>215.6</ele>
        <time>2020-08-18T13:05:52Z</time>
      </trkpt>
      <trkpt lat="50.44499" lon="5.3132">
        <ele>218</ele>
        <time>2020-08-18T13:05:53Z</time>
      </trkpt>
      <trkpt lat="50.44499" lon="5.31319">
        <ele>218</ele>
        <time>2020-08-18T13:05:54Z</time>
      </trkpt>
      <trkpt lat="50.44499" lon="5.31318">
        <ele>218</ele>
        <time>2020-08-18T13:05:55Z</time>
      </trkpt>
      <trkpt lat="50.44499" lon="5.31316">
        <ele>218</ele>
        <time>2020-08-18T13:05:56Z</time>
      </trkpt>
      <trkpt lat="50.44499" lon="5.31315">
        <ele>218</ele>
        <time>2020-08-18T13:05:57Z</time>
      </trkpt>
      <trkpt lat="50.44499" lon="5.31313">
        <ele>217.9</ele>
        <time>2020-08-18T13:05:58Z</time>
      </trkpt>
      <trkpt lat="50.44498" lon="5.31311">
        <ele>217.9</ele>
        <time>2020-08-18T13:05:59Z</time>
      </trkpt>
      <trkpt lat="50.44498" lon="5.31308">
        <ele>217.9</ele>
        <time>2020-08-18T13:06:00Z</time>
      </trkpt>
      <trkpt lat="50.44497" lon="5.31306">
        <ele>217.9</ele>
        <time>2020-08-18T13:06:01Z</time>
      </trkpt>
      <trkpt lat="50.44497" lon="5.31304">
        <ele>217.8</ele>
        <time>2020-08-18T13:06:02Z</time>
      </trkpt>
      <trkpt lat="50.44496" lon="5.31302">
        <ele>217.8</ele>
        <time>2020-08-18T13:06:03Z</time>
      </trkpt>
      <trkpt lat="50.44495" lon="5.313">
        <ele>217.8</ele>
        <time>2020-08-18T13:06:04Z</time>
      </trkpt>
      <trkpt lat="50.44495" lon="5.31298">
        <ele>217.8</ele>
        <time>2020-08-18T13:06:05Z</time>
      </trkpt>
      <trkpt lat="50.44494" lon="5.31297">
        <ele>217.7</ele>
        <time>2020-08-18T13:06:06Z</time>
      </trkpt>
      <trkpt lat="50.44494" lon="5.31295">
        <ele>217.7</ele>
        <time>2020-08-18T13:06:07Z</time>
      </trkpt>
      <trkpt lat="50.44495" lon="5.31294">
        <ele>217.7</ele>
        <time>2020-08-18T13:06:08Z</time>
      </trkpt>
      <trkpt lat="50.44495" lon="5.31293">
        <ele>217.7</ele>
        <time>2020-08-18T13:06:09Z</time>
      </trkpt>
      <trkpt lat="50.44495" lon="5.31291">
        <ele>217.6</ele>
        <time>2020-08-18T13:06:10Z</time>
      </trkpt>
      <trkpt lat="50.44495" lon="5.3129">
        <ele>217.6</ele>
        <time>2020-08-18T13:06:11Z</time>
      </trkpt>
      <trkpt lat="50.44495" lon="5.31289">
        <ele>217.6</ele>
        <time>2020-08-18T13:06:12Z</time>
      </trkpt>
      <trkpt lat="50.44495" lon="5.31287">
        <ele>217.5</ele>
        <time>2020-08-18T13:06:13Z</time>
      </trkpt>
      <trkpt lat="50.44494" lon="5.31286">
        <ele>217.5</ele>
        <time>2020-08-18T13:06:14Z</time>
      </trkpt>
      <trkpt lat="50.44494" lon="5.31285">
        <ele>217.5</ele>
        <time>2020-08-18T13:06:15Z</time>
      </trkpt>
      <trkpt lat="50.44494" lon="5.31284">
        <ele>217.4</ele>
        <time>2020-08-18T13:06:16Z</time>
      </trkpt>
      <trkpt lat="50.44494" lon="5.31282">
        <ele>217.4</ele>
        <time>2020-08-18T13:06:17Z</time>
      </trkpt>
      <trkpt lat="50.44492" lon="5.31281">
        <ele>217.4</ele>
        <time>2020-08-18T13:06:18Z</time>
      </trkpt>
      <trkpt lat="50.44491" lon="5.31279">
        <ele>217.3</ele>
        <time>2020-08-18T13:06:19Z</time>
      </trkpt>
      <trkpt lat="50.44491" lon="5.31278">
        <ele>217.3</ele>
        <time>2020-08-18T13:06:20Z</time>
      </trkpt>
      <trkpt lat="50.4449" lon="5.31276">
        <ele>217.2</ele>
        <time>2020-08-18T13:06:21Z</time>
      </trkpt>
      <trkpt lat="50.44489" lon="5.31275">
        <ele>217.2</ele>
        <time>2020-08-18T13:06:22Z</time>
      </trkpt>
      <trkpt lat="50.44488" lon="5.31274">
        <ele>217.2</ele>
        <time>2020-08-18T13:06:23Z</time>
      </trkpt>
      <trkpt lat="50.44488" lon="5.31272">
        <ele>217.1</ele>
        <time>2020-08-18T13:06:24Z</time>
      </trkpt>
      <trkpt lat="50.44488" lon="5.3127">
        <ele>217</ele>
        <time>2020-08-18T13:06:25Z</time>
      </trkpt>
      <trkpt lat="50.44487" lon="5.31268">
        <ele>217</ele>
        <time>2020-08-18T13:06:26Z</time>
      </trkpt>
      <trkpt lat="50.44487" lon="5.31266">
        <ele>216.9</ele>
        <time>2020-08-18T13:06:27Z</time>
      </trkpt>
      <trkpt lat="50.44486" lon="5.31264">
        <ele>216.8</ele>
        <time>2020-08-18T13:06:28Z</time>
      </trkpt>
      <trkpt lat="50.44485" lon="5.31263">
        <ele>216.9</ele>
        <time>2020-08-18T13:06:29Z</time>
      </trkpt>
      <trkpt lat="50.44485" lon="5.31262">
        <ele>216.8</ele>
        <time>2020-08-18T13:06:30Z</time>
      </trkpt>
      <trkpt lat="50.44485" lon="5.3126">
        <ele>216.7</ele>
        <time>2020-08-18T13:06:31Z</time>
      </trkpt>
      <trkpt lat="50.44485" lon="5.3126">
        <ele>216.7</ele>
        <time>2020-08-18T13:06:32Z</time>
      </trkpt>
      <trkpt lat="50.44486" lon="5.31259">
        <ele>216.6</ele>
        <time>2020-08-18T13:06:33Z</time>
      </trkpt>
      <trkpt lat="50.44486" lon="5.31258">
        <ele>216.6</ele>
        <time>2020-08-18T13:06:34Z</time>
      </trkpt>
      <trkpt lat="50.44485" lon="5.31257">
        <ele>216.6</ele>
        <time>2020-08-18T13:06:35Z</time>
      </trkpt>
      <trkpt lat="50.44485" lon="5.31256">
        <ele>216.6</ele>
        <time>2020-08-18T13:06:36Z</time>
      </trkpt>
      <trkpt lat="50.44485" lon="5.31255">
        <ele>216.6</ele>
        <time>2020-08-18T13:06:37Z</time>
      </trkpt>
      <trkpt lat="50.44485" lon="5.31254">
        <ele>216.6</ele>
        <time>2020-08-18T13:06:38Z</time>
      </trkpt>
      <trkpt lat="50.44485" lon="5.31253">
        <ele>216.5</ele>
        <time>2020-08-18T13:06:39Z</time>
      </trkpt>
      <trkpt lat="50.44485" lon="5.31252">
        <ele>216.5</ele>
        <time>2020-08-18T13:06:40Z</time>
      </trkpt>
      <trkpt lat="50.44485" lon="5.31251">
        <ele>216.5</ele>
        <time>2020-08-18T13:06:41Z</time>
      </trkpt>
      <trkpt lat="50.44484" lon="5.3125">
        <ele>216</ele>
        <time>2020-08-18T13:06:42Z</time>
      </trkpt>
      <trkpt lat="50.44484" lon="5.31249">
        <ele>215.2</ele>
        <time>2020-08-18T13:06:43Z</time>
      </trkpt>
      <trkpt lat="50.44483" lon="5.31248">
        <ele>215.2</ele>
        <time>2020-08-18T13:06:44Z</time>
      </trkpt>
      <trkpt lat="50.44482" lon="5.31247">
        <ele>215.2</ele>
        <time>2020-08-18T13:06:45Z</time>
      </trkpt>
      <trkpt lat="50.44482" lon="5.31247">
        <ele>215.2</ele>
        <time>2020-08-18T13:06:46Z</time>
      </trkpt>
      <trkpt lat="50.44481" lon="5.31246">
        <ele>215.3</ele>
        <time>2020-08-18T13:06:47Z</time>
      </trkpt>
      <trkpt lat="50.44479" lon="5.31245">
        <ele>215.3</ele>
        <time>2020-08-18T13:06:48Z</time>
      </trkpt>
      <trkpt lat="50.44479" lon="5.31244">
        <ele>215.3</ele>
        <time>2020-08-18T13:06:49Z</time>
      </trkpt>
      <trkpt lat="50.44478" lon="5.31242">
        <ele>215.3</ele>
        <time>2020-08-18T13:06:50Z</time>
      </trkpt>
      <trkpt lat="50.44478" lon="5.3124">
        <ele>215.3</ele>
        <time>2020-08-18T13:06:51Z</time>
      </trkpt>
      <trkpt lat="50.44477" lon="5.31239">
        <ele>215.3</ele>
        <time>2020-08-18T13:06:52Z</time>
      </trkpt>
      <trkpt lat="50.44477" lon="5.31238">
        <ele>215.3</ele>
        <time>2020-08-18T13:06:53Z</time>
      </trkpt>
      <trkpt lat="50.44476" lon="5.31237">
        <ele>215.3</ele>
        <time>2020-08-18T13:06:54Z</time>
      </trkpt>
      <trkpt lat="50.44476" lon="5.31236">
        <ele>215.3</ele>
        <time>2020-08-18T13:06:55Z</time>
      </trkpt>
      <trkpt lat="50.44476" lon="5.31235">
        <ele>215.3</ele>
        <time>2020-08-18T13:06:56Z</time>
      </trkpt>
      <trkpt lat="50.44476" lon="5.31234">
        <ele>215.3</ele>
        <time>2020-08-18T13:06:57Z</time>
      </trkpt>
      <trkpt lat="50.44476" lon="5.31233">
        <ele>215.2</ele>
        <time>2020-08-18T13:06:58Z</time>
      </trkpt>
      <trkpt lat="50.44475" lon="5.31233">
        <ele>215.3</ele>
        <time>2020-08-18T13:06:59Z</time>
      </trkpt>
      <trkpt lat="50.44474" lon="5.31232">
        <ele>215.3</ele>
        <time>2020-08-18T13:07:00Z</time>
      </trkpt>
      <trkpt lat="50.44474" lon="5.31231">
        <ele>215.3</ele>
        <time>2020-08-18T13:07:01Z</time>
      </trkpt>
      <trkpt lat="50.44473" lon="5.3123">
        <ele>215.3</ele>
        <time>2020-08-18T13:07:02Z</time>
      </trkpt>
      <trkpt lat="50.44473" lon="5.31229">
        <ele>215.3</ele>
        <time>2020-08-18T13:07:03Z</time>
      </trkpt>
      <trkpt lat="50.44473" lon="5.31228">
        <ele>215.2</ele>
        <time>2020-08-18T13:07:04Z</time>
      </trkpt>
      <trkpt lat="50.44472" lon="5.31227">
        <ele>215.2</ele>
        <time>2020-08-18T13:07:05Z</time>
      </trkpt>
      <trkpt lat="50.44471" lon="5.31226">
        <ele>215.3</ele>
        <time>2020-08-18T13:07:06Z</time>
      </trkpt>
      <trkpt lat="50.4447" lon="5.31225">
        <ele>215.3</ele>
        <time>2020-08-18T13:07:07Z</time>
      </trkpt>
      <trkpt lat="50.44469" lon="5.31224">
        <ele>215.3</ele>
        <time>2020-08-18T13:07:08Z</time>
      </trkpt>
      <trkpt lat="50.44469" lon="5.31222">
        <ele>215.2</ele>
        <time>2020-08-18T13:07:09Z</time>
      </trkpt>
      <trkpt lat="50.44469" lon="5.3122">
        <ele>215.2</ele>
        <time>2020-08-18T13:07:10Z</time>
      </trkpt>
      <trkpt lat="50.44468" lon="5.31218">
        <ele>215.2</ele>
        <time>2020-08-18T13:07:11Z</time>
      </trkpt>
      <trkpt lat="50.44468" lon="5.31217">
        <ele>215.1</ele>
        <time>2020-08-18T13:07:12Z</time>
      </trkpt>
      <trkpt lat="50.44467" lon="5.31215">
        <ele>215.1</ele>
        <time>2020-08-18T13:07:13Z</time>
      </trkpt>
      <trkpt lat="50.44467" lon="5.31214">
        <ele>215.1</ele>
        <time>2020-08-18T13:07:14Z</time>
      </trkpt>
      <trkpt lat="50.44467" lon="5.31212">
        <ele>215</ele>
        <time>2020-08-18T13:07:15Z</time>
      </trkpt>
      <trkpt lat="50.44466" lon="5.31211">
        <ele>215</ele>
        <time>2020-08-18T13:07:16Z</time>
      </trkpt>
      <trkpt lat="50.44466" lon="5.31209">
        <ele>215</ele>
        <time>2020-08-18T13:07:17Z</time>
      </trkpt>
      <trkpt lat="50.44465" lon="5.31208">
        <ele>215</ele>
        <time>2020-08-18T13:07:18Z</time>
      </trkpt>
      <trkpt lat="50.44465" lon="5.31206">
        <ele>214.9</ele>
        <time>2020-08-18T13:07:19Z</time>
      </trkpt>
      <trkpt lat="50.44465" lon="5.31205">
        <ele>214.9</ele>
        <time>2020-08-18T13:07:20Z</time>
      </trkpt>
      <trkpt lat="50.44465" lon="5.31204">
        <ele>214.9</ele>
        <time>2020-08-18T13:07:21Z</time>
      </trkpt>
      <trkpt lat="50.44465" lon="5.31202">
        <ele>214.8</ele>
        <time>2020-08-18T13:07:22Z</time>
      </trkpt>
      <trkpt lat="50.44465" lon="5.31201">
        <ele>214.8</ele>
        <time>2020-08-18T13:07:23Z</time>
      </trkpt>
      <trkpt lat="50.44465" lon="5.31198">
        <ele>214.7</ele>
        <time>2020-08-18T13:07:24Z</time>
      </trkpt>
      <trkpt lat="50.44465" lon="5.31196">
        <ele>214.6</ele>
        <time>2020-08-18T13:07:25Z</time>
      </trkpt>
      <trkpt lat="50.44465" lon="5.31193">
        <ele>214.5</ele>
        <time>2020-08-18T13:07:26Z</time>
      </trkpt>
      <trkpt lat="50.44464" lon="5.31191">
        <ele>214.5</ele>
        <time>2020-08-18T13:07:27Z</time>
      </trkpt>
      <trkpt lat="50.44464" lon="5.31189">
        <ele>214.4</ele>
        <time>2020-08-18T13:07:28Z</time>
      </trkpt>
      <trkpt lat="50.44465" lon="5.31187">
        <ele>214.3</ele>
        <time>2020-08-18T13:07:29Z</time>
      </trkpt>
      <trkpt lat="50.44465" lon="5.31185">
        <ele>214.3</ele>
        <time>2020-08-18T13:07:30Z</time>
      </trkpt>
      <trkpt lat="50.44465" lon="5.31184">
        <ele>214.2</ele>
        <time>2020-08-18T13:07:31Z</time>
      </trkpt>
      <trkpt lat="50.44466" lon="5.31183">
        <ele>214.1</ele>
        <time>2020-08-18T13:07:32Z</time>
      </trkpt>
      <trkpt lat="50.44466" lon="5.31182">
        <ele>214.1</ele>
        <time>2020-08-18T13:07:33Z</time>
      </trkpt>
      <trkpt lat="50.44466" lon="5.31181">
        <ele>214.1</ele>
        <time>2020-08-18T13:07:34Z</time>
      </trkpt>
      <trkpt lat="50.44466" lon="5.31181">
        <ele>214.1</ele>
        <time>2020-08-18T13:07:35Z</time>
      </trkpt>
      <trkpt lat="50.44465" lon="5.3118">
        <ele>214.1</ele>
        <time>2020-08-18T13:07:36Z</time>
      </trkpt>
      <trkpt lat="50.44465" lon="5.31179">
        <ele>214.1</ele>
        <time>2020-08-18T13:07:37Z</time>
      </trkpt>
      <trkpt lat="50.44465" lon="5.31178">
        <ele>214.1</ele>
        <time>2020-08-18T13:07:38Z</time>
      </trkpt>
      <trkpt lat="50.44465" lon="5.31177">
        <ele>214.1</ele>
        <time>2020-08-18T13:07:39Z</time>
      </trkpt>
      <trkpt lat="50.44466" lon="5.31176">
        <ele>214</ele>
        <time>2020-08-18T13:07:40Z</time>
      </trkpt>
      <trkpt lat="50.44466" lon="5.31175">
        <ele>213.9</ele>
        <time>2020-08-18T13:07:41Z</time>
      </trkpt>
      <trkpt lat="50.44466" lon="5.31174">
        <ele>213.9</ele>
        <time>2020-08-18T13:07:42Z</time>
      </trkpt>
      <trkpt lat="50.44466" lon="5.31173">
        <ele>213.9</ele>
        <time>2020-08-18T13:07:43Z</time>
      </trkpt>
      <trkpt lat="50.44466" lon="5.31172">
        <ele>213.9</ele>
        <time>2020-08-18T13:07:44Z</time>
      </trkpt>
      <trkpt lat="50.44466" lon="5.31171">
        <ele>213.9</ele>
        <time>2020-08-18T13:07:45Z</time>
      </trkpt>
      <trkpt lat="50.44466" lon="5.3117">
        <ele>213.9</ele>
        <time>2020-08-18T13:07:46Z</time>
      </trkpt>
      <trkpt lat="50.44466" lon="5.31169">
        <ele>213.8</ele>
        <time>2020-08-18T13:07:47Z</time>
      </trkpt>
      <trkpt lat="50.44466" lon="5.31167">
        <ele>213.8</ele>
        <time>2020-08-18T13:07:48Z</time>
      </trkpt>
      <trkpt lat="50.44465" lon="5.31165">
        <ele>211</ele>
        <time>2020-08-18T13:07:48Z</time>
      </trkpt>
      <trkpt lat="50.44464" lon="5.31163">
        <ele>211</ele>
        <time>2020-08-18T13:07:49Z</time>
      </trkpt>
      <trkpt lat="50.44463" lon="5.31161">
        <ele>211.1</ele>
        <time>2020-08-18T13:07:50Z</time>
      </trkpt>
      <trkpt lat="50.44463" lon="5.31158">
        <ele>211</ele>
        <time>2020-08-18T13:07:51Z</time>
      </trkpt>
      <trkpt lat="50.44462" lon="5.31156">
        <ele>211.1</ele>
        <time>2020-08-18T13:07:52Z</time>
      </trkpt>
      <trkpt lat="50.44461" lon="5.31153">
        <ele>211.1</ele>
        <time>2020-08-18T13:07:53Z</time>
      </trkpt>
      <trkpt lat="50.44461" lon="5.31151">
        <ele>211</ele>
        <time>2020-08-18T13:07:54Z</time>
      </trkpt>
      <trkpt lat="50.44461" lon="5.31148">
        <ele>211</ele>
        <time>2020-08-18T13:07:55Z</time>
      </trkpt>
      <trkpt lat="50.44461" lon="5.31147">
        <ele>211</ele>
        <time>2020-08-18T13:07:56Z</time>
      </trkpt>
      <trkpt lat="50.4446" lon="5.31145">
        <ele>211</ele>
        <time>2020-08-18T13:07:57Z</time>
      </trkpt>
      <trkpt lat="50.44459" lon="5.31144">
        <ele>211</ele>
        <time>2020-08-18T13:07:58Z</time>
      </trkpt>
      <trkpt lat="50.44458" lon="5.31142">
        <ele>211</ele>
        <time>2020-08-18T13:07:59Z</time>
      </trkpt>
      <trkpt lat="50.44458" lon="5.3114">
        <ele>211</ele>
        <time>2020-08-18T13:08:00Z</time>
      </trkpt>
      <trkpt lat="50.44457" lon="5.31138">
        <ele>211</ele>
        <time>2020-08-18T13:08:01Z</time>
      </trkpt>
      <trkpt lat="50.44456" lon="5.31137">
        <ele>211</ele>
        <time>2020-08-18T13:08:02Z</time>
      </trkpt>
      <trkpt lat="50.44455" lon="5.31136">
        <ele>211</ele>
        <time>2020-08-18T13:08:03Z</time>
      </trkpt>
      <trkpt lat="50.44455" lon="5.31135">
        <ele>211</ele>
        <time>2020-08-18T13:08:04Z</time>
      </trkpt>
      <trkpt lat="50.44454" lon="5.31133">
        <ele>211</ele>
        <time>2020-08-18T13:08:05Z</time>
      </trkpt>
      <trkpt lat="50.44453" lon="5.31131">
        <ele>210.9</ele>
        <time>2020-08-18T13:08:06Z</time>
      </trkpt>
      <trkpt lat="50.44452" lon="5.31129">
        <ele>210.9</ele>
        <time>2020-08-18T13:08:07Z</time>
      </trkpt>
      <trkpt lat="50.44451" lon="5.31128">
        <ele>210.9</ele>
        <time>2020-08-18T13:08:08Z</time>
      </trkpt>
      <trkpt lat="50.44451" lon="5.31127">
        <ele>210.9</ele>
        <time>2020-08-18T13:08:09Z</time>
      </trkpt>
      <trkpt lat="50.4445" lon="5.31126">
        <ele>210.9</ele>
        <time>2020-08-18T13:08:10Z</time>
      </trkpt>
      <trkpt lat="50.4445" lon="5.31125">
        <ele>210.9</ele>
        <time>2020-08-18T13:08:11Z</time>
      </trkpt>
      <trkpt lat="50.4445" lon="5.31124">
        <ele>210.9</ele>
        <time>2020-08-18T13:08:12Z</time>
      </trkpt>
      <trkpt lat="50.44449" lon="5.31123">
        <ele>210.9</ele>
        <time>2020-08-18T13:08:13Z</time>
      </trkpt>
      <trkpt lat="50.44449" lon="5.31121">
        <ele>210.8</ele>
        <time>2020-08-18T13:08:14Z</time>
      </trkpt>
      <trkpt lat="50.44448" lon="5.3112">
        <ele>210.8</ele>
        <time>2020-08-18T13:08:15Z</time>
      </trkpt>
      <trkpt lat="50.44448" lon="5.31119">
        <ele>210.8</ele>
        <time>2020-08-18T13:08:16Z</time>
      </trkpt>
      <trkpt lat="50.44447" lon="5.31117">
        <ele>210.8</ele>
        <time>2020-08-18T13:08:17Z</time>
      </trkpt>
      <trkpt lat="50.44447" lon="5.31116">
        <ele>210.8</ele>
        <time>2020-08-18T13:08:18Z</time>
      </trkpt>
      <trkpt lat="50.44447" lon="5.31115">
        <ele>210.7</ele>
        <time>2020-08-18T13:08:19Z</time>
      </trkpt>
      <trkpt lat="50.44447" lon="5.31114">
        <ele>210.7</ele>
        <time>2020-08-18T13:08:20Z</time>
      </trkpt>
      <trkpt lat="50.44446" lon="5.31113">
        <ele>210.7</ele>
        <time>2020-08-18T13:08:21Z</time>
      </trkpt>
      <trkpt lat="50.44445" lon="5.31112">
        <ele>210.8</ele>
        <time>2020-08-18T13:08:22Z</time>
      </trkpt>
      <trkpt lat="50.44444" lon="5.3111">
        <ele>210.8</ele>
        <time>2020-08-18T13:08:23Z</time>
      </trkpt>
      <trkpt lat="50.44442" lon="5.31109">
        <ele>210.8</ele>
        <time>2020-08-18T13:08:24Z</time>
      </trkpt>
      <trkpt lat="50.44441" lon="5.31108">
        <ele>210.9</ele>
        <time>2020-08-18T13:08:25Z</time>
      </trkpt>
      <trkpt lat="50.4444" lon="5.31107">
        <ele>210.9</ele>
        <time>2020-08-18T13:08:26Z</time>
      </trkpt>
      <trkpt lat="50.44439" lon="5.31107">
        <ele>210.9</ele>
        <time>2020-08-18T13:08:27Z</time>
      </trkpt>
      <trkpt lat="50.44439" lon="5.31108">
        <ele>210.9</ele>
        <time>2020-08-18T13:08:28Z</time>
      </trkpt>
      <trkpt lat="50.44439" lon="5.31108">
        <ele>210.9</ele>
        <time>2020-08-18T13:08:29Z</time>
      </trkpt>
      <trkpt lat="50.44442" lon="5.31111">
        <ele>210.9</ele>
        <time>2020-08-18T13:08:38Z</time>
      </trkpt>
      <trkpt lat="50.44442" lon="5.3111">
        <ele>210.9</ele>
        <time>2020-08-18T13:08:39Z</time>
      </trkpt>
      <trkpt lat="50.44442" lon="5.31108">
        <ele>210.8</ele>
        <time>2020-08-18T13:08:41Z</time>
      </trkpt>
      <trkpt lat="50.44442" lon="5.31108">
        <ele>210.8</ele>
        <time>2020-08-18T13:08:42Z</time>
      </trkpt>
      <trkpt lat="50.44442" lon="5.31108">
        <ele>210.8</ele>
        <time>2020-08-18T13:08:43Z</time>
      </trkpt>
      <trkpt lat="50.44442" lon="5.31108">
        <ele>210.8</ele>
        <time>2020-08-18T13:08:44Z</time>
      </trkpt>
      <trkpt lat="50.44443" lon="5.31108">
        <ele>210.8</ele>
        <time>2020-08-18T13:08:45Z</time>
      </trkpt>
      <trkpt lat="50.44443" lon="5.31108">
        <ele>210.8</ele>
        <time>2020-08-18T13:08:46Z</time>
      </trkpt>
      <trkpt lat="50.44443" lon="5.31108">
        <ele>210.8</ele>
        <time>2020-08-18T13:08:47Z</time>
      </trkpt>
      <trkpt lat="50.44444" lon="5.31108">
        <ele>210.7</ele>
        <time>2020-08-18T13:08:48Z</time>
      </trkpt>
      <trkpt lat="50.44444" lon="5.31107">
        <ele>210.7</ele>
        <time>2020-08-18T13:08:49Z</time>
      </trkpt>
      <trkpt lat="50.44445" lon="5.31106">
        <ele>210.7</ele>
        <time>2020-08-18T13:08:50Z</time>
      </trkpt>
      <trkpt lat="50.44446" lon="5.31105">
        <ele>210.6</ele>
        <time>2020-08-18T13:08:51Z</time>
      </trkpt>
      <trkpt lat="50.44451" lon="5.31101">
        <ele>210.3</ele>
        <time>2020-08-18T13:08:55Z</time>
      </trkpt>
      <trkpt lat="50.44451" lon="5.31101">
        <ele>210.3</ele>
        <time>2020-08-18T13:08:56Z</time>
      </trkpt>
      <trkpt lat="50.44454" lon="5.311">
        <ele>210.1</ele>
        <time>2020-08-18T13:09:00Z</time>
      </trkpt>
      <trkpt lat="50.44453" lon="5.31094">
        <ele>210</ele>
        <time>2020-08-18T13:09:08Z</time>
      </trkpt>
      <trkpt lat="50.44453" lon="5.31093">
        <ele>210</ele>
        <time>2020-08-18T13:09:10Z</time>
      </trkpt>
      <trkpt lat="50.44453" lon="5.31093">
        <ele>210</ele>
        <time>2020-08-18T13:09:11Z</time>
      </trkpt>
      <trkpt lat="50.44453" lon="5.31093">
        <ele>210</ele>
        <time>2020-08-18T13:09:12Z</time>
      </trkpt>
      <trkpt lat="50.44453" lon="5.31093">
        <ele>210</ele>
        <time>2020-08-18T13:09:16Z</time>
      </trkpt>
      <trkpt lat="50.44452" lon="5.31093">
        <ele>210.1</ele>
        <time>2020-08-18T13:09:33Z</time>
      </trkpt>
      <trkpt lat="50.44452" lon="5.31093">
        <ele>210.1</ele>
        <time>2020-08-18T13:09:34Z</time>
      </trkpt>
      <trkpt lat="50.44451" lon="5.31093">
        <ele>210.2</ele>
        <time>2020-08-18T13:09:35Z</time>
      </trkpt>
      <trkpt lat="50.44451" lon="5.31093">
        <ele>210.2</ele>
        <time>2020-08-18T13:09:36Z</time>
      </trkpt>
      <trkpt lat="50.44451" lon="5.31093">
        <ele>210.2</ele>
        <time>2020-08-18T13:09:37Z</time>
      </trkpt>
      <trkpt lat="50.4445" lon="5.31093">
        <ele>210.2</ele>
        <time>2020-08-18T13:09:38Z</time>
      </trkpt>
      <trkpt lat="50.4445" lon="5.31094">
        <ele>210.2</ele>
        <time>2020-08-18T13:09:39Z</time>
      </trkpt>
      <trkpt lat="50.44449" lon="5.31094">
        <ele>210.3</ele>
        <time>2020-08-18T13:09:40Z</time>
      </trkpt>
      <trkpt lat="50.44448" lon="5.31094">
        <ele>210.3</ele>
        <time>2020-08-18T13:09:41Z</time>
      </trkpt>
      <trkpt lat="50.44447" lon="5.31094">
        <ele>210.4</ele>
        <time>2020-08-18T13:09:42Z</time>
      </trkpt>
      <trkpt lat="50.44447" lon="5.31094">
        <ele>210.4</ele>
        <time>2020-08-18T13:09:43Z</time>
      </trkpt>
      <trkpt lat="50.44447" lon="5.31094">
        <ele>210.4</ele>
        <time>2020-08-18T13:09:44Z</time>
      </trkpt>
      <trkpt lat="50.44444" lon="5.31097">
        <ele>210.6</ele>
        <time>2020-08-18T13:09:47Z</time>
      </trkpt>
      <trkpt lat="50.44444" lon="5.31097">
        <ele>210.6</ele>
        <time>2020-08-18T13:09:48Z</time>
      </trkpt>
      <trkpt lat="50.44443" lon="5.31097">
        <ele>210.6</ele>
        <time>2020-08-18T13:09:49Z</time>
      </trkpt>
      <trkpt lat="50.44443" lon="5.31097">
        <ele>210.6</ele>
        <time>2020-08-18T13:09:50Z</time>
      </trkpt>
      <trkpt lat="50.44443" lon="5.31097">
        <ele>210.6</ele>
        <time>2020-08-18T13:09:51Z</time>
      </trkpt>
      <trkpt lat="50.44443" lon="5.31097">
        <ele>210.6</ele>
        <time>2020-08-18T13:09:53Z</time>
      </trkpt>
      <trkpt lat="50.44443" lon="5.31097">
        <ele>210.6</ele>
        <time>2020-08-18T13:09:54Z</time>
      </trkpt>
      <trkpt lat="50.44443" lon="5.31101">
        <ele>210.7</ele>
        <time>2020-08-18T13:10:15Z</time>
      </trkpt>
      <trkpt lat="50.44443" lon="5.31101">
        <ele>210.7</ele>
        <time>2020-08-18T13:10:16Z</time>
      </trkpt>
      <trkpt lat="50.44443" lon="5.31101">
        <ele>210.7</ele>
        <time>2020-08-18T13:10:17Z</time>
      </trkpt>
      <trkpt lat="50.44442" lon="5.31101">
        <ele>210.7</ele>
        <time>2020-08-18T13:10:18Z</time>
      </trkpt>
      <trkpt lat="50.44442" lon="5.31101">
        <ele>210.7</ele>
        <time>2020-08-18T13:10:19Z</time>
      </trkpt>
      <trkpt lat="50.44442" lon="5.31101">
        <ele>210.7</ele>
        <time>2020-08-18T13:10:20Z</time>
      </trkpt>
      <trkpt lat="50.44441" lon="5.31101">
        <ele>210.8</ele>
        <time>2020-08-18T13:10:22Z</time>
      </trkpt>
      <trkpt lat="50.44437" lon="5.31091">
        <ele>210.9</ele>
        <time>2020-08-18T13:10:32Z</time>
      </trkpt>
      <trkpt lat="50.44437" lon="5.31089">
        <ele>210.9</ele>
        <time>2020-08-18T13:10:40Z</time>
      </trkpt>
      <trkpt lat="50.44437" lon="5.31089">
        <ele>210.9</ele>
        <time>2020-08-18T13:10:41Z</time>
      </trkpt>
      <trkpt lat="50.44437" lon="5.3109">
        <ele>210.9</ele>
        <time>2020-08-18T13:10:43Z</time>
      </trkpt>
      <trkpt lat="50.44437" lon="5.3109">
        <ele>210.9</ele>
        <time>2020-08-18T13:10:44Z</time>
      </trkpt>
      <trkpt lat="50.44437" lon="5.31091">
        <ele>210.9</ele>
        <time>2020-08-18T13:10:47Z</time>
      </trkpt>
      <trkpt lat="50.44439" lon="5.31095">
        <ele>210.8</ele>
        <time>2020-08-18T13:10:54Z</time>
      </trkpt>
      <trkpt lat="50.44439" lon="5.31095">
        <ele>210.8</ele>
        <time>2020-08-18T13:10:55Z</time>
      </trkpt>
      <trkpt lat="50.44439" lon="5.31095">
        <ele>210.8</ele>
        <time>2020-08-18T13:10:56Z</time>
      </trkpt>
      <trkpt lat="50.4444" lon="5.31095">
        <ele>210.8</ele>
        <time>2020-08-18T13:10:57Z</time>
      </trkpt>
      <trkpt lat="50.4444" lon="5.31096">
        <ele>210.8</ele>
        <time>2020-08-18T13:10:58Z</time>
      </trkpt>
      <trkpt lat="50.44441" lon="5.31096">
        <ele>210.7</ele>
        <time>2020-08-18T13:10:59Z</time>
      </trkpt>
      <trkpt lat="50.44444" lon="5.31098">
        <ele>210.6</ele>
        <time>2020-08-18T13:11:18Z</time>
      </trkpt>
      <trkpt lat="50.44444" lon="5.31098">
        <ele>210.6</ele>
        <time>2020-08-18T13:11:19Z</time>
      </trkpt>
      <trkpt lat="50.44443" lon="5.31097">
        <ele>210.6</ele>
        <time>2020-08-18T13:11:20Z</time>
      </trkpt>
      <trkpt lat="50.44443" lon="5.31096">
        <ele>210.6</ele>
        <time>2020-08-18T13:11:21Z</time>
      </trkpt>
      <trkpt lat="50.44442" lon="5.31096">
        <ele>210.7</ele>
        <time>2020-08-18T13:11:22Z</time>
      </trkpt>
      <trkpt lat="50.44442" lon="5.31095">
        <ele>210.7</ele>
        <time>2020-08-18T13:11:23Z</time>
      </trkpt>
      <trkpt lat="50.44442" lon="5.31094">
        <ele>210.7</ele>
        <time>2020-08-18T13:11:24Z</time>
      </trkpt>
      <trkpt lat="50.44442" lon="5.31093">
        <ele>210.7</ele>
        <time>2020-08-18T13:11:25Z</time>
      </trkpt>
      <trkpt lat="50.44442" lon="5.31093">
        <ele>210.7</ele>
        <time>2020-08-18T13:11:26Z</time>
      </trkpt>
      <trkpt lat="50.44441" lon="5.31093">
        <ele>210.7</ele>
        <time>2020-08-18T13:11:27Z</time>
      </trkpt>
      <trkpt lat="50.44441" lon="5.31093">
        <ele>210.7</ele>
        <time>2020-08-18T13:11:28Z</time>
      </trkpt>
      <trkpt lat="50.44441" lon="5.31093">
        <ele>210.7</ele>
        <time>2020-08-18T13:11:29Z</time>
      </trkpt>
      <trkpt lat="50.4444" lon="5.31094">
        <ele>210.8</ele>
        <time>2020-08-18T13:11:30Z</time>
      </trkpt>
      <trkpt lat="50.4444" lon="5.31094">
        <ele>210.8</ele>
        <time>2020-08-18T13:11:31Z</time>
      </trkpt>
      <trkpt lat="50.44439" lon="5.31094">
        <ele>210.8</ele>
        <time>2020-08-18T13:11:32Z</time>
      </trkpt>
      <trkpt lat="50.44439" lon="5.31094">
        <ele>210.8</ele>
        <time>2020-08-18T13:11:33Z</time>
      </trkpt>
      <trkpt lat="50.44439" lon="5.31093">
        <ele>210.8</ele>
        <time>2020-08-18T13:11:34Z</time>
      </trkpt>
      <trkpt lat="50.44439" lon="5.31093">
        <ele>210.8</ele>
        <time>2020-08-18T13:11:35Z</time>
      </trkpt>
      <trkpt lat="50.44438" lon="5.31092">
        <ele>210.9</ele>
        <time>2020-08-18T13:11:36Z</time>
      </trkpt>
      <trkpt lat="50.44437" lon="5.31091">
        <ele>210.9</ele>
        <time>2020-08-18T13:11:37Z</time>
      </trkpt>
      <trkpt lat="50.44436" lon="5.3109">
        <ele>211</ele>
        <time>2020-08-18T13:11:38Z</time>
      </trkpt>
      <trkpt lat="50.44434" lon="5.31089">
        <ele>211.1</ele>
        <time>2020-08-18T13:11:39Z</time>
      </trkpt>
      <trkpt lat="50.44433" lon="5.31088">
        <ele>211.1</ele>
        <time>2020-08-18T13:11:40Z</time>
      </trkpt>
      <trkpt lat="50.44431" lon="5.31087">
        <ele>211.2</ele>
        <time>2020-08-18T13:11:41Z</time>
      </trkpt>
      <trkpt lat="50.4443" lon="5.31085">
        <ele>211.3</ele>
        <time>2020-08-18T13:11:42Z</time>
      </trkpt>
      <trkpt lat="50.44428" lon="5.31084">
        <ele>211.4</ele>
        <time>2020-08-18T13:11:43Z</time>
      </trkpt>
      <trkpt lat="50.44427" lon="5.31082">
        <ele>210.4</ele>
        <time>2020-08-18T13:11:44Z</time>
      </trkpt>
      <trkpt lat="50.44426" lon="5.31081">
        <ele>210.5</ele>
        <time>2020-08-18T13:11:45Z</time>
      </trkpt>
      <trkpt lat="50.44425" lon="5.3108">
        <ele>210.6</ele>
        <time>2020-08-18T13:11:46Z</time>
      </trkpt>
      <trkpt lat="50.44424" lon="5.31078">
        <ele>210.6</ele>
        <time>2020-08-18T13:11:47Z</time>
      </trkpt>
      <trkpt lat="50.44424" lon="5.31077">
        <ele>210.5</ele>
        <time>2020-08-18T13:11:48Z</time>
      </trkpt>
      <trkpt lat="50.44424" lon="5.31077">
        <ele>210.5</ele>
        <time>2020-08-18T13:11:49Z</time>
      </trkpt>
      <trkpt lat="50.44424" lon="5.31076">
        <ele>210.5</ele>
        <time>2020-08-18T13:11:50Z</time>
      </trkpt>
      <trkpt lat="50.44424" lon="5.31076">
        <ele>210.5</ele>
        <time>2020-08-18T13:11:51Z</time>
      </trkpt>
      <trkpt lat="50.44424" lon="5.31075">
        <ele>210.4</ele>
        <time>2020-08-18T13:11:52Z</time>
      </trkpt>
      <trkpt lat="50.44423" lon="5.31074">
        <ele>210.4</ele>
        <time>2020-08-18T13:11:53Z</time>
      </trkpt>
      <trkpt lat="50.44423" lon="5.31073">
        <ele>210.3</ele>
        <time>2020-08-18T13:11:54Z</time>
      </trkpt>
      <trkpt lat="50.44422" lon="5.31072">
        <ele>210.2</ele>
        <time>2020-08-18T13:11:55Z</time>
      </trkpt>
      <trkpt lat="50.44422" lon="5.31071">
        <ele>210.1</ele>
        <time>2020-08-18T13:11:56Z</time>
      </trkpt>
      <trkpt lat="50.44421" lon="5.3107">
        <ele>210.1</ele>
        <time>2020-08-18T13:11:57Z</time>
      </trkpt>
      <trkpt lat="50.44421" lon="5.31069">
        <ele>210</ele>
        <time>2020-08-18T13:11:58Z</time>
      </trkpt>
      <trkpt lat="50.4442" lon="5.31068">
        <ele>210</ele>
        <time>2020-08-18T13:11:59Z</time>
      </trkpt>
      <trkpt lat="50.4442" lon="5.31067">
        <ele>209.9</ele>
        <time>2020-08-18T13:12:00Z</time>
      </trkpt>
      <trkpt lat="50.4442" lon="5.31066">
        <ele>209.8</ele>
        <time>2020-08-18T13:12:01Z</time>
      </trkpt>
      <trkpt lat="50.4442" lon="5.31064">
        <ele>209.6</ele>
        <time>2020-08-18T13:12:02Z</time>
      </trkpt>
      <trkpt lat="50.4442" lon="5.31063">
        <ele>209.6</ele>
        <time>2020-08-18T13:12:03Z</time>
      </trkpt>
      <trkpt lat="50.4442" lon="5.31061">
        <ele>209.4</ele>
        <time>2020-08-18T13:12:03Z</time>
      </trkpt>
      <trkpt lat="50.4442" lon="5.3106">
        <ele>209.4</ele>
        <time>2020-08-18T13:12:04Z</time>
      </trkpt>
      <trkpt lat="50.4442" lon="5.31058">
        <ele>209.3</ele>
        <time>2020-08-18T13:12:05Z</time>
      </trkpt>
      <trkpt lat="50.4442" lon="5.31056">
        <ele>209.2</ele>
        <time>2020-08-18T13:12:06Z</time>
      </trkpt>
      <trkpt lat="50.4442" lon="5.31054">
        <ele>209.1</ele>
        <time>2020-08-18T13:12:07Z</time>
      </trkpt>
      <trkpt lat="50.4442" lon="5.31052">
        <ele>209</ele>
        <time>2020-08-18T13:12:08Z</time>
      </trkpt>
      <trkpt lat="50.4442" lon="5.31051">
        <ele>208.9</ele>
        <time>2020-08-18T13:12:09Z</time>
      </trkpt>
      <trkpt lat="50.44419" lon="5.3105">
        <ele>208.9</ele>
        <time>2020-08-18T13:12:10Z</time>
      </trkpt>
      <trkpt lat="50.44419" lon="5.31049">
        <ele>208.8</ele>
        <time>2020-08-18T13:12:11Z</time>
      </trkpt>
      <trkpt lat="50.44419" lon="5.31047">
        <ele>208.8</ele>
        <time>2020-08-18T13:12:12Z</time>
      </trkpt>
      <trkpt lat="50.44419" lon="5.31046">
        <ele>208.7</ele>
        <time>2020-08-18T13:12:13Z</time>
      </trkpt>
      <trkpt lat="50.44419" lon="5.31044">
        <ele>208.7</ele>
        <time>2020-08-18T13:12:14Z</time>
      </trkpt>
      <trkpt lat="50.44419" lon="5.31043">
        <ele>208.6</ele>
        <time>2020-08-18T13:12:15Z</time>
      </trkpt>
      <trkpt lat="50.44419" lon="5.31042">
        <ele>208.6</ele>
        <time>2020-08-18T13:12:16Z</time>
      </trkpt>
      <trkpt lat="50.4442" lon="5.31041">
        <ele>208.6</ele>
        <time>2020-08-18T13:12:17Z</time>
      </trkpt>
      <trkpt lat="50.44421" lon="5.3104">
        <ele>208.5</ele>
        <time>2020-08-18T13:12:18Z</time>
      </trkpt>
      <trkpt lat="50.44423" lon="5.3104">
        <ele>208.5</ele>
        <time>2020-08-18T13:12:19Z</time>
      </trkpt>
      <trkpt lat="50.44424" lon="5.31039">
        <ele>208.5</ele>
        <time>2020-08-18T13:12:20Z</time>
      </trkpt>
      <trkpt lat="50.44425" lon="5.31039">
        <ele>208.4</ele>
        <time>2020-08-18T13:12:21Z</time>
      </trkpt>
      <trkpt lat="50.44427" lon="5.31039">
        <ele>208.4</ele>
        <time>2020-08-18T13:12:22Z</time>
      </trkpt>
      <trkpt lat="50.44427" lon="5.31039">
        <ele>208.4</ele>
        <time>2020-08-18T13:12:23Z</time>
      </trkpt>
      <trkpt lat="50.44428" lon="5.3104">
        <ele>208.4</ele>
        <time>2020-08-18T13:12:24Z</time>
      </trkpt>
      <trkpt lat="50.44429" lon="5.3104">
        <ele>208.4</ele>
        <time>2020-08-18T13:12:25Z</time>
      </trkpt>
      <trkpt lat="50.4443" lon="5.31041">
        <ele>208.4</ele>
        <time>2020-08-18T13:12:26Z</time>
      </trkpt>
      <trkpt lat="50.44431" lon="5.31041">
        <ele>208.4</ele>
        <time>2020-08-18T13:12:27Z</time>
      </trkpt>
      <trkpt lat="50.44433" lon="5.31042">
        <ele>208.4</ele>
        <time>2020-08-18T13:12:28Z</time>
      </trkpt>
      <trkpt lat="50.44434" lon="5.31043">
        <ele>208.4</ele>
        <time>2020-08-18T13:12:29Z</time>
      </trkpt>
      <trkpt lat="50.44435" lon="5.31045">
        <ele>208.4</ele>
        <time>2020-08-18T13:12:30Z</time>
      </trkpt>
      <trkpt lat="50.44437" lon="5.31046">
        <ele>208.4</ele>
        <time>2020-08-18T13:12:31Z</time>
      </trkpt>
      <trkpt lat="50.44438" lon="5.31047">
        <ele>208.4</ele>
        <time>2020-08-18T13:12:32Z</time>
      </trkpt>
      <trkpt lat="50.4444" lon="5.31049">
        <ele>208.4</ele>
        <time>2020-08-18T13:12:33Z</time>
      </trkpt>
      <trkpt lat="50.44441" lon="5.3105">
        <ele>208.4</ele>
        <time>2020-08-18T13:12:34Z</time>
      </trkpt>
      <trkpt lat="50.44442" lon="5.31051">
        <ele>208.3</ele>
        <time>2020-08-18T13:12:35Z</time>
      </trkpt>
      <trkpt lat="50.44443" lon="5.31052">
        <ele>208.3</ele>
        <time>2020-08-18T13:12:36Z</time>
      </trkpt>
      <trkpt lat="50.44444" lon="5.31053">
        <ele>208.3</ele>
        <time>2020-08-18T13:12:37Z</time>
      </trkpt>
      <trkpt lat="50.44444" lon="5.31055">
        <ele>208.4</ele>
        <time>2020-08-18T13:12:38Z</time>
      </trkpt>
      <trkpt lat="50.44445" lon="5.31056">
        <ele>208.3</ele>
        <time>2020-08-18T13:12:39Z</time>
      </trkpt>
      <trkpt lat="50.44445" lon="5.31057">
        <ele>208.4</ele>
        <time>2020-08-18T13:12:40Z</time>
      </trkpt>
      <trkpt lat="50.44446" lon="5.31058">
        <ele>208.3</ele>
        <time>2020-08-18T13:12:41Z</time>
      </trkpt>
      <trkpt lat="50.44447" lon="5.31059">
        <ele>208.3</ele>
        <time>2020-08-18T13:12:42Z</time>
      </trkpt>
      <trkpt lat="50.44448" lon="5.3106">
        <ele>208.3</ele>
        <time>2020-08-18T13:12:43Z</time>
      </trkpt>
      <trkpt lat="50.44449" lon="5.31061">
        <ele>208.2</ele>
        <time>2020-08-18T13:12:44Z</time>
      </trkpt>
      <trkpt lat="50.44449" lon="5.31062">
        <ele>208.3</ele>
        <time>2020-08-18T13:12:45Z</time>
      </trkpt>
      <trkpt lat="50.4445" lon="5.31063">
        <ele>208.2</ele>
        <time>2020-08-18T13:12:46Z</time>
      </trkpt>
      <trkpt lat="50.44451" lon="5.31064">
        <ele>208.2</ele>
        <time>2020-08-18T13:12:47Z</time>
      </trkpt>
      <trkpt lat="50.44451" lon="5.31066">
        <ele>208.2</ele>
        <time>2020-08-18T13:12:48Z</time>
      </trkpt>
      <trkpt lat="50.44452" lon="5.31067">
        <ele>208.2</ele>
        <time>2020-08-18T13:12:49Z</time>
      </trkpt>
      <trkpt lat="50.44453" lon="5.31069">
        <ele>208.1</ele>
        <time>2020-08-18T13:12:50Z</time>
      </trkpt>
      <trkpt lat="50.44454" lon="5.31071">
        <ele>208.1</ele>
        <time>2020-08-18T13:12:51Z</time>
      </trkpt>
      <trkpt lat="50.44455" lon="5.31072">
        <ele>208</ele>
        <time>2020-08-18T13:12:52Z</time>
      </trkpt>
      <trkpt lat="50.44456" lon="5.31073">
        <ele>208</ele>
        <time>2020-08-18T13:12:53Z</time>
      </trkpt>
      <trkpt lat="50.44457" lon="5.31074">
        <ele>207.9</ele>
        <time>2020-08-18T13:12:54Z</time>
      </trkpt>
      <trkpt lat="50.44458" lon="5.31075">
        <ele>207.9</ele>
        <time>2020-08-18T13:12:55Z</time>
      </trkpt>
      <trkpt lat="50.44458" lon="5.31076">
        <ele>207.9</ele>
        <time>2020-08-18T13:12:56Z</time>
      </trkpt>
      <trkpt lat="50.44458" lon="5.31077">
        <ele>207.9</ele>
        <time>2020-08-18T13:12:57Z</time>
      </trkpt>
      <trkpt lat="50.44458" lon="5.31077">
        <ele>207.9</ele>
        <time>2020-08-18T13:12:58Z</time>
      </trkpt>
      <trkpt lat="50.44459" lon="5.31078">
        <ele>207.8</ele>
        <time>2020-08-18T13:12:59Z</time>
      </trkpt>
      <trkpt lat="50.44459" lon="5.31079">
        <ele>207.8</ele>
        <time>2020-08-18T13:13:00Z</time>
      </trkpt>
      <trkpt lat="50.44459" lon="5.3108">
        <ele>207.8</ele>
        <time>2020-08-18T13:13:01Z</time>
      </trkpt>
      <trkpt lat="50.4446" lon="5.31081">
        <ele>207.7</ele>
        <time>2020-08-18T13:13:02Z</time>
      </trkpt>
      <trkpt lat="50.4446" lon="5.31082">
        <ele>207.7</ele>
        <time>2020-08-18T13:13:03Z</time>
      </trkpt>
      <trkpt lat="50.44461" lon="5.31083">
        <ele>207.7</ele>
        <time>2020-08-18T13:13:04Z</time>
      </trkpt>
      <trkpt lat="50.44461" lon="5.31083">
        <ele>207.7</ele>
        <time>2020-08-18T13:13:05Z</time>
      </trkpt>
      <trkpt lat="50.44461" lon="5.31084">
        <ele>209.4</ele>
        <time>2020-08-18T13:13:06Z</time>
      </trkpt>
      <trkpt lat="50.44463" lon="5.31085">
        <ele>209.2</ele>
        <time>2020-08-18T13:13:07Z</time>
      </trkpt>
      <trkpt lat="50.44463" lon="5.31086">
        <ele>209.2</ele>
        <time>2020-08-18T13:13:08Z</time>
      </trkpt>
      <trkpt lat="50.44464" lon="5.31087">
        <ele>209.2</ele>
        <time>2020-08-18T13:13:09Z</time>
      </trkpt>
      <trkpt lat="50.44465" lon="5.31089">
        <ele>209.1</ele>
        <time>2020-08-18T13:13:10Z</time>
      </trkpt>
      <trkpt lat="50.44465" lon="5.31092">
        <ele>209.2</ele>
        <time>2020-08-18T13:13:11Z</time>
      </trkpt>
      <trkpt lat="50.44466" lon="5.31095">
        <ele>209.2</ele>
        <time>2020-08-18T13:13:12Z</time>
      </trkpt>
      <trkpt lat="50.44466" lon="5.31097">
        <ele>209.2</ele>
        <time>2020-08-18T13:13:13Z</time>
      </trkpt>
      <trkpt lat="50.44467" lon="5.31099">
        <ele>209.2</ele>
        <time>2020-08-18T13:13:14Z</time>
      </trkpt>
      <trkpt lat="50.44467" lon="5.31101">
        <ele>209.3</ele>
        <time>2020-08-18T13:13:15Z</time>
      </trkpt>
      <trkpt lat="50.44468" lon="5.31103">
        <ele>209.3</ele>
        <time>2020-08-18T13:13:16Z</time>
      </trkpt>
      <trkpt lat="50.44469" lon="5.31104">
        <ele>209.2</ele>
        <time>2020-08-18T13:13:17Z</time>
      </trkpt>
      <trkpt lat="50.4447" lon="5.31106">
        <ele>209.3</ele>
        <time>2020-08-18T13:13:18Z</time>
      </trkpt>
      <trkpt lat="50.4447" lon="5.31108">
        <ele>209.3</ele>
        <time>2020-08-18T13:13:19Z</time>
      </trkpt>
      <trkpt lat="50.44471" lon="5.31109">
        <ele>209.3</ele>
        <time>2020-08-18T13:13:20Z</time>
      </trkpt>
      <trkpt lat="50.44472" lon="5.3111">
        <ele>209.3</ele>
        <time>2020-08-18T13:13:21Z</time>
      </trkpt>
      <trkpt lat="50.44474" lon="5.31113">
        <ele>209.3</ele>
        <time>2020-08-18T13:13:23Z</time>
      </trkpt>
      <trkpt lat="50.44474" lon="5.31113">
        <ele>209.3</ele>
        <time>2020-08-18T13:13:24Z</time>
      </trkpt>
      <trkpt lat="50.44474" lon="5.31114">
        <ele>209.3</ele>
        <time>2020-08-18T13:13:25Z</time>
      </trkpt>
      <trkpt lat="50.44474" lon="5.31114">
        <ele>209.3</ele>
        <time>2020-08-18T13:13:26Z</time>
      </trkpt>
      <trkpt lat="50.44475" lon="5.31115">
        <ele>209.3</ele>
        <time>2020-08-18T13:13:27Z</time>
      </trkpt>
      <trkpt lat="50.44475" lon="5.31115">
        <ele>209.3</ele>
        <time>2020-08-18T13:13:28Z</time>
      </trkpt>
      <trkpt lat="50.44476" lon="5.31116">
        <ele>209.3</ele>
        <time>2020-08-18T13:13:30Z</time>
      </trkpt>
      <trkpt lat="50.44476" lon="5.31117">
        <ele>209.4</ele>
        <time>2020-08-18T13:13:31Z</time>
      </trkpt>
      <trkpt lat="50.44476" lon="5.31117">
        <ele>209.4</ele>
        <time>2020-08-18T13:13:32Z</time>
      </trkpt>
      <trkpt lat="50.44476" lon="5.31117">
        <ele>209.4</ele>
        <time>2020-08-18T13:13:33Z</time>
      </trkpt>
      <trkpt lat="50.44476" lon="5.31118">
        <ele>209.4</ele>
        <time>2020-08-18T13:13:34Z</time>
      </trkpt>
      <trkpt lat="50.44477" lon="5.31118">
        <ele>209.4</ele>
        <time>2020-08-18T13:13:35Z</time>
      </trkpt>
      <trkpt lat="50.44478" lon="5.31119">
        <ele>209.4</ele>
        <time>2020-08-18T13:13:36Z</time>
      </trkpt>
      <trkpt lat="50.44479" lon="5.31118">
        <ele>209.3</ele>
        <time>2020-08-18T13:13:37Z</time>
      </trkpt>
      <trkpt lat="50.4448" lon="5.31118">
        <ele>209.2</ele>
        <time>2020-08-18T13:13:38Z</time>
      </trkpt>
      <trkpt lat="50.44482" lon="5.31117">
        <ele>209.1</ele>
        <time>2020-08-18T13:13:39Z</time>
      </trkpt>
      <trkpt lat="50.44482" lon="5.31117">
        <ele>209.1</ele>
        <time>2020-08-18T13:13:40Z</time>
      </trkpt>
      <trkpt lat="50.44483" lon="5.31118">
        <ele>209.1</ele>
        <time>2020-08-18T13:13:41Z</time>
      </trkpt>
      <trkpt lat="50.44484" lon="5.31118">
        <ele>209.1</ele>
        <time>2020-08-18T13:13:42Z</time>
      </trkpt>
      <trkpt lat="50.44484" lon="5.31119">
        <ele>209.1</ele>
        <time>2020-08-18T13:13:43Z</time>
      </trkpt>
      <trkpt lat="50.44484" lon="5.31119">
        <ele>209.1</ele>
        <time>2020-08-18T13:13:44Z</time>
      </trkpt>
      <trkpt lat="50.44484" lon="5.3112">
        <ele>209.2</ele>
        <time>2020-08-18T13:13:45Z</time>
      </trkpt>
      <trkpt lat="50.44485" lon="5.31121">
        <ele>209.2</ele>
        <time>2020-08-18T13:13:46Z</time>
      </trkpt>
      <trkpt lat="50.44485" lon="5.31122">
        <ele>209.2</ele>
        <time>2020-08-18T13:13:47Z</time>
      </trkpt>
      <trkpt lat="50.44486" lon="5.31123">
        <ele>209.2</ele>
        <time>2020-08-18T13:13:48Z</time>
      </trkpt>
      <trkpt lat="50.44486" lon="5.31124">
        <ele>209.3</ele>
        <time>2020-08-18T13:13:49Z</time>
      </trkpt>
      <trkpt lat="50.44486" lon="5.31125">
        <ele>209.3</ele>
        <time>2020-08-18T13:13:50Z</time>
      </trkpt>
      <trkpt lat="50.44486" lon="5.31125">
        <ele>209.3</ele>
        <time>2020-08-18T13:13:51Z</time>
      </trkpt>
      <trkpt lat="50.44487" lon="5.31126">
        <ele>209.3</ele>
        <time>2020-08-18T13:13:52Z</time>
      </trkpt>
      <trkpt lat="50.44487" lon="5.31126">
        <ele>209.3</ele>
        <time>2020-08-18T13:13:53Z</time>
      </trkpt>
      <trkpt lat="50.44487" lon="5.31127">
        <ele>209.4</ele>
        <time>2020-08-18T13:13:54Z</time>
      </trkpt>
      <trkpt lat="50.44488" lon="5.31128">
        <ele>209.4</ele>
        <time>2020-08-18T13:13:55Z</time>
      </trkpt>
      <trkpt lat="50.44489" lon="5.31129">
        <ele>209.4</ele>
        <time>2020-08-18T13:13:56Z</time>
      </trkpt>
      <trkpt lat="50.44489" lon="5.3113">
        <ele>209.4</ele>
        <time>2020-08-18T13:13:57Z</time>
      </trkpt>
      <trkpt lat="50.4449" lon="5.31132">
        <ele>209.4</ele>
        <time>2020-08-18T13:13:58Z</time>
      </trkpt>
      <trkpt lat="50.44491" lon="5.31133">
        <ele>209.5</ele>
        <time>2020-08-18T13:13:59Z</time>
      </trkpt>
      <trkpt lat="50.44492" lon="5.31134">
        <ele>209.5</ele>
        <time>2020-08-18T13:14:00Z</time>
      </trkpt>
      <trkpt lat="50.44492" lon="5.31135">
        <ele>209.5</ele>
        <time>2020-08-18T13:14:01Z</time>
      </trkpt>
      <trkpt lat="50.44492" lon="5.31136">
        <ele>209.5</ele>
        <time>2020-08-18T13:14:02Z</time>
      </trkpt>
      <trkpt lat="50.44493" lon="5.31138">
        <ele>209.5</ele>
        <time>2020-08-18T13:14:03Z</time>
      </trkpt>
      <trkpt lat="50.44493" lon="5.31139">
        <ele>209.5</ele>
        <time>2020-08-18T13:14:04Z</time>
      </trkpt>
      <trkpt lat="50.44494" lon="5.3114">
        <ele>209.5</ele>
        <time>2020-08-18T13:14:05Z</time>
      </trkpt>
      <trkpt lat="50.44494" lon="5.31142">
        <ele>209.6</ele>
        <time>2020-08-18T13:14:06Z</time>
      </trkpt>
      <trkpt lat="50.44494" lon="5.31144">
        <ele>209.6</ele>
        <time>2020-08-18T13:14:07Z</time>
      </trkpt>
      <trkpt lat="50.44495" lon="5.31146">
        <ele>209.6</ele>
        <time>2020-08-18T13:14:08Z</time>
      </trkpt>
      <trkpt lat="50.44495" lon="5.31149">
        <ele>209.6</ele>
        <time>2020-08-18T13:14:09Z</time>
      </trkpt>
      <trkpt lat="50.44495" lon="5.31151">
        <ele>209.6</ele>
        <time>2020-08-18T13:14:10Z</time>
      </trkpt>
      <trkpt lat="50.44495" lon="5.31152">
        <ele>209.6</ele>
        <time>2020-08-18T13:14:11Z</time>
      </trkpt>
      <trkpt lat="50.44496" lon="5.31154">
        <ele>209.5</ele>
        <time>2020-08-18T13:14:12Z</time>
      </trkpt>
      <trkpt lat="50.44497" lon="5.31155">
        <ele>209.5</ele>
        <time>2020-08-18T13:14:13Z</time>
      </trkpt>
      <trkpt lat="50.44497" lon="5.31156">
        <ele>209.5</ele>
        <time>2020-08-18T13:14:14Z</time>
      </trkpt>
      <trkpt lat="50.44498" lon="5.31157">
        <ele>209.4</ele>
        <time>2020-08-18T13:14:15Z</time>
      </trkpt>
      <trkpt lat="50.44498" lon="5.31159">
        <ele>209.4</ele>
        <time>2020-08-18T13:14:16Z</time>
      </trkpt>
      <trkpt lat="50.445" lon="5.3116">
        <ele>208.5</ele>
        <time>2020-08-18T13:14:17Z</time>
      </trkpt>
      <trkpt lat="50.445" lon="5.31162">
        <ele>208.7</ele>
        <time>2020-08-18T13:14:18Z</time>
      </trkpt>
      <trkpt lat="50.445" lon="5.31163">
        <ele>208.7</ele>
        <time>2020-08-18T13:14:19Z</time>
      </trkpt>
      <trkpt lat="50.44501" lon="5.31164">
        <ele>208.8</ele>
        <time>2020-08-18T13:14:20Z</time>
      </trkpt>
      <trkpt lat="50.44502" lon="5.31165">
        <ele>208.8</ele>
        <time>2020-08-18T13:14:21Z</time>
      </trkpt>
      <trkpt lat="50.44502" lon="5.31167">
        <ele>209</ele>
        <time>2020-08-18T13:14:22Z</time>
      </trkpt>
      <trkpt lat="50.44503" lon="5.31168">
        <ele>209</ele>
        <time>2020-08-18T13:14:23Z</time>
      </trkpt>
      <trkpt lat="50.44503" lon="5.31169">
        <ele>209</ele>
        <time>2020-08-18T13:14:24Z</time>
      </trkpt>
      <trkpt lat="50.44504" lon="5.3117">
        <ele>209</ele>
        <time>2020-08-18T13:14:25Z</time>
      </trkpt>
      <trkpt lat="50.44505" lon="5.31172">
        <ele>209</ele>
        <time>2020-08-18T13:14:26Z</time>
      </trkpt>
      <trkpt lat="50.44506" lon="5.31173">
        <ele>209</ele>
        <time>2020-08-18T13:14:27Z</time>
      </trkpt>
      <trkpt lat="50.44508" lon="5.31173">
        <ele>209</ele>
        <time>2020-08-18T13:14:28Z</time>
      </trkpt>
      <trkpt lat="50.44509" lon="5.31174">
        <ele>209</ele>
        <time>2020-08-18T13:14:29Z</time>
      </trkpt>
      <trkpt lat="50.4451" lon="5.31174">
        <ele>209</ele>
        <time>2020-08-18T13:14:30Z</time>
      </trkpt>
      <trkpt lat="50.44512" lon="5.31174">
        <ele>209</ele>
        <time>2020-08-18T13:14:31Z</time>
      </trkpt>
      <trkpt lat="50.44513" lon="5.31174">
        <ele>209</ele>
        <time>2020-08-18T13:14:32Z</time>
      </trkpt>
      <trkpt lat="50.44515" lon="5.31174">
        <ele>208.9</ele>
        <time>2020-08-18T13:14:33Z</time>
      </trkpt>
      <trkpt lat="50.44516" lon="5.31175">
        <ele>208.9</ele>
        <time>2020-08-18T13:14:34Z</time>
      </trkpt>
      <trkpt lat="50.44517" lon="5.31176">
        <ele>208.9</ele>
        <time>2020-08-18T13:14:35Z</time>
      </trkpt>
      <trkpt lat="50.44518" lon="5.31177">
        <ele>208.9</ele>
        <time>2020-08-18T13:14:36Z</time>
      </trkpt>
      <trkpt lat="50.44518" lon="5.31178">
        <ele>208.9</ele>
        <time>2020-08-18T13:14:37Z</time>
      </trkpt>
      <trkpt lat="50.44519" lon="5.3118">
        <ele>208.9</ele>
        <time>2020-08-18T13:14:38Z</time>
      </trkpt>
      <trkpt lat="50.4452" lon="5.31182">
        <ele>208.9</ele>
        <time>2020-08-18T13:14:39Z</time>
      </trkpt>
      <trkpt lat="50.44521" lon="5.31184">
        <ele>209</ele>
        <time>2020-08-18T13:14:40Z</time>
      </trkpt>
      <trkpt lat="50.44522" lon="5.31185">
        <ele>208.9</ele>
        <time>2020-08-18T13:14:41Z</time>
      </trkpt>
      <trkpt lat="50.44523" lon="5.31187">
        <ele>209</ele>
        <time>2020-08-18T13:14:42Z</time>
      </trkpt>
      <trkpt lat="50.44524" lon="5.31189">
        <ele>209</ele>
        <time>2020-08-18T13:14:43Z</time>
      </trkpt>
      <trkpt lat="50.44526" lon="5.31191">
        <ele>208.9</ele>
        <time>2020-08-18T13:14:44Z</time>
      </trkpt>
      <trkpt lat="50.44527" lon="5.31193">
        <ele>209</ele>
        <time>2020-08-18T13:14:45Z</time>
      </trkpt>
      <trkpt lat="50.44529" lon="5.31195">
        <ele>208.9</ele>
        <time>2020-08-18T13:14:46Z</time>
      </trkpt>
      <trkpt lat="50.44531" lon="5.31195">
        <ele>208.9</ele>
        <time>2020-08-18T13:14:47Z</time>
      </trkpt>
      <trkpt lat="50.44532" lon="5.31196">
        <ele>208.9</ele>
        <time>2020-08-18T13:14:48Z</time>
      </trkpt>
      <trkpt lat="50.44533" lon="5.31196">
        <ele>208.8</ele>
        <time>2020-08-18T13:14:49Z</time>
      </trkpt>
      <trkpt lat="50.44534" lon="5.31196">
        <ele>208.8</ele>
        <time>2020-08-18T13:14:50Z</time>
      </trkpt>
      <trkpt lat="50.44535" lon="5.31196">
        <ele>208.8</ele>
        <time>2020-08-18T13:14:51Z</time>
      </trkpt>
      <trkpt lat="50.44536" lon="5.31196">
        <ele>208.8</ele>
        <time>2020-08-18T13:14:52Z</time>
      </trkpt>
      <trkpt lat="50.44536" lon="5.31197">
        <ele>208.8</ele>
        <time>2020-08-18T13:14:53Z</time>
      </trkpt>
      <trkpt lat="50.44537" lon="5.31197">
        <ele>208.7</ele>
        <time>2020-08-18T13:14:54Z</time>
      </trkpt>
      <trkpt lat="50.44537" lon="5.31197">
        <ele>208.7</ele>
        <time>2020-08-18T13:14:55Z</time>
      </trkpt>
      <trkpt lat="50.44539" lon="5.31197">
        <ele>208.7</ele>
        <time>2020-08-18T13:14:56Z</time>
      </trkpt>
      <trkpt lat="50.44539" lon="5.31198">
        <ele>208.7</ele>
        <time>2020-08-18T13:14:57Z</time>
      </trkpt>
      <trkpt lat="50.4454" lon="5.31198">
        <ele>208.7</ele>
        <time>2020-08-18T13:14:58Z</time>
      </trkpt>
      <trkpt lat="50.4454" lon="5.31198">
        <ele>208.7</ele>
        <time>2020-08-18T13:14:59Z</time>
      </trkpt>
      <trkpt lat="50.4454" lon="5.31197">
        <ele>208.6</ele>
        <time>2020-08-18T13:15:00Z</time>
      </trkpt>
      <trkpt lat="50.44541" lon="5.31197">
        <ele>208.6</ele>
        <time>2020-08-18T13:15:01Z</time>
      </trkpt>
      <trkpt lat="50.44542" lon="5.31196">
        <ele>208.6</ele>
        <time>2020-08-18T13:15:02Z</time>
      </trkpt>
      <trkpt lat="50.44542" lon="5.31196">
        <ele>208.6</ele>
        <time>2020-08-18T13:15:03Z</time>
      </trkpt>
      <trkpt lat="50.44542" lon="5.31196">
        <ele>208.6</ele>
        <time>2020-08-18T13:15:04Z</time>
      </trkpt>
      <trkpt lat="50.44542" lon="5.31196">
        <ele>208.6</ele>
        <time>2020-08-18T13:15:05Z</time>
      </trkpt>
      <trkpt lat="50.44542" lon="5.31197">
        <ele>208.6</ele>
        <time>2020-08-18T13:15:06Z</time>
      </trkpt>
      <trkpt lat="50.44542" lon="5.31197">
        <ele>208.6</ele>
        <time>2020-08-18T13:15:07Z</time>
      </trkpt>
      <trkpt lat="50.44544" lon="5.31198">
        <ele>208.5</ele>
        <time>2020-08-18T13:15:08Z</time>
      </trkpt>
      <trkpt lat="50.44545" lon="5.31198">
        <ele>208.5</ele>
        <time>2020-08-18T13:15:09Z</time>
      </trkpt>
      <trkpt lat="50.44545" lon="5.31199">
        <ele>208.5</ele>
        <time>2020-08-18T13:15:10Z</time>
      </trkpt>
      <trkpt lat="50.44547" lon="5.31199">
        <ele>208.4</ele>
        <time>2020-08-18T13:15:11Z</time>
      </trkpt>
      <trkpt lat="50.44548" lon="5.312">
        <ele>208.4</ele>
        <time>2020-08-18T13:15:12Z</time>
      </trkpt>
      <trkpt lat="50.44549" lon="5.312">
        <ele>208.4</ele>
        <time>2020-08-18T13:15:13Z</time>
      </trkpt>
      <trkpt lat="50.4455" lon="5.31201">
        <ele>208.4</ele>
        <time>2020-08-18T13:15:14Z</time>
      </trkpt>
      <trkpt lat="50.44551" lon="5.31202">
        <ele>208.3</ele>
        <time>2020-08-18T13:15:15Z</time>
      </trkpt>
      <trkpt lat="50.44552" lon="5.31202">
        <ele>208.3</ele>
        <time>2020-08-18T13:15:16Z</time>
      </trkpt>
      <trkpt lat="50.44553" lon="5.31203">
        <ele>208.3</ele>
        <time>2020-08-18T13:15:17Z</time>
      </trkpt>
      <trkpt lat="50.44554" lon="5.31204">
        <ele>208.2</ele>
        <time>2020-08-18T13:15:18Z</time>
      </trkpt>
      <trkpt lat="50.44555" lon="5.31205">
        <ele>208.2</ele>
        <time>2020-08-18T13:15:19Z</time>
      </trkpt>
      <trkpt lat="50.44556" lon="5.31206">
        <ele>208.2</ele>
        <time>2020-08-18T13:15:20Z</time>
      </trkpt>
      <trkpt lat="50.44557" lon="5.31207">
        <ele>208.2</ele>
        <time>2020-08-18T13:15:21Z</time>
      </trkpt>
      <trkpt lat="50.44558" lon="5.31208">
        <ele>208.1</ele>
        <time>2020-08-18T13:15:22Z</time>
      </trkpt>
      <trkpt lat="50.4456" lon="5.3121">
        <ele>208.1</ele>
        <time>2020-08-18T13:15:23Z</time>
      </trkpt>
      <trkpt lat="50.4456" lon="5.31211">
        <ele>208.1</ele>
        <time>2020-08-18T13:15:24Z</time>
      </trkpt>
      <trkpt lat="50.44561" lon="5.31212">
        <ele>208</ele>
        <time>2020-08-18T13:15:25Z</time>
      </trkpt>
      <trkpt lat="50.44563" lon="5.31214">
        <ele>208</ele>
        <time>2020-08-18T13:15:26Z</time>
      </trkpt>
      <trkpt lat="50.44563" lon="5.31215">
        <ele>208</ele>
        <time>2020-08-18T13:15:27Z</time>
      </trkpt>
      <trkpt lat="50.44563" lon="5.31216">
        <ele>208</ele>
        <time>2020-08-18T13:15:28Z</time>
      </trkpt>
      <trkpt lat="50.44564" lon="5.31217">
        <ele>207.9</ele>
        <time>2020-08-18T13:15:29Z</time>
      </trkpt>
      <trkpt lat="50.44565" lon="5.31219">
        <ele>207.9</ele>
        <time>2020-08-18T13:15:30Z</time>
      </trkpt>
      <trkpt lat="50.44566" lon="5.3122">
        <ele>207.8</ele>
        <time>2020-08-18T13:15:31Z</time>
      </trkpt>
      <trkpt lat="50.44566" lon="5.31221">
        <ele>207.8</ele>
        <time>2020-08-18T13:15:32Z</time>
      </trkpt>
      <trkpt lat="50.44566" lon="5.31223">
        <ele>207.8</ele>
        <time>2020-08-18T13:15:33Z</time>
      </trkpt>
      <trkpt lat="50.44567" lon="5.31224">
        <ele>207.7</ele>
        <time>2020-08-18T13:15:34Z</time>
      </trkpt>
      <trkpt lat="50.44567" lon="5.31225">
        <ele>207.7</ele>
        <time>2020-08-18T13:15:35Z</time>
      </trkpt>
      <trkpt lat="50.44568" lon="5.31226">
        <ele>207.6</ele>
        <time>2020-08-18T13:15:36Z</time>
      </trkpt>
      <trkpt lat="50.44569" lon="5.31227">
        <ele>207.5</ele>
        <time>2020-08-18T13:15:37Z</time>
      </trkpt>
      <trkpt lat="50.44569" lon="5.31228">
        <ele>207.5</ele>
        <time>2020-08-18T13:15:38Z</time>
      </trkpt>
      <trkpt lat="50.4457" lon="5.31229">
        <ele>207.4</ele>
        <time>2020-08-18T13:15:39Z</time>
      </trkpt>
      <trkpt lat="50.44571" lon="5.3123">
        <ele>207.4</ele>
        <time>2020-08-18T13:15:40Z</time>
      </trkpt>
      <trkpt lat="50.44571" lon="5.31231">
        <ele>207.3</ele>
        <time>2020-08-18T13:15:41Z</time>
      </trkpt>
      <trkpt lat="50.44572" lon="5.31231">
        <ele>207.3</ele>
        <time>2020-08-18T13:15:42Z</time>
      </trkpt>
      <trkpt lat="50.44573" lon="5.31232">
        <ele>207.2</ele>
        <time>2020-08-18T13:15:43Z</time>
      </trkpt>
      <trkpt lat="50.44573" lon="5.31233">
        <ele>207.1</ele>
        <time>2020-08-18T13:15:44Z</time>
      </trkpt>
      <trkpt lat="50.44574" lon="5.31233">
        <ele>207.1</ele>
        <time>2020-08-18T13:15:45Z</time>
      </trkpt>
      <trkpt lat="50.44575" lon="5.31234">
        <ele>207</ele>
        <time>2020-08-18T13:15:46Z</time>
      </trkpt>
      <trkpt lat="50.44576" lon="5.31234">
        <ele>206.9</ele>
        <time>2020-08-18T13:15:47Z</time>
      </trkpt>
      <trkpt lat="50.44577" lon="5.31235">
        <ele>206.8</ele>
        <time>2020-08-18T13:15:48Z</time>
      </trkpt>
      <trkpt lat="50.44578" lon="5.31235">
        <ele>206.8</ele>
        <time>2020-08-18T13:15:49Z</time>
      </trkpt>
      <trkpt lat="50.44579" lon="5.31236">
        <ele>206.7</ele>
        <time>2020-08-18T13:15:50Z</time>
      </trkpt>
      <trkpt lat="50.44581" lon="5.31237">
        <ele>206.6</ele>
        <time>2020-08-18T13:15:51Z</time>
      </trkpt>
      <trkpt lat="50.44581" lon="5.31237">
        <ele>206.6</ele>
        <time>2020-08-18T13:15:52Z</time>
      </trkpt>
      <trkpt lat="50.44582" lon="5.31238">
        <ele>206.5</ele>
        <time>2020-08-18T13:15:53Z</time>
      </trkpt>
      <trkpt lat="50.44584" lon="5.31238">
        <ele>207.2</ele>
        <time>2020-08-18T13:15:54Z</time>
      </trkpt>
      <trkpt lat="50.44585" lon="5.31238">
        <ele>207.2</ele>
        <time>2020-08-18T13:15:55Z</time>
      </trkpt>
      <trkpt lat="50.44587" lon="5.31239">
        <ele>207.2</ele>
        <time>2020-08-18T13:15:56Z</time>
      </trkpt>
      <trkpt lat="50.44588" lon="5.31239">
        <ele>207.3</ele>
        <time>2020-08-18T13:15:57Z</time>
      </trkpt>
      <trkpt lat="50.44589" lon="5.31239">
        <ele>207.3</ele>
        <time>2020-08-18T13:15:58Z</time>
      </trkpt>
      <trkpt lat="50.4459" lon="5.3124">
        <ele>207.3</ele>
        <time>2020-08-18T13:15:59Z</time>
      </trkpt>
      <trkpt lat="50.44591" lon="5.31241">
        <ele>207.3</ele>
        <time>2020-08-18T13:16:00Z</time>
      </trkpt>
      <trkpt lat="50.44592" lon="5.31242">
        <ele>207.3</ele>
        <time>2020-08-18T13:16:01Z</time>
      </trkpt>
      <trkpt lat="50.44592" lon="5.31243">
        <ele>207.2</ele>
        <time>2020-08-18T13:16:02Z</time>
      </trkpt>
      <trkpt lat="50.44593" lon="5.31243">
        <ele>207.3</ele>
        <time>2020-08-18T13:16:03Z</time>
      </trkpt>
      <trkpt lat="50.44594" lon="5.31244">
        <ele>207.4</ele>
        <time>2020-08-18T13:16:04Z</time>
      </trkpt>
      <trkpt lat="50.44594" lon="5.31245">
        <ele>207.3</ele>
        <time>2020-08-18T13:16:05Z</time>
      </trkpt>
      <trkpt lat="50.44595" lon="5.31245">
        <ele>207.5</ele>
        <time>2020-08-18T13:16:06Z</time>
      </trkpt>
      <trkpt lat="50.44596" lon="5.31246">
        <ele>207.6</ele>
        <time>2020-08-18T13:16:07Z</time>
      </trkpt>
      <trkpt lat="50.44597" lon="5.31246">
        <ele>207.7</ele>
        <time>2020-08-18T13:16:08Z</time>
      </trkpt>
      <trkpt lat="50.44598" lon="5.31246">
        <ele>207.8</ele>
        <time>2020-08-18T13:16:09Z</time>
      </trkpt>
      <trkpt lat="50.44598" lon="5.31247">
        <ele>207.8</ele>
        <time>2020-08-18T13:16:10Z</time>
      </trkpt>
      <trkpt lat="50.44599" lon="5.31248">
        <ele>207.9</ele>
        <time>2020-08-18T13:16:11Z</time>
      </trkpt>
      <trkpt lat="50.44599" lon="5.31248">
        <ele>207.9</ele>
        <time>2020-08-18T13:16:12Z</time>
      </trkpt>
      <trkpt lat="50.446" lon="5.31248">
        <ele>208.1</ele>
        <time>2020-08-18T13:16:13Z</time>
      </trkpt>
      <trkpt lat="50.44601" lon="5.31248">
        <ele>208.2</ele>
        <time>2020-08-18T13:16:14Z</time>
      </trkpt>
      <trkpt lat="50.44602" lon="5.31247">
        <ele>208.4</ele>
        <time>2020-08-18T13:16:15Z</time>
      </trkpt>
      <trkpt lat="50.44602" lon="5.31247">
        <ele>208.4</ele>
        <time>2020-08-18T13:16:16Z</time>
      </trkpt>
      <trkpt lat="50.44603" lon="5.31247">
        <ele>208.5</ele>
        <time>2020-08-18T13:16:17Z</time>
      </trkpt>
      <trkpt lat="50.44604" lon="5.31247">
        <ele>208.6</ele>
        <time>2020-08-18T13:16:18Z</time>
      </trkpt>
      <trkpt lat="50.44605" lon="5.31247">
        <ele>208.7</ele>
        <time>2020-08-18T13:16:18Z</time>
      </trkpt>
      <trkpt lat="50.44606" lon="5.31248">
        <ele>208.8</ele>
        <time>2020-08-18T13:16:19Z</time>
      </trkpt>
      <trkpt lat="50.44608" lon="5.31249">
        <ele>209.1</ele>
        <time>2020-08-18T13:16:20Z</time>
      </trkpt>
      <trkpt lat="50.44609" lon="5.31249">
        <ele>209.2</ele>
        <time>2020-08-18T13:16:21Z</time>
      </trkpt>
      <trkpt lat="50.44611" lon="5.3125">
        <ele>208.3</ele>
        <time>2020-08-18T13:16:22Z</time>
      </trkpt>
      <trkpt lat="50.44612" lon="5.3125">
        <ele>208.4</ele>
        <time>2020-08-18T13:16:23Z</time>
      </trkpt>
      <trkpt lat="50.44614" lon="5.31251">
        <ele>209.2</ele>
        <time>2020-08-18T13:16:24Z</time>
      </trkpt>
      <trkpt lat="50.44615" lon="5.31251">
        <ele>209.3</ele>
        <time>2020-08-18T13:16:25Z</time>
      </trkpt>
      <trkpt lat="50.44617" lon="5.31252">
        <ele>209.4</ele>
        <time>2020-08-18T13:16:26Z</time>
      </trkpt>
      <trkpt lat="50.44618" lon="5.31252">
        <ele>209.5</ele>
        <time>2020-08-18T13:16:27Z</time>
      </trkpt>
      <trkpt lat="50.44619" lon="5.31253">
        <ele>209.6</ele>
        <time>2020-08-18T13:16:28Z</time>
      </trkpt>
      <trkpt lat="50.4462" lon="5.31253">
        <ele>209.7</ele>
        <time>2020-08-18T13:16:29Z</time>
      </trkpt>
      <trkpt lat="50.44621" lon="5.31254">
        <ele>209.8</ele>
        <time>2020-08-18T13:16:30Z</time>
      </trkpt>
      <trkpt lat="50.44622" lon="5.31255">
        <ele>209.9</ele>
        <time>2020-08-18T13:16:31Z</time>
      </trkpt>
      <trkpt lat="50.44623" lon="5.31256">
        <ele>210</ele>
        <time>2020-08-18T13:16:32Z</time>
      </trkpt>
      <trkpt lat="50.44624" lon="5.31257">
        <ele>210.1</ele>
        <time>2020-08-18T13:16:33Z</time>
      </trkpt>
      <trkpt lat="50.44624" lon="5.31258">
        <ele>210.1</ele>
        <time>2020-08-18T13:16:34Z</time>
      </trkpt>
      <trkpt lat="50.44624" lon="5.3126">
        <ele>210.1</ele>
        <time>2020-08-18T13:16:35Z</time>
      </trkpt>
      <trkpt lat="50.44624" lon="5.31261">
        <ele>210.1</ele>
        <time>2020-08-18T13:16:36Z</time>
      </trkpt>
      <trkpt lat="50.44624" lon="5.31262">
        <ele>210.1</ele>
        <time>2020-08-18T13:16:37Z</time>
      </trkpt>
      <trkpt lat="50.44625" lon="5.31263">
        <ele>210.2</ele>
        <time>2020-08-18T13:16:38Z</time>
      </trkpt>
      <trkpt lat="50.44626" lon="5.31264">
        <ele>210.3</ele>
        <time>2020-08-18T13:16:39Z</time>
      </trkpt>
      <trkpt lat="50.44626" lon="5.31265">
        <ele>210.3</ele>
        <time>2020-08-18T13:16:40Z</time>
      </trkpt>
      <trkpt lat="50.44627" lon="5.31267">
        <ele>210.3</ele>
        <time>2020-08-18T13:16:41Z</time>
      </trkpt>
      <trkpt lat="50.44627" lon="5.31268">
        <ele>210.3</ele>
        <time>2020-08-18T13:16:42Z</time>
      </trkpt>
      <trkpt lat="50.44628" lon="5.3127">
        <ele>210.4</ele>
        <time>2020-08-18T13:16:43Z</time>
      </trkpt>
      <trkpt lat="50.44629" lon="5.31271">
        <ele>210.5</ele>
        <time>2020-08-18T13:16:44Z</time>
      </trkpt>
      <trkpt lat="50.4463" lon="5.31272">
        <ele>210.5</ele>
        <time>2020-08-18T13:16:45Z</time>
      </trkpt>
      <trkpt lat="50.4463" lon="5.31273">
        <ele>210.5</ele>
        <time>2020-08-18T13:16:46Z</time>
      </trkpt>
      <trkpt lat="50.44631" lon="5.31274">
        <ele>210.6</ele>
        <time>2020-08-18T13:16:47Z</time>
      </trkpt>
      <trkpt lat="50.44632" lon="5.31275">
        <ele>210.6</ele>
        <time>2020-08-18T13:16:48Z</time>
      </trkpt>
      <trkpt lat="50.44632" lon="5.31276">
        <ele>210.6</ele>
        <time>2020-08-18T13:16:49Z</time>
      </trkpt>
      <trkpt lat="50.44633" lon="5.31277">
        <ele>210.7</ele>
        <time>2020-08-18T13:16:50Z</time>
      </trkpt>
      <trkpt lat="50.44634" lon="5.31278">
        <ele>210.8</ele>
        <time>2020-08-18T13:16:51Z</time>
      </trkpt>
      <trkpt lat="50.44636" lon="5.31279">
        <ele>210.9</ele>
        <time>2020-08-18T13:16:52Z</time>
      </trkpt>
      <trkpt lat="50.44637" lon="5.3128">
        <ele>210.9</ele>
        <time>2020-08-18T13:16:53Z</time>
      </trkpt>
      <trkpt lat="50.44638" lon="5.31281">
        <ele>211</ele>
        <time>2020-08-18T13:16:54Z</time>
      </trkpt>
      <trkpt lat="50.44639" lon="5.31282">
        <ele>211</ele>
        <time>2020-08-18T13:16:55Z</time>
      </trkpt>
      <trkpt lat="50.4464" lon="5.31283">
        <ele>211</ele>
        <time>2020-08-18T13:16:56Z</time>
      </trkpt>
      <trkpt lat="50.44642" lon="5.31283">
        <ele>211.1</ele>
        <time>2020-08-18T13:16:57Z</time>
      </trkpt>
      <trkpt lat="50.44643" lon="5.31284">
        <ele>211.2</ele>
        <time>2020-08-18T13:16:58Z</time>
      </trkpt>
      <trkpt lat="50.44645" lon="5.31284">
        <ele>211.3</ele>
        <time>2020-08-18T13:16:59Z</time>
      </trkpt>
      <trkpt lat="50.44647" lon="5.31284">
        <ele>211.4</ele>
        <time>2020-08-18T13:17:00Z</time>
      </trkpt>
      <trkpt lat="50.44648" lon="5.31284">
        <ele>211.4</ele>
        <time>2020-08-18T13:17:01Z</time>
      </trkpt>
      <trkpt lat="50.44649" lon="5.31285">
        <ele>211.4</ele>
        <time>2020-08-18T13:17:02Z</time>
      </trkpt>
      <trkpt lat="50.4465" lon="5.31286">
        <ele>211.5</ele>
        <time>2020-08-18T13:17:03Z</time>
      </trkpt>
      <trkpt lat="50.44651" lon="5.31287">
        <ele>211.5</ele>
        <time>2020-08-18T13:17:04Z</time>
      </trkpt>
      <trkpt lat="50.44651" lon="5.31287">
        <ele>211.5</ele>
        <time>2020-08-18T13:17:05Z</time>
      </trkpt>
      <trkpt lat="50.44651" lon="5.31288">
        <ele>211.5</ele>
        <time>2020-08-18T13:17:06Z</time>
      </trkpt>
      <trkpt lat="50.44651" lon="5.31289">
        <ele>211.5</ele>
        <time>2020-08-18T13:17:07Z</time>
      </trkpt>
      <trkpt lat="50.4465" lon="5.31289">
        <ele>211.4</ele>
        <time>2020-08-18T13:17:08Z</time>
      </trkpt>
      <trkpt lat="50.4465" lon="5.31289">
        <ele>211.4</ele>
        <time>2020-08-18T13:17:09Z</time>
      </trkpt>
      <trkpt lat="50.44649" lon="5.31289">
        <ele>211.4</ele>
        <time>2020-08-18T13:17:10Z</time>
      </trkpt>
      <trkpt lat="50.44649" lon="5.3129">
        <ele>211.4</ele>
        <time>2020-08-18T13:17:11Z</time>
      </trkpt>
      <trkpt lat="50.44649" lon="5.3129">
        <ele>211.4</ele>
        <time>2020-08-18T13:17:12Z</time>
      </trkpt>
      <trkpt lat="50.4465" lon="5.31291">
        <ele>211.4</ele>
        <time>2020-08-18T13:17:13Z</time>
      </trkpt>
      <trkpt lat="50.4465" lon="5.31292">
        <ele>211.4</ele>
        <time>2020-08-18T13:17:14Z</time>
      </trkpt>
      <trkpt lat="50.4465" lon="5.31293">
        <ele>211.4</ele>
        <time>2020-08-18T13:17:15Z</time>
      </trkpt>
      <trkpt lat="50.4465" lon="5.31293">
        <ele>211.4</ele>
        <time>2020-08-18T13:17:16Z</time>
      </trkpt>
      <trkpt lat="50.44651" lon="5.31294">
        <ele>211.4</ele>
        <time>2020-08-18T13:17:17Z</time>
      </trkpt>
      <trkpt lat="50.4465" lon="5.31296">
        <ele>211.4</ele>
        <time>2020-08-18T13:17:18Z</time>
      </trkpt>
      <trkpt lat="50.4465" lon="5.31297">
        <ele>211.4</ele>
        <time>2020-08-18T13:17:19Z</time>
      </trkpt>
      <trkpt lat="50.4465" lon="5.31298">
        <ele>211.4</ele>
        <time>2020-08-18T13:17:20Z</time>
      </trkpt>
      <trkpt lat="50.4465" lon="5.31299">
        <ele>211.4</ele>
        <time>2020-08-18T13:17:21Z</time>
      </trkpt>
      <trkpt lat="50.44651" lon="5.31301">
        <ele>211.5</ele>
        <time>2020-08-18T13:17:22Z</time>
      </trkpt>
      <trkpt lat="50.44651" lon="5.31302">
        <ele>211.5</ele>
        <time>2020-08-18T13:17:23Z</time>
      </trkpt>
      <trkpt lat="50.44651" lon="5.31304">
        <ele>211.5</ele>
        <time>2020-08-18T13:17:24Z</time>
      </trkpt>
      <trkpt lat="50.44651" lon="5.31305">
        <ele>211.5</ele>
        <time>2020-08-18T13:17:25Z</time>
      </trkpt>
      <trkpt lat="50.44651" lon="5.31306">
        <ele>211.6</ele>
        <time>2020-08-18T13:17:26Z</time>
      </trkpt>
      <trkpt lat="50.44652" lon="5.31308">
        <ele>211.6</ele>
        <time>2020-08-18T13:17:27Z</time>
      </trkpt>
      <trkpt lat="50.44653" lon="5.31309">
        <ele>211.7</ele>
        <time>2020-08-18T13:17:28Z</time>
      </trkpt>
      <trkpt lat="50.44653" lon="5.3131">
        <ele>211.7</ele>
        <time>2020-08-18T13:17:29Z</time>
      </trkpt>
      <trkpt lat="50.44654" lon="5.3131">
        <ele>211.8</ele>
        <time>2020-08-18T13:17:30Z</time>
      </trkpt>
      <trkpt lat="50.44654" lon="5.31311">
        <ele>211.8</ele>
        <time>2020-08-18T13:17:31Z</time>
      </trkpt>
      <trkpt lat="50.44654" lon="5.31312">
        <ele>211.8</ele>
        <time>2020-08-18T13:17:32Z</time>
      </trkpt>
      <trkpt lat="50.44654" lon="5.31313">
        <ele>211.9</ele>
        <time>2020-08-18T13:17:33Z</time>
      </trkpt>
      <trkpt lat="50.44654" lon="5.31315">
        <ele>211.9</ele>
        <time>2020-08-18T13:17:34Z</time>
      </trkpt>
      <trkpt lat="50.44655" lon="5.31316">
        <ele>212</ele>
        <time>2020-08-18T13:17:35Z</time>
      </trkpt>
      <trkpt lat="50.44655" lon="5.31317">
        <ele>212</ele>
        <time>2020-08-18T13:17:36Z</time>
      </trkpt>
      <trkpt lat="50.44655" lon="5.31319">
        <ele>212.1</ele>
        <time>2020-08-18T13:17:37Z</time>
      </trkpt>
      <trkpt lat="50.44655" lon="5.3132">
        <ele>212.2</ele>
        <time>2020-08-18T13:17:38Z</time>
      </trkpt>
      <trkpt lat="50.44656" lon="5.31323">
        <ele>212.4</ele>
        <time>2020-08-18T13:17:40Z</time>
      </trkpt>
      <trkpt lat="50.44656" lon="5.31324">
        <ele>212.4</ele>
        <time>2020-08-18T13:17:41Z</time>
      </trkpt>
      <trkpt lat="50.44657" lon="5.31324">
        <ele>212.5</ele>
        <time>2020-08-18T13:17:42Z</time>
      </trkpt>
      <trkpt lat="50.44657" lon="5.31325">
        <ele>212.5</ele>
        <time>2020-08-18T13:17:43Z</time>
      </trkpt>
      <trkpt lat="50.44657" lon="5.31326">
        <ele>212.6</ele>
        <time>2020-08-18T13:17:44Z</time>
      </trkpt>
      <trkpt lat="50.44657" lon="5.31327">
        <ele>212.6</ele>
        <time>2020-08-18T13:17:45Z</time>
      </trkpt>
      <trkpt lat="50.44657" lon="5.31328">
        <ele>212.7</ele>
        <time>2020-08-18T13:17:46Z</time>
      </trkpt>
      <trkpt lat="50.44657" lon="5.3133">
        <ele>212.8</ele>
        <time>2020-08-18T13:17:47Z</time>
      </trkpt>
      <trkpt lat="50.44658" lon="5.31331">
        <ele>212.9</ele>
        <time>2020-08-18T13:17:48Z</time>
      </trkpt>
      <trkpt lat="50.44658" lon="5.31333">
        <ele>212.9</ele>
        <time>2020-08-18T13:17:49Z</time>
      </trkpt>
      <trkpt lat="50.44658" lon="5.31334">
        <ele>213.2</ele>
        <time>2020-08-18T13:17:50Z</time>
      </trkpt>
      <trkpt lat="50.44658" lon="5.31336">
        <ele>213.2</ele>
        <time>2020-08-18T13:17:51Z</time>
      </trkpt>
      <trkpt lat="50.44659" lon="5.31338">
        <ele>213.2</ele>
        <time>2020-08-18T13:17:52Z</time>
      </trkpt>
      <trkpt lat="50.44659" lon="5.31339">
        <ele>213.2</ele>
        <time>2020-08-18T13:17:53Z</time>
      </trkpt>
      <trkpt lat="50.44659" lon="5.31341">
        <ele>213.1</ele>
        <time>2020-08-18T13:17:54Z</time>
      </trkpt>
      <trkpt lat="50.4466" lon="5.31343">
        <ele>213</ele>
        <time>2020-08-18T13:17:55Z</time>
      </trkpt>
      <trkpt lat="50.4466" lon="5.31344">
        <ele>213</ele>
        <time>2020-08-18T13:17:56Z</time>
      </trkpt>
      <trkpt lat="50.44661" lon="5.31346">
        <ele>213</ele>
        <time>2020-08-18T13:17:57Z</time>
      </trkpt>
      <trkpt lat="50.44661" lon="5.31347">
        <ele>212.9</ele>
        <time>2020-08-18T13:17:58Z</time>
      </trkpt>
      <trkpt lat="50.44662" lon="5.31348">
        <ele>212.9</ele>
        <time>2020-08-18T13:17:59Z</time>
      </trkpt>
      <trkpt lat="50.44662" lon="5.3135">
        <ele>212.8</ele>
        <time>2020-08-18T13:18:00Z</time>
      </trkpt>
      <trkpt lat="50.44663" lon="5.31351">
        <ele>212.8</ele>
        <time>2020-08-18T13:18:01Z</time>
      </trkpt>
      <trkpt lat="50.44664" lon="5.31353">
        <ele>212.8</ele>
        <time>2020-08-18T13:18:02Z</time>
      </trkpt>
      <trkpt lat="50.44664" lon="5.31354">
        <ele>212.8</ele>
        <time>2020-08-18T13:18:03Z</time>
      </trkpt>
      <trkpt lat="50.44666" lon="5.31355">
        <ele>212.8</ele>
        <time>2020-08-18T13:18:04Z</time>
      </trkpt>
      <trkpt lat="50.44666" lon="5.31356">
        <ele>212.8</ele>
        <time>2020-08-18T13:18:05Z</time>
      </trkpt>
      <trkpt lat="50.44666" lon="5.31357">
        <ele>212.8</ele>
        <time>2020-08-18T13:18:06Z</time>
      </trkpt>
      <trkpt lat="50.44666" lon="5.31359">
        <ele>212.7</ele>
        <time>2020-08-18T13:18:07Z</time>
      </trkpt>
      <trkpt lat="50.44666" lon="5.3136">
        <ele>212.7</ele>
        <time>2020-08-18T13:18:08Z</time>
      </trkpt>
      <trkpt lat="50.44666" lon="5.31361">
        <ele>212.7</ele>
        <time>2020-08-18T13:18:09Z</time>
      </trkpt>
      <trkpt lat="50.44666" lon="5.31362">
        <ele>212.7</ele>
        <time>2020-08-18T13:18:10Z</time>
      </trkpt>
      <trkpt lat="50.44667" lon="5.31363">
        <ele>217.2</ele>
        <time>2020-08-18T13:18:11Z</time>
      </trkpt>
      <trkpt lat="50.44668" lon="5.31365">
        <ele>217.3</ele>
        <time>2020-08-18T13:18:12Z</time>
      </trkpt>
      <trkpt lat="50.44669" lon="5.31366">
        <ele>217.4</ele>
        <time>2020-08-18T13:18:13Z</time>
      </trkpt>
      <trkpt lat="50.44669" lon="5.31367">
        <ele>217.4</ele>
        <time>2020-08-18T13:18:14Z</time>
      </trkpt>
      <trkpt lat="50.44669" lon="5.31368">
        <ele>217.5</ele>
        <time>2020-08-18T13:18:15Z</time>
      </trkpt>
      <trkpt lat="50.44669" lon="5.31369">
        <ele>217.5</ele>
        <time>2020-08-18T13:18:16Z</time>
      </trkpt>
      <trkpt lat="50.44669" lon="5.3137">
        <ele>217.5</ele>
        <time>2020-08-18T13:18:17Z</time>
      </trkpt>
      <trkpt lat="50.44669" lon="5.31371">
        <ele>217.6</ele>
        <time>2020-08-18T13:18:18Z</time>
      </trkpt>
      <trkpt lat="50.4467" lon="5.31372">
        <ele>217.6</ele>
        <time>2020-08-18T13:18:19Z</time>
      </trkpt>
      <trkpt lat="50.4467" lon="5.31373">
        <ele>217.7</ele>
        <time>2020-08-18T13:18:20Z</time>
      </trkpt>
      <trkpt lat="50.44671" lon="5.31374">
        <ele>217.7</ele>
        <time>2020-08-18T13:18:21Z</time>
      </trkpt>
      <trkpt lat="50.44671" lon="5.31376">
        <ele>217.8</ele>
        <time>2020-08-18T13:18:22Z</time>
      </trkpt>
      <trkpt lat="50.44672" lon="5.31377">
        <ele>217.8</ele>
        <time>2020-08-18T13:18:23Z</time>
      </trkpt>
      <trkpt lat="50.44672" lon="5.31378">
        <ele>217.8</ele>
        <time>2020-08-18T13:18:24Z</time>
      </trkpt>
      <trkpt lat="50.44672" lon="5.31379">
        <ele>217.9</ele>
        <time>2020-08-18T13:18:25Z</time>
      </trkpt>
      <trkpt lat="50.44672" lon="5.3138">
        <ele>217.9</ele>
        <time>2020-08-18T13:18:26Z</time>
      </trkpt>
      <trkpt lat="50.44672" lon="5.31382">
        <ele>217.9</ele>
        <time>2020-08-18T13:18:27Z</time>
      </trkpt>
      <trkpt lat="50.44672" lon="5.31382">
        <ele>217.9</ele>
        <time>2020-08-18T13:18:28Z</time>
      </trkpt>
      <trkpt lat="50.44672" lon="5.31383">
        <ele>217.9</ele>
        <time>2020-08-18T13:18:29Z</time>
      </trkpt>
      <trkpt lat="50.44672" lon="5.31383">
        <ele>217.9</ele>
        <time>2020-08-18T13:18:30Z</time>
      </trkpt>
      <trkpt lat="50.44672" lon="5.31384">
        <ele>217.9</ele>
        <time>2020-08-18T13:18:31Z</time>
      </trkpt>
      <trkpt lat="50.44672" lon="5.31385">
        <ele>218</ele>
        <time>2020-08-18T13:18:32Z</time>
      </trkpt>
      <trkpt lat="50.44673" lon="5.31387">
        <ele>218</ele>
        <time>2020-08-18T13:18:33Z</time>
      </trkpt>
      <trkpt lat="50.44673" lon="5.31388">
        <ele>218</ele>
        <time>2020-08-18T13:18:34Z</time>
      </trkpt>
      <trkpt lat="50.44674" lon="5.31389">
        <ele>218</ele>
        <time>2020-08-18T13:18:35Z</time>
      </trkpt>
      <trkpt lat="50.44674" lon="5.31391">
        <ele>218</ele>
        <time>2020-08-18T13:18:36Z</time>
      </trkpt>
      <trkpt lat="50.44675" lon="5.31392">
        <ele>218</ele>
        <time>2020-08-18T13:18:37Z</time>
      </trkpt>
      <trkpt lat="50.44675" lon="5.31394">
        <ele>218</ele>
        <time>2020-08-18T13:18:38Z</time>
      </trkpt>
      <trkpt lat="50.44675" lon="5.31395">
        <ele>218</ele>
        <time>2020-08-18T13:18:39Z</time>
      </trkpt>
      <trkpt lat="50.44677" lon="5.31396">
        <ele>218.1</ele>
        <time>2020-08-18T13:18:40Z</time>
      </trkpt>
      <trkpt lat="50.44678" lon="5.31398">
        <ele>218.1</ele>
        <time>2020-08-18T13:18:41Z</time>
      </trkpt>
      <trkpt lat="50.44678" lon="5.31399">
        <ele>218.1</ele>
        <time>2020-08-18T13:18:42Z</time>
      </trkpt>
      <trkpt lat="50.44679" lon="5.314">
        <ele>218.1</ele>
        <time>2020-08-18T13:18:43Z</time>
      </trkpt>
      <trkpt lat="50.44679" lon="5.31401">
        <ele>218.1</ele>
        <time>2020-08-18T13:18:44Z</time>
      </trkpt>
      <trkpt lat="50.44679" lon="5.31402">
        <ele>218.1</ele>
        <time>2020-08-18T13:18:45Z</time>
      </trkpt>
      <trkpt lat="50.4468" lon="5.31403">
        <ele>218.1</ele>
        <time>2020-08-18T13:18:46Z</time>
      </trkpt>
      <trkpt lat="50.44681" lon="5.31404">
        <ele>218.1</ele>
        <time>2020-08-18T13:18:47Z</time>
      </trkpt>
      <trkpt lat="50.44682" lon="5.31405">
        <ele>218.2</ele>
        <time>2020-08-18T13:18:48Z</time>
      </trkpt>
      <trkpt lat="50.44682" lon="5.31406">
        <ele>218.2</ele>
        <time>2020-08-18T13:18:49Z</time>
      </trkpt>
      <trkpt lat="50.44683" lon="5.31407">
        <ele>218.2</ele>
        <time>2020-08-18T13:18:50Z</time>
      </trkpt>
      <trkpt lat="50.44684" lon="5.31408">
        <ele>218.2</ele>
        <time>2020-08-18T13:18:51Z</time>
      </trkpt>
      <trkpt lat="50.44684" lon="5.3141">
        <ele>218.2</ele>
        <time>2020-08-18T13:18:52Z</time>
      </trkpt>
      <trkpt lat="50.44684" lon="5.31411">
        <ele>218.2</ele>
        <time>2020-08-18T13:18:53Z</time>
      </trkpt>
      <trkpt lat="50.44684" lon="5.31412">
        <ele>218.2</ele>
        <time>2020-08-18T13:18:54Z</time>
      </trkpt>
      <trkpt lat="50.44685" lon="5.31414">
        <ele>218.3</ele>
        <time>2020-08-18T13:18:56Z</time>
      </trkpt>
      <trkpt lat="50.44686" lon="5.31414">
        <ele>218.3</ele>
        <time>2020-08-18T13:18:57Z</time>
      </trkpt>
      <trkpt lat="50.44686" lon="5.31415">
        <ele>218.3</ele>
        <time>2020-08-18T13:18:58Z</time>
      </trkpt>
      <trkpt lat="50.44686" lon="5.31416">
        <ele>218.3</ele>
        <time>2020-08-18T13:18:59Z</time>
      </trkpt>
      <trkpt lat="50.44687" lon="5.31418">
        <ele>220.8</ele>
        <time>2020-08-18T13:19:00Z</time>
      </trkpt>
      <trkpt lat="50.44687" lon="5.31419">
        <ele>220.9</ele>
        <time>2020-08-18T13:19:01Z</time>
      </trkpt>
      <trkpt lat="50.44687" lon="5.3142">
        <ele>220.9</ele>
        <time>2020-08-18T13:19:02Z</time>
      </trkpt>
      <trkpt lat="50.44687" lon="5.31421">
        <ele>220.9</ele>
        <time>2020-08-18T13:19:03Z</time>
      </trkpt>
      <trkpt lat="50.44687" lon="5.31422">
        <ele>220.9</ele>
        <time>2020-08-18T13:19:04Z</time>
      </trkpt>
      <trkpt lat="50.44687" lon="5.31423">
        <ele>221</ele>
        <time>2020-08-18T13:19:05Z</time>
      </trkpt>
      <trkpt lat="50.44688" lon="5.31424">
        <ele>221.1</ele>
        <time>2020-08-18T13:19:06Z</time>
      </trkpt>
      <trkpt lat="50.44688" lon="5.31425">
        <ele>221.2</ele>
        <time>2020-08-18T13:19:07Z</time>
      </trkpt>
      <trkpt lat="50.44688" lon="5.31426">
        <ele>221.2</ele>
        <time>2020-08-18T13:19:08Z</time>
      </trkpt>
      <trkpt lat="50.44689" lon="5.31427">
        <ele>221.4</ele>
        <time>2020-08-18T13:19:09Z</time>
      </trkpt>
      <trkpt lat="50.4469" lon="5.31428">
        <ele>221.5</ele>
        <time>2020-08-18T13:19:10Z</time>
      </trkpt>
      <trkpt lat="50.4469" lon="5.31431">
        <ele>221.7</ele>
        <time>2020-08-18T13:19:13Z</time>
      </trkpt>
      <trkpt lat="50.4469" lon="5.31431">
        <ele>221.7</ele>
        <time>2020-08-18T13:19:14Z</time>
      </trkpt>
      <trkpt lat="50.4469" lon="5.31431">
        <ele>221.7</ele>
        <time>2020-08-18T13:19:15Z</time>
      </trkpt>
      <trkpt lat="50.4469" lon="5.31432">
        <ele>221.7</ele>
        <time>2020-08-18T13:19:16Z</time>
      </trkpt>
      <trkpt lat="50.4469" lon="5.31433">
        <ele>221.8</ele>
        <time>2020-08-18T13:19:17Z</time>
      </trkpt>
      <trkpt lat="50.4469" lon="5.31434">
        <ele>221.8</ele>
        <time>2020-08-18T13:19:18Z</time>
      </trkpt>
      <trkpt lat="50.4469" lon="5.31435">
        <ele>221.9</ele>
        <time>2020-08-18T13:19:19Z</time>
      </trkpt>
      <trkpt lat="50.4469" lon="5.31436">
        <ele>222</ele>
        <time>2020-08-18T13:19:20Z</time>
      </trkpt>
      <trkpt lat="50.4469" lon="5.31436">
        <ele>222</ele>
        <time>2020-08-18T13:19:21Z</time>
      </trkpt>
      <trkpt lat="50.4469" lon="5.31437">
        <ele>222</ele>
        <time>2020-08-18T13:19:22Z</time>
      </trkpt>
      <trkpt lat="50.44691" lon="5.31438">
        <ele>222.1</ele>
        <time>2020-08-18T13:19:23Z</time>
      </trkpt>
      <trkpt lat="50.44692" lon="5.31439">
        <ele>222.3</ele>
        <time>2020-08-18T13:19:24Z</time>
      </trkpt>
      <trkpt lat="50.44692" lon="5.3144">
        <ele>222.3</ele>
        <time>2020-08-18T13:19:25Z</time>
      </trkpt>
      <trkpt lat="50.44693" lon="5.31441">
        <ele>222.4</ele>
        <time>2020-08-18T13:19:26Z</time>
      </trkpt>
      <trkpt lat="50.44693" lon="5.31441">
        <ele>222.4</ele>
        <time>2020-08-18T13:19:27Z</time>
      </trkpt>
      <trkpt lat="50.44693" lon="5.31442">
        <ele>222.5</ele>
        <time>2020-08-18T13:19:28Z</time>
      </trkpt>
      <trkpt lat="50.44694" lon="5.31443">
        <ele>222.6</ele>
        <time>2020-08-18T13:19:29Z</time>
      </trkpt>
      <trkpt lat="50.44695" lon="5.31444">
        <ele>222.7</ele>
        <time>2020-08-18T13:19:30Z</time>
      </trkpt>
      <trkpt lat="50.44695" lon="5.31444">
        <ele>222.7</ele>
        <time>2020-08-18T13:19:31Z</time>
      </trkpt>
      <trkpt lat="50.44695" lon="5.31445">
        <ele>222.7</ele>
        <time>2020-08-18T13:19:32Z</time>
      </trkpt>
      <trkpt lat="50.44695" lon="5.31447">
        <ele>222.8</ele>
        <time>2020-08-18T13:19:33Z</time>
      </trkpt>
      <trkpt lat="50.44695" lon="5.31448">
        <ele>222.9</ele>
        <time>2020-08-18T13:19:34Z</time>
      </trkpt>
      <trkpt lat="50.44695" lon="5.31449">
        <ele>222.9</ele>
        <time>2020-08-18T13:19:35Z</time>
      </trkpt>
      <trkpt lat="50.44695" lon="5.31451">
        <ele>223</ele>
        <time>2020-08-18T13:19:36Z</time>
      </trkpt>
      <trkpt lat="50.44695" lon="5.31453">
        <ele>223.1</ele>
        <time>2020-08-18T13:19:37Z</time>
      </trkpt>
      <trkpt lat="50.44696" lon="5.31454">
        <ele>223.2</ele>
        <time>2020-08-18T13:19:38Z</time>
      </trkpt>
      <trkpt lat="50.44696" lon="5.31455">
        <ele>223.2</ele>
        <time>2020-08-18T13:19:39Z</time>
      </trkpt>
      <trkpt lat="50.44696" lon="5.31457">
        <ele>223.3</ele>
        <time>2020-08-18T13:19:40Z</time>
      </trkpt>
      <trkpt lat="50.44696" lon="5.31459">
        <ele>223.4</ele>
        <time>2020-08-18T13:19:41Z</time>
      </trkpt>
      <trkpt lat="50.44696" lon="5.3146">
        <ele>223.4</ele>
        <time>2020-08-18T13:19:42Z</time>
      </trkpt>
      <trkpt lat="50.44697" lon="5.31461">
        <ele>223.5</ele>
        <time>2020-08-18T13:19:43Z</time>
      </trkpt>
      <trkpt lat="50.44698" lon="5.31461">
        <ele>223.5</ele>
        <time>2020-08-18T13:19:44Z</time>
      </trkpt>
      <trkpt lat="50.44699" lon="5.31461">
        <ele>223.6</ele>
        <time>2020-08-18T13:19:45Z</time>
      </trkpt>
      <trkpt lat="50.447" lon="5.31462">
        <ele>223.7</ele>
        <time>2020-08-18T13:19:46Z</time>
      </trkpt>
      <trkpt lat="50.44701" lon="5.31462">
        <ele>223.7</ele>
        <time>2020-08-18T13:19:47Z</time>
      </trkpt>
      <trkpt lat="50.44701" lon="5.31462">
        <ele>223.7</ele>
        <time>2020-08-18T13:19:48Z</time>
      </trkpt>
      <trkpt lat="50.44702" lon="5.31462">
        <ele>223.8</ele>
        <time>2020-08-18T13:19:49Z</time>
      </trkpt>
      <trkpt lat="50.44703" lon="5.31463">
        <ele>223.9</ele>
        <time>2020-08-18T13:19:50Z</time>
      </trkpt>
      <trkpt lat="50.44703" lon="5.31464">
        <ele>223.9</ele>
        <time>2020-08-18T13:19:51Z</time>
      </trkpt>
      <trkpt lat="50.44704" lon="5.31465">
        <ele>224</ele>
        <time>2020-08-18T13:19:52Z</time>
      </trkpt>
      <trkpt lat="50.44704" lon="5.31466">
        <ele>224</ele>
        <time>2020-08-18T13:19:53Z</time>
      </trkpt>
      <trkpt lat="50.44704" lon="5.31467">
        <ele>224.1</ele>
        <time>2020-08-18T13:19:54Z</time>
      </trkpt>
      <trkpt lat="50.44705" lon="5.31468">
        <ele>224.1</ele>
        <time>2020-08-18T13:19:55Z</time>
      </trkpt>
      <trkpt lat="50.44705" lon="5.31469">
        <ele>224.2</ele>
        <time>2020-08-18T13:19:56Z</time>
      </trkpt>
      <trkpt lat="50.44705" lon="5.3147">
        <ele>224.2</ele>
        <time>2020-08-18T13:19:57Z</time>
      </trkpt>
      <trkpt lat="50.44705" lon="5.31471">
        <ele>224.2</ele>
        <time>2020-08-18T13:19:58Z</time>
      </trkpt>
      <trkpt lat="50.44705" lon="5.31472">
        <ele>224.3</ele>
        <time>2020-08-18T13:19:59Z</time>
      </trkpt>
      <trkpt lat="50.44706" lon="5.31473">
        <ele>224.4</ele>
        <time>2020-08-18T13:20:00Z</time>
      </trkpt>
      <trkpt lat="50.44706" lon="5.31474">
        <ele>224.4</ele>
        <time>2020-08-18T13:20:01Z</time>
      </trkpt>
      <trkpt lat="50.44706" lon="5.31475">
        <ele>224.4</ele>
        <time>2020-08-18T13:20:02Z</time>
      </trkpt>
      <trkpt lat="50.44706" lon="5.31476">
        <ele>224.5</ele>
        <time>2020-08-18T13:20:03Z</time>
      </trkpt>
      <trkpt lat="50.44705" lon="5.31479">
        <ele>224.5</ele>
        <time>2020-08-18T13:20:05Z</time>
      </trkpt>
      <trkpt lat="50.44705" lon="5.31479">
        <ele>224.5</ele>
        <time>2020-08-18T13:20:06Z</time>
      </trkpt>
      <trkpt lat="50.44705" lon="5.3148">
        <ele>224.5</ele>
        <time>2020-08-18T13:20:07Z</time>
      </trkpt>
      <trkpt lat="50.44705" lon="5.31481">
        <ele>224.5</ele>
        <time>2020-08-18T13:20:08Z</time>
      </trkpt>
      <trkpt lat="50.44706" lon="5.31481">
        <ele>224.6</ele>
        <time>2020-08-18T13:20:09Z</time>
      </trkpt>
      <trkpt lat="50.44706" lon="5.31482">
        <ele>224.6</ele>
        <time>2020-08-18T13:20:10Z</time>
      </trkpt>
      <trkpt lat="50.44706" lon="5.31483">
        <ele>224.6</ele>
        <time>2020-08-18T13:20:11Z</time>
      </trkpt>
      <trkpt lat="50.44706" lon="5.31484">
        <ele>224.7</ele>
        <time>2020-08-18T13:20:12Z</time>
      </trkpt>
      <trkpt lat="50.44706" lon="5.31485">
        <ele>224.7</ele>
        <time>2020-08-18T13:20:13Z</time>
      </trkpt>
      <trkpt lat="50.44707" lon="5.31486">
        <ele>224.8</ele>
        <time>2020-08-18T13:20:14Z</time>
      </trkpt>
      <trkpt lat="50.44708" lon="5.31487">
        <ele>224.9</ele>
        <time>2020-08-18T13:20:15Z</time>
      </trkpt>
      <trkpt lat="50.44709" lon="5.31488">
        <ele>225</ele>
        <time>2020-08-18T13:20:16Z</time>
      </trkpt>
      <trkpt lat="50.44709" lon="5.31488">
        <ele>225</ele>
        <time>2020-08-18T13:20:17Z</time>
      </trkpt>
      <trkpt lat="50.44709" lon="5.31488">
        <ele>225</ele>
        <time>2020-08-18T13:20:18Z</time>
      </trkpt>
      <trkpt lat="50.44709" lon="5.31488">
        <ele>225</ele>
        <time>2020-08-18T13:20:19Z</time>
      </trkpt>
      <trkpt lat="50.44709" lon="5.31489">
        <ele>225</ele>
        <time>2020-08-18T13:20:20Z</time>
      </trkpt>
      <trkpt lat="50.44709" lon="5.31489">
        <ele>225</ele>
        <time>2020-08-18T13:20:21Z</time>
      </trkpt>
      <trkpt lat="50.4471" lon="5.3149">
        <ele>225.1</ele>
        <time>2020-08-18T13:20:22Z</time>
      </trkpt>
      <trkpt lat="50.44711" lon="5.3149">
        <ele>225.2</ele>
        <time>2020-08-18T13:20:23Z</time>
      </trkpt>
      <trkpt lat="50.44711" lon="5.31492">
        <ele>225.3</ele>
        <time>2020-08-18T13:20:24Z</time>
      </trkpt>
      <trkpt lat="50.44711" lon="5.31493">
        <ele>225.3</ele>
        <time>2020-08-18T13:20:25Z</time>
      </trkpt>
      <trkpt lat="50.44711" lon="5.31494">
        <ele>225.3</ele>
        <time>2020-08-18T13:20:26Z</time>
      </trkpt>
      <trkpt lat="50.44711" lon="5.31495">
        <ele>225.3</ele>
        <time>2020-08-18T13:20:27Z</time>
      </trkpt>
      <trkpt lat="50.44712" lon="5.31495">
        <ele>225.4</ele>
        <time>2020-08-18T13:20:28Z</time>
      </trkpt>
      <trkpt lat="50.44714" lon="5.31494">
        <ele>225.6</ele>
        <time>2020-08-18T13:20:29Z</time>
      </trkpt>
      <trkpt lat="50.44715" lon="5.31494">
        <ele>225.7</ele>
        <time>2020-08-18T13:20:30Z</time>
      </trkpt>
      <trkpt lat="50.44717" lon="5.31493">
        <ele>225.8</ele>
        <time>2020-08-18T13:20:31Z</time>
      </trkpt>
      <trkpt lat="50.44718" lon="5.31492">
        <ele>225.9</ele>
        <time>2020-08-18T13:20:32Z</time>
      </trkpt>
      <trkpt lat="50.4472" lon="5.31492">
        <ele>226.1</ele>
        <time>2020-08-18T13:20:33Z</time>
      </trkpt>
      <trkpt lat="50.4472" lon="5.31492">
        <ele>226.1</ele>
        <time>2020-08-18T13:20:33Z</time>
      </trkpt>
      <trkpt lat="50.44721" lon="5.31492">
        <ele>226.2</ele>
        <time>2020-08-18T13:20:34Z</time>
      </trkpt>
      <trkpt lat="50.44721" lon="5.31493">
        <ele>226.3</ele>
        <time>2020-08-18T13:20:35Z</time>
      </trkpt>
      <trkpt lat="50.44722" lon="5.31493">
        <ele>226.4</ele>
        <time>2020-08-18T13:20:36Z</time>
      </trkpt>
      <trkpt lat="50.44722" lon="5.31493">
        <ele>226.4</ele>
        <time>2020-08-18T13:20:37Z</time>
      </trkpt>
      <trkpt lat="50.44722" lon="5.31493">
        <ele>226.4</ele>
        <time>2020-08-18T13:20:38Z</time>
      </trkpt>
      <trkpt lat="50.44723" lon="5.31493">
        <ele>226.5</ele>
        <time>2020-08-18T13:20:39Z</time>
      </trkpt>
      <trkpt lat="50.44723" lon="5.31493">
        <ele>226.5</ele>
        <time>2020-08-18T13:20:40Z</time>
      </trkpt>
      <trkpt lat="50.44724" lon="5.31493">
        <ele>226.6</ele>
        <time>2020-08-18T13:20:41Z</time>
      </trkpt>
      <trkpt lat="50.44724" lon="5.31493">
        <ele>226.6</ele>
        <time>2020-08-18T13:20:42Z</time>
      </trkpt>
      <trkpt lat="50.44724" lon="5.31493">
        <ele>226.6</ele>
        <time>2020-08-18T13:20:43Z</time>
      </trkpt>
      <trkpt lat="50.44724" lon="5.31492">
        <ele>226.6</ele>
        <time>2020-08-18T13:20:44Z</time>
      </trkpt>
      <trkpt lat="50.44724" lon="5.31492">
        <ele>226.6</ele>
        <time>2020-08-18T13:20:45Z</time>
      </trkpt>
      <trkpt lat="50.44724" lon="5.31491">
        <ele>226.5</ele>
        <time>2020-08-18T13:20:46Z</time>
      </trkpt>
      <trkpt lat="50.44725" lon="5.31491">
        <ele>226.6</ele>
        <time>2020-08-18T13:20:47Z</time>
      </trkpt>
      <trkpt lat="50.44725" lon="5.31491">
        <ele>226.6</ele>
        <time>2020-08-18T13:20:48Z</time>
      </trkpt>
      <trkpt lat="50.44725" lon="5.3149">
        <ele>226.6</ele>
        <time>2020-08-18T13:20:49Z</time>
      </trkpt>
      <trkpt lat="50.44726" lon="5.3149">
        <ele>226.7</ele>
        <time>2020-08-18T13:20:50Z</time>
      </trkpt>
      <trkpt lat="50.44726" lon="5.3149">
        <ele>226.7</ele>
        <time>2020-08-18T13:20:51Z</time>
      </trkpt>
      <trkpt lat="50.44727" lon="5.31491">
        <ele>226.9</ele>
        <time>2020-08-18T13:20:52Z</time>
      </trkpt>
      <trkpt lat="50.44727" lon="5.31491">
        <ele>226.9</ele>
        <time>2020-08-18T13:20:53Z</time>
      </trkpt>
      <trkpt lat="50.44727" lon="5.31491">
        <ele>226.9</ele>
        <time>2020-08-18T13:20:54Z</time>
      </trkpt>
      <trkpt lat="50.44729" lon="5.31491">
        <ele>227.1</ele>
        <time>2020-08-18T13:20:56Z</time>
      </trkpt>
      <trkpt lat="50.44729" lon="5.31491">
        <ele>227.1</ele>
        <time>2020-08-18T13:20:59Z</time>
      </trkpt>
      <trkpt lat="50.44729" lon="5.31491">
        <ele>227.1</ele>
        <time>2020-08-18T13:21:00Z</time>
      </trkpt>
      <trkpt lat="50.4473" lon="5.31491">
        <ele>227.3</ele>
        <time>2020-08-18T13:21:01Z</time>
      </trkpt>
      <trkpt lat="50.4473" lon="5.3149">
        <ele>227.2</ele>
        <time>2020-08-18T13:21:02Z</time>
      </trkpt>
      <trkpt lat="50.44731" lon="5.3149">
        <ele>227.3</ele>
        <time>2020-08-18T13:21:03Z</time>
      </trkpt>
      <trkpt lat="50.44732" lon="5.31489">
        <ele>227.4</ele>
        <time>2020-08-18T13:21:04Z</time>
      </trkpt>
      <trkpt lat="50.44732" lon="5.31489">
        <ele>227.4</ele>
        <time>2020-08-18T13:21:05Z</time>
      </trkpt>
      <trkpt lat="50.44732" lon="5.31488">
        <ele>227.3</ele>
        <time>2020-08-18T13:21:06Z</time>
      </trkpt>
      <trkpt lat="50.44732" lon="5.31488">
        <ele>227.3</ele>
        <time>2020-08-18T13:21:07Z</time>
      </trkpt>
      <trkpt lat="50.44733" lon="5.31488">
        <ele>227.4</ele>
        <time>2020-08-18T13:21:08Z</time>
      </trkpt>
      <trkpt lat="50.44734" lon="5.31488">
        <ele>227.5</ele>
        <time>2020-08-18T13:21:09Z</time>
      </trkpt>
      <trkpt lat="50.44735" lon="5.31487">
        <ele>227.6</ele>
        <time>2020-08-18T13:21:10Z</time>
      </trkpt>
      <trkpt lat="50.44735" lon="5.31487">
        <ele>227.6</ele>
        <time>2020-08-18T13:21:11Z</time>
      </trkpt>
      <trkpt lat="50.44737" lon="5.31488">
        <ele>227.9</ele>
        <time>2020-08-18T13:21:12Z</time>
      </trkpt>
      <trkpt lat="50.44737" lon="5.31489">
        <ele>228</ele>
        <time>2020-08-18T13:21:13Z</time>
      </trkpt>
      <trkpt lat="50.44738" lon="5.3149">
        <ele>228.2</ele>
        <time>2020-08-18T13:21:14Z</time>
      </trkpt>
      <trkpt lat="50.44738" lon="5.31491">
        <ele>228.4</ele>
        <time>2020-08-18T13:21:15Z</time>
      </trkpt>
      <trkpt lat="50.44738" lon="5.31491">
        <ele>228.4</ele>
        <time>2020-08-18T13:21:16Z</time>
      </trkpt>
      <trkpt lat="50.44738" lon="5.31492">
        <ele>228.5</ele>
        <time>2020-08-18T13:21:17Z</time>
      </trkpt>
      <trkpt lat="50.44738" lon="5.31492">
        <ele>228.5</ele>
        <time>2020-08-18T13:21:18Z</time>
      </trkpt>
      <trkpt lat="50.44739" lon="5.31492">
        <ele>228.6</ele>
        <time>2020-08-18T13:21:19Z</time>
      </trkpt>
      <trkpt lat="50.4474" lon="5.31492">
        <ele>228.8</ele>
        <time>2020-08-18T13:21:20Z</time>
      </trkpt>
      <trkpt lat="50.44741" lon="5.31492">
        <ele>228.9</ele>
        <time>2020-08-18T13:21:21Z</time>
      </trkpt>
      <trkpt lat="50.44742" lon="5.31491">
        <ele>228.9</ele>
        <time>2020-08-18T13:21:22Z</time>
      </trkpt>
      <trkpt lat="50.44743" lon="5.31491">
        <ele>229</ele>
        <time>2020-08-18T13:21:23Z</time>
      </trkpt>
      <trkpt lat="50.44744" lon="5.31491">
        <ele>229.2</ele>
        <time>2020-08-18T13:21:24Z</time>
      </trkpt>
      <trkpt lat="50.44744" lon="5.31491">
        <ele>229.2</ele>
        <time>2020-08-18T13:21:25Z</time>
      </trkpt>
      <trkpt lat="50.44745" lon="5.31491">
        <ele>229.3</ele>
        <time>2020-08-18T13:21:26Z</time>
      </trkpt>
      <trkpt lat="50.44746" lon="5.31492">
        <ele>229.6</ele>
        <time>2020-08-18T13:21:27Z</time>
      </trkpt>
      <trkpt lat="50.44746" lon="5.31493">
        <ele>229.8</ele>
        <time>2020-08-18T13:21:28Z</time>
      </trkpt>
      <trkpt lat="50.44747" lon="5.31493">
        <ele>229.9</ele>
        <time>2020-08-18T13:21:29Z</time>
      </trkpt>
      <trkpt lat="50.44747" lon="5.31493">
        <ele>229.9</ele>
        <time>2020-08-18T13:21:30Z</time>
      </trkpt>
      <trkpt lat="50.44748" lon="5.31493">
        <ele>230</ele>
        <time>2020-08-18T13:21:31Z</time>
      </trkpt>
      <trkpt lat="50.44748" lon="5.31492">
        <ele>229.7</ele>
        <time>2020-08-18T13:21:32Z</time>
      </trkpt>
      <trkpt lat="50.44749" lon="5.31492">
        <ele>229.8</ele>
        <time>2020-08-18T13:21:33Z</time>
      </trkpt>
      <trkpt lat="50.4475" lon="5.31491">
        <ele>229.6</ele>
        <time>2020-08-18T13:21:34Z</time>
      </trkpt>
      <trkpt lat="50.4475" lon="5.31491">
        <ele>229.6</ele>
        <time>2020-08-18T13:21:35Z</time>
      </trkpt>
      <trkpt lat="50.4475" lon="5.3149">
        <ele>229.4</ele>
        <time>2020-08-18T13:21:36Z</time>
      </trkpt>
      <trkpt lat="50.4475" lon="5.3149">
        <ele>229.4</ele>
        <time>2020-08-18T13:21:37Z</time>
      </trkpt>
      <trkpt lat="50.44751" lon="5.3149">
        <ele>231</ele>
        <time>2020-08-18T13:21:38Z</time>
      </trkpt>
      <trkpt lat="50.44751" lon="5.31491">
        <ele>231.1</ele>
        <time>2020-08-18T13:21:39Z</time>
      </trkpt>
      <trkpt lat="50.44752" lon="5.31491">
        <ele>231.1</ele>
        <time>2020-08-18T13:21:40Z</time>
      </trkpt>
      <trkpt lat="50.44753" lon="5.31491">
        <ele>231.1</ele>
        <time>2020-08-18T13:21:41Z</time>
      </trkpt>
      <trkpt lat="50.44753" lon="5.31491">
        <ele>231.1</ele>
        <time>2020-08-18T13:21:42Z</time>
      </trkpt>
      <trkpt lat="50.44754" lon="5.31493">
        <ele>231.2</ele>
        <time>2020-08-18T13:21:43Z</time>
      </trkpt>
      <trkpt lat="50.44754" lon="5.31494">
        <ele>231.3</ele>
        <time>2020-08-18T13:21:44Z</time>
      </trkpt>
      <trkpt lat="50.44756" lon="5.31494">
        <ele>231.2</ele>
        <time>2020-08-18T13:21:45Z</time>
      </trkpt>
      <trkpt lat="50.44756" lon="5.31495">
        <ele>231.2</ele>
        <time>2020-08-18T13:21:46Z</time>
      </trkpt>
      <trkpt lat="50.44757" lon="5.31495">
        <ele>231.2</ele>
        <time>2020-08-18T13:21:47Z</time>
      </trkpt>
      <trkpt lat="50.44758" lon="5.31495">
        <ele>231.1</ele>
        <time>2020-08-18T13:21:48Z</time>
      </trkpt>
      <trkpt lat="50.44758" lon="5.31495">
        <ele>231.1</ele>
        <time>2020-08-18T13:21:49Z</time>
      </trkpt>
      <trkpt lat="50.44759" lon="5.31494">
        <ele>231</ele>
        <time>2020-08-18T13:21:50Z</time>
      </trkpt>
      <trkpt lat="50.44759" lon="5.31494">
        <ele>231</ele>
        <time>2020-08-18T13:21:51Z</time>
      </trkpt>
      <trkpt lat="50.44759" lon="5.31493">
        <ele>231</ele>
        <time>2020-08-18T13:21:52Z</time>
      </trkpt>
      <trkpt lat="50.44759" lon="5.31493">
        <ele>231</ele>
        <time>2020-08-18T13:21:53Z</time>
      </trkpt>
      <trkpt lat="50.4476" lon="5.31492">
        <ele>230.9</ele>
        <time>2020-08-18T13:21:54Z</time>
      </trkpt>
      <trkpt lat="50.44761" lon="5.31492">
        <ele>230.8</ele>
        <time>2020-08-18T13:21:55Z</time>
      </trkpt>
      <trkpt lat="50.44761" lon="5.31492">
        <ele>230.8</ele>
        <time>2020-08-18T13:21:56Z</time>
      </trkpt>
      <trkpt lat="50.44762" lon="5.31492">
        <ele>230.8</ele>
        <time>2020-08-18T13:21:57Z</time>
      </trkpt>
      <trkpt lat="50.44762" lon="5.31492">
        <ele>230.8</ele>
        <time>2020-08-18T13:21:58Z</time>
      </trkpt>
      <trkpt lat="50.44762" lon="5.31493">
        <ele>230.8</ele>
        <time>2020-08-18T13:21:59Z</time>
      </trkpt>
      <trkpt lat="50.44763" lon="5.31493">
        <ele>230.8</ele>
        <time>2020-08-18T13:22:00Z</time>
      </trkpt>
      <trkpt lat="50.44763" lon="5.31494">
        <ele>230.8</ele>
        <time>2020-08-18T13:22:01Z</time>
      </trkpt>
      <trkpt lat="50.44763" lon="5.31494">
        <ele>230.8</ele>
        <time>2020-08-18T13:22:02Z</time>
      </trkpt>
      <trkpt lat="50.44763" lon="5.31494">
        <ele>230.8</ele>
        <time>2020-08-18T13:22:03Z</time>
      </trkpt>
      <trkpt lat="50.44763" lon="5.31494">
        <ele>230.8</ele>
        <time>2020-08-18T13:22:04Z</time>
      </trkpt>
      <trkpt lat="50.44763" lon="5.31493">
        <ele>230.8</ele>
        <time>2020-08-18T13:22:05Z</time>
      </trkpt>
      <trkpt lat="50.44763" lon="5.31493">
        <ele>230.8</ele>
        <time>2020-08-18T13:22:06Z</time>
      </trkpt>
      <trkpt lat="50.44764" lon="5.31492">
        <ele>230.7</ele>
        <time>2020-08-18T13:22:07Z</time>
      </trkpt>
      <trkpt lat="50.44764" lon="5.31491">
        <ele>230.6</ele>
        <time>2020-08-18T13:22:08Z</time>
      </trkpt>
      <trkpt lat="50.44764" lon="5.31491">
        <ele>230.6</ele>
        <time>2020-08-18T13:22:17Z</time>
      </trkpt>
      <trkpt lat="50.44764" lon="5.31492">
        <ele>230.7</ele>
        <time>2020-08-18T13:22:19Z</time>
      </trkpt>
      <trkpt lat="50.44764" lon="5.31492">
        <ele>230.7</ele>
        <time>2020-08-18T13:22:21Z</time>
      </trkpt>
      <trkpt lat="50.44764" lon="5.31492">
        <ele>230.7</ele>
        <time>2020-08-18T13:22:22Z</time>
      </trkpt>
      <trkpt lat="50.44765" lon="5.31493">
        <ele>230.7</ele>
        <time>2020-08-18T13:22:23Z</time>
      </trkpt>
      <trkpt lat="50.44765" lon="5.31493">
        <ele>230.7</ele>
        <time>2020-08-18T13:22:24Z</time>
      </trkpt>
      <trkpt lat="50.44766" lon="5.31493">
        <ele>230.6</ele>
        <time>2020-08-18T13:22:25Z</time>
      </trkpt>
      <trkpt lat="50.44766" lon="5.31493">
        <ele>230.6</ele>
        <time>2020-08-18T13:22:26Z</time>
      </trkpt>
      <trkpt lat="50.44767" lon="5.31494">
        <ele>230.6</ele>
        <time>2020-08-18T13:22:27Z</time>
      </trkpt>
      <trkpt lat="50.44768" lon="5.31494">
        <ele>230.6</ele>
        <time>2020-08-18T13:22:28Z</time>
      </trkpt>
      <trkpt lat="50.44768" lon="5.31494">
        <ele>230.6</ele>
        <time>2020-08-18T13:22:29Z</time>
      </trkpt>
      <trkpt lat="50.44769" lon="5.31495">
        <ele>230.6</ele>
        <time>2020-08-18T13:22:30Z</time>
      </trkpt>
      <trkpt lat="50.4477" lon="5.31495">
        <ele>230.5</ele>
        <time>2020-08-18T13:22:31Z</time>
      </trkpt>
      <trkpt lat="50.44771" lon="5.31496">
        <ele>230.5</ele>
        <time>2020-08-18T13:22:32Z</time>
      </trkpt>
      <trkpt lat="50.44772" lon="5.31497">
        <ele>230.5</ele>
        <time>2020-08-18T13:22:33Z</time>
      </trkpt>
      <trkpt lat="50.44774" lon="5.31498">
        <ele>230.5</ele>
        <time>2020-08-18T13:22:34Z</time>
      </trkpt>
      <trkpt lat="50.44774" lon="5.31498">
        <ele>230.5</ele>
        <time>2020-08-18T13:22:35Z</time>
      </trkpt>
      <trkpt lat="50.44775" lon="5.31499">
        <ele>230.5</ele>
        <time>2020-08-18T13:22:36Z</time>
      </trkpt>
      <trkpt lat="50.44777" lon="5.31499">
        <ele>230.4</ele>
        <time>2020-08-18T13:22:37Z</time>
      </trkpt>
      <trkpt lat="50.44777" lon="5.315">
        <ele>233.4</ele>
        <time>2020-08-18T13:22:38Z</time>
      </trkpt>
      <trkpt lat="50.44778" lon="5.315">
        <ele>233.4</ele>
        <time>2020-08-18T13:22:39Z</time>
      </trkpt>
      <trkpt lat="50.44778" lon="5.31499">
        <ele>230.4</ele>
        <time>2020-08-18T13:22:40Z</time>
      </trkpt>
      <trkpt lat="50.4478" lon="5.31499">
        <ele>230.4</ele>
        <time>2020-08-18T13:22:41Z</time>
      </trkpt>
      <trkpt lat="50.44781" lon="5.31499">
        <ele>230.3</ele>
        <time>2020-08-18T13:22:42Z</time>
      </trkpt>
      <trkpt lat="50.44782" lon="5.315">
        <ele>233.5</ele>
        <time>2020-08-18T13:22:43Z</time>
      </trkpt>
      <trkpt lat="50.44782" lon="5.315">
        <ele>233.5</ele>
        <time>2020-08-18T13:22:44Z</time>
      </trkpt>
      <trkpt lat="50.44783" lon="5.315">
        <ele>233.5</ele>
        <time>2020-08-18T13:22:45Z</time>
      </trkpt>
      <trkpt lat="50.44784" lon="5.315">
        <ele>233.5</ele>
        <time>2020-08-18T13:22:46Z</time>
      </trkpt>
      <trkpt lat="50.44784" lon="5.31499">
        <ele>230.3</ele>
        <time>2020-08-18T13:22:47Z</time>
      </trkpt>
      <trkpt lat="50.44785" lon="5.31499">
        <ele>230.3</ele>
        <time>2020-08-18T13:22:48Z</time>
      </trkpt>
      <trkpt lat="50.44785" lon="5.31499">
        <ele>230.3</ele>
        <time>2020-08-18T13:22:49Z</time>
      </trkpt>
      <trkpt lat="50.44786" lon="5.31499">
        <ele>230.3</ele>
        <time>2020-08-18T13:22:50Z</time>
      </trkpt>
      <trkpt lat="50.44787" lon="5.31499">
        <ele>230.3</ele>
        <time>2020-08-18T13:22:51Z</time>
      </trkpt>
      <trkpt lat="50.44787" lon="5.315">
        <ele>233.5</ele>
        <time>2020-08-18T13:22:52Z</time>
      </trkpt>
      <trkpt lat="50.44789" lon="5.31501">
        <ele>233.6</ele>
        <time>2020-08-18T13:22:53Z</time>
      </trkpt>
      <trkpt lat="50.4479" lon="5.31502">
        <ele>233.6</ele>
        <time>2020-08-18T13:22:54Z</time>
      </trkpt>
      <trkpt lat="50.44791" lon="5.31503">
        <ele>233.6</ele>
        <time>2020-08-18T13:22:55Z</time>
      </trkpt>
      <trkpt lat="50.44792" lon="5.31504">
        <ele>233.6</ele>
        <time>2020-08-18T13:22:56Z</time>
      </trkpt>
      <trkpt lat="50.44792" lon="5.31506">
        <ele>233.6</ele>
        <time>2020-08-18T13:22:57Z</time>
      </trkpt>
      <trkpt lat="50.44793" lon="5.31507">
        <ele>233.6</ele>
        <time>2020-08-18T13:22:58Z</time>
      </trkpt>
      <trkpt lat="50.44794" lon="5.31508">
        <ele>233.6</ele>
        <time>2020-08-18T13:22:59Z</time>
      </trkpt>
      <trkpt lat="50.44795" lon="5.31509">
        <ele>233.7</ele>
        <time>2020-08-18T13:23:00Z</time>
      </trkpt>
      <trkpt lat="50.44795" lon="5.3151">
        <ele>233.7</ele>
        <time>2020-08-18T13:23:01Z</time>
      </trkpt>
      <trkpt lat="50.44796" lon="5.31511">
        <ele>233.7</ele>
        <time>2020-08-18T13:23:02Z</time>
      </trkpt>
      <trkpt lat="50.44796" lon="5.31512">
        <ele>233.7</ele>
        <time>2020-08-18T13:23:03Z</time>
      </trkpt>
      <trkpt lat="50.44798" lon="5.31513">
        <ele>233.7</ele>
        <time>2020-08-18T13:23:04Z</time>
      </trkpt>
      <trkpt lat="50.44798" lon="5.31514">
        <ele>233.7</ele>
        <time>2020-08-18T13:23:05Z</time>
      </trkpt>
      <trkpt lat="50.44799" lon="5.31514">
        <ele>233.7</ele>
        <time>2020-08-18T13:23:06Z</time>
      </trkpt>
      <trkpt lat="50.44799" lon="5.31515">
        <ele>233.7</ele>
        <time>2020-08-18T13:23:07Z</time>
      </trkpt>
      <trkpt lat="50.44801" lon="5.31515">
        <ele>233.7</ele>
        <time>2020-08-18T13:23:08Z</time>
      </trkpt>
      <trkpt lat="50.44801" lon="5.31516">
        <ele>233.7</ele>
        <time>2020-08-18T13:23:09Z</time>
      </trkpt>
      <trkpt lat="50.44802" lon="5.31516">
        <ele>233.7</ele>
        <time>2020-08-18T13:23:10Z</time>
      </trkpt>
      <trkpt lat="50.44803" lon="5.31517">
        <ele>233.7</ele>
        <time>2020-08-18T13:23:11Z</time>
      </trkpt>
      <trkpt lat="50.44804" lon="5.31518">
        <ele>233.7</ele>
        <time>2020-08-18T13:23:12Z</time>
      </trkpt>
      <trkpt lat="50.44804" lon="5.31519">
        <ele>233.8</ele>
        <time>2020-08-18T13:23:13Z</time>
      </trkpt>
      <trkpt lat="50.44805" lon="5.31519">
        <ele>233.8</ele>
        <time>2020-08-18T13:23:14Z</time>
      </trkpt>
      <trkpt lat="50.44806" lon="5.3152">
        <ele>233.8</ele>
        <time>2020-08-18T13:23:15Z</time>
      </trkpt>
      <trkpt lat="50.44807" lon="5.31521">
        <ele>233.8</ele>
        <time>2020-08-18T13:23:16Z</time>
      </trkpt>
      <trkpt lat="50.44808" lon="5.31522">
        <ele>233.8</ele>
        <time>2020-08-18T13:23:17Z</time>
      </trkpt>
      <trkpt lat="50.44809" lon="5.31523">
        <ele>233.8</ele>
        <time>2020-08-18T13:23:18Z</time>
      </trkpt>
      <trkpt lat="50.44809" lon="5.31524">
        <ele>233.8</ele>
        <time>2020-08-18T13:23:19Z</time>
      </trkpt>
      <trkpt lat="50.4481" lon="5.31524">
        <ele>233.8</ele>
        <time>2020-08-18T13:23:20Z</time>
      </trkpt>
      <trkpt lat="50.44811" lon="5.31525">
        <ele>233.9</ele>
        <time>2020-08-18T13:23:21Z</time>
      </trkpt>
      <trkpt lat="50.44812" lon="5.31526">
        <ele>233.9</ele>
        <time>2020-08-18T13:23:22Z</time>
      </trkpt>
      <trkpt lat="50.44812" lon="5.31527">
        <ele>233.9</ele>
        <time>2020-08-18T13:23:23Z</time>
      </trkpt>
      <trkpt lat="50.44813" lon="5.31528">
        <ele>233.9</ele>
        <time>2020-08-18T13:23:24Z</time>
      </trkpt>
      <trkpt lat="50.44814" lon="5.31529">
        <ele>234</ele>
        <time>2020-08-18T13:23:25Z</time>
      </trkpt>
      <trkpt lat="50.44814" lon="5.3153">
        <ele>234</ele>
        <time>2020-08-18T13:23:26Z</time>
      </trkpt>
      <trkpt lat="50.44814" lon="5.31531">
        <ele>234</ele>
        <time>2020-08-18T13:23:27Z</time>
      </trkpt>
      <trkpt lat="50.44814" lon="5.31532">
        <ele>234.1</ele>
        <time>2020-08-18T13:23:28Z</time>
      </trkpt>
      <trkpt lat="50.44815" lon="5.31534">
        <ele>234.1</ele>
        <time>2020-08-18T13:23:29Z</time>
      </trkpt>
      <trkpt lat="50.44815" lon="5.31535">
        <ele>234.1</ele>
        <time>2020-08-18T13:23:30Z</time>
      </trkpt>
      <trkpt lat="50.44815" lon="5.31536">
        <ele>234.2</ele>
        <time>2020-08-18T13:23:31Z</time>
      </trkpt>
      <trkpt lat="50.44816" lon="5.31536">
        <ele>234.2</ele>
        <time>2020-08-18T13:23:32Z</time>
      </trkpt>
      <trkpt lat="50.44816" lon="5.31537">
        <ele>234.2</ele>
        <time>2020-08-18T13:23:33Z</time>
      </trkpt>
      <trkpt lat="50.44816" lon="5.31538">
        <ele>234.2</ele>
        <time>2020-08-18T13:23:34Z</time>
      </trkpt>
      <trkpt lat="50.44817" lon="5.31539">
        <ele>234.3</ele>
        <time>2020-08-18T13:23:35Z</time>
      </trkpt>
      <trkpt lat="50.44817" lon="5.3154">
        <ele>234.3</ele>
        <time>2020-08-18T13:23:36Z</time>
      </trkpt>
      <trkpt lat="50.44817" lon="5.31541">
        <ele>234.3</ele>
        <time>2020-08-18T13:23:37Z</time>
      </trkpt>
      <trkpt lat="50.44818" lon="5.31542">
        <ele>234.4</ele>
        <time>2020-08-18T13:23:38Z</time>
      </trkpt>
      <trkpt lat="50.44819" lon="5.31543">
        <ele>234.4</ele>
        <time>2020-08-18T13:23:39Z</time>
      </trkpt>
      <trkpt lat="50.4482" lon="5.31544">
        <ele>234.4</ele>
        <time>2020-08-18T13:23:40Z</time>
      </trkpt>
      <trkpt lat="50.4482" lon="5.31545">
        <ele>234.5</ele>
        <time>2020-08-18T13:23:41Z</time>
      </trkpt>
      <trkpt lat="50.4482" lon="5.31546">
        <ele>234.5</ele>
        <time>2020-08-18T13:23:42Z</time>
      </trkpt>
      <trkpt lat="50.44822" lon="5.31547">
        <ele>234.5</ele>
        <time>2020-08-18T13:23:43Z</time>
      </trkpt>
      <trkpt lat="50.44823" lon="5.31548">
        <ele>234.6</ele>
        <time>2020-08-18T13:23:44Z</time>
      </trkpt>
      <trkpt lat="50.44823" lon="5.31548">
        <ele>234.6</ele>
        <time>2020-08-18T13:23:45Z</time>
      </trkpt>
      <trkpt lat="50.44824" lon="5.31549">
        <ele>234.6</ele>
        <time>2020-08-18T13:23:46Z</time>
      </trkpt>
      <trkpt lat="50.44825" lon="5.3155">
        <ele>234.6</ele>
        <time>2020-08-18T13:23:47Z</time>
      </trkpt>
      <trkpt lat="50.44826" lon="5.31551">
        <ele>234.7</ele>
        <time>2020-08-18T13:23:48Z</time>
      </trkpt>
      <trkpt lat="50.44826" lon="5.31552">
        <ele>234.7</ele>
        <time>2020-08-18T13:23:49Z</time>
      </trkpt>
      <trkpt lat="50.44827" lon="5.31553">
        <ele>234.7</ele>
        <time>2020-08-18T13:23:50Z</time>
      </trkpt>
      <trkpt lat="50.44827" lon="5.31554">
        <ele>234.8</ele>
        <time>2020-08-18T13:23:51Z</time>
      </trkpt>
      <trkpt lat="50.44827" lon="5.31554">
        <ele>234.8</ele>
        <time>2020-08-18T13:23:52Z</time>
      </trkpt>
      <trkpt lat="50.44828" lon="5.31555">
        <ele>234.8</ele>
        <time>2020-08-18T13:23:53Z</time>
      </trkpt>
      <trkpt lat="50.44829" lon="5.31556">
        <ele>234.8</ele>
        <time>2020-08-18T13:23:54Z</time>
      </trkpt>
      <trkpt lat="50.44829" lon="5.31557">
        <ele>234.9</ele>
        <time>2020-08-18T13:23:55Z</time>
      </trkpt>
      <trkpt lat="50.44829" lon="5.31558">
        <ele>234.9</ele>
        <time>2020-08-18T13:23:56Z</time>
      </trkpt>
      <trkpt lat="50.4483" lon="5.31559">
        <ele>234.9</ele>
        <time>2020-08-18T13:23:57Z</time>
      </trkpt>
      <trkpt lat="50.4483" lon="5.3156">
        <ele>235</ele>
        <time>2020-08-18T13:23:58Z</time>
      </trkpt>
      <trkpt lat="50.44831" lon="5.31561">
        <ele>235</ele>
        <time>2020-08-18T13:23:59Z</time>
      </trkpt>
      <trkpt lat="50.44832" lon="5.31562">
        <ele>235.1</ele>
        <time>2020-08-18T13:24:00Z</time>
      </trkpt>
      <trkpt lat="50.44833" lon="5.31563">
        <ele>235.1</ele>
        <time>2020-08-18T13:24:01Z</time>
      </trkpt>
      <trkpt lat="50.44833" lon="5.31564">
        <ele>235.1</ele>
        <time>2020-08-18T13:24:02Z</time>
      </trkpt>
      <trkpt lat="50.44834" lon="5.31565">
        <ele>233.6</ele>
        <time>2020-08-18T13:24:03Z</time>
      </trkpt>
      <trkpt lat="50.44835" lon="5.31566">
        <ele>233.6</ele>
        <time>2020-08-18T13:24:04Z</time>
      </trkpt>
      <trkpt lat="50.44835" lon="5.31567">
        <ele>233.7</ele>
        <time>2020-08-18T13:24:05Z</time>
      </trkpt>
      <trkpt lat="50.44835" lon="5.31567">
        <ele>233.7</ele>
        <time>2020-08-18T13:24:06Z</time>
      </trkpt>
      <trkpt lat="50.44836" lon="5.31567">
        <ele>233.7</ele>
        <time>2020-08-18T13:24:07Z</time>
      </trkpt>
      <trkpt lat="50.44836" lon="5.31567">
        <ele>233.7</ele>
        <time>2020-08-18T13:24:08Z</time>
      </trkpt>
      <trkpt lat="50.44837" lon="5.31568">
        <ele>233.8</ele>
        <time>2020-08-18T13:24:09Z</time>
      </trkpt>
      <trkpt lat="50.44837" lon="5.31568">
        <ele>233.8</ele>
        <time>2020-08-18T13:24:10Z</time>
      </trkpt>
      <trkpt lat="50.44837" lon="5.31568">
        <ele>233.8</ele>
        <time>2020-08-18T13:24:11Z</time>
      </trkpt>
      <trkpt lat="50.44837" lon="5.31568">
        <ele>233.8</ele>
        <time>2020-08-18T13:24:12Z</time>
      </trkpt>
      <trkpt lat="50.44837" lon="5.31568">
        <ele>233.8</ele>
        <time>2020-08-18T13:24:13Z</time>
      </trkpt>
      <trkpt lat="50.44838" lon="5.31568">
        <ele>233.7</ele>
        <time>2020-08-18T13:24:14Z</time>
      </trkpt>
      <trkpt lat="50.44838" lon="5.31568">
        <ele>233.7</ele>
        <time>2020-08-18T13:24:15Z</time>
      </trkpt>
      <trkpt lat="50.4484" lon="5.31569">
        <ele>233.7</ele>
        <time>2020-08-18T13:24:16Z</time>
      </trkpt>
      <trkpt lat="50.4484" lon="5.3157">
        <ele>233.8</ele>
        <time>2020-08-18T13:24:17Z</time>
      </trkpt>
      <trkpt lat="50.44841" lon="5.31571">
        <ele>233.8</ele>
        <time>2020-08-18T13:24:18Z</time>
      </trkpt>
      <trkpt lat="50.44841" lon="5.31571">
        <ele>233.8</ele>
        <time>2020-08-18T13:24:19Z</time>
      </trkpt>
      <trkpt lat="50.44841" lon="5.31572">
        <ele>233.9</ele>
        <time>2020-08-18T13:24:20Z</time>
      </trkpt>
      <trkpt lat="50.44841" lon="5.31572">
        <ele>233.9</ele>
        <time>2020-08-18T13:24:21Z</time>
      </trkpt>
      <trkpt lat="50.44841" lon="5.31573">
        <ele>234</ele>
        <time>2020-08-18T13:24:22Z</time>
      </trkpt>
      <trkpt lat="50.44841" lon="5.31573">
        <ele>234</ele>
        <time>2020-08-18T13:24:23Z</time>
      </trkpt>
      <trkpt lat="50.44841" lon="5.31574">
        <ele>234.1</ele>
        <time>2020-08-18T13:24:24Z</time>
      </trkpt>
      <trkpt lat="50.44841" lon="5.31574">
        <ele>234.1</ele>
        <time>2020-08-18T13:24:25Z</time>
      </trkpt>
      <trkpt lat="50.44841" lon="5.31575">
        <ele>234.2</ele>
        <time>2020-08-18T13:24:26Z</time>
      </trkpt>
      <trkpt lat="50.44842" lon="5.31576">
        <ele>234.2</ele>
        <time>2020-08-18T13:24:27Z</time>
      </trkpt>
      <trkpt lat="50.44843" lon="5.31576">
        <ele>234.1</ele>
        <time>2020-08-18T13:24:28Z</time>
      </trkpt>
      <trkpt lat="50.44844" lon="5.31577">
        <ele>234.1</ele>
        <time>2020-08-18T13:24:29Z</time>
      </trkpt>
      <trkpt lat="50.44845" lon="5.31578">
        <ele>234</ele>
        <time>2020-08-18T13:24:30Z</time>
      </trkpt>
      <trkpt lat="50.44846" lon="5.31579">
        <ele>233.9</ele>
        <time>2020-08-18T13:24:31Z</time>
      </trkpt>
      <trkpt lat="50.44847" lon="5.3158">
        <ele>233.9</ele>
        <time>2020-08-18T13:24:32Z</time>
      </trkpt>
      <trkpt lat="50.44848" lon="5.31582">
        <ele>233.8</ele>
        <time>2020-08-18T13:24:33Z</time>
      </trkpt>
      <trkpt lat="50.44849" lon="5.31583">
        <ele>233.7</ele>
        <time>2020-08-18T13:24:34Z</time>
      </trkpt>
      <trkpt lat="50.44849" lon="5.31585">
        <ele>234.7</ele>
        <time>2020-08-18T13:24:35Z</time>
      </trkpt>
      <trkpt lat="50.4485" lon="5.31587">
        <ele>234.6</ele>
        <time>2020-08-18T13:24:36Z</time>
      </trkpt>
      <trkpt lat="50.4485" lon="5.31588">
        <ele>234.6</ele>
        <time>2020-08-18T13:24:37Z</time>
      </trkpt>
      <trkpt lat="50.4485" lon="5.31589">
        <ele>234.6</ele>
        <time>2020-08-18T13:24:38Z</time>
      </trkpt>
      <trkpt lat="50.44851" lon="5.31591">
        <ele>234.5</ele>
        <time>2020-08-18T13:24:39Z</time>
      </trkpt>
      <trkpt lat="50.44851" lon="5.31593">
        <ele>234.4</ele>
        <time>2020-08-18T13:24:40Z</time>
      </trkpt>
      <trkpt lat="50.44851" lon="5.31594">
        <ele>234.4</ele>
        <time>2020-08-18T13:24:41Z</time>
      </trkpt>
      <trkpt lat="50.44851" lon="5.31596">
        <ele>234.4</ele>
        <time>2020-08-18T13:24:42Z</time>
      </trkpt>
      <trkpt lat="50.44851" lon="5.31598">
        <ele>234.4</ele>
        <time>2020-08-18T13:24:43Z</time>
      </trkpt>
      <trkpt lat="50.44851" lon="5.316">
        <ele>234.3</ele>
        <time>2020-08-18T13:24:44Z</time>
      </trkpt>
      <trkpt lat="50.44851" lon="5.31602">
        <ele>234.3</ele>
        <time>2020-08-18T13:24:45Z</time>
      </trkpt>
      <trkpt lat="50.44851" lon="5.31604">
        <ele>234.3</ele>
        <time>2020-08-18T13:24:46Z</time>
      </trkpt>
      <trkpt lat="50.44851" lon="5.31605">
        <ele>234.3</ele>
        <time>2020-08-18T13:24:47Z</time>
      </trkpt>
      <trkpt lat="50.44851" lon="5.31607">
        <ele>234.2</ele>
        <time>2020-08-18T13:24:48Z</time>
      </trkpt>
      <trkpt lat="50.44851" lon="5.31608">
        <ele>234.2</ele>
        <time>2020-08-18T13:24:48Z</time>
      </trkpt>
      <trkpt lat="50.44851" lon="5.31608">
        <ele>234.2</ele>
        <time>2020-08-18T13:24:49Z</time>
      </trkpt>
      <trkpt lat="50.44852" lon="5.31609">
        <ele>234.2</ele>
        <time>2020-08-18T13:24:50Z</time>
      </trkpt>
      <trkpt lat="50.44852" lon="5.3161">
        <ele>234.2</ele>
        <time>2020-08-18T13:24:51Z</time>
      </trkpt>
      <trkpt lat="50.44852" lon="5.3161">
        <ele>234.2</ele>
        <time>2020-08-18T13:24:52Z</time>
      </trkpt>
      <trkpt lat="50.44853" lon="5.31611">
        <ele>234.2</ele>
        <time>2020-08-18T13:24:53Z</time>
      </trkpt>
      <trkpt lat="50.44853" lon="5.31612">
        <ele>234.2</ele>
        <time>2020-08-18T13:24:54Z</time>
      </trkpt>
      <trkpt lat="50.44853" lon="5.31613">
        <ele>234.2</ele>
        <time>2020-08-18T13:24:55Z</time>
      </trkpt>
      <trkpt lat="50.44854" lon="5.31614">
        <ele>234.1</ele>
        <time>2020-08-18T13:24:56Z</time>
      </trkpt>
      <trkpt lat="50.44854" lon="5.31615">
        <ele>234.1</ele>
        <time>2020-08-18T13:24:57Z</time>
      </trkpt>
      <trkpt lat="50.44855" lon="5.31616">
        <ele>234.1</ele>
        <time>2020-08-18T13:24:58Z</time>
      </trkpt>
      <trkpt lat="50.44855" lon="5.31617">
        <ele>234.1</ele>
        <time>2020-08-18T13:24:59Z</time>
      </trkpt>
      <trkpt lat="50.44856" lon="5.31618">
        <ele>234.1</ele>
        <time>2020-08-18T13:25:00Z</time>
      </trkpt>
      <trkpt lat="50.44857" lon="5.31619">
        <ele>234.1</ele>
        <time>2020-08-18T13:25:01Z</time>
      </trkpt>
      <trkpt lat="50.44858" lon="5.31621">
        <ele>234</ele>
        <time>2020-08-18T13:25:02Z</time>
      </trkpt>
      <trkpt lat="50.44859" lon="5.31622">
        <ele>234</ele>
        <time>2020-08-18T13:25:03Z</time>
      </trkpt>
      <trkpt lat="50.44859" lon="5.31623">
        <ele>234</ele>
        <time>2020-08-18T13:25:04Z</time>
      </trkpt>
      <trkpt lat="50.4486" lon="5.31624">
        <ele>234</ele>
        <time>2020-08-18T13:25:05Z</time>
      </trkpt>
      <trkpt lat="50.44861" lon="5.31626">
        <ele>234</ele>
        <time>2020-08-18T13:25:06Z</time>
      </trkpt>
      <trkpt lat="50.44862" lon="5.31627">
        <ele>234</ele>
        <time>2020-08-18T13:25:07Z</time>
      </trkpt>
      <trkpt lat="50.44862" lon="5.31629">
        <ele>234</ele>
        <time>2020-08-18T13:25:08Z</time>
      </trkpt>
      <trkpt lat="50.44864" lon="5.31631">
        <ele>234</ele>
        <time>2020-08-18T13:25:09Z</time>
      </trkpt>
      <trkpt lat="50.44864" lon="5.31633">
        <ele>234</ele>
        <time>2020-08-18T13:25:10Z</time>
      </trkpt>
      <trkpt lat="50.44865" lon="5.31635">
        <ele>234</ele>
        <time>2020-08-18T13:25:11Z</time>
      </trkpt>
      <trkpt lat="50.44866" lon="5.31636">
        <ele>234</ele>
        <time>2020-08-18T13:25:12Z</time>
      </trkpt>
      <trkpt lat="50.44867" lon="5.31638">
        <ele>234</ele>
        <time>2020-08-18T13:25:13Z</time>
      </trkpt>
      <trkpt lat="50.44867" lon="5.31639">
        <ele>234</ele>
        <time>2020-08-18T13:25:14Z</time>
      </trkpt>
      <trkpt lat="50.44867" lon="5.3164">
        <ele>234</ele>
        <time>2020-08-18T13:25:15Z</time>
      </trkpt>
      <trkpt lat="50.44867" lon="5.31641">
        <ele>234.1</ele>
        <time>2020-08-18T13:25:16Z</time>
      </trkpt>
      <trkpt lat="50.44867" lon="5.31642">
        <ele>234.1</ele>
        <time>2020-08-18T13:25:17Z</time>
      </trkpt>
      <trkpt lat="50.44867" lon="5.31643">
        <ele>234.1</ele>
        <time>2020-08-18T13:25:18Z</time>
      </trkpt>
      <trkpt lat="50.44867" lon="5.31645">
        <ele>234.1</ele>
        <time>2020-08-18T13:25:19Z</time>
      </trkpt>
      <trkpt lat="50.44867" lon="5.31646">
        <ele>234.1</ele>
        <time>2020-08-18T13:25:20Z</time>
      </trkpt>
      <trkpt lat="50.44867" lon="5.31648">
        <ele>234.2</ele>
        <time>2020-08-18T13:25:21Z</time>
      </trkpt>
      <trkpt lat="50.44867" lon="5.31649">
        <ele>234.2</ele>
        <time>2020-08-18T13:25:22Z</time>
      </trkpt>
      <trkpt lat="50.44868" lon="5.3165">
        <ele>234.2</ele>
        <time>2020-08-18T13:25:23Z</time>
      </trkpt>
      <trkpt lat="50.44868" lon="5.31651">
        <ele>234.2</ele>
        <time>2020-08-18T13:25:24Z</time>
      </trkpt>
      <trkpt lat="50.44867" lon="5.31651">
        <ele>234.2</ele>
        <time>2020-08-18T13:25:25Z</time>
      </trkpt>
      <trkpt lat="50.44867" lon="5.31651">
        <ele>234.2</ele>
        <time>2020-08-18T13:25:26Z</time>
      </trkpt>
      <trkpt lat="50.44867" lon="5.31651">
        <ele>234.2</ele>
        <time>2020-08-18T13:25:27Z</time>
      </trkpt>
      <trkpt lat="50.44866" lon="5.31652">
        <ele>234.3</ele>
        <time>2020-08-18T13:25:28Z</time>
      </trkpt>
      <trkpt lat="50.44866" lon="5.31652">
        <ele>234.3</ele>
        <time>2020-08-18T13:25:29Z</time>
      </trkpt>
      <trkpt lat="50.44865" lon="5.31652">
        <ele>234.3</ele>
        <time>2020-08-18T13:25:30Z</time>
      </trkpt>
      <trkpt lat="50.44865" lon="5.31653">
        <ele>234.3</ele>
        <time>2020-08-18T13:25:31Z</time>
      </trkpt>
      <trkpt lat="50.44865" lon="5.31654">
        <ele>234.4</ele>
        <time>2020-08-18T13:25:32Z</time>
      </trkpt>
      <trkpt lat="50.44866" lon="5.31655">
        <ele>234.3</ele>
        <time>2020-08-18T13:25:33Z</time>
      </trkpt>
      <trkpt lat="50.44866" lon="5.31656">
        <ele>234.4</ele>
        <time>2020-08-18T13:25:34Z</time>
      </trkpt>
      <trkpt lat="50.44867" lon="5.31657">
        <ele>234.3</ele>
        <time>2020-08-18T13:25:35Z</time>
      </trkpt>
      <trkpt lat="50.44867" lon="5.31658">
        <ele>234.3</ele>
        <time>2020-08-18T13:25:36Z</time>
      </trkpt>
      <trkpt lat="50.44868" lon="5.31659">
        <ele>234.3</ele>
        <time>2020-08-18T13:25:37Z</time>
      </trkpt>
      <trkpt lat="50.44869" lon="5.31661">
        <ele>234.3</ele>
        <time>2020-08-18T13:25:39Z</time>
      </trkpt>
      <trkpt lat="50.44869" lon="5.31661">
        <ele>234.3</ele>
        <time>2020-08-18T13:25:40Z</time>
      </trkpt>
      <trkpt lat="50.44869" lon="5.31662">
        <ele>234.3</ele>
        <time>2020-08-18T13:25:41Z</time>
      </trkpt>
      <trkpt lat="50.44869" lon="5.31663">
        <ele>234.3</ele>
        <time>2020-08-18T13:25:42Z</time>
      </trkpt>
      <trkpt lat="50.44869" lon="5.31664">
        <ele>234.3</ele>
        <time>2020-08-18T13:25:43Z</time>
      </trkpt>
      <trkpt lat="50.4487" lon="5.31665">
        <ele>234.3</ele>
        <time>2020-08-18T13:25:44Z</time>
      </trkpt>
      <trkpt lat="50.44871" lon="5.31666">
        <ele>234.2</ele>
        <time>2020-08-18T13:25:45Z</time>
      </trkpt>
      <trkpt lat="50.44871" lon="5.31667">
        <ele>235.3</ele>
        <time>2020-08-18T13:25:46Z</time>
      </trkpt>
      <trkpt lat="50.44872" lon="5.31668">
        <ele>235.3</ele>
        <time>2020-08-18T13:25:47Z</time>
      </trkpt>
      <trkpt lat="50.44872" lon="5.31668">
        <ele>235.3</ele>
        <time>2020-08-18T13:25:48Z</time>
      </trkpt>
      <trkpt lat="50.44873" lon="5.31669">
        <ele>235.2</ele>
        <time>2020-08-18T13:25:49Z</time>
      </trkpt>
      <trkpt lat="50.44873" lon="5.3167">
        <ele>235.2</ele>
        <time>2020-08-18T13:25:50Z</time>
      </trkpt>
      <trkpt lat="50.44874" lon="5.31671">
        <ele>235.2</ele>
        <time>2020-08-18T13:25:51Z</time>
      </trkpt>
      <trkpt lat="50.44874" lon="5.31672">
        <ele>235.2</ele>
        <time>2020-08-18T13:25:52Z</time>
      </trkpt>
      <trkpt lat="50.44874" lon="5.31673">
        <ele>235.2</ele>
        <time>2020-08-18T13:25:53Z</time>
      </trkpt>
      <trkpt lat="50.44875" lon="5.31673">
        <ele>235.2</ele>
        <time>2020-08-18T13:25:54Z</time>
      </trkpt>
      <trkpt lat="50.44875" lon="5.31674">
        <ele>235.2</ele>
        <time>2020-08-18T13:25:55Z</time>
      </trkpt>
      <trkpt lat="50.44876" lon="5.31675">
        <ele>235.1</ele>
        <time>2020-08-18T13:25:56Z</time>
      </trkpt>
      <trkpt lat="50.44876" lon="5.31676">
        <ele>235.1</ele>
        <time>2020-08-18T13:25:57Z</time>
      </trkpt>
      <trkpt lat="50.44877" lon="5.31677">
        <ele>235.1</ele>
        <time>2020-08-18T13:25:58Z</time>
      </trkpt>
      <trkpt lat="50.44877" lon="5.31678">
        <ele>235.1</ele>
        <time>2020-08-18T13:25:59Z</time>
      </trkpt>
      <trkpt lat="50.44877" lon="5.31678">
        <ele>235.1</ele>
        <time>2020-08-18T13:26:00Z</time>
      </trkpt>
      <trkpt lat="50.44878" lon="5.31679">
        <ele>235.1</ele>
        <time>2020-08-18T13:26:01Z</time>
      </trkpt>
      <trkpt lat="50.44878" lon="5.3168">
        <ele>235.1</ele>
        <time>2020-08-18T13:26:02Z</time>
      </trkpt>
      <trkpt lat="50.44878" lon="5.31682">
        <ele>235.1</ele>
        <time>2020-08-18T13:26:03Z</time>
      </trkpt>
      <trkpt lat="50.44878" lon="5.31683">
        <ele>235.1</ele>
        <time>2020-08-18T13:26:04Z</time>
      </trkpt>
      <trkpt lat="50.44878" lon="5.31684">
        <ele>235.1</ele>
        <time>2020-08-18T13:26:05Z</time>
      </trkpt>
      <trkpt lat="50.44878" lon="5.31685">
        <ele>235.1</ele>
        <time>2020-08-18T13:26:06Z</time>
      </trkpt>
      <trkpt lat="50.44878" lon="5.31686">
        <ele>235.1</ele>
        <time>2020-08-18T13:26:07Z</time>
      </trkpt>
      <trkpt lat="50.44878" lon="5.31686">
        <ele>235.1</ele>
        <time>2020-08-18T13:26:08Z</time>
      </trkpt>
      <trkpt lat="50.44878" lon="5.31688">
        <ele>235.1</ele>
        <time>2020-08-18T13:26:09Z</time>
      </trkpt>
      <trkpt lat="50.44879" lon="5.31689">
        <ele>235.1</ele>
        <time>2020-08-18T13:26:10Z</time>
      </trkpt>
      <trkpt lat="50.44879" lon="5.3169">
        <ele>235.1</ele>
        <time>2020-08-18T13:26:11Z</time>
      </trkpt>
      <trkpt lat="50.4488" lon="5.31692">
        <ele>235.1</ele>
        <time>2020-08-18T13:26:12Z</time>
      </trkpt>
      <trkpt lat="50.4488" lon="5.31693">
        <ele>235.1</ele>
        <time>2020-08-18T13:26:13Z</time>
      </trkpt>
      <trkpt lat="50.44881" lon="5.31694">
        <ele>235.1</ele>
        <time>2020-08-18T13:26:14Z</time>
      </trkpt>
      <trkpt lat="50.44881" lon="5.31695">
        <ele>235.1</ele>
        <time>2020-08-18T13:26:15Z</time>
      </trkpt>
      <trkpt lat="50.44882" lon="5.31697">
        <ele>235.1</ele>
        <time>2020-08-18T13:26:16Z</time>
      </trkpt>
      <trkpt lat="50.44883" lon="5.31698">
        <ele>235.1</ele>
        <time>2020-08-18T13:26:17Z</time>
      </trkpt>
      <trkpt lat="50.44883" lon="5.317">
        <ele>235.1</ele>
        <time>2020-08-18T13:26:18Z</time>
      </trkpt>
      <trkpt lat="50.44883" lon="5.31701">
        <ele>235.1</ele>
        <time>2020-08-18T13:26:19Z</time>
      </trkpt>
      <trkpt lat="50.44883" lon="5.31703">
        <ele>235.1</ele>
        <time>2020-08-18T13:26:20Z</time>
      </trkpt>
      <trkpt lat="50.44884" lon="5.31705">
        <ele>235.1</ele>
        <time>2020-08-18T13:26:21Z</time>
      </trkpt>
      <trkpt lat="50.44884" lon="5.31707">
        <ele>235.2</ele>
        <time>2020-08-18T13:26:22Z</time>
      </trkpt>
      <trkpt lat="50.44885" lon="5.31709">
        <ele>235.2</ele>
        <time>2020-08-18T13:26:23Z</time>
      </trkpt>
      <trkpt lat="50.44885" lon="5.3171">
        <ele>235.2</ele>
        <time>2020-08-18T13:26:24Z</time>
      </trkpt>
      <trkpt lat="50.44886" lon="5.31712">
        <ele>235.2</ele>
        <time>2020-08-18T13:26:25Z</time>
      </trkpt>
      <trkpt lat="50.44886" lon="5.31713">
        <ele>235.2</ele>
        <time>2020-08-18T13:26:26Z</time>
      </trkpt>
      <trkpt lat="50.44886" lon="5.31714">
        <ele>235.2</ele>
        <time>2020-08-18T13:26:27Z</time>
      </trkpt>
      <trkpt lat="50.44886" lon="5.31715">
        <ele>235.2</ele>
        <time>2020-08-18T13:26:28Z</time>
      </trkpt>
      <trkpt lat="50.44887" lon="5.31716">
        <ele>235.2</ele>
        <time>2020-08-18T13:26:29Z</time>
      </trkpt>
      <trkpt lat="50.44888" lon="5.31718">
        <ele>235.2</ele>
        <time>2020-08-18T13:26:30Z</time>
      </trkpt>
      <trkpt lat="50.44888" lon="5.3172">
        <ele>235.2</ele>
        <time>2020-08-18T13:26:31Z</time>
      </trkpt>
      <trkpt lat="50.44889" lon="5.31722">
        <ele>235.3</ele>
        <time>2020-08-18T13:26:32Z</time>
      </trkpt>
      <trkpt lat="50.4489" lon="5.31723">
        <ele>235.3</ele>
        <time>2020-08-18T13:26:33Z</time>
      </trkpt>
      <trkpt lat="50.4489" lon="5.31725">
        <ele>235.3</ele>
        <time>2020-08-18T13:26:34Z</time>
      </trkpt>
      <trkpt lat="50.44891" lon="5.31726">
        <ele>235.3</ele>
        <time>2020-08-18T13:26:35Z</time>
      </trkpt>
      <trkpt lat="50.44891" lon="5.31728">
        <ele>235.3</ele>
        <time>2020-08-18T13:26:36Z</time>
      </trkpt>
      <trkpt lat="50.44892" lon="5.31729">
        <ele>235.3</ele>
        <time>2020-08-18T13:26:37Z</time>
      </trkpt>
      <trkpt lat="50.44893" lon="5.3173">
        <ele>235.3</ele>
        <time>2020-08-18T13:26:38Z</time>
      </trkpt>
      <trkpt lat="50.44893" lon="5.31732">
        <ele>235.4</ele>
        <time>2020-08-18T13:26:39Z</time>
      </trkpt>
      <trkpt lat="50.44894" lon="5.31734">
        <ele>235.4</ele>
        <time>2020-08-18T13:26:40Z</time>
      </trkpt>
      <trkpt lat="50.44894" lon="5.31735">
        <ele>235.4</ele>
        <time>2020-08-18T13:26:41Z</time>
      </trkpt>
      <trkpt lat="50.44895" lon="5.31736">
        <ele>235.4</ele>
        <time>2020-08-18T13:26:42Z</time>
      </trkpt>
      <trkpt lat="50.44895" lon="5.31738">
        <ele>235.4</ele>
        <time>2020-08-18T13:26:43Z</time>
      </trkpt>
      <trkpt lat="50.44895" lon="5.3174">
        <ele>235.4</ele>
        <time>2020-08-18T13:26:44Z</time>
      </trkpt>
      <trkpt lat="50.44895" lon="5.31742">
        <ele>235.5</ele>
        <time>2020-08-18T13:26:45Z</time>
      </trkpt>
      <trkpt lat="50.44896" lon="5.31743">
        <ele>235.5</ele>
        <time>2020-08-18T13:26:46Z</time>
      </trkpt>
      <trkpt lat="50.44896" lon="5.31745">
        <ele>235.5</ele>
        <time>2020-08-18T13:26:47Z</time>
      </trkpt>
      <trkpt lat="50.44896" lon="5.31747">
        <ele>235.5</ele>
        <time>2020-08-18T13:26:48Z</time>
      </trkpt>
      <trkpt lat="50.44896" lon="5.31749">
        <ele>235.5</ele>
        <time>2020-08-18T13:26:49Z</time>
      </trkpt>
      <trkpt lat="50.44896" lon="5.3175">
        <ele>235.5</ele>
        <time>2020-08-18T13:26:50Z</time>
      </trkpt>
      <trkpt lat="50.44896" lon="5.31752">
        <ele>236.1</ele>
        <time>2020-08-18T13:26:51Z</time>
      </trkpt>
      <trkpt lat="50.44896" lon="5.31753">
        <ele>236.1</ele>
        <time>2020-08-18T13:26:52Z</time>
      </trkpt>
      <trkpt lat="50.44896" lon="5.31755">
        <ele>236.1</ele>
        <time>2020-08-18T13:26:53Z</time>
      </trkpt>
      <trkpt lat="50.44897" lon="5.31756">
        <ele>236.1</ele>
        <time>2020-08-18T13:26:54Z</time>
      </trkpt>
      <trkpt lat="50.44898" lon="5.31757">
        <ele>236.1</ele>
        <time>2020-08-18T13:26:55Z</time>
      </trkpt>
      <trkpt lat="50.44899" lon="5.31757">
        <ele>236.1</ele>
        <time>2020-08-18T13:26:56Z</time>
      </trkpt>
      <trkpt lat="50.449" lon="5.31758">
        <ele>236.1</ele>
        <time>2020-08-18T13:26:57Z</time>
      </trkpt>
      <trkpt lat="50.44901" lon="5.31759">
        <ele>236.1</ele>
        <time>2020-08-18T13:26:58Z</time>
      </trkpt>
      <trkpt lat="50.44901" lon="5.3176">
        <ele>236.1</ele>
        <time>2020-08-18T13:26:59Z</time>
      </trkpt>
      <trkpt lat="50.44902" lon="5.31762">
        <ele>236.1</ele>
        <time>2020-08-18T13:27:00Z</time>
      </trkpt>
      <trkpt lat="50.44902" lon="5.31763">
        <ele>236.1</ele>
        <time>2020-08-18T13:27:01Z</time>
      </trkpt>
      <trkpt lat="50.44902" lon="5.31765">
        <ele>236.1</ele>
        <time>2020-08-18T13:27:02Z</time>
      </trkpt>
      <trkpt lat="50.44903" lon="5.31766">
        <ele>236.1</ele>
        <time>2020-08-18T13:27:03Z</time>
      </trkpt>
      <trkpt lat="50.44904" lon="5.31768">
        <ele>236.1</ele>
        <time>2020-08-18T13:27:04Z</time>
      </trkpt>
      <trkpt lat="50.44904" lon="5.3177">
        <ele>236.2</ele>
        <time>2020-08-18T13:27:05Z</time>
      </trkpt>
      <trkpt lat="50.44904" lon="5.31772">
        <ele>236.2</ele>
        <time>2020-08-18T13:27:06Z</time>
      </trkpt>
      <trkpt lat="50.44905" lon="5.31774">
        <ele>236.2</ele>
        <time>2020-08-18T13:27:07Z</time>
      </trkpt>
      <trkpt lat="50.44906" lon="5.31775">
        <ele>236.2</ele>
        <time>2020-08-18T13:27:08Z</time>
      </trkpt>
      <trkpt lat="50.44906" lon="5.31777">
        <ele>236.2</ele>
        <time>2020-08-18T13:27:09Z</time>
      </trkpt>
      <trkpt lat="50.44906" lon="5.31778">
        <ele>236.2</ele>
        <time>2020-08-18T13:27:10Z</time>
      </trkpt>
      <trkpt lat="50.44907" lon="5.31779">
        <ele>236.2</ele>
        <time>2020-08-18T13:27:11Z</time>
      </trkpt>
      <trkpt lat="50.44907" lon="5.31781">
        <ele>236.2</ele>
        <time>2020-08-18T13:27:12Z</time>
      </trkpt>
      <trkpt lat="50.44907" lon="5.31782">
        <ele>236.2</ele>
        <time>2020-08-18T13:27:13Z</time>
      </trkpt>
      <trkpt lat="50.44907" lon="5.31784">
        <ele>236.3</ele>
        <time>2020-08-18T13:27:14Z</time>
      </trkpt>
      <trkpt lat="50.44907" lon="5.31785">
        <ele>236.3</ele>
        <time>2020-08-18T13:27:15Z</time>
      </trkpt>
      <trkpt lat="50.44907" lon="5.31787">
        <ele>236.3</ele>
        <time>2020-08-18T13:27:16Z</time>
      </trkpt>
      <trkpt lat="50.44907" lon="5.31788">
        <ele>236.3</ele>
        <time>2020-08-18T13:27:17Z</time>
      </trkpt>
      <trkpt lat="50.44907" lon="5.31789">
        <ele>236.3</ele>
        <time>2020-08-18T13:27:18Z</time>
      </trkpt>
      <trkpt lat="50.44907" lon="5.3179">
        <ele>236.3</ele>
        <time>2020-08-18T13:27:19Z</time>
      </trkpt>
      <trkpt lat="50.44907" lon="5.31792">
        <ele>236.3</ele>
        <time>2020-08-18T13:27:20Z</time>
      </trkpt>
      <trkpt lat="50.44908" lon="5.31793">
        <ele>236.3</ele>
        <time>2020-08-18T13:27:21Z</time>
      </trkpt>
      <trkpt lat="50.44908" lon="5.31794">
        <ele>236.4</ele>
        <time>2020-08-18T13:27:22Z</time>
      </trkpt>
      <trkpt lat="50.44909" lon="5.31796">
        <ele>236.4</ele>
        <time>2020-08-18T13:27:23Z</time>
      </trkpt>
      <trkpt lat="50.44909" lon="5.31797">
        <ele>236.4</ele>
        <time>2020-08-18T13:27:24Z</time>
      </trkpt>
      <trkpt lat="50.44909" lon="5.31798">
        <ele>236.4</ele>
        <time>2020-08-18T13:27:25Z</time>
      </trkpt>
      <trkpt lat="50.44909" lon="5.31799">
        <ele>236.4</ele>
        <time>2020-08-18T13:27:26Z</time>
      </trkpt>
      <trkpt lat="50.44909" lon="5.318">
        <ele>236.4</ele>
        <time>2020-08-18T13:27:27Z</time>
      </trkpt>
      <trkpt lat="50.4491" lon="5.31801">
        <ele>236.4</ele>
        <time>2020-08-18T13:27:28Z</time>
      </trkpt>
      <trkpt lat="50.4491" lon="5.31803">
        <ele>236.5</ele>
        <time>2020-08-18T13:27:29Z</time>
      </trkpt>
      <trkpt lat="50.4491" lon="5.31804">
        <ele>236.5</ele>
        <time>2020-08-18T13:27:30Z</time>
      </trkpt>
      <trkpt lat="50.4491" lon="5.31806">
        <ele>236.5</ele>
        <time>2020-08-18T13:27:31Z</time>
      </trkpt>
      <trkpt lat="50.4491" lon="5.31807">
        <ele>236.5</ele>
        <time>2020-08-18T13:27:32Z</time>
      </trkpt>
      <trkpt lat="50.4491" lon="5.31809">
        <ele>236.5</ele>
        <time>2020-08-18T13:27:33Z</time>
      </trkpt>
      <trkpt lat="50.44911" lon="5.3181">
        <ele>236.5</ele>
        <time>2020-08-18T13:27:34Z</time>
      </trkpt>
      <trkpt lat="50.44911" lon="5.31811">
        <ele>236.6</ele>
        <time>2020-08-18T13:27:35Z</time>
      </trkpt>
      <trkpt lat="50.44911" lon="5.31812">
        <ele>236.6</ele>
        <time>2020-08-18T13:27:36Z</time>
      </trkpt>
      <trkpt lat="50.44911" lon="5.31814">
        <ele>236.6</ele>
        <time>2020-08-18T13:27:37Z</time>
      </trkpt>
      <trkpt lat="50.44912" lon="5.31815">
        <ele>236.6</ele>
        <time>2020-08-18T13:27:38Z</time>
      </trkpt>
      <trkpt lat="50.44912" lon="5.31816">
        <ele>236.6</ele>
        <time>2020-08-18T13:27:39Z</time>
      </trkpt>
      <trkpt lat="50.44912" lon="5.31817">
        <ele>236.6</ele>
        <time>2020-08-18T13:27:40Z</time>
      </trkpt>
      <trkpt lat="50.44912" lon="5.31819">
        <ele>236.7</ele>
        <time>2020-08-18T13:27:41Z</time>
      </trkpt>
      <trkpt lat="50.44913" lon="5.3182">
        <ele>236.7</ele>
        <time>2020-08-18T13:27:42Z</time>
      </trkpt>
      <trkpt lat="50.44913" lon="5.31821">
        <ele>236.7</ele>
        <time>2020-08-18T13:27:43Z</time>
      </trkpt>
      <trkpt lat="50.44913" lon="5.31822">
        <ele>236.7</ele>
        <time>2020-08-18T13:27:44Z</time>
      </trkpt>
      <trkpt lat="50.44913" lon="5.31824">
        <ele>236.8</ele>
        <time>2020-08-18T13:27:45Z</time>
      </trkpt>
      <trkpt lat="50.44914" lon="5.31825">
        <ele>236.8</ele>
        <time>2020-08-18T13:27:46Z</time>
      </trkpt>
      <trkpt lat="50.44914" lon="5.31826">
        <ele>236.8</ele>
        <time>2020-08-18T13:27:47Z</time>
      </trkpt>
      <trkpt lat="50.44914" lon="5.31827">
        <ele>236.8</ele>
        <time>2020-08-18T13:27:48Z</time>
      </trkpt>
      <trkpt lat="50.44914" lon="5.31828">
        <ele>236.8</ele>
        <time>2020-08-18T13:27:49Z</time>
      </trkpt>
      <trkpt lat="50.44915" lon="5.31829">
        <ele>236.9</ele>
        <time>2020-08-18T13:27:50Z</time>
      </trkpt>
      <trkpt lat="50.44915" lon="5.3183">
        <ele>236.9</ele>
        <time>2020-08-18T13:27:51Z</time>
      </trkpt>
      <trkpt lat="50.44915" lon="5.31831">
        <ele>236.9</ele>
        <time>2020-08-18T13:27:52Z</time>
      </trkpt>
      <trkpt lat="50.44916" lon="5.31833">
        <ele>237</ele>
        <time>2020-08-18T13:27:53Z</time>
      </trkpt>
      <trkpt lat="50.44916" lon="5.31834">
        <ele>237</ele>
        <time>2020-08-18T13:27:54Z</time>
      </trkpt>
      <trkpt lat="50.44917" lon="5.31836">
        <ele>237.1</ele>
        <time>2020-08-18T13:27:55Z</time>
      </trkpt>
      <trkpt lat="50.44917" lon="5.31837">
        <ele>237.2</ele>
        <time>2020-08-18T13:27:56Z</time>
      </trkpt>
      <trkpt lat="50.44917" lon="5.31839">
        <ele>237.3</ele>
        <time>2020-08-18T13:27:57Z</time>
      </trkpt>
      <trkpt lat="50.44918" lon="5.3184">
        <ele>237.3</ele>
        <time>2020-08-18T13:27:58Z</time>
      </trkpt>
      <trkpt lat="50.44918" lon="5.31842">
        <ele>237.4</ele>
        <time>2020-08-18T13:27:59Z</time>
      </trkpt>
      <trkpt lat="50.44918" lon="5.31843">
        <ele>237.4</ele>
        <time>2020-08-18T13:28:00Z</time>
      </trkpt>
      <trkpt lat="50.44918" lon="5.31844">
        <ele>237.5</ele>
        <time>2020-08-18T13:28:01Z</time>
      </trkpt>
      <trkpt lat="50.44918" lon="5.31845">
        <ele>237.5</ele>
        <time>2020-08-18T13:28:02Z</time>
      </trkpt>
      <trkpt lat="50.44918" lon="5.31847">
        <ele>237.6</ele>
        <time>2020-08-18T13:28:03Z</time>
      </trkpt>
      <trkpt lat="50.44919" lon="5.31848">
        <ele>237.6</ele>
        <time>2020-08-18T13:28:04Z</time>
      </trkpt>
      <trkpt lat="50.44919" lon="5.3185">
        <ele>237.7</ele>
        <time>2020-08-18T13:28:05Z</time>
      </trkpt>
      <trkpt lat="50.44919" lon="5.31851">
        <ele>237.7</ele>
        <time>2020-08-18T13:28:06Z</time>
      </trkpt>
      <trkpt lat="50.4492" lon="5.31852">
        <ele>237.7</ele>
        <time>2020-08-18T13:28:07Z</time>
      </trkpt>
      <trkpt lat="50.4492" lon="5.31853">
        <ele>237.8</ele>
        <time>2020-08-18T13:28:08Z</time>
      </trkpt>
      <trkpt lat="50.4492" lon="5.31854">
        <ele>237.8</ele>
        <time>2020-08-18T13:28:09Z</time>
      </trkpt>
      <trkpt lat="50.44921" lon="5.31855">
        <ele>237.8</ele>
        <time>2020-08-18T13:28:10Z</time>
      </trkpt>
      <trkpt lat="50.44922" lon="5.31857">
        <ele>237.9</ele>
        <time>2020-08-18T13:28:11Z</time>
      </trkpt>
      <trkpt lat="50.44922" lon="5.31858">
        <ele>237.9</ele>
        <time>2020-08-18T13:28:12Z</time>
      </trkpt>
      <trkpt lat="50.44922" lon="5.3186">
        <ele>238</ele>
        <time>2020-08-18T13:28:13Z</time>
      </trkpt>
      <trkpt lat="50.44922" lon="5.31861">
        <ele>238</ele>
        <time>2020-08-18T13:28:14Z</time>
      </trkpt>
      <trkpt lat="50.44922" lon="5.31863">
        <ele>238</ele>
        <time>2020-08-18T13:28:15Z</time>
      </trkpt>
      <trkpt lat="50.44922" lon="5.31865">
        <ele>238.1</ele>
        <time>2020-08-18T13:28:16Z</time>
      </trkpt>
      <trkpt lat="50.44922" lon="5.31866">
        <ele>238.1</ele>
        <time>2020-08-18T13:28:17Z</time>
      </trkpt>
      <trkpt lat="50.44922" lon="5.31868">
        <ele>238.2</ele>
        <time>2020-08-18T13:28:18Z</time>
      </trkpt>
      <trkpt lat="50.44922" lon="5.31869">
        <ele>238.2</ele>
        <time>2020-08-18T13:28:19Z</time>
      </trkpt>
      <trkpt lat="50.44923" lon="5.3187">
        <ele>238.2</ele>
        <time>2020-08-18T13:28:20Z</time>
      </trkpt>
      <trkpt lat="50.44923" lon="5.31872">
        <ele>238.3</ele>
        <time>2020-08-18T13:28:21Z</time>
      </trkpt>
      <trkpt lat="50.44924" lon="5.31873">
        <ele>238.3</ele>
        <time>2020-08-18T13:28:22Z</time>
      </trkpt>
      <trkpt lat="50.44925" lon="5.31874">
        <ele>238.3</ele>
        <time>2020-08-18T13:28:23Z</time>
      </trkpt>
      <trkpt lat="50.44925" lon="5.31875">
        <ele>238.3</ele>
        <time>2020-08-18T13:28:24Z</time>
      </trkpt>
      <trkpt lat="50.44925" lon="5.31876">
        <ele>238.4</ele>
        <time>2020-08-18T13:28:25Z</time>
      </trkpt>
      <trkpt lat="50.44926" lon="5.31878">
        <ele>238.4</ele>
        <time>2020-08-18T13:28:26Z</time>
      </trkpt>
      <trkpt lat="50.44927" lon="5.31879">
        <ele>238.4</ele>
        <time>2020-08-18T13:28:27Z</time>
      </trkpt>
      <trkpt lat="50.44927" lon="5.3188">
        <ele>238.5</ele>
        <time>2020-08-18T13:28:28Z</time>
      </trkpt>
      <trkpt lat="50.44928" lon="5.31881">
        <ele>238.5</ele>
        <time>2020-08-18T13:28:29Z</time>
      </trkpt>
      <trkpt lat="50.44928" lon="5.31882">
        <ele>238.5</ele>
        <time>2020-08-18T13:28:30Z</time>
      </trkpt>
      <trkpt lat="50.44928" lon="5.31883">
        <ele>238.5</ele>
        <time>2020-08-18T13:28:31Z</time>
      </trkpt>
      <trkpt lat="50.4493" lon="5.31884">
        <ele>238.5</ele>
        <time>2020-08-18T13:28:32Z</time>
      </trkpt>
      <trkpt lat="50.4493" lon="5.31885">
        <ele>238.6</ele>
        <time>2020-08-18T13:28:33Z</time>
      </trkpt>
      <trkpt lat="50.4493" lon="5.31886">
        <ele>238.6</ele>
        <time>2020-08-18T13:28:34Z</time>
      </trkpt>
      <trkpt lat="50.44931" lon="5.31887">
        <ele>238.6</ele>
        <time>2020-08-18T13:28:35Z</time>
      </trkpt>
      <trkpt lat="50.44931" lon="5.31888">
        <ele>238.6</ele>
        <time>2020-08-18T13:28:36Z</time>
      </trkpt>
      <trkpt lat="50.44931" lon="5.31889">
        <ele>238.7</ele>
        <time>2020-08-18T13:28:37Z</time>
      </trkpt>
      <trkpt lat="50.44931" lon="5.31891">
        <ele>238.7</ele>
        <time>2020-08-18T13:28:38Z</time>
      </trkpt>
      <trkpt lat="50.44931" lon="5.31891">
        <ele>238.7</ele>
        <time>2020-08-18T13:28:39Z</time>
      </trkpt>
      <trkpt lat="50.44931" lon="5.31892">
        <ele>238.7</ele>
        <time>2020-08-18T13:28:40Z</time>
      </trkpt>
      <trkpt lat="50.44931" lon="5.31893">
        <ele>238.8</ele>
        <time>2020-08-18T13:28:41Z</time>
      </trkpt>
      <trkpt lat="50.44931" lon="5.31895">
        <ele>238.8</ele>
        <time>2020-08-18T13:28:42Z</time>
      </trkpt>
      <trkpt lat="50.44932" lon="5.31896">
        <ele>238.8</ele>
        <time>2020-08-18T13:28:43Z</time>
      </trkpt>
      <trkpt lat="50.44933" lon="5.31897">
        <ele>238.8</ele>
        <time>2020-08-18T13:28:44Z</time>
      </trkpt>
      <trkpt lat="50.44933" lon="5.31899">
        <ele>238.9</ele>
        <time>2020-08-18T13:28:45Z</time>
      </trkpt>
      <trkpt lat="50.44934" lon="5.319">
        <ele>238.9</ele>
        <time>2020-08-18T13:28:46Z</time>
      </trkpt>
      <trkpt lat="50.44934" lon="5.31901">
        <ele>238.9</ele>
        <time>2020-08-18T13:28:47Z</time>
      </trkpt>
      <trkpt lat="50.44935" lon="5.31903">
        <ele>238.9</ele>
        <time>2020-08-18T13:28:48Z</time>
      </trkpt>
      <trkpt lat="50.44935" lon="5.31904">
        <ele>239</ele>
        <time>2020-08-18T13:28:49Z</time>
      </trkpt>
      <trkpt lat="50.44936" lon="5.31905">
        <ele>239</ele>
        <time>2020-08-18T13:28:50Z</time>
      </trkpt>
      <trkpt lat="50.44936" lon="5.31907">
        <ele>239</ele>
        <time>2020-08-18T13:28:51Z</time>
      </trkpt>
      <trkpt lat="50.44936" lon="5.31908">
        <ele>239</ele>
        <time>2020-08-18T13:28:52Z</time>
      </trkpt>
      <trkpt lat="50.44937" lon="5.31909">
        <ele>239</ele>
        <time>2020-08-18T13:28:53Z</time>
      </trkpt>
      <trkpt lat="50.44937" lon="5.3191">
        <ele>239</ele>
        <time>2020-08-18T13:28:54Z</time>
      </trkpt>
      <trkpt lat="50.44937" lon="5.31911">
        <ele>239</ele>
        <time>2020-08-18T13:28:55Z</time>
      </trkpt>
      <trkpt lat="50.44937" lon="5.31912">
        <ele>239</ele>
        <time>2020-08-18T13:28:56Z</time>
      </trkpt>
      <trkpt lat="50.44938" lon="5.31913">
        <ele>239</ele>
        <time>2020-08-18T13:28:57Z</time>
      </trkpt>
      <trkpt lat="50.44938" lon="5.31915">
        <ele>239</ele>
        <time>2020-08-18T13:28:58Z</time>
      </trkpt>
      <trkpt lat="50.44938" lon="5.31916">
        <ele>239</ele>
        <time>2020-08-18T13:28:59Z</time>
      </trkpt>
      <trkpt lat="50.44938" lon="5.31917">
        <ele>239.8</ele>
        <time>2020-08-18T13:29:00Z</time>
      </trkpt>
      <trkpt lat="50.44939" lon="5.31919">
        <ele>239.8</ele>
        <time>2020-08-18T13:29:01Z</time>
      </trkpt>
      <trkpt lat="50.44939" lon="5.3192">
        <ele>239.8</ele>
        <time>2020-08-18T13:29:02Z</time>
      </trkpt>
      <trkpt lat="50.44939" lon="5.31921">
        <ele>239.8</ele>
        <time>2020-08-18T13:29:03Z</time>
      </trkpt>
      <trkpt lat="50.44939" lon="5.31923">
        <ele>239.8</ele>
        <time>2020-08-18T13:29:03Z</time>
      </trkpt>
      <trkpt lat="50.4494" lon="5.31924">
        <ele>239.8</ele>
        <time>2020-08-18T13:29:04Z</time>
      </trkpt>
      <trkpt lat="50.4494" lon="5.31925">
        <ele>239.8</ele>
        <time>2020-08-18T13:29:05Z</time>
      </trkpt>
      <trkpt lat="50.4494" lon="5.31926">
        <ele>239.8</ele>
        <time>2020-08-18T13:29:06Z</time>
      </trkpt>
      <trkpt lat="50.4494" lon="5.31927">
        <ele>239.8</ele>
        <time>2020-08-18T13:29:07Z</time>
      </trkpt>
      <trkpt lat="50.4494" lon="5.31928">
        <ele>239.8</ele>
        <time>2020-08-18T13:29:08Z</time>
      </trkpt>
      <trkpt lat="50.4494" lon="5.31929">
        <ele>239.8</ele>
        <time>2020-08-18T13:29:09Z</time>
      </trkpt>
      <trkpt lat="50.4494" lon="5.31929">
        <ele>239.8</ele>
        <time>2020-08-18T13:29:10Z</time>
      </trkpt>
      <trkpt lat="50.4494" lon="5.3193">
        <ele>239.8</ele>
        <time>2020-08-18T13:29:11Z</time>
      </trkpt>
      <trkpt lat="50.44941" lon="5.31931">
        <ele>239.8</ele>
        <time>2020-08-18T13:29:12Z</time>
      </trkpt>
      <trkpt lat="50.44942" lon="5.31932">
        <ele>239.8</ele>
        <time>2020-08-18T13:29:13Z</time>
      </trkpt>
      <trkpt lat="50.44943" lon="5.31934">
        <ele>239.8</ele>
        <time>2020-08-18T13:29:14Z</time>
      </trkpt>
      <trkpt lat="50.44943" lon="5.31935">
        <ele>239.8</ele>
        <time>2020-08-18T13:29:15Z</time>
      </trkpt>
      <trkpt lat="50.44944" lon="5.31937">
        <ele>239.8</ele>
        <time>2020-08-18T13:29:16Z</time>
      </trkpt>
      <trkpt lat="50.44944" lon="5.31938">
        <ele>239.8</ele>
        <time>2020-08-18T13:29:17Z</time>
      </trkpt>
      <trkpt lat="50.44944" lon="5.3194">
        <ele>239.8</ele>
        <time>2020-08-18T13:29:18Z</time>
      </trkpt>
      <trkpt lat="50.44945" lon="5.31941">
        <ele>239.8</ele>
        <time>2020-08-18T13:29:19Z</time>
      </trkpt>
      <trkpt lat="50.44946" lon="5.31941">
        <ele>239.8</ele>
        <time>2020-08-18T13:29:20Z</time>
      </trkpt>
      <trkpt lat="50.44946" lon="5.31942">
        <ele>239.8</ele>
        <time>2020-08-18T13:29:21Z</time>
      </trkpt>
      <trkpt lat="50.44946" lon="5.31943">
        <ele>239.8</ele>
        <time>2020-08-18T13:29:22Z</time>
      </trkpt>
      <trkpt lat="50.44946" lon="5.31944">
        <ele>239.8</ele>
        <time>2020-08-18T13:29:23Z</time>
      </trkpt>
      <trkpt lat="50.44946" lon="5.31945">
        <ele>239.8</ele>
        <time>2020-08-18T13:29:24Z</time>
      </trkpt>
      <trkpt lat="50.44947" lon="5.31946">
        <ele>239.8</ele>
        <time>2020-08-18T13:29:25Z</time>
      </trkpt>
      <trkpt lat="50.44947" lon="5.31947">
        <ele>239.8</ele>
        <time>2020-08-18T13:29:26Z</time>
      </trkpt>
      <trkpt lat="50.44948" lon="5.31948">
        <ele>239.8</ele>
        <time>2020-08-18T13:29:27Z</time>
      </trkpt>
      <trkpt lat="50.44949" lon="5.31949">
        <ele>239.8</ele>
        <time>2020-08-18T13:29:28Z</time>
      </trkpt>
      <trkpt lat="50.44949" lon="5.31949">
        <ele>239.8</ele>
        <time>2020-08-18T13:29:29Z</time>
      </trkpt>
      <trkpt lat="50.44949" lon="5.3195">
        <ele>239.8</ele>
        <time>2020-08-18T13:29:30Z</time>
      </trkpt>
      <trkpt lat="50.44949" lon="5.31951">
        <ele>239.8</ele>
        <time>2020-08-18T13:29:31Z</time>
      </trkpt>
      <trkpt lat="50.44949" lon="5.31951">
        <ele>239.8</ele>
        <time>2020-08-18T13:29:32Z</time>
      </trkpt>
      <trkpt lat="50.4495" lon="5.31952">
        <ele>239.8</ele>
        <time>2020-08-18T13:29:33Z</time>
      </trkpt>
      <trkpt lat="50.44951" lon="5.31953">
        <ele>239.8</ele>
        <time>2020-08-18T13:29:34Z</time>
      </trkpt>
      <trkpt lat="50.44952" lon="5.31954">
        <ele>239.8</ele>
        <time>2020-08-18T13:29:35Z</time>
      </trkpt>
      <trkpt lat="50.44952" lon="5.31955">
        <ele>239.8</ele>
        <time>2020-08-18T13:29:36Z</time>
      </trkpt>
      <trkpt lat="50.44952" lon="5.31956">
        <ele>239.8</ele>
        <time>2020-08-18T13:29:37Z</time>
      </trkpt>
      <trkpt lat="50.44952" lon="5.31957">
        <ele>239.8</ele>
        <time>2020-08-18T13:29:38Z</time>
      </trkpt>
      <trkpt lat="50.44953" lon="5.31958">
        <ele>239.8</ele>
        <time>2020-08-18T13:29:39Z</time>
      </trkpt>
      <trkpt lat="50.44954" lon="5.31959">
        <ele>239.8</ele>
        <time>2020-08-18T13:29:40Z</time>
      </trkpt>
      <trkpt lat="50.44955" lon="5.3196">
        <ele>239.8</ele>
        <time>2020-08-18T13:29:41Z</time>
      </trkpt>
      <trkpt lat="50.44955" lon="5.31961">
        <ele>239.8</ele>
        <time>2020-08-18T13:29:42Z</time>
      </trkpt>
      <trkpt lat="50.44956" lon="5.31962">
        <ele>239.8</ele>
        <time>2020-08-18T13:29:43Z</time>
      </trkpt>
      <trkpt lat="50.44957" lon="5.31964">
        <ele>239.8</ele>
        <time>2020-08-18T13:29:44Z</time>
      </trkpt>
      <trkpt lat="50.44957" lon="5.31965">
        <ele>239.8</ele>
        <time>2020-08-18T13:29:45Z</time>
      </trkpt>
      <trkpt lat="50.44958" lon="5.31966">
        <ele>239.8</ele>
        <time>2020-08-18T13:29:46Z</time>
      </trkpt>
      <trkpt lat="50.44958" lon="5.31968">
        <ele>239.8</ele>
        <time>2020-08-18T13:29:47Z</time>
      </trkpt>
      <trkpt lat="50.44959" lon="5.31969">
        <ele>239.8</ele>
        <time>2020-08-18T13:29:48Z</time>
      </trkpt>
      <trkpt lat="50.4496" lon="5.31971">
        <ele>239.8</ele>
        <time>2020-08-18T13:29:49Z</time>
      </trkpt>
      <trkpt lat="50.44961" lon="5.31972">
        <ele>239.8</ele>
        <time>2020-08-18T13:29:50Z</time>
      </trkpt>
      <trkpt lat="50.44961" lon="5.31973">
        <ele>239.8</ele>
        <time>2020-08-18T13:29:51Z</time>
      </trkpt>
      <trkpt lat="50.44962" lon="5.31974">
        <ele>239.8</ele>
        <time>2020-08-18T13:29:52Z</time>
      </trkpt>
      <trkpt lat="50.44962" lon="5.31975">
        <ele>239.8</ele>
        <time>2020-08-18T13:29:53Z</time>
      </trkpt>
      <trkpt lat="50.44963" lon="5.31976">
        <ele>239.8</ele>
        <time>2020-08-18T13:29:54Z</time>
      </trkpt>
      <trkpt lat="50.44964" lon="5.31977">
        <ele>239.8</ele>
        <time>2020-08-18T13:29:55Z</time>
      </trkpt>
      <trkpt lat="50.44964" lon="5.31979">
        <ele>239.8</ele>
        <time>2020-08-18T13:29:56Z</time>
      </trkpt>
      <trkpt lat="50.44964" lon="5.3198">
        <ele>239.8</ele>
        <time>2020-08-18T13:29:57Z</time>
      </trkpt>
      <trkpt lat="50.44964" lon="5.31982">
        <ele>239.8</ele>
        <time>2020-08-18T13:29:58Z</time>
      </trkpt>
      <trkpt lat="50.44965" lon="5.31983">
        <ele>239.8</ele>
        <time>2020-08-18T13:29:59Z</time>
      </trkpt>
      <trkpt lat="50.44965" lon="5.31985">
        <ele>239.8</ele>
        <time>2020-08-18T13:30:00Z</time>
      </trkpt>
      <trkpt lat="50.44965" lon="5.31987">
        <ele>239.8</ele>
        <time>2020-08-18T13:30:01Z</time>
      </trkpt>
      <trkpt lat="50.44966" lon="5.31988">
        <ele>239.8</ele>
        <time>2020-08-18T13:30:02Z</time>
      </trkpt>
      <trkpt lat="50.44966" lon="5.3199">
        <ele>239.8</ele>
        <time>2020-08-18T13:30:03Z</time>
      </trkpt>
      <trkpt lat="50.44967" lon="5.31991">
        <ele>239.8</ele>
        <time>2020-08-18T13:30:04Z</time>
      </trkpt>
      <trkpt lat="50.44967" lon="5.31992">
        <ele>239.8</ele>
        <time>2020-08-18T13:30:05Z</time>
      </trkpt>
      <trkpt lat="50.44966" lon="5.31993">
        <ele>239.8</ele>
        <time>2020-08-18T13:30:06Z</time>
      </trkpt>
      <trkpt lat="50.44965" lon="5.31994">
        <ele>239.8</ele>
        <time>2020-08-18T13:30:07Z</time>
      </trkpt>
      <trkpt lat="50.44965" lon="5.31995">
        <ele>239.8</ele>
        <time>2020-08-18T13:30:08Z</time>
      </trkpt>
      <trkpt lat="50.44965" lon="5.31997">
        <ele>239.8</ele>
        <time>2020-08-18T13:30:09Z</time>
      </trkpt>
      <trkpt lat="50.44964" lon="5.31998">
        <ele>239.8</ele>
        <time>2020-08-18T13:30:10Z</time>
      </trkpt>
      <trkpt lat="50.44964" lon="5.32">
        <ele>240.2</ele>
        <time>2020-08-18T13:30:11Z</time>
      </trkpt>
      <trkpt lat="50.44964" lon="5.32001">
        <ele>240.2</ele>
        <time>2020-08-18T13:30:12Z</time>
      </trkpt>
      <trkpt lat="50.44964" lon="5.32003">
        <ele>240.2</ele>
        <time>2020-08-18T13:30:13Z</time>
      </trkpt>
      <trkpt lat="50.44964" lon="5.32004">
        <ele>240.2</ele>
        <time>2020-08-18T13:30:14Z</time>
      </trkpt>
      <trkpt lat="50.44965" lon="5.32005">
        <ele>240.2</ele>
        <time>2020-08-18T13:30:15Z</time>
      </trkpt>
      <trkpt lat="50.44965" lon="5.32006">
        <ele>240.2</ele>
        <time>2020-08-18T13:30:16Z</time>
      </trkpt>
      <trkpt lat="50.44966" lon="5.32008">
        <ele>240.2</ele>
        <time>2020-08-18T13:30:17Z</time>
      </trkpt>
      <trkpt lat="50.44967" lon="5.32009">
        <ele>240.2</ele>
        <time>2020-08-18T13:30:18Z</time>
      </trkpt>
      <trkpt lat="50.44967" lon="5.3201">
        <ele>240.2</ele>
        <time>2020-08-18T13:30:19Z</time>
      </trkpt>
      <trkpt lat="50.44967" lon="5.32011">
        <ele>240.2</ele>
        <time>2020-08-18T13:30:20Z</time>
      </trkpt>
      <trkpt lat="50.44968" lon="5.32012">
        <ele>240.2</ele>
        <time>2020-08-18T13:30:21Z</time>
      </trkpt>
      <trkpt lat="50.44968" lon="5.32012">
        <ele>240.2</ele>
        <time>2020-08-18T13:30:22Z</time>
      </trkpt>
      <trkpt lat="50.44968" lon="5.32014">
        <ele>240.2</ele>
        <time>2020-08-18T13:30:23Z</time>
      </trkpt>
      <trkpt lat="50.44969" lon="5.32015">
        <ele>240.2</ele>
        <time>2020-08-18T13:30:24Z</time>
      </trkpt>
      <trkpt lat="50.4497" lon="5.32016">
        <ele>240.2</ele>
        <time>2020-08-18T13:30:25Z</time>
      </trkpt>
      <trkpt lat="50.4497" lon="5.32017">
        <ele>240.2</ele>
        <time>2020-08-18T13:30:26Z</time>
      </trkpt>
      <trkpt lat="50.4497" lon="5.32018">
        <ele>240.2</ele>
        <time>2020-08-18T13:30:27Z</time>
      </trkpt>
      <trkpt lat="50.4497" lon="5.32019">
        <ele>240.2</ele>
        <time>2020-08-18T13:30:28Z</time>
      </trkpt>
      <trkpt lat="50.44971" lon="5.3202">
        <ele>240.2</ele>
        <time>2020-08-18T13:30:29Z</time>
      </trkpt>
      <trkpt lat="50.44972" lon="5.32021">
        <ele>240.2</ele>
        <time>2020-08-18T13:30:30Z</time>
      </trkpt>
      <trkpt lat="50.44972" lon="5.32022">
        <ele>240.2</ele>
        <time>2020-08-18T13:30:31Z</time>
      </trkpt>
      <trkpt lat="50.44972" lon="5.32023">
        <ele>240.2</ele>
        <time>2020-08-18T13:30:32Z</time>
      </trkpt>
      <trkpt lat="50.44973" lon="5.32024">
        <ele>240.3</ele>
        <time>2020-08-18T13:30:33Z</time>
      </trkpt>
      <trkpt lat="50.44973" lon="5.32025">
        <ele>240.3</ele>
        <time>2020-08-18T13:30:34Z</time>
      </trkpt>
      <trkpt lat="50.44974" lon="5.32026">
        <ele>240.3</ele>
        <time>2020-08-18T13:30:35Z</time>
      </trkpt>
      <trkpt lat="50.44974" lon="5.32027">
        <ele>240.3</ele>
        <time>2020-08-18T13:30:36Z</time>
      </trkpt>
      <trkpt lat="50.44974" lon="5.32028">
        <ele>240.3</ele>
        <time>2020-08-18T13:30:37Z</time>
      </trkpt>
      <trkpt lat="50.44975" lon="5.32029">
        <ele>240.3</ele>
        <time>2020-08-18T13:30:38Z</time>
      </trkpt>
      <trkpt lat="50.44976" lon="5.32031">
        <ele>240.3</ele>
        <time>2020-08-18T13:30:40Z</time>
      </trkpt>
      <trkpt lat="50.44976" lon="5.32032">
        <ele>240.3</ele>
        <time>2020-08-18T13:30:41Z</time>
      </trkpt>
      <trkpt lat="50.44976" lon="5.32032">
        <ele>240.3</ele>
        <time>2020-08-18T13:30:42Z</time>
      </trkpt>
      <trkpt lat="50.44976" lon="5.32033">
        <ele>240.3</ele>
        <time>2020-08-18T13:30:43Z</time>
      </trkpt>
      <trkpt lat="50.44976" lon="5.32034">
        <ele>240.3</ele>
        <time>2020-08-18T13:30:44Z</time>
      </trkpt>
      <trkpt lat="50.44977" lon="5.32036">
        <ele>240.4</ele>
        <time>2020-08-18T13:30:45Z</time>
      </trkpt>
      <trkpt lat="50.44977" lon="5.32037">
        <ele>240.4</ele>
        <time>2020-08-18T13:30:46Z</time>
      </trkpt>
      <trkpt lat="50.44977" lon="5.32038">
        <ele>240.4</ele>
        <time>2020-08-18T13:30:47Z</time>
      </trkpt>
      <trkpt lat="50.44978" lon="5.32039">
        <ele>240.4</ele>
        <time>2020-08-18T13:30:48Z</time>
      </trkpt>
      <trkpt lat="50.44978" lon="5.3204">
        <ele>240.4</ele>
        <time>2020-08-18T13:30:49Z</time>
      </trkpt>
      <trkpt lat="50.44979" lon="5.32041">
        <ele>240.4</ele>
        <time>2020-08-18T13:30:50Z</time>
      </trkpt>
      <trkpt lat="50.44979" lon="5.32042">
        <ele>240.4</ele>
        <time>2020-08-18T13:30:51Z</time>
      </trkpt>
      <trkpt lat="50.4498" lon="5.32043">
        <ele>240.4</ele>
        <time>2020-08-18T13:30:52Z</time>
      </trkpt>
      <trkpt lat="50.4498" lon="5.32045">
        <ele>240.5</ele>
        <time>2020-08-18T13:30:53Z</time>
      </trkpt>
      <trkpt lat="50.44981" lon="5.32046">
        <ele>240.5</ele>
        <time>2020-08-18T13:30:54Z</time>
      </trkpt>
      <trkpt lat="50.44981" lon="5.32047">
        <ele>240.5</ele>
        <time>2020-08-18T13:30:55Z</time>
      </trkpt>
      <trkpt lat="50.44981" lon="5.32048">
        <ele>240.5</ele>
        <time>2020-08-18T13:30:56Z</time>
      </trkpt>
      <trkpt lat="50.44982" lon="5.3205">
        <ele>240.6</ele>
        <time>2020-08-18T13:30:57Z</time>
      </trkpt>
      <trkpt lat="50.44982" lon="5.32051">
        <ele>240.6</ele>
        <time>2020-08-18T13:30:58Z</time>
      </trkpt>
      <trkpt lat="50.44983" lon="5.32052">
        <ele>240.6</ele>
        <time>2020-08-18T13:30:59Z</time>
      </trkpt>
      <trkpt lat="50.44983" lon="5.32054">
        <ele>240.6</ele>
        <time>2020-08-18T13:31:00Z</time>
      </trkpt>
      <trkpt lat="50.44984" lon="5.32055">
        <ele>240.7</ele>
        <time>2020-08-18T13:31:01Z</time>
      </trkpt>
      <trkpt lat="50.44984" lon="5.32057">
        <ele>240.7</ele>
        <time>2020-08-18T13:31:02Z</time>
      </trkpt>
      <trkpt lat="50.44984" lon="5.32058">
        <ele>240.7</ele>
        <time>2020-08-18T13:31:03Z</time>
      </trkpt>
      <trkpt lat="50.44985" lon="5.32059">
        <ele>240.7</ele>
        <time>2020-08-18T13:31:04Z</time>
      </trkpt>
      <trkpt lat="50.44985" lon="5.3206">
        <ele>240.8</ele>
        <time>2020-08-18T13:31:05Z</time>
      </trkpt>
      <trkpt lat="50.44986" lon="5.32062">
        <ele>240.8</ele>
        <time>2020-08-18T13:31:06Z</time>
      </trkpt>
      <trkpt lat="50.44986" lon="5.32063">
        <ele>240.8</ele>
        <time>2020-08-18T13:31:07Z</time>
      </trkpt>
      <trkpt lat="50.44987" lon="5.32063">
        <ele>240.9</ele>
        <time>2020-08-18T13:31:08Z</time>
      </trkpt>
      <trkpt lat="50.44988" lon="5.32064">
        <ele>240.9</ele>
        <time>2020-08-18T13:31:09Z</time>
      </trkpt>
      <trkpt lat="50.44988" lon="5.32065">
        <ele>240.9</ele>
        <time>2020-08-18T13:31:10Z</time>
      </trkpt>
      <trkpt lat="50.44988" lon="5.32067">
        <ele>241</ele>
        <time>2020-08-18T13:31:12Z</time>
      </trkpt>
      <trkpt lat="50.44988" lon="5.32068">
        <ele>241</ele>
        <time>2020-08-18T13:31:13Z</time>
      </trkpt>
      <trkpt lat="50.44988" lon="5.32068">
        <ele>241</ele>
        <time>2020-08-18T13:31:14Z</time>
      </trkpt>
      <trkpt lat="50.44989" lon="5.32069">
        <ele>241</ele>
        <time>2020-08-18T13:31:15Z</time>
      </trkpt>
      <trkpt lat="50.44989" lon="5.3207">
        <ele>241.1</ele>
        <time>2020-08-18T13:31:16Z</time>
      </trkpt>
      <trkpt lat="50.44989" lon="5.3207">
        <ele>241.1</ele>
        <time>2020-08-18T13:31:17Z</time>
      </trkpt>
      <trkpt lat="50.4499" lon="5.32071">
        <ele>241.1</ele>
        <time>2020-08-18T13:31:18Z</time>
      </trkpt>
      <trkpt lat="50.44991" lon="5.32072">
        <ele>241.2</ele>
        <time>2020-08-18T13:31:19Z</time>
      </trkpt>
      <trkpt lat="50.44991" lon="5.32073">
        <ele>241.2</ele>
        <time>2020-08-18T13:31:20Z</time>
      </trkpt>
      <trkpt lat="50.44991" lon="5.32073">
        <ele>241.2</ele>
        <time>2020-08-18T13:31:21Z</time>
      </trkpt>
      <trkpt lat="50.44991" lon="5.32074">
        <ele>241.2</ele>
        <time>2020-08-18T13:31:22Z</time>
      </trkpt>
      <trkpt lat="50.44992" lon="5.32075">
        <ele>241.3</ele>
        <time>2020-08-18T13:31:23Z</time>
      </trkpt>
      <trkpt lat="50.44992" lon="5.32076">
        <ele>241.3</ele>
        <time>2020-08-18T13:31:24Z</time>
      </trkpt>
      <trkpt lat="50.44992" lon="5.32077">
        <ele>241.4</ele>
        <time>2020-08-18T13:31:25Z</time>
      </trkpt>
      <trkpt lat="50.44993" lon="5.32078">
        <ele>241.4</ele>
        <time>2020-08-18T13:31:26Z</time>
      </trkpt>
      <trkpt lat="50.44994" lon="5.32079">
        <ele>241.5</ele>
        <time>2020-08-18T13:31:27Z</time>
      </trkpt>
      <trkpt lat="50.44994" lon="5.32081">
        <ele>241.6</ele>
        <time>2020-08-18T13:31:28Z</time>
      </trkpt>
      <trkpt lat="50.44995" lon="5.32082">
        <ele>241.6</ele>
        <time>2020-08-18T13:31:29Z</time>
      </trkpt>
      <trkpt lat="50.44995" lon="5.32083">
        <ele>241.7</ele>
        <time>2020-08-18T13:31:30Z</time>
      </trkpt>
      <trkpt lat="50.44995" lon="5.32084">
        <ele>241.7</ele>
        <time>2020-08-18T13:31:31Z</time>
      </trkpt>
      <trkpt lat="50.44996" lon="5.32085">
        <ele>241.7</ele>
        <time>2020-08-18T13:31:32Z</time>
      </trkpt>
      <trkpt lat="50.44996" lon="5.32086">
        <ele>241.7</ele>
        <time>2020-08-18T13:31:33Z</time>
      </trkpt>
      <trkpt lat="50.44997" lon="5.32087">
        <ele>241.7</ele>
        <time>2020-08-18T13:31:34Z</time>
      </trkpt>
      <trkpt lat="50.44997" lon="5.32088">
        <ele>241.7</ele>
        <time>2020-08-18T13:31:35Z</time>
      </trkpt>
      <trkpt lat="50.44997" lon="5.32089">
        <ele>241.6</ele>
        <time>2020-08-18T13:31:36Z</time>
      </trkpt>
      <trkpt lat="50.44998" lon="5.32091">
        <ele>241.5</ele>
        <time>2020-08-18T13:31:37Z</time>
      </trkpt>
      <trkpt lat="50.44998" lon="5.32092">
        <ele>241.5</ele>
        <time>2020-08-18T13:31:38Z</time>
      </trkpt>
      <trkpt lat="50.44999" lon="5.32094">
        <ele>241.4</ele>
        <time>2020-08-18T13:31:39Z</time>
      </trkpt>
      <trkpt lat="50.44999" lon="5.32095">
        <ele>241.4</ele>
        <time>2020-08-18T13:31:40Z</time>
      </trkpt>
      <trkpt lat="50.45" lon="5.32096">
        <ele>242.7</ele>
        <time>2020-08-18T13:31:41Z</time>
      </trkpt>
      <trkpt lat="50.45" lon="5.32097">
        <ele>242.8</ele>
        <time>2020-08-18T13:31:42Z</time>
      </trkpt>
      <trkpt lat="50.45001" lon="5.32098">
        <ele>242.8</ele>
        <time>2020-08-18T13:31:43Z</time>
      </trkpt>
      <trkpt lat="50.45001" lon="5.32099">
        <ele>242.8</ele>
        <time>2020-08-18T13:31:44Z</time>
      </trkpt>
      <trkpt lat="50.45002" lon="5.321">
        <ele>242.9</ele>
        <time>2020-08-18T13:31:45Z</time>
      </trkpt>
      <trkpt lat="50.45002" lon="5.32101">
        <ele>242.9</ele>
        <time>2020-08-18T13:31:46Z</time>
      </trkpt>
      <trkpt lat="50.45003" lon="5.32102">
        <ele>242.9</ele>
        <time>2020-08-18T13:31:47Z</time>
      </trkpt>
      <trkpt lat="50.45003" lon="5.32103">
        <ele>243</ele>
        <time>2020-08-18T13:31:48Z</time>
      </trkpt>
      <trkpt lat="50.45003" lon="5.32104">
        <ele>243</ele>
        <time>2020-08-18T13:31:49Z</time>
      </trkpt>
      <trkpt lat="50.45004" lon="5.32105">
        <ele>243</ele>
        <time>2020-08-18T13:31:50Z</time>
      </trkpt>
      <trkpt lat="50.45004" lon="5.32107">
        <ele>243.1</ele>
        <time>2020-08-18T13:31:51Z</time>
      </trkpt>
      <trkpt lat="50.45004" lon="5.32108">
        <ele>243.1</ele>
        <time>2020-08-18T13:31:52Z</time>
      </trkpt>
      <trkpt lat="50.45005" lon="5.32109">
        <ele>243.1</ele>
        <time>2020-08-18T13:31:53Z</time>
      </trkpt>
      <trkpt lat="50.45005" lon="5.3211">
        <ele>243.1</ele>
        <time>2020-08-18T13:31:54Z</time>
      </trkpt>
      <trkpt lat="50.45006" lon="5.32111">
        <ele>243.2</ele>
        <time>2020-08-18T13:31:55Z</time>
      </trkpt>
      <trkpt lat="50.45006" lon="5.32112">
        <ele>243.2</ele>
        <time>2020-08-18T13:31:56Z</time>
      </trkpt>
      <trkpt lat="50.45007" lon="5.32113">
        <ele>243.2</ele>
        <time>2020-08-18T13:31:57Z</time>
      </trkpt>
      <trkpt lat="50.45007" lon="5.32114">
        <ele>243.2</ele>
        <time>2020-08-18T13:31:58Z</time>
      </trkpt>
      <trkpt lat="50.45008" lon="5.32115">
        <ele>243.3</ele>
        <time>2020-08-18T13:31:59Z</time>
      </trkpt>
      <trkpt lat="50.45009" lon="5.32116">
        <ele>243.3</ele>
        <time>2020-08-18T13:32:00Z</time>
      </trkpt>
      <trkpt lat="50.45009" lon="5.32118">
        <ele>243.3</ele>
        <time>2020-08-18T13:32:01Z</time>
      </trkpt>
      <trkpt lat="50.45009" lon="5.32119">
        <ele>243.3</ele>
        <time>2020-08-18T13:32:02Z</time>
      </trkpt>
      <trkpt lat="50.4501" lon="5.3212">
        <ele>243.3</ele>
        <time>2020-08-18T13:32:03Z</time>
      </trkpt>
      <trkpt lat="50.4501" lon="5.32122">
        <ele>243.3</ele>
        <time>2020-08-18T13:32:04Z</time>
      </trkpt>
      <trkpt lat="50.45011" lon="5.32123">
        <ele>243.4</ele>
        <time>2020-08-18T13:32:05Z</time>
      </trkpt>
      <trkpt lat="50.45012" lon="5.32124">
        <ele>243.4</ele>
        <time>2020-08-18T13:32:06Z</time>
      </trkpt>
      <trkpt lat="50.45013" lon="5.32125">
        <ele>243.4</ele>
        <time>2020-08-18T13:32:07Z</time>
      </trkpt>
      <trkpt lat="50.45013" lon="5.32126">
        <ele>243.4</ele>
        <time>2020-08-18T13:32:08Z</time>
      </trkpt>
      <trkpt lat="50.45013" lon="5.32128">
        <ele>243.4</ele>
        <time>2020-08-18T13:32:09Z</time>
      </trkpt>
      <trkpt lat="50.45014" lon="5.32129">
        <ele>243.4</ele>
        <time>2020-08-18T13:32:10Z</time>
      </trkpt>
      <trkpt lat="50.45015" lon="5.3213">
        <ele>243.4</ele>
        <time>2020-08-18T13:32:11Z</time>
      </trkpt>
      <trkpt lat="50.45015" lon="5.32131">
        <ele>243.4</ele>
        <time>2020-08-18T13:32:12Z</time>
      </trkpt>
      <trkpt lat="50.45016" lon="5.32132">
        <ele>243.4</ele>
        <time>2020-08-18T13:32:13Z</time>
      </trkpt>
      <trkpt lat="50.45016" lon="5.32133">
        <ele>243.4</ele>
        <time>2020-08-18T13:32:14Z</time>
      </trkpt>
      <trkpt lat="50.45017" lon="5.32134">
        <ele>243.5</ele>
        <time>2020-08-18T13:32:15Z</time>
      </trkpt>
      <trkpt lat="50.45017" lon="5.32135">
        <ele>243.4</ele>
        <time>2020-08-18T13:32:16Z</time>
      </trkpt>
      <trkpt lat="50.45018" lon="5.32137">
        <ele>243.5</ele>
        <time>2020-08-18T13:32:17Z</time>
      </trkpt>
      <trkpt lat="50.45018" lon="5.32137">
        <ele>243.5</ele>
        <time>2020-08-18T13:32:18Z</time>
      </trkpt>
      <trkpt lat="50.45019" lon="5.32139">
        <ele>243.5</ele>
        <time>2020-08-18T13:32:19Z</time>
      </trkpt>
      <trkpt lat="50.45019" lon="5.3214">
        <ele>243.5</ele>
        <time>2020-08-18T13:32:20Z</time>
      </trkpt>
      <trkpt lat="50.4502" lon="5.32142">
        <ele>243.5</ele>
        <time>2020-08-18T13:32:21Z</time>
      </trkpt>
      <trkpt lat="50.4502" lon="5.32143">
        <ele>243.5</ele>
        <time>2020-08-18T13:32:22Z</time>
      </trkpt>
      <trkpt lat="50.45021" lon="5.32145">
        <ele>243.5</ele>
        <time>2020-08-18T13:32:23Z</time>
      </trkpt>
      <trkpt lat="50.45021" lon="5.32146">
        <ele>243.5</ele>
        <time>2020-08-18T13:32:24Z</time>
      </trkpt>
      <trkpt lat="50.45021" lon="5.32148">
        <ele>243.4</ele>
        <time>2020-08-18T13:32:25Z</time>
      </trkpt>
      <trkpt lat="50.4502" lon="5.32148">
        <ele>243.4</ele>
        <time>2020-08-18T13:32:26Z</time>
      </trkpt>
      <trkpt lat="50.4502" lon="5.32149">
        <ele>243.4</ele>
        <time>2020-08-18T13:32:27Z</time>
      </trkpt>
      <trkpt lat="50.45019" lon="5.32149">
        <ele>243.4</ele>
        <time>2020-08-18T13:32:28Z</time>
      </trkpt>
      <trkpt lat="50.45019" lon="5.3215">
        <ele>243.3</ele>
        <time>2020-08-18T13:32:29Z</time>
      </trkpt>
      <trkpt lat="50.45019" lon="5.32151">
        <ele>243.3</ele>
        <time>2020-08-18T13:32:30Z</time>
      </trkpt>
      <trkpt lat="50.45018" lon="5.32152">
        <ele>243.3</ele>
        <time>2020-08-18T13:32:31Z</time>
      </trkpt>
      <trkpt lat="50.45017" lon="5.32153">
        <ele>243.2</ele>
        <time>2020-08-18T13:32:32Z</time>
      </trkpt>
      <trkpt lat="50.45017" lon="5.32155">
        <ele>243.2</ele>
        <time>2020-08-18T13:32:33Z</time>
      </trkpt>
      <trkpt lat="50.45014" lon="5.32157">
        <ele>243</ele>
        <time>2020-08-18T13:32:35Z</time>
      </trkpt>
      <trkpt lat="50.45014" lon="5.32158">
        <ele>243</ele>
        <time>2020-08-18T13:32:36Z</time>
      </trkpt>
      <trkpt lat="50.45014" lon="5.32158">
        <ele>243</ele>
        <time>2020-08-18T13:32:37Z</time>
      </trkpt>
      <trkpt lat="50.45013" lon="5.32158">
        <ele>243</ele>
        <time>2020-08-18T13:32:38Z</time>
      </trkpt>
      <trkpt lat="50.45013" lon="5.32159">
        <ele>243</ele>
        <time>2020-08-18T13:32:39Z</time>
      </trkpt>
      <trkpt lat="50.45013" lon="5.3216">
        <ele>242.9</ele>
        <time>2020-08-18T13:32:40Z</time>
      </trkpt>
      <trkpt lat="50.45013" lon="5.32161">
        <ele>242.9</ele>
        <time>2020-08-18T13:32:41Z</time>
      </trkpt>
      <trkpt lat="50.45012" lon="5.32161">
        <ele>242.9</ele>
        <time>2020-08-18T13:32:42Z</time>
      </trkpt>
      <trkpt lat="50.45012" lon="5.32161">
        <ele>242.9</ele>
        <time>2020-08-18T13:32:43Z</time>
      </trkpt>
      <trkpt lat="50.4501" lon="5.32161">
        <ele>242.8</ele>
        <time>2020-08-18T13:32:44Z</time>
      </trkpt>
      <trkpt lat="50.4501" lon="5.32162">
        <ele>242.8</ele>
        <time>2020-08-18T13:32:45Z</time>
      </trkpt>
      <trkpt lat="50.45009" lon="5.32164">
        <ele>242.7</ele>
        <time>2020-08-18T13:32:47Z</time>
      </trkpt>
      <trkpt lat="50.45008" lon="5.32164">
        <ele>242.6</ele>
        <time>2020-08-18T13:32:48Z</time>
      </trkpt>
      <trkpt lat="50.45008" lon="5.32164">
        <ele>242.6</ele>
        <time>2020-08-18T13:32:49Z</time>
      </trkpt>
      <trkpt lat="50.45008" lon="5.32165">
        <ele>242.6</ele>
        <time>2020-08-18T13:32:50Z</time>
      </trkpt>
      <trkpt lat="50.45008" lon="5.32165">
        <ele>242.6</ele>
        <time>2020-08-18T13:32:51Z</time>
      </trkpt>
      <trkpt lat="50.45008" lon="5.32165">
        <ele>242.6</ele>
        <time>2020-08-18T13:32:52Z</time>
      </trkpt>
      <trkpt lat="50.45007" lon="5.32166">
        <ele>242.5</ele>
        <time>2020-08-18T13:32:53Z</time>
      </trkpt>
      <trkpt lat="50.45007" lon="5.32167">
        <ele>242.6</ele>
        <time>2020-08-18T13:32:54Z</time>
      </trkpt>
      <trkpt lat="50.45005" lon="5.32168">
        <ele>242.5</ele>
        <time>2020-08-18T13:32:55Z</time>
      </trkpt>
      <trkpt lat="50.45003" lon="5.3217">
        <ele>242.4</ele>
        <time>2020-08-18T13:32:56Z</time>
      </trkpt>
      <trkpt lat="50.45001" lon="5.32172">
        <ele>242.5</ele>
        <time>2020-08-18T13:32:57Z</time>
      </trkpt>
      <trkpt lat="50.44999" lon="5.32174">
        <ele>241.6</ele>
        <time>2020-08-18T13:32:58Z</time>
      </trkpt>
      <trkpt lat="50.44997" lon="5.32176">
        <ele>241.5</ele>
        <time>2020-08-18T13:32:59Z</time>
      </trkpt>
      <trkpt lat="50.44995" lon="5.32178">
        <ele>241.4</ele>
        <time>2020-08-18T13:33:00Z</time>
      </trkpt>
      <trkpt lat="50.44994" lon="5.32179">
        <ele>241.4</ele>
        <time>2020-08-18T13:33:01Z</time>
      </trkpt>
      <trkpt lat="50.44992" lon="5.3218">
        <ele>241.3</ele>
        <time>2020-08-18T13:33:02Z</time>
      </trkpt>
      <trkpt lat="50.44991" lon="5.32181">
        <ele>241.3</ele>
        <time>2020-08-18T13:33:03Z</time>
      </trkpt>
      <trkpt lat="50.44991" lon="5.32182">
        <ele>241.3</ele>
        <time>2020-08-18T13:33:04Z</time>
      </trkpt>
      <trkpt lat="50.44989" lon="5.32182">
        <ele>241.2</ele>
        <time>2020-08-18T13:33:05Z</time>
      </trkpt>
      <trkpt lat="50.44988" lon="5.32183">
        <ele>241.2</ele>
        <time>2020-08-18T13:33:06Z</time>
      </trkpt>
      <trkpt lat="50.44988" lon="5.32184">
        <ele>241.2</ele>
        <time>2020-08-18T13:33:07Z</time>
      </trkpt>
      <trkpt lat="50.44988" lon="5.32184">
        <ele>241.2</ele>
        <time>2020-08-18T13:33:08Z</time>
      </trkpt>
      <trkpt lat="50.44986" lon="5.32185">
        <ele>241.1</ele>
        <time>2020-08-18T13:33:09Z</time>
      </trkpt>
      <trkpt lat="50.44986" lon="5.32185">
        <ele>241.1</ele>
        <time>2020-08-18T13:33:10Z</time>
      </trkpt>
      <trkpt lat="50.44985" lon="5.32185">
        <ele>241.1</ele>
        <time>2020-08-18T13:33:11Z</time>
      </trkpt>
      <trkpt lat="50.44984" lon="5.32186">
        <ele>241.1</ele>
        <time>2020-08-18T13:33:12Z</time>
      </trkpt>
      <trkpt lat="50.44984" lon="5.32186">
        <ele>241.1</ele>
        <time>2020-08-18T13:33:13Z</time>
      </trkpt>
      <trkpt lat="50.44983" lon="5.32187">
        <ele>241</ele>
        <time>2020-08-18T13:33:14Z</time>
      </trkpt>
      <trkpt lat="50.44982" lon="5.32187">
        <ele>241</ele>
        <time>2020-08-18T13:33:15Z</time>
      </trkpt>
      <trkpt lat="50.44981" lon="5.32188">
        <ele>241</ele>
        <time>2020-08-18T13:33:16Z</time>
      </trkpt>
      <trkpt lat="50.44981" lon="5.32188">
        <ele>241</ele>
        <time>2020-08-18T13:33:17Z</time>
      </trkpt>
      <trkpt lat="50.4498" lon="5.32188">
        <ele>241</ele>
        <time>2020-08-18T13:33:18Z</time>
      </trkpt>
      <trkpt lat="50.44979" lon="5.32188">
        <ele>240.9</ele>
        <time>2020-08-18T13:33:18Z</time>
      </trkpt>
      <trkpt lat="50.44979" lon="5.32188">
        <ele>240.9</ele>
        <time>2020-08-18T13:33:19Z</time>
      </trkpt>
      <trkpt lat="50.44978" lon="5.32188">
        <ele>240.9</ele>
        <time>2020-08-18T13:33:20Z</time>
      </trkpt>
      <trkpt lat="50.44978" lon="5.32189">
        <ele>240.9</ele>
        <time>2020-08-18T13:33:21Z</time>
      </trkpt>
      <trkpt lat="50.44977" lon="5.32189">
        <ele>240.9</ele>
        <time>2020-08-18T13:33:22Z</time>
      </trkpt>
      <trkpt lat="50.44977" lon="5.32189">
        <ele>240.9</ele>
        <time>2020-08-18T13:33:23Z</time>
      </trkpt>
      <trkpt lat="50.44976" lon="5.32189">
        <ele>240.9</ele>
        <time>2020-08-18T13:33:24Z</time>
      </trkpt>
      <trkpt lat="50.44975" lon="5.32189">
        <ele>240.8</ele>
        <time>2020-08-18T13:33:25Z</time>
      </trkpt>
      <trkpt lat="50.44974" lon="5.32189">
        <ele>240.8</ele>
        <time>2020-08-18T13:33:26Z</time>
      </trkpt>
      <trkpt lat="50.44973" lon="5.32188">
        <ele>240.8</ele>
        <time>2020-08-18T13:33:27Z</time>
      </trkpt>
      <trkpt lat="50.44972" lon="5.32188">
        <ele>240.8</ele>
        <time>2020-08-18T13:33:28Z</time>
      </trkpt>
      <trkpt lat="50.44971" lon="5.32188">
        <ele>240.7</ele>
        <time>2020-08-18T13:33:29Z</time>
      </trkpt>
      <trkpt lat="50.4497" lon="5.32188">
        <ele>240.7</ele>
        <time>2020-08-18T13:33:30Z</time>
      </trkpt>
      <trkpt lat="50.4497" lon="5.32188">
        <ele>240.7</ele>
        <time>2020-08-18T13:33:31Z</time>
      </trkpt>
      <trkpt lat="50.44969" lon="5.32188">
        <ele>240.7</ele>
        <time>2020-08-18T13:33:33Z</time>
      </trkpt>
      <trkpt lat="50.44969" lon="5.32188">
        <ele>240.7</ele>
        <time>2020-08-18T13:33:34Z</time>
      </trkpt>
      <trkpt lat="50.44969" lon="5.32188">
        <ele>240.7</ele>
        <time>2020-08-18T13:33:35Z</time>
      </trkpt>
      <trkpt lat="50.44969" lon="5.32188">
        <ele>240.7</ele>
        <time>2020-08-18T13:33:36Z</time>
      </trkpt>
      <trkpt lat="50.44968" lon="5.32188">
        <ele>240.7</ele>
        <time>2020-08-18T13:33:37Z</time>
      </trkpt>
      <trkpt lat="50.44968" lon="5.32189">
        <ele>240.7</ele>
        <time>2020-08-18T13:33:38Z</time>
      </trkpt>
      <trkpt lat="50.44967" lon="5.3219">
        <ele>240.6</ele>
        <time>2020-08-18T13:33:39Z</time>
      </trkpt>
      <trkpt lat="50.44967" lon="5.3219">
        <ele>240.6</ele>
        <time>2020-08-18T13:33:40Z</time>
      </trkpt>
      <trkpt lat="50.44967" lon="5.32192">
        <ele>240.6</ele>
        <time>2020-08-18T13:33:41Z</time>
      </trkpt>
      <trkpt lat="50.44967" lon="5.32192">
        <ele>240.6</ele>
        <time>2020-08-18T13:33:42Z</time>
      </trkpt>
      <trkpt lat="50.44966" lon="5.32193">
        <ele>240.6</ele>
        <time>2020-08-18T13:33:43Z</time>
      </trkpt>
      <trkpt lat="50.44965" lon="5.32193">
        <ele>240.6</ele>
        <time>2020-08-18T13:33:44Z</time>
      </trkpt>
      <trkpt lat="50.44964" lon="5.32193">
        <ele>240.6</ele>
        <time>2020-08-18T13:33:45Z</time>
      </trkpt>
      <trkpt lat="50.44964" lon="5.32193">
        <ele>240.6</ele>
        <time>2020-08-18T13:33:46Z</time>
      </trkpt>
      <trkpt lat="50.44964" lon="5.32193">
        <ele>240.6</ele>
        <time>2020-08-18T13:33:47Z</time>
      </trkpt>
      <trkpt lat="50.44963" lon="5.32193">
        <ele>240.5</ele>
        <time>2020-08-18T13:33:48Z</time>
      </trkpt>
      <trkpt lat="50.44961" lon="5.32194">
        <ele>240.5</ele>
        <time>2020-08-18T13:33:50Z</time>
      </trkpt>
      <trkpt lat="50.44961" lon="5.32194">
        <ele>240.5</ele>
        <time>2020-08-18T13:33:51Z</time>
      </trkpt>
      <trkpt lat="50.44961" lon="5.32194">
        <ele>240.5</ele>
        <time>2020-08-18T13:33:52Z</time>
      </trkpt>
      <trkpt lat="50.4496" lon="5.32195">
        <ele>240.5</ele>
        <time>2020-08-18T13:33:53Z</time>
      </trkpt>
      <trkpt lat="50.4496" lon="5.32195">
        <ele>240.5</ele>
        <time>2020-08-18T13:33:54Z</time>
      </trkpt>
      <trkpt lat="50.44959" lon="5.32195">
        <ele>240.4</ele>
        <time>2020-08-18T13:33:55Z</time>
      </trkpt>
      <trkpt lat="50.44959" lon="5.32196">
        <ele>240.4</ele>
        <time>2020-08-18T13:33:56Z</time>
      </trkpt>
      <trkpt lat="50.44958" lon="5.32196">
        <ele>240.4</ele>
        <time>2020-08-18T13:33:57Z</time>
      </trkpt>
      <trkpt lat="50.44957" lon="5.32196">
        <ele>240.4</ele>
        <time>2020-08-18T13:33:58Z</time>
      </trkpt>
      <trkpt lat="50.44957" lon="5.32197">
        <ele>240.4</ele>
        <time>2020-08-18T13:33:59Z</time>
      </trkpt>
      <trkpt lat="50.44956" lon="5.32197">
        <ele>240.4</ele>
        <time>2020-08-18T13:34:00Z</time>
      </trkpt>
      <trkpt lat="50.44956" lon="5.32197">
        <ele>240.4</ele>
        <time>2020-08-18T13:34:01Z</time>
      </trkpt>
      <trkpt lat="50.44955" lon="5.32197">
        <ele>240.3</ele>
        <time>2020-08-18T13:34:02Z</time>
      </trkpt>
      <trkpt lat="50.44955" lon="5.32197">
        <ele>240.3</ele>
        <time>2020-08-18T13:34:03Z</time>
      </trkpt>
      <trkpt lat="50.44954" lon="5.32198">
        <ele>240.3</ele>
        <time>2020-08-18T13:34:04Z</time>
      </trkpt>
      <trkpt lat="50.44954" lon="5.32199">
        <ele>240.3</ele>
        <time>2020-08-18T13:34:05Z</time>
      </trkpt>
      <trkpt lat="50.44954" lon="5.32199">
        <ele>240.3</ele>
        <time>2020-08-18T13:34:06Z</time>
      </trkpt>
      <trkpt lat="50.44954" lon="5.32199">
        <ele>240.3</ele>
        <time>2020-08-18T13:34:07Z</time>
      </trkpt>
      <trkpt lat="50.44953" lon="5.322">
        <ele>240.3</ele>
        <time>2020-08-18T13:34:08Z</time>
      </trkpt>
      <trkpt lat="50.44952" lon="5.32201">
        <ele>240.3</ele>
        <time>2020-08-18T13:34:09Z</time>
      </trkpt>
      <trkpt lat="50.44952" lon="5.32201">
        <ele>240.3</ele>
        <time>2020-08-18T13:34:10Z</time>
      </trkpt>
      <trkpt lat="50.44951" lon="5.32202">
        <ele>240.3</ele>
        <time>2020-08-18T13:34:11Z</time>
      </trkpt>
      <trkpt lat="50.44951" lon="5.32203">
        <ele>240.3</ele>
        <time>2020-08-18T13:34:12Z</time>
      </trkpt>
      <trkpt lat="50.4495" lon="5.32203">
        <ele>240.3</ele>
        <time>2020-08-18T13:34:13Z</time>
      </trkpt>
      <trkpt lat="50.44949" lon="5.32204">
        <ele>240.2</ele>
        <time>2020-08-18T13:34:14Z</time>
      </trkpt>
      <trkpt lat="50.44949" lon="5.32204">
        <ele>240.2</ele>
        <time>2020-08-18T13:34:15Z</time>
      </trkpt>
      <trkpt lat="50.44948" lon="5.32204">
        <ele>240.2</ele>
        <time>2020-08-18T13:34:16Z</time>
      </trkpt>
      <trkpt lat="50.44947" lon="5.32204">
        <ele>240.2</ele>
        <time>2020-08-18T13:34:17Z</time>
      </trkpt>
      <trkpt lat="50.44946" lon="5.32205">
        <ele>240.2</ele>
        <time>2020-08-18T13:34:18Z</time>
      </trkpt>
      <trkpt lat="50.44946" lon="5.32205">
        <ele>240.2</ele>
        <time>2020-08-18T13:34:19Z</time>
      </trkpt>
      <trkpt lat="50.44944" lon="5.32205">
        <ele>240.1</ele>
        <time>2020-08-18T13:34:20Z</time>
      </trkpt>
      <trkpt lat="50.44943" lon="5.32205">
        <ele>240.1</ele>
        <time>2020-08-18T13:34:21Z</time>
      </trkpt>
      <trkpt lat="50.44942" lon="5.32206">
        <ele>240.1</ele>
        <time>2020-08-18T13:34:22Z</time>
      </trkpt>
      <trkpt lat="50.4494" lon="5.32206">
        <ele>240.1</ele>
        <time>2020-08-18T13:34:23Z</time>
      </trkpt>
      <trkpt lat="50.44939" lon="5.32206">
        <ele>240</ele>
        <time>2020-08-18T13:34:24Z</time>
      </trkpt>
      <trkpt lat="50.44938" lon="5.32207">
        <ele>240</ele>
        <time>2020-08-18T13:34:25Z</time>
      </trkpt>
      <trkpt lat="50.44938" lon="5.32209">
        <ele>240</ele>
        <time>2020-08-18T13:34:26Z</time>
      </trkpt>
      <trkpt lat="50.44937" lon="5.3221">
        <ele>240</ele>
        <time>2020-08-18T13:34:27Z</time>
      </trkpt>
      <trkpt lat="50.44936" lon="5.3221">
        <ele>240</ele>
        <time>2020-08-18T13:34:28Z</time>
      </trkpt>
      <trkpt lat="50.44936" lon="5.32211">
        <ele>240</ele>
        <time>2020-08-18T13:34:29Z</time>
      </trkpt>
      <trkpt lat="50.44935" lon="5.32213">
        <ele>240</ele>
        <time>2020-08-18T13:34:30Z</time>
      </trkpt>
      <trkpt lat="50.44934" lon="5.32214">
        <ele>240</ele>
        <time>2020-08-18T13:34:31Z</time>
      </trkpt>
      <trkpt lat="50.44934" lon="5.32216">
        <ele>240</ele>
        <time>2020-08-18T13:34:32Z</time>
      </trkpt>
      <trkpt lat="50.44933" lon="5.32217">
        <ele>240</ele>
        <time>2020-08-18T13:34:33Z</time>
      </trkpt>
      <trkpt lat="50.44933" lon="5.32218">
        <ele>240</ele>
        <time>2020-08-18T13:34:34Z</time>
      </trkpt>
      <trkpt lat="50.44933" lon="5.32219">
        <ele>240</ele>
        <time>2020-08-18T13:34:35Z</time>
      </trkpt>
      <trkpt lat="50.44933" lon="5.3222">
        <ele>240</ele>
        <time>2020-08-18T13:34:36Z</time>
      </trkpt>
      <trkpt lat="50.44932" lon="5.32221">
        <ele>240</ele>
        <time>2020-08-18T13:34:37Z</time>
      </trkpt>
      <trkpt lat="50.44931" lon="5.32221">
        <ele>240</ele>
        <time>2020-08-18T13:34:38Z</time>
      </trkpt>
      <trkpt lat="50.44931" lon="5.32222">
        <ele>239.9</ele>
        <time>2020-08-18T13:34:39Z</time>
      </trkpt>
      <trkpt lat="50.44931" lon="5.32223">
        <ele>239.9</ele>
        <time>2020-08-18T13:34:40Z</time>
      </trkpt>
      <trkpt lat="50.44931" lon="5.32224">
        <ele>239.9</ele>
        <time>2020-08-18T13:34:41Z</time>
      </trkpt>
      <trkpt lat="50.4493" lon="5.32225">
        <ele>239.9</ele>
        <time>2020-08-18T13:34:42Z</time>
      </trkpt>
      <trkpt lat="50.4493" lon="5.32227">
        <ele>239.9</ele>
        <time>2020-08-18T13:34:43Z</time>
      </trkpt>
      <trkpt lat="50.4493" lon="5.32228">
        <ele>239.9</ele>
        <time>2020-08-18T13:34:44Z</time>
      </trkpt>
      <trkpt lat="50.4493" lon="5.3223">
        <ele>239.9</ele>
        <time>2020-08-18T13:34:45Z</time>
      </trkpt>
      <trkpt lat="50.4493" lon="5.32233">
        <ele>239.8</ele>
        <time>2020-08-18T13:34:46Z</time>
      </trkpt>
      <trkpt lat="50.4493" lon="5.32235">
        <ele>239.8</ele>
        <time>2020-08-18T13:34:47Z</time>
      </trkpt>
      <trkpt lat="50.4493" lon="5.32237">
        <ele>239.8</ele>
        <time>2020-08-18T13:34:48Z</time>
      </trkpt>
      <trkpt lat="50.4493" lon="5.32239">
        <ele>239.8</ele>
        <time>2020-08-18T13:34:49Z</time>
      </trkpt>
      <trkpt lat="50.44929" lon="5.3224">
        <ele>239.7</ele>
        <time>2020-08-18T13:34:50Z</time>
      </trkpt>
      <trkpt lat="50.44928" lon="5.32241">
        <ele>239.7</ele>
        <time>2020-08-18T13:34:51Z</time>
      </trkpt>
      <trkpt lat="50.44928" lon="5.32242">
        <ele>239.7</ele>
        <time>2020-08-18T13:34:52Z</time>
      </trkpt>
      <trkpt lat="50.44927" lon="5.32242">
        <ele>239.6</ele>
        <time>2020-08-18T13:34:53Z</time>
      </trkpt>
      <trkpt lat="50.44925" lon="5.32242">
        <ele>239.6</ele>
        <time>2020-08-18T13:34:54Z</time>
      </trkpt>
      <trkpt lat="50.44925" lon="5.32243">
        <ele>239.5</ele>
        <time>2020-08-18T13:34:55Z</time>
      </trkpt>
      <trkpt lat="50.44923" lon="5.32242">
        <ele>239.5</ele>
        <time>2020-08-18T13:34:56Z</time>
      </trkpt>
      <trkpt lat="50.44923" lon="5.32241">
        <ele>239.5</ele>
        <time>2020-08-18T13:34:57Z</time>
      </trkpt>
      <trkpt lat="50.44922" lon="5.32241">
        <ele>239.5</ele>
        <time>2020-08-18T13:34:58Z</time>
      </trkpt>
      <trkpt lat="50.44922" lon="5.32241">
        <ele>239.5</ele>
        <time>2020-08-18T13:34:59Z</time>
      </trkpt>
      <trkpt lat="50.44919" lon="5.32242">
        <ele>239.4</ele>
        <time>2020-08-18T13:35:01Z</time>
      </trkpt>
      <trkpt lat="50.44919" lon="5.32242">
        <ele>239.4</ele>
        <time>2020-08-18T13:35:02Z</time>
      </trkpt>
      <trkpt lat="50.44919" lon="5.32242">
        <ele>239.4</ele>
        <time>2020-08-18T13:35:03Z</time>
      </trkpt>
      <trkpt lat="50.44919" lon="5.32242">
        <ele>239.4</ele>
        <time>2020-08-18T13:35:04Z</time>
      </trkpt>
      <trkpt lat="50.44919" lon="5.32241">
        <ele>239.4</ele>
        <time>2020-08-18T13:35:05Z</time>
      </trkpt>
      <trkpt lat="50.44919" lon="5.3224">
        <ele>239.5</ele>
        <time>2020-08-18T13:35:06Z</time>
      </trkpt>
      <trkpt lat="50.44919" lon="5.32239">
        <ele>239.5</ele>
        <time>2020-08-18T13:35:07Z</time>
      </trkpt>
      <trkpt lat="50.44919" lon="5.32238">
        <ele>239.5</ele>
        <time>2020-08-18T13:35:08Z</time>
      </trkpt>
      <trkpt lat="50.44919" lon="5.32238">
        <ele>239.5</ele>
        <time>2020-08-18T13:35:09Z</time>
      </trkpt>
      <trkpt lat="50.44919" lon="5.32238">
        <ele>239.5</ele>
        <time>2020-08-18T13:35:10Z</time>
      </trkpt>
      <trkpt lat="50.44918" lon="5.32238">
        <ele>239.5</ele>
        <time>2020-08-18T13:35:15Z</time>
      </trkpt>
      <trkpt lat="50.44918" lon="5.32238">
        <ele>239.5</ele>
        <time>2020-08-18T13:35:16Z</time>
      </trkpt>
      <trkpt lat="50.44917" lon="5.32238">
        <ele>239.5</ele>
        <time>2020-08-18T13:35:17Z</time>
      </trkpt>
      <trkpt lat="50.44916" lon="5.32238">
        <ele>238.4</ele>
        <time>2020-08-18T13:35:18Z</time>
      </trkpt>
      <trkpt lat="50.44914" lon="5.32239">
        <ele>238.5</ele>
        <time>2020-08-18T13:35:19Z</time>
      </trkpt>
      <trkpt lat="50.44913" lon="5.32239">
        <ele>238.5</ele>
        <time>2020-08-18T13:35:20Z</time>
      </trkpt>
      <trkpt lat="50.44912" lon="5.3224">
        <ele>238.5</ele>
        <time>2020-08-18T13:35:21Z</time>
      </trkpt>
      <trkpt lat="50.4491" lon="5.32241">
        <ele>238.5</ele>
        <time>2020-08-18T13:35:22Z</time>
      </trkpt>
      <trkpt lat="50.44909" lon="5.32242">
        <ele>238.5</ele>
        <time>2020-08-18T13:35:23Z</time>
      </trkpt>
      <trkpt lat="50.44907" lon="5.32243">
        <ele>238.4</ele>
        <time>2020-08-18T13:35:24Z</time>
      </trkpt>
      <trkpt lat="50.44907" lon="5.32244">
        <ele>238.5</ele>
        <time>2020-08-18T13:35:25Z</time>
      </trkpt>
      <trkpt lat="50.44906" lon="5.32245">
        <ele>238.4</ele>
        <time>2020-08-18T13:35:26Z</time>
      </trkpt>
      <trkpt lat="50.44904" lon="5.32246">
        <ele>238.4</ele>
        <time>2020-08-18T13:35:27Z</time>
      </trkpt>
      <trkpt lat="50.44903" lon="5.32247">
        <ele>238.4</ele>
        <time>2020-08-18T13:35:28Z</time>
      </trkpt>
      <trkpt lat="50.44902" lon="5.32248">
        <ele>238.3</ele>
        <time>2020-08-18T13:35:29Z</time>
      </trkpt>
      <trkpt lat="50.44901" lon="5.32249">
        <ele>238.3</ele>
        <time>2020-08-18T13:35:30Z</time>
      </trkpt>
      <trkpt lat="50.449" lon="5.32251">
        <ele>238.7</ele>
        <time>2020-08-18T13:35:31Z</time>
      </trkpt>
      <trkpt lat="50.44899" lon="5.32252">
        <ele>238.7</ele>
        <time>2020-08-18T13:35:32Z</time>
      </trkpt>
      <trkpt lat="50.44898" lon="5.32253">
        <ele>238.7</ele>
        <time>2020-08-18T13:35:33Z</time>
      </trkpt>
      <trkpt lat="50.44898" lon="5.32254">
        <ele>238.7</ele>
        <time>2020-08-18T13:35:34Z</time>
      </trkpt>
      <trkpt lat="50.44896" lon="5.32255">
        <ele>238.7</ele>
        <time>2020-08-18T13:35:35Z</time>
      </trkpt>
      <trkpt lat="50.44896" lon="5.32257">
        <ele>238.7</ele>
        <time>2020-08-18T13:35:36Z</time>
      </trkpt>
      <trkpt lat="50.44895" lon="5.32259">
        <ele>238.7</ele>
        <time>2020-08-18T13:35:37Z</time>
      </trkpt>
      <trkpt lat="50.44895" lon="5.32261">
        <ele>238.7</ele>
        <time>2020-08-18T13:35:38Z</time>
      </trkpt>
      <trkpt lat="50.44894" lon="5.32263">
        <ele>238.7</ele>
        <time>2020-08-18T13:35:39Z</time>
      </trkpt>
      <trkpt lat="50.44893" lon="5.32265">
        <ele>238.6</ele>
        <time>2020-08-18T13:35:40Z</time>
      </trkpt>
      <trkpt lat="50.44893" lon="5.32267">
        <ele>238.7</ele>
        <time>2020-08-18T13:35:41Z</time>
      </trkpt>
      <trkpt lat="50.44892" lon="5.32268">
        <ele>238.6</ele>
        <time>2020-08-18T13:35:42Z</time>
      </trkpt>
      <trkpt lat="50.44891" lon="5.32269">
        <ele>238.6</ele>
        <time>2020-08-18T13:35:43Z</time>
      </trkpt>
      <trkpt lat="50.44891" lon="5.3227">
        <ele>238.6</ele>
        <time>2020-08-18T13:35:44Z</time>
      </trkpt>
      <trkpt lat="50.4489" lon="5.3227">
        <ele>238.6</ele>
        <time>2020-08-18T13:35:45Z</time>
      </trkpt>
      <trkpt lat="50.4489" lon="5.32271">
        <ele>238.6</ele>
        <time>2020-08-18T13:35:46Z</time>
      </trkpt>
      <trkpt lat="50.4489" lon="5.32272">
        <ele>238.6</ele>
        <time>2020-08-18T13:35:47Z</time>
      </trkpt>
      <trkpt lat="50.4489" lon="5.32272">
        <ele>238.6</ele>
        <time>2020-08-18T13:35:48Z</time>
      </trkpt>
      <trkpt lat="50.44889" lon="5.32273">
        <ele>238.6</ele>
        <time>2020-08-18T13:35:49Z</time>
      </trkpt>
      <trkpt lat="50.44889" lon="5.32274">
        <ele>238.6</ele>
        <time>2020-08-18T13:35:50Z</time>
      </trkpt>
      <trkpt lat="50.44889" lon="5.32274">
        <ele>238.6</ele>
        <time>2020-08-18T13:35:51Z</time>
      </trkpt>
      <trkpt lat="50.44888" lon="5.32275">
        <ele>238.6</ele>
        <time>2020-08-18T13:35:52Z</time>
      </trkpt>
      <trkpt lat="50.44888" lon="5.32276">
        <ele>238.6</ele>
        <time>2020-08-18T13:35:53Z</time>
      </trkpt>
      <trkpt lat="50.44887" lon="5.32276">
        <ele>238.6</ele>
        <time>2020-08-18T13:35:54Z</time>
      </trkpt>
      <trkpt lat="50.44886" lon="5.32278">
        <ele>238.6</ele>
        <time>2020-08-18T13:35:55Z</time>
      </trkpt>
      <trkpt lat="50.44886" lon="5.32279">
        <ele>238.6</ele>
        <time>2020-08-18T13:35:56Z</time>
      </trkpt>
      <trkpt lat="50.44886" lon="5.3228">
        <ele>238.6</ele>
        <time>2020-08-18T13:35:57Z</time>
      </trkpt>
      <trkpt lat="50.44886" lon="5.3228">
        <ele>238.6</ele>
        <time>2020-08-18T13:35:58Z</time>
      </trkpt>
      <trkpt lat="50.44886" lon="5.32281">
        <ele>238.6</ele>
        <time>2020-08-18T13:35:59Z</time>
      </trkpt>
      <trkpt lat="50.44886" lon="5.32281">
        <ele>238.6</ele>
        <time>2020-08-18T13:36:00Z</time>
      </trkpt>
      <trkpt lat="50.44885" lon="5.3228">
        <ele>238.6</ele>
        <time>2020-08-18T13:36:01Z</time>
      </trkpt>
      <trkpt lat="50.44885" lon="5.32281">
        <ele>238.6</ele>
        <time>2020-08-18T13:36:02Z</time>
      </trkpt>
      <trkpt lat="50.44884" lon="5.32282">
        <ele>238.6</ele>
        <time>2020-08-18T13:36:03Z</time>
      </trkpt>
      <trkpt lat="50.44883" lon="5.32283">
        <ele>238.6</ele>
        <time>2020-08-18T13:36:04Z</time>
      </trkpt>
      <trkpt lat="50.44883" lon="5.32285">
        <ele>238.6</ele>
        <time>2020-08-18T13:36:05Z</time>
      </trkpt>
      <trkpt lat="50.44883" lon="5.32287">
        <ele>238.6</ele>
        <time>2020-08-18T13:36:06Z</time>
      </trkpt>
      <trkpt lat="50.44882" lon="5.32289">
        <ele>238.6</ele>
        <time>2020-08-18T13:36:07Z</time>
      </trkpt>
      <trkpt lat="50.44882" lon="5.32291">
        <ele>238.6</ele>
        <time>2020-08-18T13:36:08Z</time>
      </trkpt>
      <trkpt lat="50.44882" lon="5.32293">
        <ele>238.6</ele>
        <time>2020-08-18T13:36:09Z</time>
      </trkpt>
      <trkpt lat="50.44882" lon="5.32295">
        <ele>238.7</ele>
        <time>2020-08-18T13:36:10Z</time>
      </trkpt>
      <trkpt lat="50.44882" lon="5.32298">
        <ele>238.7</ele>
        <time>2020-08-18T13:36:12Z</time>
      </trkpt>
      <trkpt lat="50.44882" lon="5.32298">
        <ele>238.7</ele>
        <time>2020-08-18T13:36:13Z</time>
      </trkpt>
      <trkpt lat="50.44882" lon="5.32299">
        <ele>238.7</ele>
        <time>2020-08-18T13:36:14Z</time>
      </trkpt>
      <trkpt lat="50.44882" lon="5.32299">
        <ele>238.7</ele>
        <time>2020-08-18T13:36:15Z</time>
      </trkpt>
      <trkpt lat="50.44882" lon="5.323">
        <ele>238.7</ele>
        <time>2020-08-18T13:36:16Z</time>
      </trkpt>
      <trkpt lat="50.44883" lon="5.323">
        <ele>238.7</ele>
        <time>2020-08-18T13:36:17Z</time>
      </trkpt>
      <trkpt lat="50.44883" lon="5.32301">
        <ele>238.7</ele>
        <time>2020-08-18T13:36:18Z</time>
      </trkpt>
      <trkpt lat="50.44883" lon="5.32301">
        <ele>238.7</ele>
        <time>2020-08-18T13:36:19Z</time>
      </trkpt>
      <trkpt lat="50.44883" lon="5.32302">
        <ele>238.7</ele>
        <time>2020-08-18T13:36:20Z</time>
      </trkpt>
      <trkpt lat="50.44883" lon="5.32303">
        <ele>238.7</ele>
        <time>2020-08-18T13:36:21Z</time>
      </trkpt>
      <trkpt lat="50.44883" lon="5.32305">
        <ele>238.8</ele>
        <time>2020-08-18T13:36:22Z</time>
      </trkpt>
      <trkpt lat="50.44883" lon="5.32306">
        <ele>238.8</ele>
        <time>2020-08-18T13:36:23Z</time>
      </trkpt>
      <trkpt lat="50.44882" lon="5.32307">
        <ele>238.8</ele>
        <time>2020-08-18T13:36:24Z</time>
      </trkpt>
      <trkpt lat="50.44882" lon="5.32308">
        <ele>238.8</ele>
        <time>2020-08-18T13:36:25Z</time>
      </trkpt>
      <trkpt lat="50.44882" lon="5.3231">
        <ele>238.8</ele>
        <time>2020-08-18T13:36:26Z</time>
      </trkpt>
      <trkpt lat="50.44882" lon="5.32311">
        <ele>238.8</ele>
        <time>2020-08-18T13:36:27Z</time>
      </trkpt>
      <trkpt lat="50.44881" lon="5.32312">
        <ele>238.8</ele>
        <time>2020-08-18T13:36:28Z</time>
      </trkpt>
      <trkpt lat="50.44881" lon="5.32314">
        <ele>238.8</ele>
        <time>2020-08-18T13:36:29Z</time>
      </trkpt>
      <trkpt lat="50.44881" lon="5.32315">
        <ele>238.8</ele>
        <time>2020-08-18T13:36:30Z</time>
      </trkpt>
      <trkpt lat="50.4488" lon="5.32317">
        <ele>238.8</ele>
        <time>2020-08-18T13:36:31Z</time>
      </trkpt>
      <trkpt lat="50.4488" lon="5.32318">
        <ele>238.8</ele>
        <time>2020-08-18T13:36:32Z</time>
      </trkpt>
      <trkpt lat="50.4488" lon="5.32319">
        <ele>238.8</ele>
        <time>2020-08-18T13:36:33Z</time>
      </trkpt>
      <trkpt lat="50.4488" lon="5.3232">
        <ele>238.8</ele>
        <time>2020-08-18T13:36:34Z</time>
      </trkpt>
      <trkpt lat="50.44878" lon="5.32322">
        <ele>238.8</ele>
        <time>2020-08-18T13:36:35Z</time>
      </trkpt>
      <trkpt lat="50.44878" lon="5.32324">
        <ele>238.8</ele>
        <time>2020-08-18T13:36:36Z</time>
      </trkpt>
      <trkpt lat="50.44877" lon="5.32327">
        <ele>238.7</ele>
        <time>2020-08-18T13:36:37Z</time>
      </trkpt>
      <trkpt lat="50.44877" lon="5.32329">
        <ele>238.7</ele>
        <time>2020-08-18T13:36:38Z</time>
      </trkpt>
      <trkpt lat="50.44876" lon="5.32331">
        <ele>238.7</ele>
        <time>2020-08-18T13:36:39Z</time>
      </trkpt>
      <trkpt lat="50.44876" lon="5.32333">
        <ele>238.7</ele>
        <time>2020-08-18T13:36:40Z</time>
      </trkpt>
      <trkpt lat="50.44875" lon="5.32334">
        <ele>238.5</ele>
        <time>2020-08-18T13:36:41Z</time>
      </trkpt>
      <trkpt lat="50.44874" lon="5.32336">
        <ele>238.5</ele>
        <time>2020-08-18T13:36:42Z</time>
      </trkpt>
      <trkpt lat="50.44873" lon="5.32337">
        <ele>238.5</ele>
        <time>2020-08-18T13:36:43Z</time>
      </trkpt>
      <trkpt lat="50.44873" lon="5.32338">
        <ele>238.5</ele>
        <time>2020-08-18T13:36:44Z</time>
      </trkpt>
      <trkpt lat="50.44872" lon="5.32338">
        <ele>238.4</ele>
        <time>2020-08-18T13:36:45Z</time>
      </trkpt>
      <trkpt lat="50.44871" lon="5.32339">
        <ele>238.4</ele>
        <time>2020-08-18T13:36:46Z</time>
      </trkpt>
      <trkpt lat="50.44871" lon="5.32339">
        <ele>238.4</ele>
        <time>2020-08-18T13:36:47Z</time>
      </trkpt>
      <trkpt lat="50.4487" lon="5.3234">
        <ele>238.3</ele>
        <time>2020-08-18T13:36:48Z</time>
      </trkpt>
      <trkpt lat="50.44869" lon="5.32341">
        <ele>238.3</ele>
        <time>2020-08-18T13:36:49Z</time>
      </trkpt>
      <trkpt lat="50.44867" lon="5.32343">
        <ele>238.2</ele>
        <time>2020-08-18T13:36:50Z</time>
      </trkpt>
      <trkpt lat="50.44866" lon="5.32344">
        <ele>238.2</ele>
        <time>2020-08-18T13:36:51Z</time>
      </trkpt>
      <trkpt lat="50.44865" lon="5.32345">
        <ele>238.2</ele>
        <time>2020-08-18T13:36:52Z</time>
      </trkpt>
      <trkpt lat="50.44864" lon="5.32346">
        <ele>238.1</ele>
        <time>2020-08-18T13:36:53Z</time>
      </trkpt>
      <trkpt lat="50.44862" lon="5.32347">
        <ele>238.1</ele>
        <time>2020-08-18T13:36:54Z</time>
      </trkpt>
      <trkpt lat="50.44861" lon="5.32348">
        <ele>238.1</ele>
        <time>2020-08-18T13:36:55Z</time>
      </trkpt>
      <trkpt lat="50.44859" lon="5.3235">
        <ele>238</ele>
        <time>2020-08-18T13:36:56Z</time>
      </trkpt>
      <trkpt lat="50.44859" lon="5.32351">
        <ele>238</ele>
        <time>2020-08-18T13:36:57Z</time>
      </trkpt>
      <trkpt lat="50.44857" lon="5.32352">
        <ele>238</ele>
        <time>2020-08-18T13:36:58Z</time>
      </trkpt>
      <trkpt lat="50.44856" lon="5.32352">
        <ele>237.9</ele>
        <time>2020-08-18T13:37:00Z</time>
      </trkpt>
      <trkpt lat="50.44856" lon="5.32352">
        <ele>237.9</ele>
        <time>2020-08-18T13:37:01Z</time>
      </trkpt>
      <trkpt lat="50.44856" lon="5.32352">
        <ele>237.9</ele>
        <time>2020-08-18T13:37:02Z</time>
      </trkpt>
      <trkpt lat="50.44857" lon="5.32352">
        <ele>238</ele>
        <time>2020-08-18T13:37:03Z</time>
      </trkpt>
      <trkpt lat="50.44857" lon="5.32352">
        <ele>238</ele>
        <time>2020-08-18T13:37:04Z</time>
      </trkpt>
      <trkpt lat="50.44856" lon="5.32352">
        <ele>237.9</ele>
        <time>2020-08-18T13:37:05Z</time>
      </trkpt>
      <trkpt lat="50.44856" lon="5.32353">
        <ele>237.9</ele>
        <time>2020-08-18T13:37:06Z</time>
      </trkpt>
      <trkpt lat="50.44855" lon="5.32354">
        <ele>237.9</ele>
        <time>2020-08-18T13:37:07Z</time>
      </trkpt>
      <trkpt lat="50.44854" lon="5.32355">
        <ele>237.9</ele>
        <time>2020-08-18T13:37:08Z</time>
      </trkpt>
      <trkpt lat="50.44853" lon="5.32356">
        <ele>237.9</ele>
        <time>2020-08-18T13:37:09Z</time>
      </trkpt>
      <trkpt lat="50.44852" lon="5.32357">
        <ele>237.9</ele>
        <time>2020-08-18T13:37:10Z</time>
      </trkpt>
      <trkpt lat="50.44851" lon="5.32358">
        <ele>237.8</ele>
        <time>2020-08-18T13:37:11Z</time>
      </trkpt>
      <trkpt lat="50.44851" lon="5.32358">
        <ele>237.8</ele>
        <time>2020-08-18T13:37:12Z</time>
      </trkpt>
      <trkpt lat="50.4485" lon="5.32358">
        <ele>237.8</ele>
        <time>2020-08-18T13:37:13Z</time>
      </trkpt>
      <trkpt lat="50.44849" lon="5.32359">
        <ele>237.8</ele>
        <time>2020-08-18T13:37:14Z</time>
      </trkpt>
      <trkpt lat="50.44849" lon="5.32359">
        <ele>237.8</ele>
        <time>2020-08-18T13:37:15Z</time>
      </trkpt>
      <trkpt lat="50.44848" lon="5.3236">
        <ele>237.8</ele>
        <time>2020-08-18T13:37:16Z</time>
      </trkpt>
      <trkpt lat="50.44847" lon="5.3236">
        <ele>237.8</ele>
        <time>2020-08-18T13:37:17Z</time>
      </trkpt>
      <trkpt lat="50.44847" lon="5.32361">
        <ele>237.8</ele>
        <time>2020-08-18T13:37:18Z</time>
      </trkpt>
      <trkpt lat="50.44846" lon="5.32361">
        <ele>237.8</ele>
        <time>2020-08-18T13:37:19Z</time>
      </trkpt>
      <trkpt lat="50.44846" lon="5.32362">
        <ele>237.8</ele>
        <time>2020-08-18T13:37:20Z</time>
      </trkpt>
      <trkpt lat="50.44845" lon="5.32363">
        <ele>237.8</ele>
        <time>2020-08-18T13:37:21Z</time>
      </trkpt>
      <trkpt lat="50.44844" lon="5.32363">
        <ele>237.7</ele>
        <time>2020-08-18T13:37:22Z</time>
      </trkpt>
      <trkpt lat="50.44844" lon="5.32363">
        <ele>237.7</ele>
        <time>2020-08-18T13:37:23Z</time>
      </trkpt>
      <trkpt lat="50.44843" lon="5.32364">
        <ele>237.7</ele>
        <time>2020-08-18T13:37:24Z</time>
      </trkpt>
      <trkpt lat="50.44842" lon="5.32364">
        <ele>237.7</ele>
        <time>2020-08-18T13:37:25Z</time>
      </trkpt>
      <trkpt lat="50.44841" lon="5.32364">
        <ele>237.7</ele>
        <time>2020-08-18T13:37:26Z</time>
      </trkpt>
      <trkpt lat="50.44841" lon="5.32364">
        <ele>237.7</ele>
        <time>2020-08-18T13:37:27Z</time>
      </trkpt>
      <trkpt lat="50.4484" lon="5.32365">
        <ele>237.7</ele>
        <time>2020-08-18T13:37:28Z</time>
      </trkpt>
      <trkpt lat="50.44838" lon="5.32365">
        <ele>237.7</ele>
        <time>2020-08-18T13:37:29Z</time>
      </trkpt>
      <trkpt lat="50.44838" lon="5.32365">
        <ele>237.7</ele>
        <time>2020-08-18T13:37:30Z</time>
      </trkpt>
      <trkpt lat="50.44837" lon="5.32366">
        <ele>237.7</ele>
        <time>2020-08-18T13:37:31Z</time>
      </trkpt>
      <trkpt lat="50.44836" lon="5.32366">
        <ele>237.7</ele>
        <time>2020-08-18T13:37:32Z</time>
      </trkpt>
      <trkpt lat="50.44835" lon="5.32367">
        <ele>237.6</ele>
        <time>2020-08-18T13:37:33Z</time>
      </trkpt>
      <trkpt lat="50.44834" lon="5.32367">
        <ele>237.6</ele>
        <time>2020-08-18T13:37:33Z</time>
      </trkpt>
      <trkpt lat="50.44834" lon="5.32368">
        <ele>237.6</ele>
        <time>2020-08-18T13:37:34Z</time>
      </trkpt>
      <trkpt lat="50.44833" lon="5.32369">
        <ele>238.4</ele>
        <time>2020-08-18T13:37:35Z</time>
      </trkpt>
      <trkpt lat="50.44832" lon="5.3237">
        <ele>238.4</ele>
        <time>2020-08-18T13:37:36Z</time>
      </trkpt>
      <trkpt lat="50.44831" lon="5.32371">
        <ele>238.4</ele>
        <time>2020-08-18T13:37:37Z</time>
      </trkpt>
      <trkpt lat="50.44831" lon="5.32371">
        <ele>238.4</ele>
        <time>2020-08-18T13:37:38Z</time>
      </trkpt>
      <trkpt lat="50.4483" lon="5.32371">
        <ele>238.4</ele>
        <time>2020-08-18T13:37:39Z</time>
      </trkpt>
      <trkpt lat="50.44829" lon="5.32371">
        <ele>238.4</ele>
        <time>2020-08-18T13:37:40Z</time>
      </trkpt>
      <trkpt lat="50.44829" lon="5.32371">
        <ele>238.4</ele>
        <time>2020-08-18T13:37:41Z</time>
      </trkpt>
      <trkpt lat="50.44828" lon="5.32372">
        <ele>238.4</ele>
        <time>2020-08-18T13:37:42Z</time>
      </trkpt>
      <trkpt lat="50.44827" lon="5.32373">
        <ele>238.5</ele>
        <time>2020-08-18T13:37:43Z</time>
      </trkpt>
      <trkpt lat="50.44826" lon="5.32373">
        <ele>238.5</ele>
        <time>2020-08-18T13:37:44Z</time>
      </trkpt>
      <trkpt lat="50.44825" lon="5.32374">
        <ele>238.5</ele>
        <time>2020-08-18T13:37:45Z</time>
      </trkpt>
      <trkpt lat="50.44824" lon="5.32375">
        <ele>238.5</ele>
        <time>2020-08-18T13:37:46Z</time>
      </trkpt>
      <trkpt lat="50.44823" lon="5.32376">
        <ele>238.5</ele>
        <time>2020-08-18T13:37:47Z</time>
      </trkpt>
      <trkpt lat="50.44822" lon="5.32377">
        <ele>238.5</ele>
        <time>2020-08-18T13:37:48Z</time>
      </trkpt>
      <trkpt lat="50.44821" lon="5.32378">
        <ele>238.5</ele>
        <time>2020-08-18T13:37:49Z</time>
      </trkpt>
      <trkpt lat="50.4482" lon="5.32379">
        <ele>238.6</ele>
        <time>2020-08-18T13:37:50Z</time>
      </trkpt>
      <trkpt lat="50.44819" lon="5.32381">
        <ele>238.6</ele>
        <time>2020-08-18T13:37:51Z</time>
      </trkpt>
      <trkpt lat="50.44819" lon="5.32382">
        <ele>238.5</ele>
        <time>2020-08-18T13:37:52Z</time>
      </trkpt>
      <trkpt lat="50.44817" lon="5.32383">
        <ele>238.6</ele>
        <time>2020-08-18T13:37:53Z</time>
      </trkpt>
      <trkpt lat="50.44816" lon="5.32384">
        <ele>238.6</ele>
        <time>2020-08-18T13:37:54Z</time>
      </trkpt>
      <trkpt lat="50.44815" lon="5.32385">
        <ele>238.6</ele>
        <time>2020-08-18T13:37:55Z</time>
      </trkpt>
      <trkpt lat="50.44814" lon="5.32386">
        <ele>238.6</ele>
        <time>2020-08-18T13:37:56Z</time>
      </trkpt>
      <trkpt lat="50.44813" lon="5.32387">
        <ele>238.7</ele>
        <time>2020-08-18T13:37:57Z</time>
      </trkpt>
      <trkpt lat="50.44812" lon="5.32387">
        <ele>238.7</ele>
        <time>2020-08-18T13:37:58Z</time>
      </trkpt>
      <trkpt lat="50.44811" lon="5.32387">
        <ele>238.7</ele>
        <time>2020-08-18T13:37:59Z</time>
      </trkpt>
      <trkpt lat="50.44811" lon="5.32387">
        <ele>238.7</ele>
        <time>2020-08-18T13:38:00Z</time>
      </trkpt>
      <trkpt lat="50.4481" lon="5.32387">
        <ele>238.8</ele>
        <time>2020-08-18T13:38:01Z</time>
      </trkpt>
      <trkpt lat="50.4481" lon="5.32386">
        <ele>238.8</ele>
        <time>2020-08-18T13:38:02Z</time>
      </trkpt>
      <trkpt lat="50.44809" lon="5.32385">
        <ele>238.8</ele>
        <time>2020-08-18T13:38:03Z</time>
      </trkpt>
      <trkpt lat="50.44809" lon="5.32384">
        <ele>238.8</ele>
        <time>2020-08-18T13:38:04Z</time>
      </trkpt>
      <trkpt lat="50.44808" lon="5.32383">
        <ele>238.9</ele>
        <time>2020-08-18T13:38:06Z</time>
      </trkpt>
      <trkpt lat="50.44808" lon="5.32383">
        <ele>238.9</ele>
        <time>2020-08-18T13:38:07Z</time>
      </trkpt>
      <trkpt lat="50.44807" lon="5.32384">
        <ele>238.9</ele>
        <time>2020-08-18T13:38:08Z</time>
      </trkpt>
      <trkpt lat="50.44807" lon="5.32385">
        <ele>238.9</ele>
        <time>2020-08-18T13:38:09Z</time>
      </trkpt>
      <trkpt lat="50.44806" lon="5.32386">
        <ele>238.9</ele>
        <time>2020-08-18T13:38:10Z</time>
      </trkpt>
      <trkpt lat="50.44805" lon="5.32387">
        <ele>239</ele>
        <time>2020-08-18T13:38:11Z</time>
      </trkpt>
      <trkpt lat="50.44805" lon="5.32388">
        <ele>238.9</ele>
        <time>2020-08-18T13:38:12Z</time>
      </trkpt>
      <trkpt lat="50.44804" lon="5.32389">
        <ele>239</ele>
        <time>2020-08-18T13:38:13Z</time>
      </trkpt>
      <trkpt lat="50.44804" lon="5.32389">
        <ele>239</ele>
        <time>2020-08-18T13:38:14Z</time>
      </trkpt>
      <trkpt lat="50.44803" lon="5.3239">
        <ele>239</ele>
        <time>2020-08-18T13:38:15Z</time>
      </trkpt>
      <trkpt lat="50.44802" lon="5.3239">
        <ele>239.1</ele>
        <time>2020-08-18T13:38:16Z</time>
      </trkpt>
      <trkpt lat="50.44801" lon="5.32391">
        <ele>239.1</ele>
        <time>2020-08-18T13:38:17Z</time>
      </trkpt>
      <trkpt lat="50.448" lon="5.32391">
        <ele>239.1</ele>
        <time>2020-08-18T13:38:18Z</time>
      </trkpt>
      <trkpt lat="50.44799" lon="5.32391">
        <ele>239.2</ele>
        <time>2020-08-18T13:38:19Z</time>
      </trkpt>
      <trkpt lat="50.44798" lon="5.32392">
        <ele>239.2</ele>
        <time>2020-08-18T13:38:20Z</time>
      </trkpt>
      <trkpt lat="50.44798" lon="5.32393">
        <ele>239.2</ele>
        <time>2020-08-18T13:38:21Z</time>
      </trkpt>
      <trkpt lat="50.44796" lon="5.32393">
        <ele>239.3</ele>
        <time>2020-08-18T13:38:22Z</time>
      </trkpt>
      <trkpt lat="50.44796" lon="5.32393">
        <ele>239.3</ele>
        <time>2020-08-18T13:38:23Z</time>
      </trkpt>
      <trkpt lat="50.44795" lon="5.32392">
        <ele>239.3</ele>
        <time>2020-08-18T13:38:24Z</time>
      </trkpt>
      <trkpt lat="50.44794" lon="5.32392">
        <ele>239.4</ele>
        <time>2020-08-18T13:38:25Z</time>
      </trkpt>
      <trkpt lat="50.44793" lon="5.32392">
        <ele>239.4</ele>
        <time>2020-08-18T13:38:26Z</time>
      </trkpt>
      <trkpt lat="50.44792" lon="5.32393">
        <ele>239.5</ele>
        <time>2020-08-18T13:38:27Z</time>
      </trkpt>
      <trkpt lat="50.44792" lon="5.32393">
        <ele>239.5</ele>
        <time>2020-08-18T13:38:28Z</time>
      </trkpt>
      <trkpt lat="50.44791" lon="5.32394">
        <ele>239.5</ele>
        <time>2020-08-18T13:38:29Z</time>
      </trkpt>
      <trkpt lat="50.4479" lon="5.32396">
        <ele>239.6</ele>
        <time>2020-08-18T13:38:30Z</time>
      </trkpt>
      <trkpt lat="50.4479" lon="5.32397">
        <ele>239.6</ele>
        <time>2020-08-18T13:38:31Z</time>
      </trkpt>
      <trkpt lat="50.44789" lon="5.32398">
        <ele>239.6</ele>
        <time>2020-08-18T13:38:32Z</time>
      </trkpt>
      <trkpt lat="50.44788" lon="5.32399">
        <ele>239.7</ele>
        <time>2020-08-18T13:38:33Z</time>
      </trkpt>
      <trkpt lat="50.44787" lon="5.32401">
        <ele>239.7</ele>
        <time>2020-08-18T13:38:34Z</time>
      </trkpt>
      <trkpt lat="50.44786" lon="5.32402">
        <ele>239.8</ele>
        <time>2020-08-18T13:38:35Z</time>
      </trkpt>
      <trkpt lat="50.44785" lon="5.32404">
        <ele>239.9</ele>
        <time>2020-08-18T13:38:36Z</time>
      </trkpt>
      <trkpt lat="50.44784" lon="5.32405">
        <ele>239.9</ele>
        <time>2020-08-18T13:38:37Z</time>
      </trkpt>
      <trkpt lat="50.44784" lon="5.32407">
        <ele>239.9</ele>
        <time>2020-08-18T13:38:38Z</time>
      </trkpt>
      <trkpt lat="50.44783" lon="5.32408">
        <ele>240</ele>
        <time>2020-08-18T13:38:39Z</time>
      </trkpt>
      <trkpt lat="50.44783" lon="5.32409">
        <ele>240</ele>
        <time>2020-08-18T13:38:40Z</time>
      </trkpt>
      <trkpt lat="50.44782" lon="5.3241">
        <ele>240.1</ele>
        <time>2020-08-18T13:38:41Z</time>
      </trkpt>
      <trkpt lat="50.44782" lon="5.32411">
        <ele>240.1</ele>
        <time>2020-08-18T13:38:42Z</time>
      </trkpt>
      <trkpt lat="50.44781" lon="5.32412">
        <ele>240.2</ele>
        <time>2020-08-18T13:38:43Z</time>
      </trkpt>
      <trkpt lat="50.44781" lon="5.32413">
        <ele>240.2</ele>
        <time>2020-08-18T13:38:44Z</time>
      </trkpt>
      <trkpt lat="50.44781" lon="5.32413">
        <ele>240.2</ele>
        <time>2020-08-18T13:38:45Z</time>
      </trkpt>
      <trkpt lat="50.44781" lon="5.32414">
        <ele>240.2</ele>
        <time>2020-08-18T13:38:46Z</time>
      </trkpt>
      <trkpt lat="50.44781" lon="5.32414">
        <ele>240.2</ele>
        <time>2020-08-18T13:38:47Z</time>
      </trkpt>
      <trkpt lat="50.4478" lon="5.32414">
        <ele>240.2</ele>
        <time>2020-08-18T13:38:48Z</time>
      </trkpt>
      <trkpt lat="50.44779" lon="5.32415">
        <ele>240.3</ele>
        <time>2020-08-18T13:38:49Z</time>
      </trkpt>
      <trkpt lat="50.44778" lon="5.32416">
        <ele>240.4</ele>
        <time>2020-08-18T13:38:50Z</time>
      </trkpt>
      <trkpt lat="50.44777" lon="5.32416">
        <ele>240.4</ele>
        <time>2020-08-18T13:38:51Z</time>
      </trkpt>
      <trkpt lat="50.44775" lon="5.32416">
        <ele>240.6</ele>
        <time>2020-08-18T13:38:52Z</time>
      </trkpt>
      <trkpt lat="50.44774" lon="5.32417">
        <ele>239.9</ele>
        <time>2020-08-18T13:38:53Z</time>
      </trkpt>
      <trkpt lat="50.44774" lon="5.32418">
        <ele>239.9</ele>
        <time>2020-08-18T13:38:54Z</time>
      </trkpt>
      <trkpt lat="50.44772" lon="5.32418">
        <ele>240.1</ele>
        <time>2020-08-18T13:38:55Z</time>
      </trkpt>
      <trkpt lat="50.44771" lon="5.32419">
        <ele>240.2</ele>
        <time>2020-08-18T13:38:56Z</time>
      </trkpt>
      <trkpt lat="50.44771" lon="5.3242">
        <ele>240.2</ele>
        <time>2020-08-18T13:38:57Z</time>
      </trkpt>
      <trkpt lat="50.4477" lon="5.32421">
        <ele>240.2</ele>
        <time>2020-08-18T13:38:58Z</time>
      </trkpt>
      <trkpt lat="50.4477" lon="5.32422">
        <ele>240.2</ele>
        <time>2020-08-18T13:38:59Z</time>
      </trkpt>
      <trkpt lat="50.44769" lon="5.32423">
        <ele>240.3</ele>
        <time>2020-08-18T13:39:00Z</time>
      </trkpt>
      <trkpt lat="50.44769" lon="5.32424">
        <ele>240.2</ele>
        <time>2020-08-18T13:39:01Z</time>
      </trkpt>
      <trkpt lat="50.44768" lon="5.32425">
        <ele>240.3</ele>
        <time>2020-08-18T13:39:02Z</time>
      </trkpt>
      <trkpt lat="50.44768" lon="5.32426">
        <ele>240.2</ele>
        <time>2020-08-18T13:39:03Z</time>
      </trkpt>
      <trkpt lat="50.44767" lon="5.32427">
        <ele>240.3</ele>
        <time>2020-08-18T13:39:04Z</time>
      </trkpt>
      <trkpt lat="50.44767" lon="5.32428">
        <ele>240.2</ele>
        <time>2020-08-18T13:39:05Z</time>
      </trkpt>
      <trkpt lat="50.44766" lon="5.32429">
        <ele>240.2</ele>
        <time>2020-08-18T13:39:06Z</time>
      </trkpt>
      <trkpt lat="50.44766" lon="5.3243">
        <ele>240.2</ele>
        <time>2020-08-18T13:39:07Z</time>
      </trkpt>
      <trkpt lat="50.44766" lon="5.32431">
        <ele>240.1</ele>
        <time>2020-08-18T13:39:08Z</time>
      </trkpt>
      <trkpt lat="50.44766" lon="5.32432">
        <ele>240.1</ele>
        <time>2020-08-18T13:39:09Z</time>
      </trkpt>
      <trkpt lat="50.44766" lon="5.32433">
        <ele>240</ele>
        <time>2020-08-18T13:39:10Z</time>
      </trkpt>
      <trkpt lat="50.44765" lon="5.32435">
        <ele>240</ele>
        <time>2020-08-18T13:39:11Z</time>
      </trkpt>
      <trkpt lat="50.44765" lon="5.32437">
        <ele>239.9</ele>
        <time>2020-08-18T13:39:12Z</time>
      </trkpt>
      <trkpt lat="50.44764" lon="5.32439">
        <ele>239.8</ele>
        <time>2020-08-18T13:39:13Z</time>
      </trkpt>
      <trkpt lat="50.44763" lon="5.32443">
        <ele>239.6</ele>
        <time>2020-08-18T13:39:15Z</time>
      </trkpt>
      <trkpt lat="50.44763" lon="5.32441">
        <ele>239.7</ele>
        <time>2020-08-18T13:39:17Z</time>
      </trkpt>
      <trkpt lat="50.44764" lon="5.32441">
        <ele>239.7</ele>
        <time>2020-08-18T13:39:18Z</time>
      </trkpt>
      <trkpt lat="50.44764" lon="5.32441">
        <ele>239.7</ele>
        <time>2020-08-18T13:39:19Z</time>
      </trkpt>
      <trkpt lat="50.44764" lon="5.32441">
        <ele>239.7</ele>
        <time>2020-08-18T13:39:20Z</time>
      </trkpt>
      <trkpt lat="50.44764" lon="5.32441">
        <ele>239.7</ele>
        <time>2020-08-18T13:39:21Z</time>
      </trkpt>
      <trkpt lat="50.44764" lon="5.32441">
        <ele>239.7</ele>
        <time>2020-08-18T13:39:22Z</time>
      </trkpt>
      <trkpt lat="50.44764" lon="5.32441">
        <ele>239.7</ele>
        <time>2020-08-18T13:39:23Z</time>
      </trkpt>
      <trkpt lat="50.44764" lon="5.32441">
        <ele>239.7</ele>
        <time>2020-08-18T13:39:24Z</time>
      </trkpt>
      <trkpt lat="50.44764" lon="5.32441">
        <ele>239.7</ele>
        <time>2020-08-18T13:39:25Z</time>
      </trkpt>
      <trkpt lat="50.44764" lon="5.32441">
        <ele>239.7</ele>
        <time>2020-08-18T13:39:26Z</time>
      </trkpt>
      <trkpt lat="50.44763" lon="5.32442">
        <ele>239.7</ele>
        <time>2020-08-18T13:39:28Z</time>
      </trkpt>
      <trkpt lat="50.44763" lon="5.32441">
        <ele>239.7</ele>
        <time>2020-08-18T13:39:29Z</time>
      </trkpt>
      <trkpt lat="50.44763" lon="5.32441">
        <ele>239.7</ele>
        <time>2020-08-18T13:39:30Z</time>
      </trkpt>
      <trkpt lat="50.44762" lon="5.32441">
        <ele>239.8</ele>
        <time>2020-08-18T13:39:31Z</time>
      </trkpt>
      <trkpt lat="50.44761" lon="5.32441">
        <ele>239.8</ele>
        <time>2020-08-18T13:39:32Z</time>
      </trkpt>
      <trkpt lat="50.44761" lon="5.3244">
        <ele>239.9</ele>
        <time>2020-08-18T13:39:33Z</time>
      </trkpt>
      <trkpt lat="50.44759" lon="5.3244">
        <ele>239.9</ele>
        <time>2020-08-18T13:39:34Z</time>
      </trkpt>
      <trkpt lat="50.44759" lon="5.3244">
        <ele>239.9</ele>
        <time>2020-08-18T13:39:35Z</time>
      </trkpt>
      <trkpt lat="50.44758" lon="5.3244">
        <ele>240</ele>
        <time>2020-08-18T13:39:36Z</time>
      </trkpt>
      <trkpt lat="50.44758" lon="5.3244">
        <ele>240</ele>
        <time>2020-08-18T13:39:37Z</time>
      </trkpt>
      <trkpt lat="50.44756" lon="5.32441">
        <ele>239.9</ele>
        <time>2020-08-18T13:39:38Z</time>
      </trkpt>
      <trkpt lat="50.44756" lon="5.32442">
        <ele>239.9</ele>
        <time>2020-08-18T13:39:39Z</time>
      </trkpt>
      <trkpt lat="50.44755" lon="5.32443">
        <ele>239.8</ele>
        <time>2020-08-18T13:39:40Z</time>
      </trkpt>
      <trkpt lat="50.44754" lon="5.32443">
        <ele>239.9</ele>
        <time>2020-08-18T13:39:41Z</time>
      </trkpt>
      <trkpt lat="50.44753" lon="5.32443">
        <ele>239.9</ele>
        <time>2020-08-18T13:39:42Z</time>
      </trkpt>
      <trkpt lat="50.44753" lon="5.32444">
        <ele>239.8</ele>
        <time>2020-08-18T13:39:43Z</time>
      </trkpt>
      <trkpt lat="50.44751" lon="5.32444">
        <ele>239.8</ele>
        <time>2020-08-18T13:39:44Z</time>
      </trkpt>
      <trkpt lat="50.4475" lon="5.32445">
        <ele>240.5</ele>
        <time>2020-08-18T13:39:45Z</time>
      </trkpt>
      <trkpt lat="50.44748" lon="5.32445">
        <ele>240.5</ele>
        <time>2020-08-18T13:39:46Z</time>
      </trkpt>
      <trkpt lat="50.44746" lon="5.32446">
        <ele>240.4</ele>
        <time>2020-08-18T13:39:47Z</time>
      </trkpt>
      <trkpt lat="50.44744" lon="5.32447">
        <ele>240.4</ele>
        <time>2020-08-18T13:39:48Z</time>
      </trkpt>
      <trkpt lat="50.44743" lon="5.32448">
        <ele>240.3</ele>
        <time>2020-08-18T13:39:49Z</time>
      </trkpt>
      <trkpt lat="50.44741" lon="5.32449">
        <ele>240.2</ele>
        <time>2020-08-18T13:39:50Z</time>
      </trkpt>
      <trkpt lat="50.4474" lon="5.3245">
        <ele>240.2</ele>
        <time>2020-08-18T13:39:51Z</time>
      </trkpt>
      <trkpt lat="50.44739" lon="5.3245">
        <ele>240.2</ele>
        <time>2020-08-18T13:39:52Z</time>
      </trkpt>
      <trkpt lat="50.44738" lon="5.32451">
        <ele>240.1</ele>
        <time>2020-08-18T13:39:53Z</time>
      </trkpt>
      <trkpt lat="50.44738" lon="5.32451">
        <ele>240.1</ele>
        <time>2020-08-18T13:39:54Z</time>
      </trkpt>
      <trkpt lat="50.44737" lon="5.32451">
        <ele>240.1</ele>
        <time>2020-08-18T13:39:55Z</time>
      </trkpt>
      <trkpt lat="50.44736" lon="5.32451">
        <ele>240.1</ele>
        <time>2020-08-18T13:39:56Z</time>
      </trkpt>
      <trkpt lat="50.44735" lon="5.3245">
        <ele>240.1</ele>
        <time>2020-08-18T13:39:57Z</time>
      </trkpt>
      <trkpt lat="50.44735" lon="5.3245">
        <ele>240.1</ele>
        <time>2020-08-18T13:39:58Z</time>
      </trkpt>
      <trkpt lat="50.44734" lon="5.3245">
        <ele>240.1</ele>
        <time>2020-08-18T13:39:59Z</time>
      </trkpt>
      <trkpt lat="50.44733" lon="5.32451">
        <ele>240</ele>
        <time>2020-08-18T13:40:00Z</time>
      </trkpt>
      <trkpt lat="50.44733" lon="5.32451">
        <ele>240</ele>
        <time>2020-08-18T13:40:01Z</time>
      </trkpt>
      <trkpt lat="50.44733" lon="5.32452">
        <ele>240</ele>
        <time>2020-08-18T13:40:02Z</time>
      </trkpt>
      <trkpt lat="50.44732" lon="5.32453">
        <ele>240</ele>
        <time>2020-08-18T13:40:03Z</time>
      </trkpt>
      <trkpt lat="50.44732" lon="5.32454">
        <ele>239.9</ele>
        <time>2020-08-18T13:40:04Z</time>
      </trkpt>
      <trkpt lat="50.44732" lon="5.32454">
        <ele>239.9</ele>
        <time>2020-08-18T13:40:05Z</time>
      </trkpt>
      <trkpt lat="50.44731" lon="5.32455">
        <ele>239.9</ele>
        <time>2020-08-18T13:40:06Z</time>
      </trkpt>
      <trkpt lat="50.4473" lon="5.32455">
        <ele>239.9</ele>
        <time>2020-08-18T13:40:07Z</time>
      </trkpt>
      <trkpt lat="50.4473" lon="5.32456">
        <ele>239.8</ele>
        <time>2020-08-18T13:40:08Z</time>
      </trkpt>
      <trkpt lat="50.4473" lon="5.32456">
        <ele>239.8</ele>
        <time>2020-08-18T13:40:09Z</time>
      </trkpt>
      <trkpt lat="50.44729" lon="5.32457">
        <ele>239.8</ele>
        <time>2020-08-18T13:40:10Z</time>
      </trkpt>
      <trkpt lat="50.44729" lon="5.32457">
        <ele>239.8</ele>
        <time>2020-08-18T13:40:11Z</time>
      </trkpt>
      <trkpt lat="50.44729" lon="5.32458">
        <ele>239.7</ele>
        <time>2020-08-18T13:40:12Z</time>
      </trkpt>
      <trkpt lat="50.44729" lon="5.32459">
        <ele>239.7</ele>
        <time>2020-08-18T13:40:13Z</time>
      </trkpt>
      <trkpt lat="50.44729" lon="5.3246">
        <ele>239.7</ele>
        <time>2020-08-18T13:40:14Z</time>
      </trkpt>
      <trkpt lat="50.44729" lon="5.32461">
        <ele>239.6</ele>
        <time>2020-08-18T13:40:15Z</time>
      </trkpt>
      <trkpt lat="50.44729" lon="5.32461">
        <ele>239.6</ele>
        <time>2020-08-18T13:40:16Z</time>
      </trkpt>
      <trkpt lat="50.44729" lon="5.32462">
        <ele>239.6</ele>
        <time>2020-08-18T13:40:17Z</time>
      </trkpt>
      <trkpt lat="50.44729" lon="5.32462">
        <ele>239.6</ele>
        <time>2020-08-18T13:40:18Z</time>
      </trkpt>
      <trkpt lat="50.44728" lon="5.32463">
        <ele>239.6</ele>
        <time>2020-08-18T13:40:20Z</time>
      </trkpt>
      <trkpt lat="50.44728" lon="5.32463">
        <ele>239.6</ele>
        <time>2020-08-18T13:40:21Z</time>
      </trkpt>
      <trkpt lat="50.44727" lon="5.32463">
        <ele>239.6</ele>
        <time>2020-08-18T13:40:23Z</time>
      </trkpt>
      <trkpt lat="50.44727" lon="5.32463">
        <ele>239.6</ele>
        <time>2020-08-18T13:40:24Z</time>
      </trkpt>
      <trkpt lat="50.44727" lon="5.32464">
        <ele>239.5</ele>
        <time>2020-08-18T13:40:25Z</time>
      </trkpt>
      <trkpt lat="50.44727" lon="5.32464">
        <ele>239.5</ele>
        <time>2020-08-18T13:40:26Z</time>
      </trkpt>
      <trkpt lat="50.44727" lon="5.32465">
        <ele>239.5</ele>
        <time>2020-08-18T13:40:27Z</time>
      </trkpt>
      <trkpt lat="50.44727" lon="5.32465">
        <ele>239.5</ele>
        <time>2020-08-18T13:40:28Z</time>
      </trkpt>
      <trkpt lat="50.44726" lon="5.32466">
        <ele>239.5</ele>
        <time>2020-08-18T13:40:29Z</time>
      </trkpt>
      <trkpt lat="50.44726" lon="5.32468">
        <ele>239.4</ele>
        <time>2020-08-18T13:40:30Z</time>
      </trkpt>
      <trkpt lat="50.44726" lon="5.32469">
        <ele>239.4</ele>
        <time>2020-08-18T13:40:31Z</time>
      </trkpt>
      <trkpt lat="50.44725" lon="5.3247">
        <ele>239.3</ele>
        <time>2020-08-18T13:40:32Z</time>
      </trkpt>
      <trkpt lat="50.44725" lon="5.32472">
        <ele>239.3</ele>
        <time>2020-08-18T13:40:33Z</time>
      </trkpt>
      <trkpt lat="50.44725" lon="5.32473">
        <ele>239.3</ele>
        <time>2020-08-18T13:40:34Z</time>
      </trkpt>
      <trkpt lat="50.44725" lon="5.32475">
        <ele>239.2</ele>
        <time>2020-08-18T13:40:35Z</time>
      </trkpt>
      <trkpt lat="50.44724" lon="5.32476">
        <ele>239.2</ele>
        <time>2020-08-18T13:40:36Z</time>
      </trkpt>
      <trkpt lat="50.44724" lon="5.32478">
        <ele>239.1</ele>
        <time>2020-08-18T13:40:37Z</time>
      </trkpt>
      <trkpt lat="50.44724" lon="5.32479">
        <ele>239.1</ele>
        <time>2020-08-18T13:40:38Z</time>
      </trkpt>
      <trkpt lat="50.44724" lon="5.3248">
        <ele>239.1</ele>
        <time>2020-08-18T13:40:39Z</time>
      </trkpt>
      <trkpt lat="50.44724" lon="5.32481">
        <ele>239.1</ele>
        <time>2020-08-18T13:40:40Z</time>
      </trkpt>
      <trkpt lat="50.44724" lon="5.32482">
        <ele>239</ele>
        <time>2020-08-18T13:40:41Z</time>
      </trkpt>
      <trkpt lat="50.44724" lon="5.32483">
        <ele>239</ele>
        <time>2020-08-18T13:40:42Z</time>
      </trkpt>
      <trkpt lat="50.44723" lon="5.32484">
        <ele>239</ele>
        <time>2020-08-18T13:40:43Z</time>
      </trkpt>
      <trkpt lat="50.44722" lon="5.32485">
        <ele>239</ele>
        <time>2020-08-18T13:40:44Z</time>
      </trkpt>
      <trkpt lat="50.44722" lon="5.32486">
        <ele>239</ele>
        <time>2020-08-18T13:40:45Z</time>
      </trkpt>
      <trkpt lat="50.4472" lon="5.32487">
        <ele>239</ele>
        <time>2020-08-18T13:40:47Z</time>
      </trkpt>
      <trkpt lat="50.44719" lon="5.32487">
        <ele>239</ele>
        <time>2020-08-18T13:40:48Z</time>
      </trkpt>
      <trkpt lat="50.44719" lon="5.32488">
        <ele>238.9</ele>
        <time>2020-08-18T13:40:49Z</time>
      </trkpt>
      <trkpt lat="50.44718" lon="5.32489">
        <ele>238.9</ele>
        <time>2020-08-18T13:40:50Z</time>
      </trkpt>
      <trkpt lat="50.44717" lon="5.3249">
        <ele>238.9</ele>
        <time>2020-08-18T13:40:51Z</time>
      </trkpt>
      <trkpt lat="50.44717" lon="5.32491">
        <ele>238.9</ele>
        <time>2020-08-18T13:40:52Z</time>
      </trkpt>
      <trkpt lat="50.44717" lon="5.32492">
        <ele>238.9</ele>
        <time>2020-08-18T13:40:53Z</time>
      </trkpt>
      <trkpt lat="50.44717" lon="5.32493">
        <ele>238.9</ele>
        <time>2020-08-18T13:40:54Z</time>
      </trkpt>
      <trkpt lat="50.44716" lon="5.32494">
        <ele>238.8</ele>
        <time>2020-08-18T13:40:55Z</time>
      </trkpt>
      <trkpt lat="50.44716" lon="5.32495">
        <ele>238.8</ele>
        <time>2020-08-18T13:40:56Z</time>
      </trkpt>
      <trkpt lat="50.44715" lon="5.32496">
        <ele>238.8</ele>
        <time>2020-08-18T13:40:57Z</time>
      </trkpt>
      <trkpt lat="50.44714" lon="5.32497">
        <ele>238.8</ele>
        <time>2020-08-18T13:40:58Z</time>
      </trkpt>
      <trkpt lat="50.44713" lon="5.32498">
        <ele>238.8</ele>
        <time>2020-08-18T13:40:59Z</time>
      </trkpt>
      <trkpt lat="50.44712" lon="5.32499">
        <ele>238.8</ele>
        <time>2020-08-18T13:41:00Z</time>
      </trkpt>
      <trkpt lat="50.44712" lon="5.32501">
        <ele>236.4</ele>
        <time>2020-08-18T13:41:01Z</time>
      </trkpt>
      <trkpt lat="50.44711" lon="5.32502">
        <ele>236.4</ele>
        <time>2020-08-18T13:41:02Z</time>
      </trkpt>
      <trkpt lat="50.44711" lon="5.32503">
        <ele>236.4</ele>
        <time>2020-08-18T13:41:03Z</time>
      </trkpt>
      <trkpt lat="50.44711" lon="5.32504">
        <ele>236.4</ele>
        <time>2020-08-18T13:41:04Z</time>
      </trkpt>
      <trkpt lat="50.44711" lon="5.32505">
        <ele>236.4</ele>
        <time>2020-08-18T13:41:05Z</time>
      </trkpt>
      <trkpt lat="50.44711" lon="5.32505">
        <ele>236.4</ele>
        <time>2020-08-18T13:41:06Z</time>
      </trkpt>
      <trkpt lat="50.44711" lon="5.32506">
        <ele>236.4</ele>
        <time>2020-08-18T13:41:07Z</time>
      </trkpt>
      <trkpt lat="50.44711" lon="5.32507">
        <ele>236.4</ele>
        <time>2020-08-18T13:41:08Z</time>
      </trkpt>
      <trkpt lat="50.44711" lon="5.32509">
        <ele>236.4</ele>
        <time>2020-08-18T13:41:09Z</time>
      </trkpt>
      <trkpt lat="50.44711" lon="5.3251">
        <ele>236.3</ele>
        <time>2020-08-18T13:41:10Z</time>
      </trkpt>
      <trkpt lat="50.44711" lon="5.32512">
        <ele>236.3</ele>
        <time>2020-08-18T13:41:11Z</time>
      </trkpt>
      <trkpt lat="50.44709" lon="5.32512">
        <ele>236.3</ele>
        <time>2020-08-18T13:41:12Z</time>
      </trkpt>
      <trkpt lat="50.44708" lon="5.32513">
        <ele>236.3</ele>
        <time>2020-08-18T13:41:13Z</time>
      </trkpt>
      <trkpt lat="50.44707" lon="5.32514">
        <ele>236.3</ele>
        <time>2020-08-18T13:41:14Z</time>
      </trkpt>
      <trkpt lat="50.44705" lon="5.32515">
        <ele>236.2</ele>
        <time>2020-08-18T13:41:15Z</time>
      </trkpt>
      <trkpt lat="50.44704" lon="5.32515">
        <ele>236.2</ele>
        <time>2020-08-18T13:41:16Z</time>
      </trkpt>
      <trkpt lat="50.44703" lon="5.32516">
        <ele>236.2</ele>
        <time>2020-08-18T13:41:17Z</time>
      </trkpt>
      <trkpt lat="50.44703" lon="5.32517">
        <ele>236.2</ele>
        <time>2020-08-18T13:41:18Z</time>
      </trkpt>
      <trkpt lat="50.44702" lon="5.32517">
        <ele>236.2</ele>
        <time>2020-08-18T13:41:19Z</time>
      </trkpt>
      <trkpt lat="50.44702" lon="5.32517">
        <ele>236.2</ele>
        <time>2020-08-18T13:41:20Z</time>
      </trkpt>
      <trkpt lat="50.44701" lon="5.32518">
        <ele>236.2</ele>
        <time>2020-08-18T13:41:21Z</time>
      </trkpt>
      <trkpt lat="50.447" lon="5.32518">
        <ele>236.2</ele>
        <time>2020-08-18T13:41:22Z</time>
      </trkpt>
      <trkpt lat="50.44699" lon="5.32519">
        <ele>236.2</ele>
        <time>2020-08-18T13:41:23Z</time>
      </trkpt>
      <trkpt lat="50.44697" lon="5.32519">
        <ele>236.2</ele>
        <time>2020-08-18T13:41:24Z</time>
      </trkpt>
      <trkpt lat="50.44696" lon="5.32519">
        <ele>236.2</ele>
        <time>2020-08-18T13:41:25Z</time>
      </trkpt>
      <trkpt lat="50.44695" lon="5.32519">
        <ele>236.2</ele>
        <time>2020-08-18T13:41:26Z</time>
      </trkpt>
      <trkpt lat="50.44694" lon="5.32518">
        <ele>236.2</ele>
        <time>2020-08-18T13:41:27Z</time>
      </trkpt>
      <trkpt lat="50.44693" lon="5.32518">
        <ele>236.2</ele>
        <time>2020-08-18T13:41:28Z</time>
      </trkpt>
      <trkpt lat="50.44693" lon="5.32518">
        <ele>236.2</ele>
        <time>2020-08-18T13:41:29Z</time>
      </trkpt>
      <trkpt lat="50.44692" lon="5.32518">
        <ele>236.2</ele>
        <time>2020-08-18T13:41:30Z</time>
      </trkpt>
      <trkpt lat="50.44691" lon="5.32517">
        <ele>236.2</ele>
        <time>2020-08-18T13:41:31Z</time>
      </trkpt>
      <trkpt lat="50.4469" lon="5.32517">
        <ele>236.2</ele>
        <time>2020-08-18T13:41:32Z</time>
      </trkpt>
      <trkpt lat="50.4469" lon="5.32516">
        <ele>236.3</ele>
        <time>2020-08-18T13:41:33Z</time>
      </trkpt>
      <trkpt lat="50.44689" lon="5.32516">
        <ele>236.3</ele>
        <time>2020-08-18T13:41:34Z</time>
      </trkpt>
      <trkpt lat="50.44689" lon="5.32516">
        <ele>236.3</ele>
        <time>2020-08-18T13:41:35Z</time>
      </trkpt>
      <trkpt lat="50.44688" lon="5.32515">
        <ele>236.3</ele>
        <time>2020-08-18T13:41:36Z</time>
      </trkpt>
      <trkpt lat="50.44687" lon="5.32515">
        <ele>236.3</ele>
        <time>2020-08-18T13:41:37Z</time>
      </trkpt>
      <trkpt lat="50.44687" lon="5.32514">
        <ele>236.3</ele>
        <time>2020-08-18T13:41:38Z</time>
      </trkpt>
      <trkpt lat="50.44686" lon="5.32514">
        <ele>236.3</ele>
        <time>2020-08-18T13:41:39Z</time>
      </trkpt>
      <trkpt lat="50.44685" lon="5.32514">
        <ele>236.3</ele>
        <time>2020-08-18T13:41:40Z</time>
      </trkpt>
      <trkpt lat="50.44684" lon="5.32514">
        <ele>236.3</ele>
        <time>2020-08-18T13:41:41Z</time>
      </trkpt>
      <trkpt lat="50.44684" lon="5.32514">
        <ele>236.3</ele>
        <time>2020-08-18T13:41:42Z</time>
      </trkpt>
      <trkpt lat="50.44683" lon="5.32514">
        <ele>236.4</ele>
        <time>2020-08-18T13:41:43Z</time>
      </trkpt>
      <trkpt lat="50.44682" lon="5.32514">
        <ele>236.4</ele>
        <time>2020-08-18T13:41:44Z</time>
      </trkpt>
      <trkpt lat="50.44681" lon="5.32514">
        <ele>236.4</ele>
        <time>2020-08-18T13:41:45Z</time>
      </trkpt>
      <trkpt lat="50.4468" lon="5.32514">
        <ele>236.4</ele>
        <time>2020-08-18T13:41:46Z</time>
      </trkpt>
      <trkpt lat="50.44678" lon="5.32515">
        <ele>236.4</ele>
        <time>2020-08-18T13:41:47Z</time>
      </trkpt>
      <trkpt lat="50.44677" lon="5.32515">
        <ele>236.4</ele>
        <time>2020-08-18T13:41:48Z</time>
      </trkpt>
      <trkpt lat="50.44675" lon="5.32515">
        <ele>236.4</ele>
        <time>2020-08-18T13:41:48Z</time>
      </trkpt>
      <trkpt lat="50.44674" lon="5.32516">
        <ele>236.4</ele>
        <time>2020-08-18T13:41:49Z</time>
      </trkpt>
      <trkpt lat="50.44672" lon="5.32515">
        <ele>236.4</ele>
        <time>2020-08-18T13:41:50Z</time>
      </trkpt>
      <trkpt lat="50.44672" lon="5.32515">
        <ele>236.4</ele>
        <time>2020-08-18T13:41:51Z</time>
      </trkpt>
      <trkpt lat="50.44672" lon="5.32515">
        <ele>236.4</ele>
        <time>2020-08-18T13:41:52Z</time>
      </trkpt>
      <trkpt lat="50.44671" lon="5.32514">
        <ele>236.5</ele>
        <time>2020-08-18T13:41:53Z</time>
      </trkpt>
      <trkpt lat="50.44669" lon="5.32513">
        <ele>236.5</ele>
        <time>2020-08-18T13:41:54Z</time>
      </trkpt>
      <trkpt lat="50.44668" lon="5.32512">
        <ele>236.6</ele>
        <time>2020-08-18T13:41:55Z</time>
      </trkpt>
      <trkpt lat="50.44666" lon="5.32511">
        <ele>236.3</ele>
        <time>2020-08-18T13:41:56Z</time>
      </trkpt>
      <trkpt lat="50.44666" lon="5.32511">
        <ele>236.3</ele>
        <time>2020-08-18T13:41:57Z</time>
      </trkpt>
      <trkpt lat="50.44664" lon="5.3251">
        <ele>236.4</ele>
        <time>2020-08-18T13:41:58Z</time>
      </trkpt>
      <trkpt lat="50.44664" lon="5.3251">
        <ele>236.4</ele>
        <time>2020-08-18T13:41:59Z</time>
      </trkpt>
      <trkpt lat="50.44664" lon="5.3251">
        <ele>236.4</ele>
        <time>2020-08-18T13:42:00Z</time>
      </trkpt>
      <trkpt lat="50.44663" lon="5.3251">
        <ele>236.4</ele>
        <time>2020-08-18T13:42:01Z</time>
      </trkpt>
      <trkpt lat="50.44663" lon="5.3251">
        <ele>236.4</ele>
        <time>2020-08-18T13:42:02Z</time>
      </trkpt>
      <trkpt lat="50.44662" lon="5.3251">
        <ele>236.3</ele>
        <time>2020-08-18T13:42:03Z</time>
      </trkpt>
      <trkpt lat="50.44661" lon="5.3251">
        <ele>236.3</ele>
        <time>2020-08-18T13:42:06Z</time>
      </trkpt>
      <trkpt lat="50.44661" lon="5.3251">
        <ele>236.3</ele>
        <time>2020-08-18T13:42:07Z</time>
      </trkpt>
      <trkpt lat="50.44661" lon="5.32511">
        <ele>236.3</ele>
        <time>2020-08-18T13:42:08Z</time>
      </trkpt>
      <trkpt lat="50.44661" lon="5.32511">
        <ele>236.3</ele>
        <time>2020-08-18T13:42:09Z</time>
      </trkpt>
      <trkpt lat="50.44662" lon="5.32513">
        <ele>236.2</ele>
        <time>2020-08-18T13:42:10Z</time>
      </trkpt>
      <trkpt lat="50.44662" lon="5.32514">
        <ele>236.2</ele>
        <time>2020-08-18T13:42:11Z</time>
      </trkpt>
      <trkpt lat="50.44662" lon="5.32514">
        <ele>236.2</ele>
        <time>2020-08-18T13:42:12Z</time>
      </trkpt>
      <trkpt lat="50.44661" lon="5.32514">
        <ele>236.2</ele>
        <time>2020-08-18T13:42:13Z</time>
      </trkpt>
      <trkpt lat="50.4466" lon="5.32514">
        <ele>236.1</ele>
        <time>2020-08-18T13:42:14Z</time>
      </trkpt>
      <trkpt lat="50.44659" lon="5.32514">
        <ele>236.1</ele>
        <time>2020-08-18T13:42:15Z</time>
      </trkpt>
      <trkpt lat="50.44658" lon="5.32513">
        <ele>236.1</ele>
        <time>2020-08-18T13:42:16Z</time>
      </trkpt>
      <trkpt lat="50.44656" lon="5.32512">
        <ele>236.1</ele>
        <time>2020-08-18T13:42:17Z</time>
      </trkpt>
      <trkpt lat="50.44655" lon="5.32511">
        <ele>236.1</ele>
        <time>2020-08-18T13:42:18Z</time>
      </trkpt>
      <trkpt lat="50.44653" lon="5.3251">
        <ele>236.1</ele>
        <time>2020-08-18T13:42:19Z</time>
      </trkpt>
      <trkpt lat="50.44652" lon="5.32508">
        <ele>236.1</ele>
        <time>2020-08-18T13:42:20Z</time>
      </trkpt>
      <trkpt lat="50.44651" lon="5.32507">
        <ele>236.1</ele>
        <time>2020-08-18T13:42:21Z</time>
      </trkpt>
      <trkpt lat="50.4465" lon="5.32506">
        <ele>236</ele>
        <time>2020-08-18T13:42:22Z</time>
      </trkpt>
      <trkpt lat="50.4465" lon="5.32504">
        <ele>236.1</ele>
        <time>2020-08-18T13:42:23Z</time>
      </trkpt>
      <trkpt lat="50.44648" lon="5.32503">
        <ele>236</ele>
        <time>2020-08-18T13:42:24Z</time>
      </trkpt>
      <trkpt lat="50.44648" lon="5.32502">
        <ele>236</ele>
        <time>2020-08-18T13:42:25Z</time>
      </trkpt>
      <trkpt lat="50.44648" lon="5.325">
        <ele>236</ele>
        <time>2020-08-18T13:42:26Z</time>
      </trkpt>
      <trkpt lat="50.44647" lon="5.325">
        <ele>236</ele>
        <time>2020-08-18T13:42:27Z</time>
      </trkpt>
      <trkpt lat="50.44647" lon="5.32499">
        <ele>236.5</ele>
        <time>2020-08-18T13:42:28Z</time>
      </trkpt>
      <trkpt lat="50.44646" lon="5.32498">
        <ele>236.5</ele>
        <time>2020-08-18T13:42:29Z</time>
      </trkpt>
      <trkpt lat="50.44645" lon="5.32497">
        <ele>236.5</ele>
        <time>2020-08-18T13:42:30Z</time>
      </trkpt>
      <trkpt lat="50.44644" lon="5.32497">
        <ele>236.5</ele>
        <time>2020-08-18T13:42:31Z</time>
      </trkpt>
      <trkpt lat="50.44644" lon="5.32497">
        <ele>236.5</ele>
        <time>2020-08-18T13:42:32Z</time>
      </trkpt>
      <trkpt lat="50.44644" lon="5.32497">
        <ele>236.5</ele>
        <time>2020-08-18T13:42:33Z</time>
      </trkpt>
      <trkpt lat="50.44644" lon="5.32499">
        <ele>236.5</ele>
        <time>2020-08-18T13:42:35Z</time>
      </trkpt>
      <trkpt lat="50.44644" lon="5.32498">
        <ele>236.5</ele>
        <time>2020-08-18T13:42:36Z</time>
      </trkpt>
      <trkpt lat="50.44643" lon="5.32497">
        <ele>236.4</ele>
        <time>2020-08-18T13:42:37Z</time>
      </trkpt>
      <trkpt lat="50.44642" lon="5.32496">
        <ele>236.4</ele>
        <time>2020-08-18T13:42:38Z</time>
      </trkpt>
      <trkpt lat="50.44641" lon="5.32494">
        <ele>236.4</ele>
        <time>2020-08-18T13:42:39Z</time>
      </trkpt>
      <trkpt lat="50.4464" lon="5.32492">
        <ele>236.4</ele>
        <time>2020-08-18T13:42:40Z</time>
      </trkpt>
      <trkpt lat="50.44639" lon="5.32491">
        <ele>236.4</ele>
        <time>2020-08-18T13:42:41Z</time>
      </trkpt>
      <trkpt lat="50.44639" lon="5.3249">
        <ele>236.4</ele>
        <time>2020-08-18T13:42:42Z</time>
      </trkpt>
      <trkpt lat="50.44638" lon="5.32489">
        <ele>236.4</ele>
        <time>2020-08-18T13:42:43Z</time>
      </trkpt>
      <trkpt lat="50.44637" lon="5.32489">
        <ele>236.3</ele>
        <time>2020-08-18T13:42:44Z</time>
      </trkpt>
      <trkpt lat="50.44636" lon="5.32488">
        <ele>236.3</ele>
        <time>2020-08-18T13:42:45Z</time>
      </trkpt>
      <trkpt lat="50.44635" lon="5.32488">
        <ele>236.3</ele>
        <time>2020-08-18T13:42:46Z</time>
      </trkpt>
      <trkpt lat="50.44635" lon="5.32487">
        <ele>236.3</ele>
        <time>2020-08-18T13:42:47Z</time>
      </trkpt>
      <trkpt lat="50.44634" lon="5.32486">
        <ele>236.3</ele>
        <time>2020-08-18T13:42:48Z</time>
      </trkpt>
      <trkpt lat="50.44634" lon="5.32485">
        <ele>236.3</ele>
        <time>2020-08-18T13:42:49Z</time>
      </trkpt>
      <trkpt lat="50.44633" lon="5.32483">
        <ele>236.3</ele>
        <time>2020-08-18T13:42:50Z</time>
      </trkpt>
      <trkpt lat="50.44633" lon="5.32482">
        <ele>236.3</ele>
        <time>2020-08-18T13:42:51Z</time>
      </trkpt>
      <trkpt lat="50.44633" lon="5.32482">
        <ele>236.3</ele>
        <time>2020-08-18T13:42:52Z</time>
      </trkpt>
      <trkpt lat="50.44633" lon="5.32481">
        <ele>236.3</ele>
        <time>2020-08-18T13:42:53Z</time>
      </trkpt>
      <trkpt lat="50.44633" lon="5.3248">
        <ele>236.3</ele>
        <time>2020-08-18T13:42:54Z</time>
      </trkpt>
      <trkpt lat="50.44633" lon="5.32479">
        <ele>236.3</ele>
        <time>2020-08-18T13:42:55Z</time>
      </trkpt>
      <trkpt lat="50.44632" lon="5.32478">
        <ele>236.3</ele>
        <time>2020-08-18T13:42:56Z</time>
      </trkpt>
      <trkpt lat="50.4463" lon="5.32477">
        <ele>236.2</ele>
        <time>2020-08-18T13:42:57Z</time>
      </trkpt>
      <trkpt lat="50.4463" lon="5.32476">
        <ele>236.2</ele>
        <time>2020-08-18T13:42:58Z</time>
      </trkpt>
      <trkpt lat="50.4463" lon="5.32476">
        <ele>236.2</ele>
        <time>2020-08-18T13:42:59Z</time>
      </trkpt>
      <trkpt lat="50.4463" lon="5.32475">
        <ele>236.2</ele>
        <time>2020-08-18T13:43:00Z</time>
      </trkpt>
      <trkpt lat="50.4463" lon="5.32473">
        <ele>236.2</ele>
        <time>2020-08-18T13:43:02Z</time>
      </trkpt>
      <trkpt lat="50.4463" lon="5.32473">
        <ele>236.2</ele>
        <time>2020-08-18T13:43:03Z</time>
      </trkpt>
      <trkpt lat="50.4463" lon="5.32473">
        <ele>236.2</ele>
        <time>2020-08-18T13:43:05Z</time>
      </trkpt>
      <trkpt lat="50.4463" lon="5.32473">
        <ele>236.2</ele>
        <time>2020-08-18T13:43:06Z</time>
      </trkpt>
      <trkpt lat="50.4463" lon="5.32472">
        <ele>236.3</ele>
        <time>2020-08-18T13:43:07Z</time>
      </trkpt>
      <trkpt lat="50.44629" lon="5.32472">
        <ele>236.2</ele>
        <time>2020-08-18T13:43:08Z</time>
      </trkpt>
      <trkpt lat="50.44628" lon="5.32471">
        <ele>236.2</ele>
        <time>2020-08-18T13:43:09Z</time>
      </trkpt>
      <trkpt lat="50.44627" lon="5.32471">
        <ele>236.2</ele>
        <time>2020-08-18T13:43:10Z</time>
      </trkpt>
      <trkpt lat="50.44626" lon="5.3247">
        <ele>236.2</ele>
        <time>2020-08-18T13:43:12Z</time>
      </trkpt>
      <trkpt lat="50.44626" lon="5.3247">
        <ele>236.2</ele>
        <time>2020-08-18T13:43:13Z</time>
      </trkpt>
      <trkpt lat="50.44626" lon="5.32469">
        <ele>236.2</ele>
        <time>2020-08-18T13:43:14Z</time>
      </trkpt>
      <trkpt lat="50.44625" lon="5.32468">
        <ele>236.2</ele>
        <time>2020-08-18T13:43:15Z</time>
      </trkpt>
      <trkpt lat="50.44624" lon="5.32467">
        <ele>236.1</ele>
        <time>2020-08-18T13:43:16Z</time>
      </trkpt>
      <trkpt lat="50.44624" lon="5.32467">
        <ele>236.1</ele>
        <time>2020-08-18T13:43:17Z</time>
      </trkpt>
      <trkpt lat="50.44625" lon="5.32467">
        <ele>236.2</ele>
        <time>2020-08-18T13:43:18Z</time>
      </trkpt>
      <trkpt lat="50.44625" lon="5.32468">
        <ele>236.2</ele>
        <time>2020-08-18T13:43:19Z</time>
      </trkpt>
      <trkpt lat="50.44624" lon="5.32467">
        <ele>236.1</ele>
        <time>2020-08-18T13:43:20Z</time>
      </trkpt>
      <trkpt lat="50.44623" lon="5.32467">
        <ele>236.1</ele>
        <time>2020-08-18T13:43:21Z</time>
      </trkpt>
      <trkpt lat="50.44622" lon="5.32467">
        <ele>236.1</ele>
        <time>2020-08-18T13:43:22Z</time>
      </trkpt>
      <trkpt lat="50.44621" lon="5.32467">
        <ele>236.1</ele>
        <time>2020-08-18T13:43:23Z</time>
      </trkpt>
      <trkpt lat="50.4462" lon="5.32466">
        <ele>236.1</ele>
        <time>2020-08-18T13:43:24Z</time>
      </trkpt>
      <trkpt lat="50.4462" lon="5.32466">
        <ele>236.1</ele>
        <time>2020-08-18T13:43:25Z</time>
      </trkpt>
      <trkpt lat="50.44619" lon="5.32466">
        <ele>236</ele>
        <time>2020-08-18T13:43:26Z</time>
      </trkpt>
      <trkpt lat="50.44618" lon="5.32467">
        <ele>236</ele>
        <time>2020-08-18T13:43:27Z</time>
      </trkpt>
      <trkpt lat="50.44618" lon="5.32468">
        <ele>236</ele>
        <time>2020-08-18T13:43:28Z</time>
      </trkpt>
      <trkpt lat="50.44618" lon="5.32468">
        <ele>236</ele>
        <time>2020-08-18T13:43:29Z</time>
      </trkpt>
      <trkpt lat="50.44618" lon="5.32468">
        <ele>236</ele>
        <time>2020-08-18T13:43:30Z</time>
      </trkpt>
      <trkpt lat="50.44618" lon="5.32467">
        <ele>236</ele>
        <time>2020-08-18T13:43:31Z</time>
      </trkpt>
      <trkpt lat="50.44617" lon="5.32466">
        <ele>236</ele>
        <time>2020-08-18T13:43:32Z</time>
      </trkpt>
      <trkpt lat="50.44617" lon="5.32465">
        <ele>236</ele>
        <time>2020-08-18T13:43:33Z</time>
      </trkpt>
      <trkpt lat="50.44616" lon="5.32462">
        <ele>236</ele>
        <time>2020-08-18T13:43:35Z</time>
      </trkpt>
      <trkpt lat="50.44616" lon="5.32462">
        <ele>236</ele>
        <time>2020-08-18T13:43:36Z</time>
      </trkpt>
      <trkpt lat="50.44616" lon="5.3246">
        <ele>236</ele>
        <time>2020-08-18T13:43:37Z</time>
      </trkpt>
      <trkpt lat="50.44615" lon="5.32459">
        <ele>236</ele>
        <time>2020-08-18T13:43:38Z</time>
      </trkpt>
      <trkpt lat="50.44615" lon="5.32456">
        <ele>236</ele>
        <time>2020-08-18T13:43:39Z</time>
      </trkpt>
      <trkpt lat="50.44614" lon="5.32455">
        <ele>236</ele>
        <time>2020-08-18T13:43:40Z</time>
      </trkpt>
      <trkpt lat="50.44613" lon="5.32454">
        <ele>236</ele>
        <time>2020-08-18T13:43:41Z</time>
      </trkpt>
      <trkpt lat="50.44613" lon="5.32454">
        <ele>236</ele>
        <time>2020-08-18T13:43:42Z</time>
      </trkpt>
      <trkpt lat="50.44611" lon="5.32451">
        <ele>235.9</ele>
        <time>2020-08-18T13:43:45Z</time>
      </trkpt>
      <trkpt lat="50.44611" lon="5.32451">
        <ele>235.9</ele>
        <time>2020-08-18T13:43:46Z</time>
      </trkpt>
      <trkpt lat="50.44611" lon="5.3245">
        <ele>235.9</ele>
        <time>2020-08-18T13:43:47Z</time>
      </trkpt>
      <trkpt lat="50.44611" lon="5.32448">
        <ele>235.9</ele>
        <time>2020-08-18T13:43:48Z</time>
      </trkpt>
      <trkpt lat="50.44611" lon="5.32446">
        <ele>235.9</ele>
        <time>2020-08-18T13:43:49Z</time>
      </trkpt>
      <trkpt lat="50.44611" lon="5.32445">
        <ele>235.9</ele>
        <time>2020-08-18T13:43:50Z</time>
      </trkpt>
      <trkpt lat="50.4461" lon="5.32441">
        <ele>235.9</ele>
        <time>2020-08-18T13:43:52Z</time>
      </trkpt>
      <trkpt lat="50.4461" lon="5.32441">
        <ele>235.9</ele>
        <time>2020-08-18T13:43:53Z</time>
      </trkpt>
      <trkpt lat="50.4461" lon="5.32441">
        <ele>235.9</ele>
        <time>2020-08-18T13:43:54Z</time>
      </trkpt>
      <trkpt lat="50.4461" lon="5.3244">
        <ele>235.9</ele>
        <time>2020-08-18T13:43:55Z</time>
      </trkpt>
      <trkpt lat="50.4461" lon="5.3244">
        <ele>235.9</ele>
        <time>2020-08-18T13:43:56Z</time>
      </trkpt>
      <trkpt lat="50.4461" lon="5.32439">
        <ele>235.9</ele>
        <time>2020-08-18T13:43:57Z</time>
      </trkpt>
      <trkpt lat="50.44609" lon="5.32437">
        <ele>235.8</ele>
        <time>2020-08-18T13:43:58Z</time>
      </trkpt>
      <trkpt lat="50.44608" lon="5.32436">
        <ele>235.8</ele>
        <time>2020-08-18T13:43:59Z</time>
      </trkpt>
      <trkpt lat="50.44607" lon="5.32435">
        <ele>235.7</ele>
        <time>2020-08-18T13:44:00Z</time>
      </trkpt>
      <trkpt lat="50.44606" lon="5.32434">
        <ele>235.7</ele>
        <time>2020-08-18T13:44:01Z</time>
      </trkpt>
      <trkpt lat="50.44605" lon="5.32433">
        <ele>235.6</ele>
        <time>2020-08-18T13:44:02Z</time>
      </trkpt>
      <trkpt lat="50.44605" lon="5.32432">
        <ele>235.6</ele>
        <time>2020-08-18T13:44:03Z</time>
      </trkpt>
      <trkpt lat="50.44605" lon="5.32432">
        <ele>235.6</ele>
        <time>2020-08-18T13:44:04Z</time>
      </trkpt>
      <trkpt lat="50.44605" lon="5.32432">
        <ele>235.6</ele>
        <time>2020-08-18T13:44:05Z</time>
      </trkpt>
      <trkpt lat="50.44605" lon="5.32432">
        <ele>235.6</ele>
        <time>2020-08-18T13:44:06Z</time>
      </trkpt>
      <trkpt lat="50.44605" lon="5.32432">
        <ele>235.6</ele>
        <time>2020-08-18T13:44:07Z</time>
      </trkpt>
      <trkpt lat="50.44604" lon="5.32432">
        <ele>235.6</ele>
        <time>2020-08-18T13:44:08Z</time>
      </trkpt>
      <trkpt lat="50.44604" lon="5.32431">
        <ele>235.6</ele>
        <time>2020-08-18T13:44:09Z</time>
      </trkpt>
      <trkpt lat="50.44603" lon="5.32429">
        <ele>235.5</ele>
        <time>2020-08-18T13:44:10Z</time>
      </trkpt>
      <trkpt lat="50.44602" lon="5.32428">
        <ele>235.4</ele>
        <time>2020-08-18T13:44:11Z</time>
      </trkpt>
      <trkpt lat="50.44602" lon="5.32428">
        <ele>235.4</ele>
        <time>2020-08-18T13:44:12Z</time>
      </trkpt>
      <trkpt lat="50.44601" lon="5.32427">
        <ele>235.4</ele>
        <time>2020-08-18T13:44:13Z</time>
      </trkpt>
      <trkpt lat="50.44601" lon="5.32426">
        <ele>235.4</ele>
        <time>2020-08-18T13:44:14Z</time>
      </trkpt>
      <trkpt lat="50.446" lon="5.32426">
        <ele>235.3</ele>
        <time>2020-08-18T13:44:15Z</time>
      </trkpt>
      <trkpt lat="50.44599" lon="5.32426">
        <ele>235.3</ele>
        <time>2020-08-18T13:44:16Z</time>
      </trkpt>
      <trkpt lat="50.44598" lon="5.32426">
        <ele>235.2</ele>
        <time>2020-08-18T13:44:18Z</time>
      </trkpt>
      <trkpt lat="50.44598" lon="5.32426">
        <ele>235.2</ele>
        <time>2020-08-18T13:44:19Z</time>
      </trkpt>
      <trkpt lat="50.44598" lon="5.32425">
        <ele>235.2</ele>
        <time>2020-08-18T13:44:20Z</time>
      </trkpt>
      <trkpt lat="50.44598" lon="5.32424">
        <ele>235.2</ele>
        <time>2020-08-18T13:44:21Z</time>
      </trkpt>
      <trkpt lat="50.44598" lon="5.32423">
        <ele>235.2</ele>
        <time>2020-08-18T13:44:22Z</time>
      </trkpt>
      <trkpt lat="50.44598" lon="5.32422">
        <ele>235.2</ele>
        <time>2020-08-18T13:44:23Z</time>
      </trkpt>
      <trkpt lat="50.44598" lon="5.32422">
        <ele>235.2</ele>
        <time>2020-08-18T13:44:24Z</time>
      </trkpt>
      <trkpt lat="50.44598" lon="5.32421">
        <ele>235.1</ele>
        <time>2020-08-18T13:44:25Z</time>
      </trkpt>
      <trkpt lat="50.44597" lon="5.3242">
        <ele>235.1</ele>
        <time>2020-08-18T13:44:26Z</time>
      </trkpt>
      <trkpt lat="50.44597" lon="5.3242">
        <ele>235.1</ele>
        <time>2020-08-18T13:44:27Z</time>
      </trkpt>
      <trkpt lat="50.44596" lon="5.32419">
        <ele>235</ele>
        <time>2020-08-18T13:44:28Z</time>
      </trkpt>
      <trkpt lat="50.44595" lon="5.32419">
        <ele>234.9</ele>
        <time>2020-08-18T13:44:29Z</time>
      </trkpt>
      <trkpt lat="50.44595" lon="5.32419">
        <ele>234.9</ele>
        <time>2020-08-18T13:44:30Z</time>
      </trkpt>
      <trkpt lat="50.44593" lon="5.32419">
        <ele>234.8</ele>
        <time>2020-08-18T13:44:31Z</time>
      </trkpt>
      <trkpt lat="50.44592" lon="5.32419">
        <ele>234.7</ele>
        <time>2020-08-18T13:44:32Z</time>
      </trkpt>
      <trkpt lat="50.44592" lon="5.32418">
        <ele>234.7</ele>
        <time>2020-08-18T13:44:33Z</time>
      </trkpt>
      <trkpt lat="50.44591" lon="5.32416">
        <ele>235.3</ele>
        <time>2020-08-18T13:44:34Z</time>
      </trkpt>
      <trkpt lat="50.4459" lon="5.32415">
        <ele>235.2</ele>
        <time>2020-08-18T13:44:35Z</time>
      </trkpt>
      <trkpt lat="50.4459" lon="5.32413">
        <ele>235.3</ele>
        <time>2020-08-18T13:44:36Z</time>
      </trkpt>
      <trkpt lat="50.44589" lon="5.32412">
        <ele>235.3</ele>
        <time>2020-08-18T13:44:37Z</time>
      </trkpt>
      <trkpt lat="50.44588" lon="5.3241">
        <ele>235.4</ele>
        <time>2020-08-18T13:44:38Z</time>
      </trkpt>
      <trkpt lat="50.44588" lon="5.32408">
        <ele>235.6</ele>
        <time>2020-08-18T13:44:39Z</time>
      </trkpt>
      <trkpt lat="50.44587" lon="5.32406">
        <ele>235.8</ele>
        <time>2020-08-18T13:44:40Z</time>
      </trkpt>
      <trkpt lat="50.44587" lon="5.32404">
        <ele>236</ele>
        <time>2020-08-18T13:44:41Z</time>
      </trkpt>
      <trkpt lat="50.44587" lon="5.32402">
        <ele>236.2</ele>
        <time>2020-08-18T13:44:42Z</time>
      </trkpt>
      <trkpt lat="50.44587" lon="5.32401">
        <ele>236.3</ele>
        <time>2020-08-18T13:44:43Z</time>
      </trkpt>
      <trkpt lat="50.44585" lon="5.324">
        <ele>236.3</ele>
        <time>2020-08-18T13:44:44Z</time>
      </trkpt>
      <trkpt lat="50.44585" lon="5.32399">
        <ele>236.4</ele>
        <time>2020-08-18T13:44:45Z</time>
      </trkpt>
      <trkpt lat="50.44584" lon="5.32398">
        <ele>236.5</ele>
        <time>2020-08-18T13:44:46Z</time>
      </trkpt>
      <trkpt lat="50.44584" lon="5.32398">
        <ele>236.5</ele>
        <time>2020-08-18T13:44:47Z</time>
      </trkpt>
      <trkpt lat="50.44583" lon="5.32396">
        <ele>234.6</ele>
        <time>2020-08-18T13:44:48Z</time>
      </trkpt>
      <trkpt lat="50.44582" lon="5.32395">
        <ele>234.6</ele>
        <time>2020-08-18T13:44:49Z</time>
      </trkpt>
      <trkpt lat="50.44581" lon="5.32394">
        <ele>234.6</ele>
        <time>2020-08-18T13:44:50Z</time>
      </trkpt>
      <trkpt lat="50.4458" lon="5.32392">
        <ele>234.6</ele>
        <time>2020-08-18T13:44:51Z</time>
      </trkpt>
      <trkpt lat="50.44579" lon="5.32391">
        <ele>234.7</ele>
        <time>2020-08-18T13:44:52Z</time>
      </trkpt>
      <trkpt lat="50.44578" lon="5.32391">
        <ele>234.7</ele>
        <time>2020-08-18T13:44:53Z</time>
      </trkpt>
      <trkpt lat="50.44577" lon="5.3239">
        <ele>234.7</ele>
        <time>2020-08-18T13:44:54Z</time>
      </trkpt>
      <trkpt lat="50.44576" lon="5.32389">
        <ele>234.7</ele>
        <time>2020-08-18T13:44:55Z</time>
      </trkpt>
      <trkpt lat="50.44575" lon="5.32388">
        <ele>234.7</ele>
        <time>2020-08-18T13:44:56Z</time>
      </trkpt>
      <trkpt lat="50.44575" lon="5.32388">
        <ele>234.7</ele>
        <time>2020-08-18T13:44:57Z</time>
      </trkpt>
      <trkpt lat="50.44574" lon="5.32387">
        <ele>234.7</ele>
        <time>2020-08-18T13:44:58Z</time>
      </trkpt>
      <trkpt lat="50.44573" lon="5.32387">
        <ele>234.7</ele>
        <time>2020-08-18T13:44:59Z</time>
      </trkpt>
      <trkpt lat="50.44573" lon="5.32386">
        <ele>234.8</ele>
        <time>2020-08-18T13:45:00Z</time>
      </trkpt>
      <trkpt lat="50.44571" lon="5.32386">
        <ele>234.8</ele>
        <time>2020-08-18T13:45:01Z</time>
      </trkpt>
      <trkpt lat="50.44571" lon="5.32385">
        <ele>234.8</ele>
        <time>2020-08-18T13:45:02Z</time>
      </trkpt>
      <trkpt lat="50.44569" lon="5.32386">
        <ele>234.8</ele>
        <time>2020-08-18T13:45:04Z</time>
      </trkpt>
      <trkpt lat="50.4457" lon="5.32386">
        <ele>234.8</ele>
        <time>2020-08-18T13:45:05Z</time>
      </trkpt>
      <trkpt lat="50.4457" lon="5.32387">
        <ele>234.7</ele>
        <time>2020-08-18T13:45:06Z</time>
      </trkpt>
      <trkpt lat="50.4457" lon="5.32388">
        <ele>234.7</ele>
        <time>2020-08-18T13:45:07Z</time>
      </trkpt>
      <trkpt lat="50.4457" lon="5.32387">
        <ele>234.7</ele>
        <time>2020-08-18T13:45:08Z</time>
      </trkpt>
      <trkpt lat="50.4457" lon="5.32387">
        <ele>234.7</ele>
        <time>2020-08-18T13:45:09Z</time>
      </trkpt>
      <trkpt lat="50.44569" lon="5.32387">
        <ele>234.7</ele>
        <time>2020-08-18T13:45:10Z</time>
      </trkpt>
      <trkpt lat="50.44569" lon="5.32386">
        <ele>234.8</ele>
        <time>2020-08-18T13:45:11Z</time>
      </trkpt>
      <trkpt lat="50.44568" lon="5.32386">
        <ele>234.8</ele>
        <time>2020-08-18T13:45:12Z</time>
      </trkpt>
      <trkpt lat="50.44568" lon="5.32385">
        <ele>234.8</ele>
        <time>2020-08-18T13:45:13Z</time>
      </trkpt>
      <trkpt lat="50.44567" lon="5.32384">
        <ele>234.8</ele>
        <time>2020-08-18T13:45:14Z</time>
      </trkpt>
      <trkpt lat="50.44566" lon="5.32383">
        <ele>234.8</ele>
        <time>2020-08-18T13:45:15Z</time>
      </trkpt>
      <trkpt lat="50.44566" lon="5.32383">
        <ele>234.8</ele>
        <time>2020-08-18T13:45:16Z</time>
      </trkpt>
      <trkpt lat="50.44565" lon="5.32382">
        <ele>234.8</ele>
        <time>2020-08-18T13:45:17Z</time>
      </trkpt>
      <trkpt lat="50.44564" lon="5.32382">
        <ele>234.8</ele>
        <time>2020-08-18T13:45:18Z</time>
      </trkpt>
      <trkpt lat="50.44563" lon="5.32381">
        <ele>234.8</ele>
        <time>2020-08-18T13:45:19Z</time>
      </trkpt>
      <trkpt lat="50.44563" lon="5.32381">
        <ele>234.8</ele>
        <time>2020-08-18T13:45:20Z</time>
      </trkpt>
      <trkpt lat="50.44562" lon="5.32381">
        <ele>234.8</ele>
        <time>2020-08-18T13:45:21Z</time>
      </trkpt>
      <trkpt lat="50.44561" lon="5.32381">
        <ele>234.8</ele>
        <time>2020-08-18T13:45:22Z</time>
      </trkpt>
      <trkpt lat="50.4456" lon="5.3238">
        <ele>234.8</ele>
        <time>2020-08-18T13:45:23Z</time>
      </trkpt>
      <trkpt lat="50.4456" lon="5.3238">
        <ele>234.8</ele>
        <time>2020-08-18T13:45:24Z</time>
      </trkpt>
      <trkpt lat="50.44558" lon="5.32379">
        <ele>234.8</ele>
        <time>2020-08-18T13:45:25Z</time>
      </trkpt>
      <trkpt lat="50.44557" lon="5.32379">
        <ele>234.8</ele>
        <time>2020-08-18T13:45:26Z</time>
      </trkpt>
      <trkpt lat="50.44556" lon="5.32379">
        <ele>234.8</ele>
        <time>2020-08-18T13:45:27Z</time>
      </trkpt>
      <trkpt lat="50.44555" lon="5.32379">
        <ele>234.8</ele>
        <time>2020-08-18T13:45:28Z</time>
      </trkpt>
      <trkpt lat="50.44555" lon="5.32379">
        <ele>234.8</ele>
        <time>2020-08-18T13:45:29Z</time>
      </trkpt>
      <trkpt lat="50.44554" lon="5.32379">
        <ele>234.8</ele>
        <time>2020-08-18T13:45:30Z</time>
      </trkpt>
      <trkpt lat="50.44553" lon="5.32379">
        <ele>234.8</ele>
        <time>2020-08-18T13:45:31Z</time>
      </trkpt>
      <trkpt lat="50.44552" lon="5.32379">
        <ele>234.8</ele>
        <time>2020-08-18T13:45:32Z</time>
      </trkpt>
      <trkpt lat="50.44551" lon="5.32378">
        <ele>234.8</ele>
        <time>2020-08-18T13:45:33Z</time>
      </trkpt>
      <trkpt lat="50.44551" lon="5.32378">
        <ele>234.8</ele>
        <time>2020-08-18T13:45:34Z</time>
      </trkpt>
      <trkpt lat="50.4455" lon="5.32377">
        <ele>234.8</ele>
        <time>2020-08-18T13:45:35Z</time>
      </trkpt>
      <trkpt lat="50.44549" lon="5.32377">
        <ele>234.8</ele>
        <time>2020-08-18T13:45:36Z</time>
      </trkpt>
      <trkpt lat="50.44549" lon="5.32378">
        <ele>234.8</ele>
        <time>2020-08-18T13:45:37Z</time>
      </trkpt>
      <trkpt lat="50.44548" lon="5.32378">
        <ele>234.8</ele>
        <time>2020-08-18T13:45:38Z</time>
      </trkpt>
      <trkpt lat="50.44547" lon="5.32378">
        <ele>234.8</ele>
        <time>2020-08-18T13:45:39Z</time>
      </trkpt>
      <trkpt lat="50.44547" lon="5.32378">
        <ele>234.8</ele>
        <time>2020-08-18T13:45:40Z</time>
      </trkpt>
      <trkpt lat="50.44545" lon="5.32378">
        <ele>234.7</ele>
        <time>2020-08-18T13:45:41Z</time>
      </trkpt>
      <trkpt lat="50.44545" lon="5.32378">
        <ele>234.7</ele>
        <time>2020-08-18T13:45:42Z</time>
      </trkpt>
      <trkpt lat="50.44544" lon="5.32377">
        <ele>234.8</ele>
        <time>2020-08-18T13:45:43Z</time>
      </trkpt>
      <trkpt lat="50.44543" lon="5.32376">
        <ele>234.8</ele>
        <time>2020-08-18T13:45:44Z</time>
      </trkpt>
      <trkpt lat="50.44542" lon="5.32376">
        <ele>234.7</ele>
        <time>2020-08-18T13:45:45Z</time>
      </trkpt>
      <trkpt lat="50.44541" lon="5.32376">
        <ele>234.7</ele>
        <time>2020-08-18T13:45:46Z</time>
      </trkpt>
      <trkpt lat="50.4454" lon="5.32375">
        <ele>234.7</ele>
        <time>2020-08-18T13:45:47Z</time>
      </trkpt>
      <trkpt lat="50.44539" lon="5.32375">
        <ele>234.7</ele>
        <time>2020-08-18T13:45:48Z</time>
      </trkpt>
      <trkpt lat="50.44539" lon="5.32375">
        <ele>234.7</ele>
        <time>2020-08-18T13:45:49Z</time>
      </trkpt>
      <trkpt lat="50.44537" lon="5.32375">
        <ele>234.7</ele>
        <time>2020-08-18T13:45:50Z</time>
      </trkpt>
      <trkpt lat="50.44536" lon="5.32374">
        <ele>234.7</ele>
        <time>2020-08-18T13:45:51Z</time>
      </trkpt>
      <trkpt lat="50.44535" lon="5.32374">
        <ele>234.7</ele>
        <time>2020-08-18T13:45:52Z</time>
      </trkpt>
      <trkpt lat="50.44534" lon="5.32373">
        <ele>234.7</ele>
        <time>2020-08-18T13:45:53Z</time>
      </trkpt>
      <trkpt lat="50.44534" lon="5.32372">
        <ele>234.7</ele>
        <time>2020-08-18T13:45:54Z</time>
      </trkpt>
      <trkpt lat="50.44533" lon="5.32371">
        <ele>234.7</ele>
        <time>2020-08-18T13:45:55Z</time>
      </trkpt>
      <trkpt lat="50.44533" lon="5.3237">
        <ele>234.7</ele>
        <time>2020-08-18T13:45:56Z</time>
      </trkpt>
      <trkpt lat="50.44532" lon="5.3237">
        <ele>234.7</ele>
        <time>2020-08-18T13:45:57Z</time>
      </trkpt>
      <trkpt lat="50.44531" lon="5.32369">
        <ele>234.7</ele>
        <time>2020-08-18T13:45:58Z</time>
      </trkpt>
      <trkpt lat="50.4453" lon="5.32369">
        <ele>234.7</ele>
        <time>2020-08-18T13:45:59Z</time>
      </trkpt>
      <trkpt lat="50.44529" lon="5.32368">
        <ele>234.7</ele>
        <time>2020-08-18T13:46:00Z</time>
      </trkpt>
      <trkpt lat="50.44527" lon="5.32368">
        <ele>234.7</ele>
        <time>2020-08-18T13:46:01Z</time>
      </trkpt>
      <trkpt lat="50.44526" lon="5.32368">
        <ele>234.6</ele>
        <time>2020-08-18T13:46:02Z</time>
      </trkpt>
      <trkpt lat="50.44526" lon="5.32368">
        <ele>234.6</ele>
        <time>2020-08-18T13:46:03Z</time>
      </trkpt>
      <trkpt lat="50.44524" lon="5.32368">
        <ele>234.6</ele>
        <time>2020-08-18T13:46:03Z</time>
      </trkpt>
      <trkpt lat="50.44524" lon="5.32368">
        <ele>234.6</ele>
        <time>2020-08-18T13:46:04Z</time>
      </trkpt>
      <trkpt lat="50.44523" lon="5.32367">
        <ele>234.6</ele>
        <time>2020-08-18T13:46:05Z</time>
      </trkpt>
      <trkpt lat="50.44522" lon="5.32367">
        <ele>234.6</ele>
        <time>2020-08-18T13:46:06Z</time>
      </trkpt>
      <trkpt lat="50.44521" lon="5.32366">
        <ele>234.6</ele>
        <time>2020-08-18T13:46:07Z</time>
      </trkpt>
      <trkpt lat="50.44521" lon="5.32366">
        <ele>234.6</ele>
        <time>2020-08-18T13:46:08Z</time>
      </trkpt>
      <trkpt lat="50.44519" lon="5.32365">
        <ele>234.6</ele>
        <time>2020-08-18T13:46:09Z</time>
      </trkpt>
      <trkpt lat="50.44518" lon="5.32364">
        <ele>234.6</ele>
        <time>2020-08-18T13:46:10Z</time>
      </trkpt>
      <trkpt lat="50.44518" lon="5.32363">
        <ele>234.6</ele>
        <time>2020-08-18T13:46:11Z</time>
      </trkpt>
      <trkpt lat="50.44516" lon="5.32362">
        <ele>234.6</ele>
        <time>2020-08-18T13:46:13Z</time>
      </trkpt>
      <trkpt lat="50.44516" lon="5.32361">
        <ele>234.6</ele>
        <time>2020-08-18T13:46:14Z</time>
      </trkpt>
      <trkpt lat="50.44516" lon="5.32361">
        <ele>234.6</ele>
        <time>2020-08-18T13:46:15Z</time>
      </trkpt>
      <trkpt lat="50.44516" lon="5.32361">
        <ele>234.6</ele>
        <time>2020-08-18T13:46:16Z</time>
      </trkpt>
      <trkpt lat="50.44514" lon="5.32361">
        <ele>234.5</ele>
        <time>2020-08-18T13:46:19Z</time>
      </trkpt>
      <trkpt lat="50.44514" lon="5.32361">
        <ele>234.5</ele>
        <time>2020-08-18T13:46:20Z</time>
      </trkpt>
      <trkpt lat="50.44513" lon="5.32361">
        <ele>234.5</ele>
        <time>2020-08-18T13:46:21Z</time>
      </trkpt>
      <trkpt lat="50.44513" lon="5.32361">
        <ele>234.5</ele>
        <time>2020-08-18T13:46:22Z</time>
      </trkpt>
      <trkpt lat="50.44513" lon="5.32361">
        <ele>234.5</ele>
        <time>2020-08-18T13:46:23Z</time>
      </trkpt>
      <trkpt lat="50.44513" lon="5.3236">
        <ele>234.5</ele>
        <time>2020-08-18T13:46:24Z</time>
      </trkpt>
      <trkpt lat="50.44512" lon="5.32359">
        <ele>234.5</ele>
        <time>2020-08-18T13:46:25Z</time>
      </trkpt>
      <trkpt lat="50.44512" lon="5.32358">
        <ele>234.5</ele>
        <time>2020-08-18T13:46:26Z</time>
      </trkpt>
      <trkpt lat="50.44511" lon="5.32357">
        <ele>234.5</ele>
        <time>2020-08-18T13:46:27Z</time>
      </trkpt>
      <trkpt lat="50.44511" lon="5.32357">
        <ele>234.5</ele>
        <time>2020-08-18T13:46:28Z</time>
      </trkpt>
      <trkpt lat="50.44511" lon="5.32357">
        <ele>234.5</ele>
        <time>2020-08-18T13:46:29Z</time>
      </trkpt>
      <trkpt lat="50.44511" lon="5.32357">
        <ele>234.5</ele>
        <time>2020-08-18T13:46:30Z</time>
      </trkpt>
      <trkpt lat="50.44512" lon="5.32357">
        <ele>234.5</ele>
        <time>2020-08-18T13:46:31Z</time>
      </trkpt>
      <trkpt lat="50.44512" lon="5.32357">
        <ele>234.5</ele>
        <time>2020-08-18T13:46:32Z</time>
      </trkpt>
      <trkpt lat="50.44512" lon="5.32357">
        <ele>234.5</ele>
        <time>2020-08-18T13:46:33Z</time>
      </trkpt>
      <trkpt lat="50.44513" lon="5.32358">
        <ele>234.5</ele>
        <time>2020-08-18T13:46:55Z</time>
      </trkpt>
      <trkpt lat="50.44513" lon="5.32359">
        <ele>234.5</ele>
        <time>2020-08-18T13:46:56Z</time>
      </trkpt>
      <trkpt lat="50.44513" lon="5.3236">
        <ele>234.5</ele>
        <time>2020-08-18T13:46:57Z</time>
      </trkpt>
      <trkpt lat="50.44513" lon="5.32362">
        <ele>234.5</ele>
        <time>2020-08-18T13:46:58Z</time>
      </trkpt>
      <trkpt lat="50.44512" lon="5.32363">
        <ele>234.5</ele>
        <time>2020-08-18T13:46:59Z</time>
      </trkpt>
      <trkpt lat="50.44511" lon="5.32365">
        <ele>234.5</ele>
        <time>2020-08-18T13:47:00Z</time>
      </trkpt>
      <trkpt lat="50.44511" lon="5.32366">
        <ele>234.5</ele>
        <time>2020-08-18T13:47:01Z</time>
      </trkpt>
      <trkpt lat="50.4451" lon="5.32367">
        <ele>234.5</ele>
        <time>2020-08-18T13:47:02Z</time>
      </trkpt>
      <trkpt lat="50.44509" lon="5.32369">
        <ele>234.5</ele>
        <time>2020-08-18T13:47:03Z</time>
      </trkpt>
      <trkpt lat="50.44509" lon="5.3237">
        <ele>234.5</ele>
        <time>2020-08-18T13:47:04Z</time>
      </trkpt>
      <trkpt lat="50.44508" lon="5.32371">
        <ele>234.5</ele>
        <time>2020-08-18T13:47:05Z</time>
      </trkpt>
      <trkpt lat="50.44507" lon="5.32372">
        <ele>234.5</ele>
        <time>2020-08-18T13:47:06Z</time>
      </trkpt>
      <trkpt lat="50.44506" lon="5.32372">
        <ele>234.5</ele>
        <time>2020-08-18T13:47:07Z</time>
      </trkpt>
      <trkpt lat="50.44506" lon="5.32373">
        <ele>234.5</ele>
        <time>2020-08-18T13:47:08Z</time>
      </trkpt>
      <trkpt lat="50.44505" lon="5.32373">
        <ele>234.5</ele>
        <time>2020-08-18T13:47:09Z</time>
      </trkpt>
      <trkpt lat="50.44504" lon="5.32374">
        <ele>234.5</ele>
        <time>2020-08-18T13:47:10Z</time>
      </trkpt>
      <trkpt lat="50.44503" lon="5.32374">
        <ele>234.5</ele>
        <time>2020-08-18T13:47:11Z</time>
      </trkpt>
      <trkpt lat="50.44503" lon="5.32374">
        <ele>234.5</ele>
        <time>2020-08-18T13:47:12Z</time>
      </trkpt>
      <trkpt lat="50.44503" lon="5.32375">
        <ele>234.5</ele>
        <time>2020-08-18T13:47:13Z</time>
      </trkpt>
      <trkpt lat="50.44503" lon="5.32375">
        <ele>234.5</ele>
        <time>2020-08-18T13:47:14Z</time>
      </trkpt>
      <trkpt lat="50.44502" lon="5.32376">
        <ele>234.5</ele>
        <time>2020-08-18T13:47:15Z</time>
      </trkpt>
      <trkpt lat="50.44501" lon="5.32376">
        <ele>234.5</ele>
        <time>2020-08-18T13:47:16Z</time>
      </trkpt>
      <trkpt lat="50.445" lon="5.32376">
        <ele>234.5</ele>
        <time>2020-08-18T13:47:17Z</time>
      </trkpt>
      <trkpt lat="50.445" lon="5.32377">
        <ele>234.5</ele>
        <time>2020-08-18T13:47:18Z</time>
      </trkpt>
      <trkpt lat="50.44497" lon="5.32377">
        <ele>231.2</ele>
        <time>2020-08-18T13:47:21Z</time>
      </trkpt>
      <trkpt lat="50.44497" lon="5.32377">
        <ele>231.2</ele>
        <time>2020-08-18T13:47:22Z</time>
      </trkpt>
      <trkpt lat="50.44497" lon="5.32377">
        <ele>231.2</ele>
        <time>2020-08-18T13:47:23Z</time>
      </trkpt>
      <trkpt lat="50.44497" lon="5.32377">
        <ele>231.2</ele>
        <time>2020-08-18T13:47:24Z</time>
      </trkpt>
      <trkpt lat="50.44497" lon="5.32376">
        <ele>231.2</ele>
        <time>2020-08-18T13:47:25Z</time>
      </trkpt>
      <trkpt lat="50.44496" lon="5.32377">
        <ele>231.1</ele>
        <time>2020-08-18T13:47:26Z</time>
      </trkpt>
      <trkpt lat="50.44496" lon="5.32377">
        <ele>231.1</ele>
        <time>2020-08-18T13:47:27Z</time>
      </trkpt>
      <trkpt lat="50.44495" lon="5.32377">
        <ele>231.1</ele>
        <time>2020-08-18T13:47:28Z</time>
      </trkpt>
      <trkpt lat="50.44495" lon="5.32378">
        <ele>231.1</ele>
        <time>2020-08-18T13:47:29Z</time>
      </trkpt>
      <trkpt lat="50.44495" lon="5.32379">
        <ele>231.1</ele>
        <time>2020-08-18T13:47:30Z</time>
      </trkpt>
      <trkpt lat="50.44495" lon="5.32379">
        <ele>231.1</ele>
        <time>2020-08-18T13:47:31Z</time>
      </trkpt>
      <trkpt lat="50.44495" lon="5.3238">
        <ele>231.1</ele>
        <time>2020-08-18T13:47:32Z</time>
      </trkpt>
      <trkpt lat="50.44494" lon="5.3238">
        <ele>231.1</ele>
        <time>2020-08-18T13:47:33Z</time>
      </trkpt>
      <trkpt lat="50.44494" lon="5.3238">
        <ele>231.1</ele>
        <time>2020-08-18T13:47:34Z</time>
      </trkpt>
      <trkpt lat="50.44494" lon="5.32381">
        <ele>231.1</ele>
        <time>2020-08-18T13:47:35Z</time>
      </trkpt>
      <trkpt lat="50.44494" lon="5.32381">
        <ele>231.1</ele>
        <time>2020-08-18T13:47:36Z</time>
      </trkpt>
      <trkpt lat="50.44493" lon="5.32382">
        <ele>231.1</ele>
        <time>2020-08-18T13:47:37Z</time>
      </trkpt>
      <trkpt lat="50.44492" lon="5.32383">
        <ele>231.1</ele>
        <time>2020-08-18T13:47:38Z</time>
      </trkpt>
      <trkpt lat="50.44492" lon="5.32384">
        <ele>231.1</ele>
        <time>2020-08-18T13:47:39Z</time>
      </trkpt>
      <trkpt lat="50.44492" lon="5.32385">
        <ele>231.2</ele>
        <time>2020-08-18T13:47:40Z</time>
      </trkpt>
      <trkpt lat="50.44491" lon="5.32385">
        <ele>231.1</ele>
        <time>2020-08-18T13:47:41Z</time>
      </trkpt>
      <trkpt lat="50.4449" lon="5.32386">
        <ele>231.1</ele>
        <time>2020-08-18T13:47:42Z</time>
      </trkpt>
      <trkpt lat="50.4449" lon="5.32386">
        <ele>231.1</ele>
        <time>2020-08-18T13:47:43Z</time>
      </trkpt>
      <trkpt lat="50.44489" lon="5.32387">
        <ele>231.1</ele>
        <time>2020-08-18T13:47:44Z</time>
      </trkpt>
      <trkpt lat="50.44488" lon="5.32387">
        <ele>231.1</ele>
        <time>2020-08-18T13:47:45Z</time>
      </trkpt>
      <trkpt lat="50.44488" lon="5.32388">
        <ele>231.1</ele>
        <time>2020-08-18T13:47:46Z</time>
      </trkpt>
      <trkpt lat="50.44487" lon="5.32388">
        <ele>231.1</ele>
        <time>2020-08-18T13:47:47Z</time>
      </trkpt>
      <trkpt lat="50.44486" lon="5.32389">
        <ele>231</ele>
        <time>2020-08-18T13:47:48Z</time>
      </trkpt>
      <trkpt lat="50.44485" lon="5.3239">
        <ele>231</ele>
        <time>2020-08-18T13:47:49Z</time>
      </trkpt>
      <trkpt lat="50.44485" lon="5.32391">
        <ele>231.1</ele>
        <time>2020-08-18T13:47:50Z</time>
      </trkpt>
      <trkpt lat="50.44484" lon="5.32392">
        <ele>231</ele>
        <time>2020-08-18T13:47:51Z</time>
      </trkpt>
      <trkpt lat="50.44484" lon="5.32393">
        <ele>231.1</ele>
        <time>2020-08-18T13:47:52Z</time>
      </trkpt>
      <trkpt lat="50.44483" lon="5.32394">
        <ele>231.1</ele>
        <time>2020-08-18T13:47:53Z</time>
      </trkpt>
      <trkpt lat="50.44482" lon="5.32396">
        <ele>231.1</ele>
        <time>2020-08-18T13:47:54Z</time>
      </trkpt>
      <trkpt lat="50.44482" lon="5.32397">
        <ele>231.1</ele>
        <time>2020-08-18T13:47:55Z</time>
      </trkpt>
      <trkpt lat="50.44482" lon="5.32398">
        <ele>231.1</ele>
        <time>2020-08-18T13:47:56Z</time>
      </trkpt>
      <trkpt lat="50.44481" lon="5.32397">
        <ele>231</ele>
        <time>2020-08-18T13:47:57Z</time>
      </trkpt>
      <trkpt lat="50.44479" lon="5.32397">
        <ele>230.9</ele>
        <time>2020-08-18T13:47:58Z</time>
      </trkpt>
      <trkpt lat="50.44479" lon="5.32397">
        <ele>230.9</ele>
        <time>2020-08-18T13:47:59Z</time>
      </trkpt>
      <trkpt lat="50.44478" lon="5.32397">
        <ele>230.9</ele>
        <time>2020-08-18T13:48:00Z</time>
      </trkpt>
      <trkpt lat="50.44477" lon="5.32397">
        <ele>230.8</ele>
        <time>2020-08-18T13:48:01Z</time>
      </trkpt>
      <trkpt lat="50.44476" lon="5.32397">
        <ele>230.7</ele>
        <time>2020-08-18T13:48:02Z</time>
      </trkpt>
      <trkpt lat="50.44476" lon="5.32398">
        <ele>230.8</ele>
        <time>2020-08-18T13:48:03Z</time>
      </trkpt>
      <trkpt lat="50.44474" lon="5.32398">
        <ele>230.6</ele>
        <time>2020-08-18T13:48:04Z</time>
      </trkpt>
      <trkpt lat="50.44474" lon="5.32397">
        <ele>230.6</ele>
        <time>2020-08-18T13:48:05Z</time>
      </trkpt>
      <trkpt lat="50.44473" lon="5.32396">
        <ele>230.5</ele>
        <time>2020-08-18T13:48:06Z</time>
      </trkpt>
      <trkpt lat="50.44473" lon="5.32395">
        <ele>230.5</ele>
        <time>2020-08-18T13:48:07Z</time>
      </trkpt>
      <trkpt lat="50.44472" lon="5.32394">
        <ele>230.4</ele>
        <time>2020-08-18T13:48:08Z</time>
      </trkpt>
      <trkpt lat="50.44472" lon="5.32393">
        <ele>230.4</ele>
        <time>2020-08-18T13:48:09Z</time>
      </trkpt>
      <trkpt lat="50.44471" lon="5.32393">
        <ele>230.4</ele>
        <time>2020-08-18T13:48:10Z</time>
      </trkpt>
      <trkpt lat="50.44471" lon="5.32392">
        <ele>230.3</ele>
        <time>2020-08-18T13:48:11Z</time>
      </trkpt>
      <trkpt lat="50.44471" lon="5.32391">
        <ele>230.3</ele>
        <time>2020-08-18T13:48:12Z</time>
      </trkpt>
      <trkpt lat="50.4447" lon="5.32388">
        <ele>230.2</ele>
        <time>2020-08-18T13:48:14Z</time>
      </trkpt>
      <trkpt lat="50.44469" lon="5.32388">
        <ele>230.2</ele>
        <time>2020-08-18T13:48:15Z</time>
      </trkpt>
      <trkpt lat="50.44469" lon="5.32387">
        <ele>230.2</ele>
        <time>2020-08-18T13:48:16Z</time>
      </trkpt>
      <trkpt lat="50.44468" lon="5.32386">
        <ele>230.1</ele>
        <time>2020-08-18T13:48:17Z</time>
      </trkpt>
      <trkpt lat="50.44467" lon="5.32385">
        <ele>230</ele>
        <time>2020-08-18T13:48:18Z</time>
      </trkpt>
      <trkpt lat="50.44466" lon="5.32384">
        <ele>230</ele>
        <time>2020-08-18T13:48:19Z</time>
      </trkpt>
      <trkpt lat="50.44466" lon="5.32383">
        <ele>230</ele>
        <time>2020-08-18T13:48:20Z</time>
      </trkpt>
      <trkpt lat="50.44466" lon="5.32382">
        <ele>230</ele>
        <time>2020-08-18T13:48:21Z</time>
      </trkpt>
      <trkpt lat="50.44466" lon="5.32381">
        <ele>229.9</ele>
        <time>2020-08-18T13:48:22Z</time>
      </trkpt>
      <trkpt lat="50.44466" lon="5.3238">
        <ele>229.9</ele>
        <time>2020-08-18T13:48:23Z</time>
      </trkpt>
      <trkpt lat="50.44466" lon="5.32378">
        <ele>229.9</ele>
        <time>2020-08-18T13:48:24Z</time>
      </trkpt>
      <trkpt lat="50.44466" lon="5.32376">
        <ele>229.9</ele>
        <time>2020-08-18T13:48:25Z</time>
      </trkpt>
      <trkpt lat="50.44466" lon="5.32375">
        <ele>229.9</ele>
        <time>2020-08-18T13:48:26Z</time>
      </trkpt>
      <trkpt lat="50.44466" lon="5.32373">
        <ele>229.9</ele>
        <time>2020-08-18T13:48:27Z</time>
      </trkpt>
      <trkpt lat="50.44465" lon="5.32372">
        <ele>229.8</ele>
        <time>2020-08-18T13:48:28Z</time>
      </trkpt>
      <trkpt lat="50.44465" lon="5.32371">
        <ele>229.8</ele>
        <time>2020-08-18T13:48:29Z</time>
      </trkpt>
      <trkpt lat="50.44464" lon="5.3237">
        <ele>229.8</ele>
        <time>2020-08-18T13:48:30Z</time>
      </trkpt>
      <trkpt lat="50.44464" lon="5.32368">
        <ele>229.8</ele>
        <time>2020-08-18T13:48:31Z</time>
      </trkpt>
      <trkpt lat="50.44463" lon="5.32367">
        <ele>229.7</ele>
        <time>2020-08-18T13:48:32Z</time>
      </trkpt>
      <trkpt lat="50.44462" lon="5.32365">
        <ele>229.7</ele>
        <time>2020-08-18T13:48:33Z</time>
      </trkpt>
      <trkpt lat="50.44461" lon="5.32363">
        <ele>229.6</ele>
        <time>2020-08-18T13:48:34Z</time>
      </trkpt>
      <trkpt lat="50.44461" lon="5.32362">
        <ele>229.6</ele>
        <time>2020-08-18T13:48:35Z</time>
      </trkpt>
      <trkpt lat="50.4446" lon="5.3236">
        <ele>229.5</ele>
        <time>2020-08-18T13:48:36Z</time>
      </trkpt>
      <trkpt lat="50.4446" lon="5.32359">
        <ele>229.5</ele>
        <time>2020-08-18T13:48:37Z</time>
      </trkpt>
      <trkpt lat="50.4446" lon="5.32358">
        <ele>229.5</ele>
        <time>2020-08-18T13:48:38Z</time>
      </trkpt>
      <trkpt lat="50.4446" lon="5.32358">
        <ele>229.5</ele>
        <time>2020-08-18T13:48:39Z</time>
      </trkpt>
      <trkpt lat="50.44459" lon="5.32357">
        <ele>229.4</ele>
        <time>2020-08-18T13:48:40Z</time>
      </trkpt>
      <trkpt lat="50.44458" lon="5.32356">
        <ele>229.4</ele>
        <time>2020-08-18T13:48:41Z</time>
      </trkpt>
      <trkpt lat="50.44458" lon="5.32355">
        <ele>229.4</ele>
        <time>2020-08-18T13:48:42Z</time>
      </trkpt>
      <trkpt lat="50.44458" lon="5.32354">
        <ele>229.4</ele>
        <time>2020-08-18T13:48:43Z</time>
      </trkpt>
      <trkpt lat="50.44457" lon="5.32353">
        <ele>229.3</ele>
        <time>2020-08-18T13:48:44Z</time>
      </trkpt>
      <trkpt lat="50.44457" lon="5.32353">
        <ele>229.3</ele>
        <time>2020-08-18T13:48:45Z</time>
      </trkpt>
      <trkpt lat="50.44456" lon="5.32353">
        <ele>229.2</ele>
        <time>2020-08-18T13:48:46Z</time>
      </trkpt>
      <trkpt lat="50.44455" lon="5.32353">
        <ele>229.1</ele>
        <time>2020-08-18T13:48:47Z</time>
      </trkpt>
      <trkpt lat="50.44455" lon="5.32351">
        <ele>229.1</ele>
        <time>2020-08-18T13:48:48Z</time>
      </trkpt>
      <trkpt lat="50.44455" lon="5.3235">
        <ele>229.1</ele>
        <time>2020-08-18T13:48:49Z</time>
      </trkpt>
      <trkpt lat="50.44454" lon="5.32348">
        <ele>229</ele>
        <time>2020-08-18T13:48:50Z</time>
      </trkpt>
      <trkpt lat="50.44453" lon="5.32347">
        <ele>228.9</ele>
        <time>2020-08-18T13:48:51Z</time>
      </trkpt>
      <trkpt lat="50.44452" lon="5.32345">
        <ele>228.8</ele>
        <time>2020-08-18T13:48:52Z</time>
      </trkpt>
      <trkpt lat="50.44451" lon="5.32342">
        <ele>228.7</ele>
        <time>2020-08-18T13:48:53Z</time>
      </trkpt>
      <trkpt lat="50.4445" lon="5.3234">
        <ele>228.6</ele>
        <time>2020-08-18T13:48:54Z</time>
      </trkpt>
      <trkpt lat="50.4445" lon="5.32338">
        <ele>228.6</ele>
        <time>2020-08-18T13:48:55Z</time>
      </trkpt>
      <trkpt lat="50.4445" lon="5.32337">
        <ele>228.6</ele>
        <time>2020-08-18T13:48:56Z</time>
      </trkpt>
      <trkpt lat="50.44449" lon="5.32335">
        <ele>228.5</ele>
        <time>2020-08-18T13:48:57Z</time>
      </trkpt>
      <trkpt lat="50.44448" lon="5.32333">
        <ele>228.1</ele>
        <time>2020-08-18T13:48:58Z</time>
      </trkpt>
      <trkpt lat="50.44448" lon="5.32332">
        <ele>228.1</ele>
        <time>2020-08-18T13:48:59Z</time>
      </trkpt>
      <trkpt lat="50.44447" lon="5.32331">
        <ele>228</ele>
        <time>2020-08-18T13:49:00Z</time>
      </trkpt>
      <trkpt lat="50.44446" lon="5.3233">
        <ele>227.9</ele>
        <time>2020-08-18T13:49:01Z</time>
      </trkpt>
      <trkpt lat="50.44445" lon="5.32329">
        <ele>227.8</ele>
        <time>2020-08-18T13:49:03Z</time>
      </trkpt>
      <trkpt lat="50.44445" lon="5.32329">
        <ele>227.8</ele>
        <time>2020-08-18T13:49:04Z</time>
      </trkpt>
      <trkpt lat="50.44445" lon="5.32328">
        <ele>227.8</ele>
        <time>2020-08-18T13:49:05Z</time>
      </trkpt>
      <trkpt lat="50.44444" lon="5.32328">
        <ele>227.7</ele>
        <time>2020-08-18T13:49:06Z</time>
      </trkpt>
      <trkpt lat="50.44444" lon="5.32327">
        <ele>227.8</ele>
        <time>2020-08-18T13:49:07Z</time>
      </trkpt>
      <trkpt lat="50.44443" lon="5.32326">
        <ele>227.7</ele>
        <time>2020-08-18T13:49:08Z</time>
      </trkpt>
      <trkpt lat="50.44443" lon="5.32326">
        <ele>227.7</ele>
        <time>2020-08-18T13:49:09Z</time>
      </trkpt>
      <trkpt lat="50.44443" lon="5.32326">
        <ele>227.7</ele>
        <time>2020-08-18T13:49:10Z</time>
      </trkpt>
      <trkpt lat="50.44443" lon="5.32326">
        <ele>227.7</ele>
        <time>2020-08-18T13:49:11Z</time>
      </trkpt>
      <trkpt lat="50.44443" lon="5.32326">
        <ele>227.7</ele>
        <time>2020-08-18T13:49:12Z</time>
      </trkpt>
      <trkpt lat="50.44443" lon="5.32326">
        <ele>227.7</ele>
        <time>2020-08-18T13:49:13Z</time>
      </trkpt>
      <trkpt lat="50.44444" lon="5.32327">
        <ele>227.8</ele>
        <time>2020-08-18T13:49:14Z</time>
      </trkpt>
      <trkpt lat="50.44445" lon="5.32327">
        <ele>227.8</ele>
        <time>2020-08-18T13:49:26Z</time>
      </trkpt>
      <trkpt lat="50.44445" lon="5.32327">
        <ele>227.8</ele>
        <time>2020-08-18T13:49:27Z</time>
      </trkpt>
      <trkpt lat="50.44446" lon="5.32327">
        <ele>227.9</ele>
        <time>2020-08-18T13:49:28Z</time>
      </trkpt>
      <trkpt lat="50.44447" lon="5.32327">
        <ele>228</ele>
        <time>2020-08-18T13:49:29Z</time>
      </trkpt>
      <trkpt lat="50.44448" lon="5.32328">
        <ele>228.1</ele>
        <time>2020-08-18T13:49:30Z</time>
      </trkpt>
      <trkpt lat="50.44449" lon="5.32328">
        <ele>228.2</ele>
        <time>2020-08-18T13:49:31Z</time>
      </trkpt>
      <trkpt lat="50.4445" lon="5.3233">
        <ele>228.3</ele>
        <time>2020-08-18T13:49:32Z</time>
      </trkpt>
      <trkpt lat="50.44451" lon="5.32331">
        <ele>228.4</ele>
        <time>2020-08-18T13:49:33Z</time>
      </trkpt>
      <trkpt lat="50.44452" lon="5.32333">
        <ele>228.4</ele>
        <time>2020-08-18T13:49:34Z</time>
      </trkpt>
      <trkpt lat="50.44454" lon="5.32335">
        <ele>228.9</ele>
        <time>2020-08-18T13:49:35Z</time>
      </trkpt>
      <trkpt lat="50.44455" lon="5.32336">
        <ele>229</ele>
        <time>2020-08-18T13:49:36Z</time>
      </trkpt>
      <trkpt lat="50.44456" lon="5.32338">
        <ele>229.1</ele>
        <time>2020-08-18T13:49:37Z</time>
      </trkpt>
      <trkpt lat="50.44457" lon="5.32339">
        <ele>229.2</ele>
        <time>2020-08-18T13:49:38Z</time>
      </trkpt>
      <trkpt lat="50.44458" lon="5.3234">
        <ele>229.3</ele>
        <time>2020-08-18T13:49:39Z</time>
      </trkpt>
      <trkpt lat="50.44458" lon="5.32342">
        <ele>229.3</ele>
        <time>2020-08-18T13:49:40Z</time>
      </trkpt>
      <trkpt lat="50.4446" lon="5.32343">
        <ele>229.5</ele>
        <time>2020-08-18T13:49:41Z</time>
      </trkpt>
      <trkpt lat="50.44461" lon="5.32345">
        <ele>229.6</ele>
        <time>2020-08-18T13:49:42Z</time>
      </trkpt>
      <trkpt lat="50.44461" lon="5.32346">
        <ele>229.6</ele>
        <time>2020-08-18T13:49:43Z</time>
      </trkpt>
      <trkpt lat="50.44462" lon="5.32348">
        <ele>229.6</ele>
        <time>2020-08-18T13:49:44Z</time>
      </trkpt>
      <trkpt lat="50.44463" lon="5.32349">
        <ele>229.7</ele>
        <time>2020-08-18T13:49:45Z</time>
      </trkpt>
      <trkpt lat="50.44463" lon="5.3235">
        <ele>229.7</ele>
        <time>2020-08-18T13:49:46Z</time>
      </trkpt>
      <trkpt lat="50.44463" lon="5.32352">
        <ele>229.7</ele>
        <time>2020-08-18T13:49:47Z</time>
      </trkpt>
      <trkpt lat="50.44464" lon="5.32353">
        <ele>229.8</ele>
        <time>2020-08-18T13:49:48Z</time>
      </trkpt>
      <trkpt lat="50.44464" lon="5.32354">
        <ele>229.8</ele>
        <time>2020-08-18T13:49:49Z</time>
      </trkpt>
      <trkpt lat="50.44464" lon="5.32355">
        <ele>229.8</ele>
        <time>2020-08-18T13:49:50Z</time>
      </trkpt>
      <trkpt lat="50.44464" lon="5.32357">
        <ele>229.8</ele>
        <time>2020-08-18T13:49:51Z</time>
      </trkpt>
      <trkpt lat="50.44464" lon="5.32358">
        <ele>229.8</ele>
        <time>2020-08-18T13:49:52Z</time>
      </trkpt>
      <trkpt lat="50.44464" lon="5.3236">
        <ele>229.8</ele>
        <time>2020-08-18T13:49:53Z</time>
      </trkpt>
      <trkpt lat="50.44464" lon="5.32361">
        <ele>229.8</ele>
        <time>2020-08-18T13:49:54Z</time>
      </trkpt>
      <trkpt lat="50.44464" lon="5.32362">
        <ele>229.8</ele>
        <time>2020-08-18T13:49:55Z</time>
      </trkpt>
      <trkpt lat="50.44464" lon="5.32363">
        <ele>229.8</ele>
        <time>2020-08-18T13:49:56Z</time>
      </trkpt>
      <trkpt lat="50.44464" lon="5.32364">
        <ele>229.8</ele>
        <time>2020-08-18T13:49:57Z</time>
      </trkpt>
      <trkpt lat="50.44464" lon="5.32365">
        <ele>229.8</ele>
        <time>2020-08-18T13:49:58Z</time>
      </trkpt>
      <trkpt lat="50.44464" lon="5.32366">
        <ele>229.8</ele>
        <time>2020-08-18T13:49:59Z</time>
      </trkpt>
      <trkpt lat="50.44464" lon="5.32368">
        <ele>229.8</ele>
        <time>2020-08-18T13:50:00Z</time>
      </trkpt>
      <trkpt lat="50.44465" lon="5.3237">
        <ele>229.8</ele>
        <time>2020-08-18T13:50:01Z</time>
      </trkpt>
      <trkpt lat="50.44465" lon="5.32371">
        <ele>229.8</ele>
        <time>2020-08-18T13:50:02Z</time>
      </trkpt>
      <trkpt lat="50.44466" lon="5.32373">
        <ele>229.9</ele>
        <time>2020-08-18T13:50:03Z</time>
      </trkpt>
      <trkpt lat="50.44467" lon="5.32374">
        <ele>230</ele>
        <time>2020-08-18T13:50:04Z</time>
      </trkpt>
      <trkpt lat="50.44467" lon="5.32375">
        <ele>230</ele>
        <time>2020-08-18T13:50:05Z</time>
      </trkpt>
      <trkpt lat="50.44468" lon="5.32376">
        <ele>230</ele>
        <time>2020-08-18T13:50:06Z</time>
      </trkpt>
      <trkpt lat="50.44468" lon="5.32377">
        <ele>230</ele>
        <time>2020-08-18T13:50:07Z</time>
      </trkpt>
      <trkpt lat="50.44468" lon="5.32378">
        <ele>230</ele>
        <time>2020-08-18T13:50:08Z</time>
      </trkpt>
      <trkpt lat="50.44468" lon="5.32378">
        <ele>230</ele>
        <time>2020-08-18T13:50:09Z</time>
      </trkpt>
      <trkpt lat="50.44468" lon="5.32379">
        <ele>230</ele>
        <time>2020-08-18T13:50:10Z</time>
      </trkpt>
      <trkpt lat="50.44468" lon="5.3238">
        <ele>230</ele>
        <time>2020-08-18T13:50:11Z</time>
      </trkpt>
      <trkpt lat="50.44468" lon="5.3238">
        <ele>230</ele>
        <time>2020-08-18T13:50:12Z</time>
      </trkpt>
      <trkpt lat="50.44468" lon="5.32381">
        <ele>230.1</ele>
        <time>2020-08-18T13:50:13Z</time>
      </trkpt>
      <trkpt lat="50.44469" lon="5.32381">
        <ele>230.1</ele>
        <time>2020-08-18T13:50:14Z</time>
      </trkpt>
      <trkpt lat="50.4447" lon="5.32383">
        <ele>230.2</ele>
        <time>2020-08-18T13:50:16Z</time>
      </trkpt>
      <trkpt lat="50.4447" lon="5.32384">
        <ele>230.2</ele>
        <time>2020-08-18T13:50:17Z</time>
      </trkpt>
      <trkpt lat="50.4447" lon="5.32385">
        <ele>230.2</ele>
        <time>2020-08-18T13:50:18Z</time>
      </trkpt>
      <trkpt lat="50.44471" lon="5.32386">
        <ele>230.3</ele>
        <time>2020-08-18T13:50:18Z</time>
      </trkpt>
      <trkpt lat="50.44472" lon="5.32387">
        <ele>230.3</ele>
        <time>2020-08-18T13:50:19Z</time>
      </trkpt>
      <trkpt lat="50.44472" lon="5.32389">
        <ele>230.4</ele>
        <time>2020-08-18T13:50:20Z</time>
      </trkpt>
      <trkpt lat="50.44473" lon="5.3239">
        <ele>230.4</ele>
        <time>2020-08-18T13:50:21Z</time>
      </trkpt>
      <trkpt lat="50.44473" lon="5.32391">
        <ele>230.4</ele>
        <time>2020-08-18T13:50:22Z</time>
      </trkpt>
      <trkpt lat="50.44473" lon="5.32392">
        <ele>230.5</ele>
        <time>2020-08-18T13:50:23Z</time>
      </trkpt>
      <trkpt lat="50.44473" lon="5.32393">
        <ele>230.5</ele>
        <time>2020-08-18T13:50:24Z</time>
      </trkpt>
      <trkpt lat="50.44473" lon="5.32394">
        <ele>230.5</ele>
        <time>2020-08-18T13:50:25Z</time>
      </trkpt>
      <trkpt lat="50.44472" lon="5.32395">
        <ele>230.4</ele>
        <time>2020-08-18T13:50:26Z</time>
      </trkpt>
      <trkpt lat="50.44471" lon="5.32396">
        <ele>230.4</ele>
        <time>2020-08-18T13:50:27Z</time>
      </trkpt>
      <trkpt lat="50.44471" lon="5.32397">
        <ele>230.4</ele>
        <time>2020-08-18T13:50:28Z</time>
      </trkpt>
      <trkpt lat="50.4447" lon="5.32398">
        <ele>230.4</ele>
        <time>2020-08-18T13:50:29Z</time>
      </trkpt>
      <trkpt lat="50.4447" lon="5.32399">
        <ele>230.4</ele>
        <time>2020-08-18T13:50:30Z</time>
      </trkpt>
      <trkpt lat="50.44469" lon="5.324">
        <ele>230.3</ele>
        <time>2020-08-18T13:50:31Z</time>
      </trkpt>
      <trkpt lat="50.44469" lon="5.32401">
        <ele>230.4</ele>
        <time>2020-08-18T13:50:32Z</time>
      </trkpt>
      <trkpt lat="50.44468" lon="5.32402">
        <ele>230.3</ele>
        <time>2020-08-18T13:50:33Z</time>
      </trkpt>
      <trkpt lat="50.44468" lon="5.32404">
        <ele>230.3</ele>
        <time>2020-08-18T13:50:34Z</time>
      </trkpt>
      <trkpt lat="50.44467" lon="5.32405">
        <ele>230.3</ele>
        <time>2020-08-18T13:50:35Z</time>
      </trkpt>
      <trkpt lat="50.44467" lon="5.32406">
        <ele>230.3</ele>
        <time>2020-08-18T13:50:36Z</time>
      </trkpt>
      <trkpt lat="50.44466" lon="5.32407">
        <ele>230.2</ele>
        <time>2020-08-18T13:50:37Z</time>
      </trkpt>
      <trkpt lat="50.44466" lon="5.32408">
        <ele>230.2</ele>
        <time>2020-08-18T13:50:38Z</time>
      </trkpt>
      <trkpt lat="50.44465" lon="5.32408">
        <ele>230.1</ele>
        <time>2020-08-18T13:50:39Z</time>
      </trkpt>
      <trkpt lat="50.44464" lon="5.32408">
        <ele>230.1</ele>
        <time>2020-08-18T13:50:40Z</time>
      </trkpt>
      <trkpt lat="50.44464" lon="5.32409">
        <ele>230.1</ele>
        <time>2020-08-18T13:50:41Z</time>
      </trkpt>
      <trkpt lat="50.44463" lon="5.32409">
        <ele>230</ele>
        <time>2020-08-18T13:50:42Z</time>
      </trkpt>
      <trkpt lat="50.44462" lon="5.3241">
        <ele>229.9</ele>
        <time>2020-08-18T13:50:43Z</time>
      </trkpt>
      <trkpt lat="50.44461" lon="5.32411">
        <ele>229.9</ele>
        <time>2020-08-18T13:50:44Z</time>
      </trkpt>
      <trkpt lat="50.44461" lon="5.32412">
        <ele>229.9</ele>
        <time>2020-08-18T13:50:45Z</time>
      </trkpt>
      <trkpt lat="50.44461" lon="5.32413">
        <ele>229.9</ele>
        <time>2020-08-18T13:50:46Z</time>
      </trkpt>
      <trkpt lat="50.44461" lon="5.32414">
        <ele>229.9</ele>
        <time>2020-08-18T13:50:47Z</time>
      </trkpt>
      <trkpt lat="50.4446" lon="5.32415">
        <ele>229.8</ele>
        <time>2020-08-18T13:50:48Z</time>
      </trkpt>
      <trkpt lat="50.4446" lon="5.32417">
        <ele>230.4</ele>
        <time>2020-08-18T13:50:49Z</time>
      </trkpt>
      <trkpt lat="50.44459" lon="5.32418">
        <ele>230.4</ele>
        <time>2020-08-18T13:50:50Z</time>
      </trkpt>
      <trkpt lat="50.44459" lon="5.32419">
        <ele>230.4</ele>
        <time>2020-08-18T13:50:51Z</time>
      </trkpt>
      <trkpt lat="50.44458" lon="5.3242">
        <ele>230.3</ele>
        <time>2020-08-18T13:50:52Z</time>
      </trkpt>
      <trkpt lat="50.44458" lon="5.32421">
        <ele>230.3</ele>
        <time>2020-08-18T13:50:53Z</time>
      </trkpt>
      <trkpt lat="50.44457" lon="5.32422">
        <ele>230.2</ele>
        <time>2020-08-18T13:50:54Z</time>
      </trkpt>
      <trkpt lat="50.44456" lon="5.32422">
        <ele>230.2</ele>
        <time>2020-08-18T13:50:55Z</time>
      </trkpt>
      <trkpt lat="50.44455" lon="5.32423">
        <ele>230.1</ele>
        <time>2020-08-18T13:50:56Z</time>
      </trkpt>
      <trkpt lat="50.44455" lon="5.32423">
        <ele>230.1</ele>
        <time>2020-08-18T13:50:57Z</time>
      </trkpt>
      <trkpt lat="50.44454" lon="5.32423">
        <ele>230</ele>
        <time>2020-08-18T13:50:58Z</time>
      </trkpt>
      <trkpt lat="50.44454" lon="5.32424">
        <ele>230</ele>
        <time>2020-08-18T13:50:59Z</time>
      </trkpt>
      <trkpt lat="50.44453" lon="5.32425">
        <ele>230</ele>
        <time>2020-08-18T13:51:00Z</time>
      </trkpt>
      <trkpt lat="50.44453" lon="5.32426">
        <ele>230</ele>
        <time>2020-08-18T13:51:01Z</time>
      </trkpt>
      <trkpt lat="50.44452" lon="5.32427">
        <ele>229.9</ele>
        <time>2020-08-18T13:51:02Z</time>
      </trkpt>
      <trkpt lat="50.44452" lon="5.32429">
        <ele>229.9</ele>
        <time>2020-08-18T13:51:03Z</time>
      </trkpt>
      <trkpt lat="50.44452" lon="5.3243">
        <ele>230</ele>
        <time>2020-08-18T13:51:04Z</time>
      </trkpt>
      <trkpt lat="50.44451" lon="5.32431">
        <ele>229.9</ele>
        <time>2020-08-18T13:51:05Z</time>
      </trkpt>
      <trkpt lat="50.44451" lon="5.32432">
        <ele>229.9</ele>
        <time>2020-08-18T13:51:06Z</time>
      </trkpt>
      <trkpt lat="50.44451" lon="5.32433">
        <ele>229.9</ele>
        <time>2020-08-18T13:51:07Z</time>
      </trkpt>
      <trkpt lat="50.4445" lon="5.32435">
        <ele>229.9</ele>
        <time>2020-08-18T13:51:08Z</time>
      </trkpt>
      <trkpt lat="50.4445" lon="5.32435">
        <ele>229.9</ele>
        <time>2020-08-18T13:51:09Z</time>
      </trkpt>
      <trkpt lat="50.44449" lon="5.32436">
        <ele>229.9</ele>
        <time>2020-08-18T13:51:10Z</time>
      </trkpt>
      <trkpt lat="50.44448" lon="5.32437">
        <ele>229.8</ele>
        <time>2020-08-18T13:51:11Z</time>
      </trkpt>
      <trkpt lat="50.44448" lon="5.32438">
        <ele>229.8</ele>
        <time>2020-08-18T13:51:12Z</time>
      </trkpt>
      <trkpt lat="50.44447" lon="5.32438">
        <ele>229.8</ele>
        <time>2020-08-18T13:51:13Z</time>
      </trkpt>
      <trkpt lat="50.44446" lon="5.32439">
        <ele>229.7</ele>
        <time>2020-08-18T13:51:14Z</time>
      </trkpt>
      <trkpt lat="50.44446" lon="5.32439">
        <ele>229.7</ele>
        <time>2020-08-18T13:51:15Z</time>
      </trkpt>
      <trkpt lat="50.44445" lon="5.32441">
        <ele>229.7</ele>
        <time>2020-08-18T13:51:16Z</time>
      </trkpt>
      <trkpt lat="50.44444" lon="5.32442">
        <ele>229.7</ele>
        <time>2020-08-18T13:51:17Z</time>
      </trkpt>
      <trkpt lat="50.44443" lon="5.32443">
        <ele>229.7</ele>
        <time>2020-08-18T13:51:18Z</time>
      </trkpt>
      <trkpt lat="50.44443" lon="5.32445">
        <ele>229.7</ele>
        <time>2020-08-18T13:51:19Z</time>
      </trkpt>
      <trkpt lat="50.44442" lon="5.32447">
        <ele>229.7</ele>
        <time>2020-08-18T13:51:20Z</time>
      </trkpt>
      <trkpt lat="50.44441" lon="5.32449">
        <ele>229.7</ele>
        <time>2020-08-18T13:51:21Z</time>
      </trkpt>
      <trkpt lat="50.44441" lon="5.32451">
        <ele>229.8</ele>
        <time>2020-08-18T13:51:22Z</time>
      </trkpt>
      <trkpt lat="50.4444" lon="5.32453">
        <ele>229.8</ele>
        <time>2020-08-18T13:51:23Z</time>
      </trkpt>
      <trkpt lat="50.4444" lon="5.32455">
        <ele>229.8</ele>
        <time>2020-08-18T13:51:24Z</time>
      </trkpt>
      <trkpt lat="50.44439" lon="5.32456">
        <ele>229.8</ele>
        <time>2020-08-18T13:51:25Z</time>
      </trkpt>
      <trkpt lat="50.44439" lon="5.32458">
        <ele>229.8</ele>
        <time>2020-08-18T13:51:26Z</time>
      </trkpt>
      <trkpt lat="50.44439" lon="5.32459">
        <ele>229.9</ele>
        <time>2020-08-18T13:51:27Z</time>
      </trkpt>
      <trkpt lat="50.44439" lon="5.3246">
        <ele>229.9</ele>
        <time>2020-08-18T13:51:28Z</time>
      </trkpt>
      <trkpt lat="50.44437" lon="5.32462">
        <ele>229.8</ele>
        <time>2020-08-18T13:51:30Z</time>
      </trkpt>
      <trkpt lat="50.44437" lon="5.32462">
        <ele>229.8</ele>
        <time>2020-08-18T13:51:31Z</time>
      </trkpt>
      <trkpt lat="50.44435" lon="5.32461">
        <ele>229.8</ele>
        <time>2020-08-18T13:51:34Z</time>
      </trkpt>
      <trkpt lat="50.44435" lon="5.32461">
        <ele>229.8</ele>
        <time>2020-08-18T13:51:35Z</time>
      </trkpt>
      <trkpt lat="50.44434" lon="5.32462">
        <ele>229.8</ele>
        <time>2020-08-18T13:51:36Z</time>
      </trkpt>
      <trkpt lat="50.44434" lon="5.32463">
        <ele>229.8</ele>
        <time>2020-08-18T13:51:37Z</time>
      </trkpt>
      <trkpt lat="50.44434" lon="5.32463">
        <ele>229.8</ele>
        <time>2020-08-18T13:51:38Z</time>
      </trkpt>
      <trkpt lat="50.44434" lon="5.32464">
        <ele>229.8</ele>
        <time>2020-08-18T13:51:39Z</time>
      </trkpt>
      <trkpt lat="50.44435" lon="5.32465">
        <ele>229.8</ele>
        <time>2020-08-18T13:51:40Z</time>
      </trkpt>
      <trkpt lat="50.44435" lon="5.32466">
        <ele>229.8</ele>
        <time>2020-08-18T13:51:41Z</time>
      </trkpt>
      <trkpt lat="50.44434" lon="5.32468">
        <ele>229.8</ele>
        <time>2020-08-18T13:51:42Z</time>
      </trkpt>
      <trkpt lat="50.44434" lon="5.3247">
        <ele>229.8</ele>
        <time>2020-08-18T13:51:43Z</time>
      </trkpt>
      <trkpt lat="50.44434" lon="5.32472">
        <ele>229.8</ele>
        <time>2020-08-18T13:51:44Z</time>
      </trkpt>
      <trkpt lat="50.44434" lon="5.32474">
        <ele>229.9</ele>
        <time>2020-08-18T13:51:45Z</time>
      </trkpt>
      <trkpt lat="50.44433" lon="5.32475">
        <ele>229.8</ele>
        <time>2020-08-18T13:51:46Z</time>
      </trkpt>
      <trkpt lat="50.44432" lon="5.32477">
        <ele>229.8</ele>
        <time>2020-08-18T13:51:47Z</time>
      </trkpt>
      <trkpt lat="50.44432" lon="5.32478">
        <ele>229.8</ele>
        <time>2020-08-18T13:51:48Z</time>
      </trkpt>
      <trkpt lat="50.44432" lon="5.32479">
        <ele>229.8</ele>
        <time>2020-08-18T13:51:49Z</time>
      </trkpt>
      <trkpt lat="50.44431" lon="5.32481">
        <ele>229.8</ele>
        <time>2020-08-18T13:51:50Z</time>
      </trkpt>
      <trkpt lat="50.44431" lon="5.32482">
        <ele>229.8</ele>
        <time>2020-08-18T13:51:51Z</time>
      </trkpt>
      <trkpt lat="50.4443" lon="5.32484">
        <ele>229.7</ele>
        <time>2020-08-18T13:51:52Z</time>
      </trkpt>
      <trkpt lat="50.4443" lon="5.32485">
        <ele>229.7</ele>
        <time>2020-08-18T13:51:53Z</time>
      </trkpt>
      <trkpt lat="50.44429" lon="5.32485">
        <ele>229.7</ele>
        <time>2020-08-18T13:51:54Z</time>
      </trkpt>
      <trkpt lat="50.44428" lon="5.32485">
        <ele>229.7</ele>
        <time>2020-08-18T13:51:55Z</time>
      </trkpt>
      <trkpt lat="50.44427" lon="5.32486">
        <ele>229.6</ele>
        <time>2020-08-18T13:51:56Z</time>
      </trkpt>
      <trkpt lat="50.44427" lon="5.32487">
        <ele>229.6</ele>
        <time>2020-08-18T13:51:57Z</time>
      </trkpt>
      <trkpt lat="50.44426" lon="5.32488">
        <ele>229.6</ele>
        <time>2020-08-18T13:51:58Z</time>
      </trkpt>
      <trkpt lat="50.44426" lon="5.32489">
        <ele>229.6</ele>
        <time>2020-08-18T13:51:59Z</time>
      </trkpt>
      <trkpt lat="50.44425" lon="5.3249">
        <ele>229.5</ele>
        <time>2020-08-18T13:52:00Z</time>
      </trkpt>
      <trkpt lat="50.44425" lon="5.3249">
        <ele>229.5</ele>
        <time>2020-08-18T13:52:01Z</time>
      </trkpt>
      <trkpt lat="50.44424" lon="5.32491">
        <ele>229.5</ele>
        <time>2020-08-18T13:52:02Z</time>
      </trkpt>
      <trkpt lat="50.44424" lon="5.32492">
        <ele>229.5</ele>
        <time>2020-08-18T13:52:03Z</time>
      </trkpt>
      <trkpt lat="50.44424" lon="5.32493">
        <ele>229.4</ele>
        <time>2020-08-18T13:52:04Z</time>
      </trkpt>
      <trkpt lat="50.44424" lon="5.32496">
        <ele>229.4</ele>
        <time>2020-08-18T13:52:06Z</time>
      </trkpt>
      <trkpt lat="50.44424" lon="5.32496">
        <ele>229.4</ele>
        <time>2020-08-18T13:52:07Z</time>
      </trkpt>
      <trkpt lat="50.44424" lon="5.32497">
        <ele>229.4</ele>
        <time>2020-08-18T13:52:08Z</time>
      </trkpt>
      <trkpt lat="50.44424" lon="5.32498">
        <ele>229.4</ele>
        <time>2020-08-18T13:52:09Z</time>
      </trkpt>
      <trkpt lat="50.44424" lon="5.325">
        <ele>229.8</ele>
        <time>2020-08-18T13:52:10Z</time>
      </trkpt>
      <trkpt lat="50.44424" lon="5.32501">
        <ele>229.8</ele>
        <time>2020-08-18T13:52:11Z</time>
      </trkpt>
      <trkpt lat="50.44424" lon="5.32502">
        <ele>229.8</ele>
        <time>2020-08-18T13:52:12Z</time>
      </trkpt>
      <trkpt lat="50.44424" lon="5.32503">
        <ele>229.8</ele>
        <time>2020-08-18T13:52:13Z</time>
      </trkpt>
      <trkpt lat="50.44423" lon="5.32505">
        <ele>229.9</ele>
        <time>2020-08-18T13:52:14Z</time>
      </trkpt>
      <trkpt lat="50.44423" lon="5.32506">
        <ele>229.9</ele>
        <time>2020-08-18T13:52:15Z</time>
      </trkpt>
      <trkpt lat="50.44422" lon="5.32507">
        <ele>229.9</ele>
        <time>2020-08-18T13:52:16Z</time>
      </trkpt>
      <trkpt lat="50.44422" lon="5.32509">
        <ele>230.1</ele>
        <time>2020-08-18T13:52:17Z</time>
      </trkpt>
      <trkpt lat="50.44421" lon="5.3251">
        <ele>230.1</ele>
        <time>2020-08-18T13:52:18Z</time>
      </trkpt>
      <trkpt lat="50.4442" lon="5.32511">
        <ele>230.1</ele>
        <time>2020-08-18T13:52:19Z</time>
      </trkpt>
      <trkpt lat="50.4442" lon="5.32513">
        <ele>230.3</ele>
        <time>2020-08-18T13:52:20Z</time>
      </trkpt>
      <trkpt lat="50.44419" lon="5.32513">
        <ele>230.2</ele>
        <time>2020-08-18T13:52:21Z</time>
      </trkpt>
      <trkpt lat="50.44418" lon="5.32514">
        <ele>230.3</ele>
        <time>2020-08-18T13:52:22Z</time>
      </trkpt>
      <trkpt lat="50.44417" lon="5.32514">
        <ele>230.3</ele>
        <time>2020-08-18T13:52:23Z</time>
      </trkpt>
      <trkpt lat="50.44416" lon="5.32517">
        <ele>227.2</ele>
        <time>2020-08-18T13:52:25Z</time>
      </trkpt>
      <trkpt lat="50.44416" lon="5.32517">
        <ele>227.2</ele>
        <time>2020-08-18T13:52:26Z</time>
      </trkpt>
      <trkpt lat="50.44416" lon="5.32518">
        <ele>227.1</ele>
        <time>2020-08-18T13:52:27Z</time>
      </trkpt>
      <trkpt lat="50.44416" lon="5.32519">
        <ele>227.1</ele>
        <time>2020-08-18T13:52:28Z</time>
      </trkpt>
      <trkpt lat="50.44416" lon="5.32519">
        <ele>227.1</ele>
        <time>2020-08-18T13:52:29Z</time>
      </trkpt>
      <trkpt lat="50.44415" lon="5.32519">
        <ele>227.1</ele>
        <time>2020-08-18T13:52:30Z</time>
      </trkpt>
      <trkpt lat="50.44413" lon="5.3252">
        <ele>227</ele>
        <time>2020-08-18T13:52:31Z</time>
      </trkpt>
      <trkpt lat="50.44412" lon="5.3252">
        <ele>226.9</ele>
        <time>2020-08-18T13:52:32Z</time>
      </trkpt>
      <trkpt lat="50.44412" lon="5.3252">
        <ele>226.9</ele>
        <time>2020-08-18T13:52:33Z</time>
      </trkpt>
      <trkpt lat="50.44411" lon="5.3252">
        <ele>226.9</ele>
        <time>2020-08-18T13:52:34Z</time>
      </trkpt>
      <trkpt lat="50.4441" lon="5.32521">
        <ele>226.8</ele>
        <time>2020-08-18T13:52:35Z</time>
      </trkpt>
      <trkpt lat="50.4441" lon="5.32522">
        <ele>226.8</ele>
        <time>2020-08-18T13:52:36Z</time>
      </trkpt>
      <trkpt lat="50.4441" lon="5.32524">
        <ele>226.7</ele>
        <time>2020-08-18T13:52:37Z</time>
      </trkpt>
      <trkpt lat="50.4441" lon="5.32526">
        <ele>226.7</ele>
        <time>2020-08-18T13:52:38Z</time>
      </trkpt>
      <trkpt lat="50.4441" lon="5.32527">
        <ele>226.7</ele>
        <time>2020-08-18T13:52:39Z</time>
      </trkpt>
      <trkpt lat="50.44409" lon="5.32529">
        <ele>226.6</ele>
        <time>2020-08-18T13:52:40Z</time>
      </trkpt>
      <trkpt lat="50.44408" lon="5.3253">
        <ele>226.6</ele>
        <time>2020-08-18T13:52:41Z</time>
      </trkpt>
      <trkpt lat="50.44407" lon="5.32531">
        <ele>226.5</ele>
        <time>2020-08-18T13:52:42Z</time>
      </trkpt>
      <trkpt lat="50.44406" lon="5.32531">
        <ele>226.5</ele>
        <time>2020-08-18T13:52:43Z</time>
      </trkpt>
      <trkpt lat="50.44405" lon="5.32532">
        <ele>226.4</ele>
        <time>2020-08-18T13:52:44Z</time>
      </trkpt>
      <trkpt lat="50.44403" lon="5.32532">
        <ele>226.3</ele>
        <time>2020-08-18T13:52:45Z</time>
      </trkpt>
      <trkpt lat="50.44402" lon="5.32532">
        <ele>226.3</ele>
        <time>2020-08-18T13:52:46Z</time>
      </trkpt>
      <trkpt lat="50.44401" lon="5.32533">
        <ele>226.2</ele>
        <time>2020-08-18T13:52:47Z</time>
      </trkpt>
      <trkpt lat="50.444" lon="5.32534">
        <ele>226.2</ele>
        <time>2020-08-18T13:52:48Z</time>
      </trkpt>
      <trkpt lat="50.44399" lon="5.32534">
        <ele>226.1</ele>
        <time>2020-08-18T13:52:49Z</time>
      </trkpt>
      <trkpt lat="50.44398" lon="5.32535">
        <ele>226.1</ele>
        <time>2020-08-18T13:52:50Z</time>
      </trkpt>
      <trkpt lat="50.44397" lon="5.32536">
        <ele>226.1</ele>
        <time>2020-08-18T13:52:51Z</time>
      </trkpt>
      <trkpt lat="50.44396" lon="5.32537">
        <ele>226</ele>
        <time>2020-08-18T13:52:52Z</time>
      </trkpt>
      <trkpt lat="50.44395" lon="5.32537">
        <ele>226</ele>
        <time>2020-08-18T13:52:53Z</time>
      </trkpt>
      <trkpt lat="50.44394" lon="5.32538">
        <ele>225.9</ele>
        <time>2020-08-18T13:52:54Z</time>
      </trkpt>
      <trkpt lat="50.44393" lon="5.32539">
        <ele>225.9</ele>
        <time>2020-08-18T13:52:55Z</time>
      </trkpt>
      <trkpt lat="50.44392" lon="5.3254">
        <ele>225.8</ele>
        <time>2020-08-18T13:52:56Z</time>
      </trkpt>
      <trkpt lat="50.44392" lon="5.32541">
        <ele>225.9</ele>
        <time>2020-08-18T13:52:57Z</time>
      </trkpt>
      <trkpt lat="50.44391" lon="5.32542">
        <ele>225.8</ele>
        <time>2020-08-18T13:52:58Z</time>
      </trkpt>
      <trkpt lat="50.44391" lon="5.32542">
        <ele>225.8</ele>
        <time>2020-08-18T13:52:59Z</time>
      </trkpt>
      <trkpt lat="50.44391" lon="5.32543">
        <ele>225.8</ele>
        <time>2020-08-18T13:53:00Z</time>
      </trkpt>
      <trkpt lat="50.44389" lon="5.32542">
        <ele>225.7</ele>
        <time>2020-08-18T13:53:01Z</time>
      </trkpt>
      <trkpt lat="50.44388" lon="5.32541">
        <ele>225.6</ele>
        <time>2020-08-18T13:53:02Z</time>
      </trkpt>
      <trkpt lat="50.44387" lon="5.3254">
        <ele>225.5</ele>
        <time>2020-08-18T13:53:03Z</time>
      </trkpt>
      <trkpt lat="50.44386" lon="5.32539">
        <ele>225.4</ele>
        <time>2020-08-18T13:53:04Z</time>
      </trkpt>
      <trkpt lat="50.44386" lon="5.32541">
        <ele>225.5</ele>
        <time>2020-08-18T13:53:05Z</time>
      </trkpt>
      <trkpt lat="50.44388" lon="5.32548">
        <ele>225.8</ele>
        <time>2020-08-18T13:53:06Z</time>
      </trkpt>
      <trkpt lat="50.44391" lon="5.32553">
        <ele>226.1</ele>
        <time>2020-08-18T13:53:07Z</time>
      </trkpt>
      <trkpt lat="50.44392" lon="5.32557">
        <ele>226.4</ele>
        <time>2020-08-18T13:53:08Z</time>
      </trkpt>
      <trkpt lat="50.44393" lon="5.3256">
        <ele>226.6</ele>
        <time>2020-08-18T13:53:09Z</time>
      </trkpt>
      <trkpt lat="50.44394" lon="5.32562">
        <ele>226.8</ele>
        <time>2020-08-18T13:53:10Z</time>
      </trkpt>
      <trkpt lat="50.44393" lon="5.32563">
        <ele>226.7</ele>
        <time>2020-08-18T13:53:11Z</time>
      </trkpt>
      <trkpt lat="50.44392" lon="5.32563">
        <ele>226.6</ele>
        <time>2020-08-18T13:53:12Z</time>
      </trkpt>
      <trkpt lat="50.44392" lon="5.32562">
        <ele>226.6</ele>
        <time>2020-08-18T13:53:13Z</time>
      </trkpt>
      <trkpt lat="50.44391" lon="5.3256">
        <ele>226.4</ele>
        <time>2020-08-18T13:53:15Z</time>
      </trkpt>
      <trkpt lat="50.44391" lon="5.3256">
        <ele>226.4</ele>
        <time>2020-08-18T13:53:16Z</time>
      </trkpt>
      <trkpt lat="50.4439" lon="5.3256">
        <ele>226.3</ele>
        <time>2020-08-18T13:53:17Z</time>
      </trkpt>
      <trkpt lat="50.44389" lon="5.3256">
        <ele>226.3</ele>
        <time>2020-08-18T13:53:18Z</time>
      </trkpt>
      <trkpt lat="50.44389" lon="5.32561">
        <ele>226.3</ele>
        <time>2020-08-18T13:53:19Z</time>
      </trkpt>
      <trkpt lat="50.44389" lon="5.32563">
        <ele>226.4</ele>
        <time>2020-08-18T13:53:20Z</time>
      </trkpt>
      <trkpt lat="50.44389" lon="5.32564">
        <ele>226.4</ele>
        <time>2020-08-18T13:53:21Z</time>
      </trkpt>
      <trkpt lat="50.44389" lon="5.32565">
        <ele>226.4</ele>
        <time>2020-08-18T13:53:22Z</time>
      </trkpt>
      <trkpt lat="50.44389" lon="5.32566">
        <ele>226.5</ele>
        <time>2020-08-18T13:53:23Z</time>
      </trkpt>
      <trkpt lat="50.44389" lon="5.32567">
        <ele>226.5</ele>
        <time>2020-08-18T13:53:24Z</time>
      </trkpt>
      <trkpt lat="50.44389" lon="5.32568">
        <ele>226.6</ele>
        <time>2020-08-18T13:53:25Z</time>
      </trkpt>
      <trkpt lat="50.44389" lon="5.32569">
        <ele>226.6</ele>
        <time>2020-08-18T13:53:26Z</time>
      </trkpt>
      <trkpt lat="50.44389" lon="5.32571">
        <ele>226.7</ele>
        <time>2020-08-18T13:53:27Z</time>
      </trkpt>
      <trkpt lat="50.44389" lon="5.32573">
        <ele>226.7</ele>
        <time>2020-08-18T13:53:28Z</time>
      </trkpt>
      <trkpt lat="50.4439" lon="5.32575">
        <ele>226.9</ele>
        <time>2020-08-18T13:53:29Z</time>
      </trkpt>
      <trkpt lat="50.44389" lon="5.32576">
        <ele>226.8</ele>
        <time>2020-08-18T13:53:30Z</time>
      </trkpt>
      <trkpt lat="50.44389" lon="5.32576">
        <ele>226.8</ele>
        <time>2020-08-18T13:53:31Z</time>
      </trkpt>
      <trkpt lat="50.44389" lon="5.32576">
        <ele>226.8</ele>
        <time>2020-08-18T13:53:32Z</time>
      </trkpt>
      <trkpt lat="50.44388" lon="5.32577">
        <ele>226.7</ele>
        <time>2020-08-18T13:53:33Z</time>
      </trkpt>
      <trkpt lat="50.44388" lon="5.32578">
        <ele>226.8</ele>
        <time>2020-08-18T13:53:34Z</time>
      </trkpt>
      <trkpt lat="50.44388" lon="5.32579">
        <ele>226.8</ele>
        <time>2020-08-18T13:53:35Z</time>
      </trkpt>
      <trkpt lat="50.44388" lon="5.3258">
        <ele>226.8</ele>
        <time>2020-08-18T13:53:36Z</time>
      </trkpt>
      <trkpt lat="50.44387" lon="5.32581">
        <ele>226.7</ele>
        <time>2020-08-18T13:53:37Z</time>
      </trkpt>
      <trkpt lat="50.44386" lon="5.32581">
        <ele>226.6</ele>
        <time>2020-08-18T13:53:38Z</time>
      </trkpt>
      <trkpt lat="50.44384" lon="5.32582">
        <ele>226.4</ele>
        <time>2020-08-18T13:53:39Z</time>
      </trkpt>
      <trkpt lat="50.44383" lon="5.32583">
        <ele>226.3</ele>
        <time>2020-08-18T13:53:40Z</time>
      </trkpt>
      <trkpt lat="50.44383" lon="5.32584">
        <ele>227.7</ele>
        <time>2020-08-18T13:53:41Z</time>
      </trkpt>
      <trkpt lat="50.44382" lon="5.32586">
        <ele>227.6</ele>
        <time>2020-08-18T13:53:42Z</time>
      </trkpt>
      <trkpt lat="50.44382" lon="5.32588">
        <ele>227.6</ele>
        <time>2020-08-18T13:53:43Z</time>
      </trkpt>
      <trkpt lat="50.44381" lon="5.32589">
        <ele>227.5</ele>
        <time>2020-08-18T13:53:44Z</time>
      </trkpt>
      <trkpt lat="50.44381" lon="5.32591">
        <ele>227.5</ele>
        <time>2020-08-18T13:53:45Z</time>
      </trkpt>
      <trkpt lat="50.4438" lon="5.32592">
        <ele>227.5</ele>
        <time>2020-08-18T13:53:46Z</time>
      </trkpt>
      <trkpt lat="50.4438" lon="5.32594">
        <ele>227.5</ele>
        <time>2020-08-18T13:53:47Z</time>
      </trkpt>
      <trkpt lat="50.44379" lon="5.32596">
        <ele>227.4</ele>
        <time>2020-08-18T13:53:48Z</time>
      </trkpt>
      <trkpt lat="50.44378" lon="5.32597">
        <ele>227.3</ele>
        <time>2020-08-18T13:53:49Z</time>
      </trkpt>
      <trkpt lat="50.44378" lon="5.32599">
        <ele>227.3</ele>
        <time>2020-08-18T13:53:50Z</time>
      </trkpt>
      <trkpt lat="50.44377" lon="5.326">
        <ele>227.2</ele>
        <time>2020-08-18T13:53:51Z</time>
      </trkpt>
      <trkpt lat="50.44377" lon="5.32601">
        <ele>227.2</ele>
        <time>2020-08-18T13:53:52Z</time>
      </trkpt>
      <trkpt lat="50.44377" lon="5.32602">
        <ele>227.2</ele>
        <time>2020-08-18T13:53:53Z</time>
      </trkpt>
      <trkpt lat="50.44376" lon="5.32601">
        <ele>227.1</ele>
        <time>2020-08-18T13:53:54Z</time>
      </trkpt>
      <trkpt lat="50.44375" lon="5.32602">
        <ele>227.1</ele>
        <time>2020-08-18T13:53:55Z</time>
      </trkpt>
      <trkpt lat="50.44375" lon="5.32602">
        <ele>227.1</ele>
        <time>2020-08-18T13:53:56Z</time>
      </trkpt>
      <trkpt lat="50.44373" lon="5.32602">
        <ele>226.9</ele>
        <time>2020-08-18T13:53:57Z</time>
      </trkpt>
      <trkpt lat="50.44373" lon="5.32603">
        <ele>226.9</ele>
        <time>2020-08-18T13:53:58Z</time>
      </trkpt>
      <trkpt lat="50.44372" lon="5.32603">
        <ele>226.8</ele>
        <time>2020-08-18T13:53:59Z</time>
      </trkpt>
      <trkpt lat="50.44371" lon="5.32604">
        <ele>226.8</ele>
        <time>2020-08-18T13:54:00Z</time>
      </trkpt>
      <trkpt lat="50.44371" lon="5.32605">
        <ele>226.8</ele>
        <time>2020-08-18T13:54:01Z</time>
      </trkpt>
      <trkpt lat="50.4437" lon="5.32606">
        <ele>226.7</ele>
        <time>2020-08-18T13:54:02Z</time>
      </trkpt>
      <trkpt lat="50.4437" lon="5.32606">
        <ele>226.7</ele>
        <time>2020-08-18T13:54:03Z</time>
      </trkpt>
      <trkpt lat="50.44369" lon="5.32605">
        <ele>226.6</ele>
        <time>2020-08-18T13:54:04Z</time>
      </trkpt>
      <trkpt lat="50.44368" lon="5.32605">
        <ele>226.5</ele>
        <time>2020-08-18T13:54:05Z</time>
      </trkpt>
      <trkpt lat="50.44368" lon="5.32605">
        <ele>226.5</ele>
        <time>2020-08-18T13:54:06Z</time>
      </trkpt>
      <trkpt lat="50.44367" lon="5.32605">
        <ele>226.5</ele>
        <time>2020-08-18T13:54:07Z</time>
      </trkpt>
      <trkpt lat="50.44367" lon="5.32605">
        <ele>226.5</ele>
        <time>2020-08-18T13:54:08Z</time>
      </trkpt>
      <trkpt lat="50.44365" lon="5.32604">
        <ele>226.3</ele>
        <time>2020-08-18T13:54:09Z</time>
      </trkpt>
      <trkpt lat="50.44364" lon="5.32605">
        <ele>226.2</ele>
        <time>2020-08-18T13:54:10Z</time>
      </trkpt>
      <trkpt lat="50.44362" lon="5.32605">
        <ele>226.1</ele>
        <time>2020-08-18T13:54:11Z</time>
      </trkpt>
      <trkpt lat="50.44361" lon="5.32606">
        <ele>226</ele>
        <time>2020-08-18T13:54:12Z</time>
      </trkpt>
      <trkpt lat="50.4436" lon="5.32606">
        <ele>226</ele>
        <time>2020-08-18T13:54:13Z</time>
      </trkpt>
      <trkpt lat="50.44359" lon="5.32607">
        <ele>225.9</ele>
        <time>2020-08-18T13:54:14Z</time>
      </trkpt>
      <trkpt lat="50.44359" lon="5.32608">
        <ele>226</ele>
        <time>2020-08-18T13:54:15Z</time>
      </trkpt>
      <trkpt lat="50.44358" lon="5.32609">
        <ele>225.9</ele>
        <time>2020-08-18T13:54:16Z</time>
      </trkpt>
      <trkpt lat="50.44358" lon="5.3261">
        <ele>226</ele>
        <time>2020-08-18T13:54:17Z</time>
      </trkpt>
      <trkpt lat="50.44357" lon="5.32611">
        <ele>225.9</ele>
        <time>2020-08-18T13:54:18Z</time>
      </trkpt>
      <trkpt lat="50.44356" lon="5.32612">
        <ele>225.9</ele>
        <time>2020-08-18T13:54:19Z</time>
      </trkpt>
      <trkpt lat="50.44356" lon="5.32613">
        <ele>225.9</ele>
        <time>2020-08-18T13:54:20Z</time>
      </trkpt>
      <trkpt lat="50.44355" lon="5.32613">
        <ele>225.9</ele>
        <time>2020-08-18T13:54:21Z</time>
      </trkpt>
      <trkpt lat="50.44354" lon="5.32613">
        <ele>225.8</ele>
        <time>2020-08-18T13:54:22Z</time>
      </trkpt>
      <trkpt lat="50.44354" lon="5.32613">
        <ele>225.8</ele>
        <time>2020-08-18T13:54:23Z</time>
      </trkpt>
      <trkpt lat="50.44353" lon="5.32614">
        <ele>225.8</ele>
        <time>2020-08-18T13:54:24Z</time>
      </trkpt>
      <trkpt lat="50.44352" lon="5.32615">
        <ele>225.8</ele>
        <time>2020-08-18T13:54:25Z</time>
      </trkpt>
      <trkpt lat="50.44352" lon="5.32615">
        <ele>225.8</ele>
        <time>2020-08-18T13:54:26Z</time>
      </trkpt>
      <trkpt lat="50.44351" lon="5.32615">
        <ele>225.7</ele>
        <time>2020-08-18T13:54:27Z</time>
      </trkpt>
      <trkpt lat="50.4435" lon="5.32616">
        <ele>225.7</ele>
        <time>2020-08-18T13:54:28Z</time>
      </trkpt>
      <trkpt lat="50.4435" lon="5.32616">
        <ele>225.7</ele>
        <time>2020-08-18T13:54:29Z</time>
      </trkpt>
      <trkpt lat="50.44349" lon="5.32616">
        <ele>225.7</ele>
        <time>2020-08-18T13:54:30Z</time>
      </trkpt>
      <trkpt lat="50.44349" lon="5.32617">
        <ele>225.7</ele>
        <time>2020-08-18T13:54:31Z</time>
      </trkpt>
      <trkpt lat="50.44349" lon="5.32618">
        <ele>225.7</ele>
        <time>2020-08-18T13:54:32Z</time>
      </trkpt>
      <trkpt lat="50.44349" lon="5.32618">
        <ele>225.7</ele>
        <time>2020-08-18T13:54:33Z</time>
      </trkpt>
      <trkpt lat="50.44348" lon="5.32619">
        <ele>225.7</ele>
        <time>2020-08-18T13:54:33Z</time>
      </trkpt>
      <trkpt lat="50.44348" lon="5.3262">
        <ele>225.7</ele>
        <time>2020-08-18T13:54:34Z</time>
      </trkpt>
      <trkpt lat="50.44347" lon="5.32622">
        <ele>225.8</ele>
        <time>2020-08-18T13:54:35Z</time>
      </trkpt>
      <trkpt lat="50.44348" lon="5.32623">
        <ele>225.8</ele>
        <time>2020-08-18T13:54:36Z</time>
      </trkpt>
      <trkpt lat="50.44348" lon="5.32625">
        <ele>225.9</ele>
        <time>2020-08-18T13:54:37Z</time>
      </trkpt>
      <trkpt lat="50.44348" lon="5.32627">
        <ele>225.9</ele>
        <time>2020-08-18T13:54:38Z</time>
      </trkpt>
      <trkpt lat="50.44348" lon="5.32628">
        <ele>225.9</ele>
        <time>2020-08-18T13:54:39Z</time>
      </trkpt>
      <trkpt lat="50.44348" lon="5.3263">
        <ele>226</ele>
        <time>2020-08-18T13:54:40Z</time>
      </trkpt>
      <trkpt lat="50.44348" lon="5.32632">
        <ele>226</ele>
        <time>2020-08-18T13:54:41Z</time>
      </trkpt>
      <trkpt lat="50.44348" lon="5.32634">
        <ele>226</ele>
        <time>2020-08-18T13:54:42Z</time>
      </trkpt>
      <trkpt lat="50.44347" lon="5.32636">
        <ele>225.9</ele>
        <time>2020-08-18T13:54:43Z</time>
      </trkpt>
      <trkpt lat="50.44346" lon="5.32638">
        <ele>225.9</ele>
        <time>2020-08-18T13:54:44Z</time>
      </trkpt>
      <trkpt lat="50.44346" lon="5.3264">
        <ele>225.9</ele>
        <time>2020-08-18T13:54:45Z</time>
      </trkpt>
      <trkpt lat="50.44346" lon="5.32641">
        <ele>225.9</ele>
        <time>2020-08-18T13:54:46Z</time>
      </trkpt>
      <trkpt lat="50.44345" lon="5.32642">
        <ele>225.8</ele>
        <time>2020-08-18T13:54:47Z</time>
      </trkpt>
      <trkpt lat="50.44344" lon="5.32643">
        <ele>225.8</ele>
        <time>2020-08-18T13:54:48Z</time>
      </trkpt>
      <trkpt lat="50.44344" lon="5.32644">
        <ele>225.8</ele>
        <time>2020-08-18T13:54:49Z</time>
      </trkpt>
      <trkpt lat="50.44344" lon="5.32645">
        <ele>225.7</ele>
        <time>2020-08-18T13:54:50Z</time>
      </trkpt>
      <trkpt lat="50.44344" lon="5.32646">
        <ele>225.7</ele>
        <time>2020-08-18T13:54:51Z</time>
      </trkpt>
      <trkpt lat="50.44344" lon="5.32648">
        <ele>225.7</ele>
        <time>2020-08-18T13:54:52Z</time>
      </trkpt>
      <trkpt lat="50.44344" lon="5.32649">
        <ele>225.6</ele>
        <time>2020-08-18T13:54:53Z</time>
      </trkpt>
      <trkpt lat="50.44344" lon="5.32651">
        <ele>225.6</ele>
        <time>2020-08-18T13:54:54Z</time>
      </trkpt>
      <trkpt lat="50.44344" lon="5.32653">
        <ele>225.5</ele>
        <time>2020-08-18T13:54:55Z</time>
      </trkpt>
      <trkpt lat="50.44344" lon="5.32655">
        <ele>225.5</ele>
        <time>2020-08-18T13:54:56Z</time>
      </trkpt>
      <trkpt lat="50.44344" lon="5.32657">
        <ele>225.4</ele>
        <time>2020-08-18T13:54:57Z</time>
      </trkpt>
      <trkpt lat="50.44344" lon="5.32659">
        <ele>225.3</ele>
        <time>2020-08-18T13:54:58Z</time>
      </trkpt>
      <trkpt lat="50.44344" lon="5.3266">
        <ele>225.3</ele>
        <time>2020-08-18T13:54:59Z</time>
      </trkpt>
      <trkpt lat="50.44344" lon="5.32662">
        <ele>225.2</ele>
        <time>2020-08-18T13:55:00Z</time>
      </trkpt>
      <trkpt lat="50.44344" lon="5.32663">
        <ele>225.2</ele>
        <time>2020-08-18T13:55:01Z</time>
      </trkpt>
      <trkpt lat="50.44344" lon="5.32664">
        <ele>225.2</ele>
        <time>2020-08-18T13:55:02Z</time>
      </trkpt>
      <trkpt lat="50.44343" lon="5.32664">
        <ele>225.1</ele>
        <time>2020-08-18T13:55:03Z</time>
      </trkpt>
      <trkpt lat="50.44343" lon="5.32665">
        <ele>225.1</ele>
        <time>2020-08-18T13:55:04Z</time>
      </trkpt>
      <trkpt lat="50.44343" lon="5.32665">
        <ele>225.1</ele>
        <time>2020-08-18T13:55:05Z</time>
      </trkpt>
      <trkpt lat="50.44342" lon="5.32665">
        <ele>225</ele>
        <time>2020-08-18T13:55:06Z</time>
      </trkpt>
      <trkpt lat="50.44341" lon="5.32666">
        <ele>224.9</ele>
        <time>2020-08-18T13:55:07Z</time>
      </trkpt>
      <trkpt lat="50.44341" lon="5.32666">
        <ele>224.9</ele>
        <time>2020-08-18T13:55:08Z</time>
      </trkpt>
      <trkpt lat="50.44341" lon="5.32668">
        <ele>225.2</ele>
        <time>2020-08-18T13:55:09Z</time>
      </trkpt>
      <trkpt lat="50.44341" lon="5.3267">
        <ele>225.2</ele>
        <time>2020-08-18T13:55:10Z</time>
      </trkpt>
      <trkpt lat="50.44341" lon="5.32673">
        <ele>225.4</ele>
        <time>2020-08-18T13:55:11Z</time>
      </trkpt>
      <trkpt lat="50.4434" lon="5.32675">
        <ele>225.5</ele>
        <time>2020-08-18T13:55:12Z</time>
      </trkpt>
      <trkpt lat="50.4434" lon="5.32676">
        <ele>225.6</ele>
        <time>2020-08-18T13:55:13Z</time>
      </trkpt>
      <trkpt lat="50.44339" lon="5.32677">
        <ele>225.6</ele>
        <time>2020-08-18T13:55:14Z</time>
      </trkpt>
      <trkpt lat="50.44339" lon="5.32677">
        <ele>225.6</ele>
        <time>2020-08-18T13:55:15Z</time>
      </trkpt>
      <trkpt lat="50.44338" lon="5.32678">
        <ele>225.6</ele>
        <time>2020-08-18T13:55:16Z</time>
      </trkpt>
      <trkpt lat="50.44338" lon="5.32678">
        <ele>225.6</ele>
        <time>2020-08-18T13:55:17Z</time>
      </trkpt>
      <trkpt lat="50.44338" lon="5.32679">
        <ele>225.7</ele>
        <time>2020-08-18T13:55:18Z</time>
      </trkpt>
      <trkpt lat="50.44337" lon="5.3268">
        <ele>225.7</ele>
        <time>2020-08-18T13:55:19Z</time>
      </trkpt>
      <trkpt lat="50.44336" lon="5.32681">
        <ele>225.8</ele>
        <time>2020-08-18T13:55:20Z</time>
      </trkpt>
      <trkpt lat="50.44336" lon="5.32682">
        <ele>225.9</ele>
        <time>2020-08-18T13:55:21Z</time>
      </trkpt>
      <trkpt lat="50.44335" lon="5.32682">
        <ele>225.8</ele>
        <time>2020-08-18T13:55:22Z</time>
      </trkpt>
      <trkpt lat="50.44334" lon="5.32683">
        <ele>225.9</ele>
        <time>2020-08-18T13:55:23Z</time>
      </trkpt>
      <trkpt lat="50.44334" lon="5.32683">
        <ele>225.9</ele>
        <time>2020-08-18T13:55:24Z</time>
      </trkpt>
      <trkpt lat="50.44333" lon="5.32684">
        <ele>223.9</ele>
        <time>2020-08-18T13:55:25Z</time>
      </trkpt>
      <trkpt lat="50.44333" lon="5.32685">
        <ele>223.9</ele>
        <time>2020-08-18T13:55:26Z</time>
      </trkpt>
      <trkpt lat="50.44331" lon="5.32686">
        <ele>223.8</ele>
        <time>2020-08-18T13:55:27Z</time>
      </trkpt>
      <trkpt lat="50.44331" lon="5.32687">
        <ele>223.8</ele>
        <time>2020-08-18T13:55:28Z</time>
      </trkpt>
      <trkpt lat="50.4433" lon="5.32688">
        <ele>223.8</ele>
        <time>2020-08-18T13:55:29Z</time>
      </trkpt>
      <trkpt lat="50.4433" lon="5.32689">
        <ele>223.8</ele>
        <time>2020-08-18T13:55:30Z</time>
      </trkpt>
      <trkpt lat="50.44328" lon="5.3269">
        <ele>223.8</ele>
        <time>2020-08-18T13:55:31Z</time>
      </trkpt>
      <trkpt lat="50.44328" lon="5.32691">
        <ele>223.8</ele>
        <time>2020-08-18T13:55:32Z</time>
      </trkpt>
      <trkpt lat="50.44327" lon="5.32692">
        <ele>223.8</ele>
        <time>2020-08-18T13:55:33Z</time>
      </trkpt>
      <trkpt lat="50.44326" lon="5.32693">
        <ele>223.8</ele>
        <time>2020-08-18T13:55:34Z</time>
      </trkpt>
      <trkpt lat="50.44326" lon="5.32694">
        <ele>223.8</ele>
        <time>2020-08-18T13:55:35Z</time>
      </trkpt>
      <trkpt lat="50.44325" lon="5.32695">
        <ele>223.8</ele>
        <time>2020-08-18T13:55:36Z</time>
      </trkpt>
      <trkpt lat="50.44325" lon="5.32696">
        <ele>223.8</ele>
        <time>2020-08-18T13:55:37Z</time>
      </trkpt>
      <trkpt lat="50.44325" lon="5.32698">
        <ele>223.8</ele>
        <time>2020-08-18T13:55:38Z</time>
      </trkpt>
      <trkpt lat="50.44325" lon="5.32699">
        <ele>223.8</ele>
        <time>2020-08-18T13:55:39Z</time>
      </trkpt>
      <trkpt lat="50.44323" lon="5.32701">
        <ele>223.8</ele>
        <time>2020-08-18T13:55:40Z</time>
      </trkpt>
      <trkpt lat="50.44323" lon="5.32702">
        <ele>223.8</ele>
        <time>2020-08-18T13:55:41Z</time>
      </trkpt>
      <trkpt lat="50.44322" lon="5.32704">
        <ele>223.8</ele>
        <time>2020-08-18T13:55:42Z</time>
      </trkpt>
      <trkpt lat="50.44321" lon="5.32705">
        <ele>223.8</ele>
        <time>2020-08-18T13:55:43Z</time>
      </trkpt>
      <trkpt lat="50.4432" lon="5.32706">
        <ele>223.8</ele>
        <time>2020-08-18T13:55:44Z</time>
      </trkpt>
      <trkpt lat="50.44318" lon="5.32707">
        <ele>223.8</ele>
        <time>2020-08-18T13:55:45Z</time>
      </trkpt>
      <trkpt lat="50.44318" lon="5.32708">
        <ele>223.8</ele>
        <time>2020-08-18T13:55:46Z</time>
      </trkpt>
      <trkpt lat="50.44317" lon="5.32708">
        <ele>223.8</ele>
        <time>2020-08-18T13:55:47Z</time>
      </trkpt>
      <trkpt lat="50.44317" lon="5.32709">
        <ele>223.8</ele>
        <time>2020-08-18T13:55:48Z</time>
      </trkpt>
      <trkpt lat="50.44316" lon="5.32709">
        <ele>223.8</ele>
        <time>2020-08-18T13:55:49Z</time>
      </trkpt>
      <trkpt lat="50.44316" lon="5.3271">
        <ele>223.8</ele>
        <time>2020-08-18T13:55:50Z</time>
      </trkpt>
      <trkpt lat="50.44316" lon="5.32711">
        <ele>223.8</ele>
        <time>2020-08-18T13:55:51Z</time>
      </trkpt>
      <trkpt lat="50.44315" lon="5.32712">
        <ele>223.8</ele>
        <time>2020-08-18T13:55:52Z</time>
      </trkpt>
      <trkpt lat="50.44314" lon="5.32713">
        <ele>223.8</ele>
        <time>2020-08-18T13:55:53Z</time>
      </trkpt>
      <trkpt lat="50.44314" lon="5.32715">
        <ele>223.8</ele>
        <time>2020-08-18T13:55:54Z</time>
      </trkpt>
      <trkpt lat="50.44315" lon="5.32718">
        <ele>223.8</ele>
        <time>2020-08-18T13:55:55Z</time>
      </trkpt>
      <trkpt lat="50.44315" lon="5.3272">
        <ele>223.8</ele>
        <time>2020-08-18T13:55:56Z</time>
      </trkpt>
      <trkpt lat="50.44316" lon="5.32722">
        <ele>223.8</ele>
        <time>2020-08-18T13:55:57Z</time>
      </trkpt>
      <trkpt lat="50.44316" lon="5.32724">
        <ele>223.9</ele>
        <time>2020-08-18T13:55:58Z</time>
      </trkpt>
      <trkpt lat="50.44316" lon="5.32725">
        <ele>223.9</ele>
        <time>2020-08-18T13:55:59Z</time>
      </trkpt>
      <trkpt lat="50.44316" lon="5.32727">
        <ele>223.9</ele>
        <time>2020-08-18T13:56:00Z</time>
      </trkpt>
      <trkpt lat="50.44316" lon="5.32728">
        <ele>223.9</ele>
        <time>2020-08-18T13:56:01Z</time>
      </trkpt>
      <trkpt lat="50.44317" lon="5.32729">
        <ele>223.9</ele>
        <time>2020-08-18T13:56:02Z</time>
      </trkpt>
      <trkpt lat="50.44316" lon="5.32731">
        <ele>223.9</ele>
        <time>2020-08-18T13:56:03Z</time>
      </trkpt>
      <trkpt lat="50.44316" lon="5.32732">
        <ele>224</ele>
        <time>2020-08-18T13:56:04Z</time>
      </trkpt>
      <trkpt lat="50.44316" lon="5.32733">
        <ele>224</ele>
        <time>2020-08-18T13:56:05Z</time>
      </trkpt>
      <trkpt lat="50.44316" lon="5.32735">
        <ele>224</ele>
        <time>2020-08-18T13:56:06Z</time>
      </trkpt>
      <trkpt lat="50.44317" lon="5.32737">
        <ele>224</ele>
        <time>2020-08-18T13:56:07Z</time>
      </trkpt>
      <trkpt lat="50.44317" lon="5.32738">
        <ele>224.1</ele>
        <time>2020-08-18T13:56:08Z</time>
      </trkpt>
      <trkpt lat="50.44316" lon="5.32739">
        <ele>224</ele>
        <time>2020-08-18T13:56:09Z</time>
      </trkpt>
      <trkpt lat="50.44316" lon="5.3274">
        <ele>224.1</ele>
        <time>2020-08-18T13:56:10Z</time>
      </trkpt>
      <trkpt lat="50.44315" lon="5.3274">
        <ele>224</ele>
        <time>2020-08-18T13:56:11Z</time>
      </trkpt>
      <trkpt lat="50.44315" lon="5.32741">
        <ele>224</ele>
        <time>2020-08-18T13:56:12Z</time>
      </trkpt>
      <trkpt lat="50.44313" lon="5.32742">
        <ele>224</ele>
        <time>2020-08-18T13:56:13Z</time>
      </trkpt>
      <trkpt lat="50.44313" lon="5.32743">
        <ele>224</ele>
        <time>2020-08-18T13:56:14Z</time>
      </trkpt>
      <trkpt lat="50.44313" lon="5.32744">
        <ele>224</ele>
        <time>2020-08-18T13:56:15Z</time>
      </trkpt>
      <trkpt lat="50.44312" lon="5.32744">
        <ele>224</ele>
        <time>2020-08-18T13:56:16Z</time>
      </trkpt>
      <trkpt lat="50.44312" lon="5.32744">
        <ele>224</ele>
        <time>2020-08-18T13:56:17Z</time>
      </trkpt>
      <trkpt lat="50.44311" lon="5.32743">
        <ele>223.9</ele>
        <time>2020-08-18T13:56:18Z</time>
      </trkpt>
      <trkpt lat="50.44311" lon="5.32743">
        <ele>223.9</ele>
        <time>2020-08-18T13:56:19Z</time>
      </trkpt>
      <trkpt lat="50.44311" lon="5.32744">
        <ele>223.9</ele>
        <time>2020-08-18T13:56:20Z</time>
      </trkpt>
      <trkpt lat="50.44311" lon="5.32745">
        <ele>223.9</ele>
        <time>2020-08-18T13:56:21Z</time>
      </trkpt>
      <trkpt lat="50.4431" lon="5.32746">
        <ele>223.9</ele>
        <time>2020-08-18T13:56:22Z</time>
      </trkpt>
      <trkpt lat="50.4431" lon="5.32747">
        <ele>223.9</ele>
        <time>2020-08-18T13:56:23Z</time>
      </trkpt>
      <trkpt lat="50.44309" lon="5.32747">
        <ele>223.9</ele>
        <time>2020-08-18T13:56:24Z</time>
      </trkpt>
      <trkpt lat="50.44309" lon="5.32747">
        <ele>223.9</ele>
        <time>2020-08-18T13:56:25Z</time>
      </trkpt>
      <trkpt lat="50.44308" lon="5.32747">
        <ele>223.8</ele>
        <time>2020-08-18T13:56:26Z</time>
      </trkpt>
      <trkpt lat="50.44307" lon="5.32747">
        <ele>223.8</ele>
        <time>2020-08-18T13:56:27Z</time>
      </trkpt>
      <trkpt lat="50.44307" lon="5.32747">
        <ele>223.8</ele>
        <time>2020-08-18T13:56:28Z</time>
      </trkpt>
      <trkpt lat="50.44307" lon="5.32747">
        <ele>223.8</ele>
        <time>2020-08-18T13:56:29Z</time>
      </trkpt>
      <trkpt lat="50.44302" lon="5.32746">
        <ele>223.6</ele>
        <time>2020-08-18T13:56:32Z</time>
      </trkpt>
      <trkpt lat="50.44302" lon="5.32746">
        <ele>223.6</ele>
        <time>2020-08-18T13:56:33Z</time>
      </trkpt>
      <trkpt lat="50.44302" lon="5.32746">
        <ele>223.6</ele>
        <time>2020-08-18T13:56:34Z</time>
      </trkpt>
      <trkpt lat="50.44303" lon="5.32746">
        <ele>223.7</ele>
        <time>2020-08-18T13:56:35Z</time>
      </trkpt>
      <trkpt lat="50.44304" lon="5.32747">
        <ele>223.7</ele>
        <time>2020-08-18T13:56:36Z</time>
      </trkpt>
      <trkpt lat="50.44305" lon="5.32747">
        <ele>223.7</ele>
        <time>2020-08-18T13:56:37Z</time>
      </trkpt>
      <trkpt lat="50.4431" lon="5.32748">
        <ele>223.9</ele>
        <time>2020-08-18T13:56:52Z</time>
      </trkpt>
      <trkpt lat="50.4431" lon="5.32748">
        <ele>223.9</ele>
        <time>2020-08-18T13:56:53Z</time>
      </trkpt>
      <trkpt lat="50.4431" lon="5.32748">
        <ele>223.9</ele>
        <time>2020-08-18T13:56:54Z</time>
      </trkpt>
      <trkpt lat="50.44309" lon="5.32748">
        <ele>223.9</ele>
        <time>2020-08-18T13:56:56Z</time>
      </trkpt>
      <trkpt lat="50.44309" lon="5.32748">
        <ele>223.9</ele>
        <time>2020-08-18T13:56:57Z</time>
      </trkpt>
      <trkpt lat="50.44309" lon="5.32747">
        <ele>223.9</ele>
        <time>2020-08-18T13:56:58Z</time>
      </trkpt>
      <trkpt lat="50.44309" lon="5.32746">
        <ele>223.9</ele>
        <time>2020-08-18T13:56:59Z</time>
      </trkpt>
      <trkpt lat="50.44308" lon="5.32745">
        <ele>223.8</ele>
        <time>2020-08-18T13:57:00Z</time>
      </trkpt>
      <trkpt lat="50.44307" lon="5.32744">
        <ele>223.8</ele>
        <time>2020-08-18T13:57:01Z</time>
      </trkpt>
      <trkpt lat="50.44307" lon="5.32743">
        <ele>223.8</ele>
        <time>2020-08-18T13:57:02Z</time>
      </trkpt>
      <trkpt lat="50.44307" lon="5.32742">
        <ele>223.8</ele>
        <time>2020-08-18T13:57:03Z</time>
      </trkpt>
      <trkpt lat="50.44307" lon="5.32741">
        <ele>223.8</ele>
        <time>2020-08-18T13:57:04Z</time>
      </trkpt>
      <trkpt lat="50.44307" lon="5.32741">
        <ele>223.8</ele>
        <time>2020-08-18T13:57:06Z</time>
      </trkpt>
      <trkpt lat="50.44307" lon="5.32741">
        <ele>223.8</ele>
        <time>2020-08-18T13:57:07Z</time>
      </trkpt>
      <trkpt lat="50.44306" lon="5.32741">
        <ele>223.8</ele>
        <time>2020-08-18T13:57:08Z</time>
      </trkpt>
      <trkpt lat="50.44304" lon="5.32741">
        <ele>223.7</ele>
        <time>2020-08-18T13:57:10Z</time>
      </trkpt>
      <trkpt lat="50.44306" lon="5.32741">
        <ele>223.8</ele>
        <time>2020-08-18T13:57:30Z</time>
      </trkpt>
      <trkpt lat="50.44306" lon="5.32741">
        <ele>223.8</ele>
        <time>2020-08-18T13:57:31Z</time>
      </trkpt>
      <trkpt lat="50.44306" lon="5.32741">
        <ele>223.8</ele>
        <time>2020-08-18T13:57:32Z</time>
      </trkpt>
      <trkpt lat="50.44306" lon="5.32743">
        <ele>223.8</ele>
        <time>2020-08-18T13:57:34Z</time>
      </trkpt>
      <trkpt lat="50.44306" lon="5.32741">
        <ele>223.8</ele>
        <time>2020-08-18T13:57:36Z</time>
      </trkpt>
      <trkpt lat="50.44306" lon="5.32741">
        <ele>223.8</ele>
        <time>2020-08-18T13:57:37Z</time>
      </trkpt>
      <trkpt lat="50.44305" lon="5.32741">
        <ele>223.7</ele>
        <time>2020-08-18T13:57:38Z</time>
      </trkpt>
      <trkpt lat="50.44305" lon="5.32741">
        <ele>223.7</ele>
        <time>2020-08-18T13:57:39Z</time>
      </trkpt>
      <trkpt lat="50.44302" lon="5.32754">
        <ele>224.1</ele>
        <time>2020-08-18T13:57:44Z</time>
      </trkpt>
      <trkpt lat="50.44302" lon="5.32754">
        <ele>224.1</ele>
        <time>2020-08-18T13:57:45Z</time>
      </trkpt>
      <trkpt lat="50.44302" lon="5.32755">
        <ele>224.1</ele>
        <time>2020-08-18T13:57:46Z</time>
      </trkpt>
      <trkpt lat="50.44307" lon="5.3276">
        <ele>224.3</ele>
        <time>2020-08-18T13:57:51Z</time>
      </trkpt>
      <trkpt lat="50.44307" lon="5.3276">
        <ele>224.3</ele>
        <time>2020-08-18T13:57:52Z</time>
      </trkpt>
      <trkpt lat="50.44307" lon="5.3276">
        <ele>224.3</ele>
        <time>2020-08-18T13:57:53Z</time>
      </trkpt>
      <trkpt lat="50.44307" lon="5.3276">
        <ele>224.3</ele>
        <time>2020-08-18T13:57:54Z</time>
      </trkpt>
      <trkpt lat="50.44307" lon="5.3276">
        <ele>224.3</ele>
        <time>2020-08-18T13:57:55Z</time>
      </trkpt>
      <trkpt lat="50.44307" lon="5.3276">
        <ele>224.3</ele>
        <time>2020-08-18T13:57:56Z</time>
      </trkpt>
      <trkpt lat="50.44306" lon="5.32759">
        <ele>224.3</ele>
        <time>2020-08-18T13:57:57Z</time>
      </trkpt>
      <trkpt lat="50.44305" lon="5.32757">
        <ele>224.2</ele>
        <time>2020-08-18T13:57:58Z</time>
      </trkpt>
      <trkpt lat="50.44304" lon="5.32754">
        <ele>224.2</ele>
        <time>2020-08-18T13:57:59Z</time>
      </trkpt>
      <trkpt lat="50.44304" lon="5.32753">
        <ele>224.2</ele>
        <time>2020-08-18T13:58:00Z</time>
      </trkpt>
      <trkpt lat="50.44304" lon="5.32751">
        <ele>224.2</ele>
        <time>2020-08-18T13:58:01Z</time>
      </trkpt>
      <trkpt lat="50.44303" lon="5.32749">
        <ele>223.7</ele>
        <time>2020-08-18T13:58:05Z</time>
      </trkpt>
      <trkpt lat="50.44304" lon="5.32749">
        <ele>223.7</ele>
        <time>2020-08-18T13:58:06Z</time>
      </trkpt>
      <trkpt lat="50.44304" lon="5.32749">
        <ele>223.7</ele>
        <time>2020-08-18T13:58:07Z</time>
      </trkpt>
      <trkpt lat="50.44304" lon="5.32749">
        <ele>223.7</ele>
        <time>2020-08-18T13:58:08Z</time>
      </trkpt>
      <trkpt lat="50.44304" lon="5.32749">
        <ele>223.7</ele>
        <time>2020-08-18T13:58:09Z</time>
      </trkpt>
      <trkpt lat="50.44304" lon="5.32749">
        <ele>223.7</ele>
        <time>2020-08-18T13:58:12Z</time>
      </trkpt>
      <trkpt lat="50.44304" lon="5.32749">
        <ele>223.7</ele>
        <time>2020-08-18T13:58:14Z</time>
      </trkpt>
      <trkpt lat="50.44305" lon="5.32749">
        <ele>223.7</ele>
        <time>2020-08-18T13:58:16Z</time>
      </trkpt>
      <trkpt lat="50.44305" lon="5.32749">
        <ele>223.7</ele>
        <time>2020-08-18T13:58:17Z</time>
      </trkpt>
      <trkpt lat="50.44306" lon="5.3275">
        <ele>223.8</ele>
        <time>2020-08-18T13:58:18Z</time>
      </trkpt>
      <trkpt lat="50.44307" lon="5.3275">
        <ele>223.8</ele>
        <time>2020-08-18T13:58:19Z</time>
      </trkpt>
      <trkpt lat="50.44309" lon="5.32753">
        <ele>224.3</ele>
        <time>2020-08-18T13:58:21Z</time>
      </trkpt>
      <trkpt lat="50.44309" lon="5.32753">
        <ele>224.3</ele>
        <time>2020-08-18T13:58:22Z</time>
      </trkpt>
      <trkpt lat="50.44309" lon="5.32753">
        <ele>224.3</ele>
        <time>2020-08-18T13:58:23Z</time>
      </trkpt>
      <trkpt lat="50.4431" lon="5.32753">
        <ele>224.4</ele>
        <time>2020-08-18T13:58:24Z</time>
      </trkpt>
      <trkpt lat="50.4431" lon="5.32753">
        <ele>224.4</ele>
        <time>2020-08-18T13:58:25Z</time>
      </trkpt>
      <trkpt lat="50.4431" lon="5.32754">
        <ele>224.4</ele>
        <time>2020-08-18T13:58:26Z</time>
      </trkpt>
      <trkpt lat="50.4431" lon="5.32754">
        <ele>224.4</ele>
        <time>2020-08-18T13:58:27Z</time>
      </trkpt>
      <trkpt lat="50.44311" lon="5.32755">
        <ele>224.4</ele>
        <time>2020-08-18T13:58:28Z</time>
      </trkpt>
      <trkpt lat="50.44313" lon="5.32756">
        <ele>224.5</ele>
        <time>2020-08-18T13:58:29Z</time>
      </trkpt>
      <trkpt lat="50.44313" lon="5.32756">
        <ele>224.5</ele>
        <time>2020-08-18T13:58:30Z</time>
      </trkpt>
      <trkpt lat="50.44314" lon="5.32757">
        <ele>224.5</ele>
        <time>2020-08-18T13:58:31Z</time>
      </trkpt>
      <trkpt lat="50.44314" lon="5.32757">
        <ele>224.5</ele>
        <time>2020-08-18T13:58:33Z</time>
      </trkpt>
      <trkpt lat="50.44314" lon="5.32757">
        <ele>224.5</ele>
        <time>2020-08-18T13:58:34Z</time>
      </trkpt>
      <trkpt lat="50.44314" lon="5.32757">
        <ele>224.5</ele>
        <time>2020-08-18T13:58:35Z</time>
      </trkpt>
      <trkpt lat="50.44313" lon="5.32757">
        <ele>224.5</ele>
        <time>2020-08-18T13:58:36Z</time>
      </trkpt>
      <trkpt lat="50.44313" lon="5.32757">
        <ele>224.5</ele>
        <time>2020-08-18T13:58:37Z</time>
      </trkpt>
      <trkpt lat="50.44313" lon="5.32755">
        <ele>224.5</ele>
        <time>2020-08-18T13:58:39Z</time>
      </trkpt>
      <trkpt lat="50.44313" lon="5.32755">
        <ele>224.5</ele>
        <time>2020-08-18T13:58:40Z</time>
      </trkpt>
      <trkpt lat="50.44313" lon="5.32754">
        <ele>224.5</ele>
        <time>2020-08-18T13:58:41Z</time>
      </trkpt>
      <trkpt lat="50.44313" lon="5.32753">
        <ele>224.5</ele>
        <time>2020-08-18T13:58:42Z</time>
      </trkpt>
      <trkpt lat="50.44313" lon="5.32752">
        <ele>224.5</ele>
        <time>2020-08-18T13:58:43Z</time>
      </trkpt>
      <trkpt lat="50.44313" lon="5.32752">
        <ele>224.5</ele>
        <time>2020-08-18T13:58:44Z</time>
      </trkpt>
      <trkpt lat="50.44312" lon="5.32751">
        <ele>224.4</ele>
        <time>2020-08-18T13:58:45Z</time>
      </trkpt>
      <trkpt lat="50.44312" lon="5.3275">
        <ele>224</ele>
        <time>2020-08-18T13:58:46Z</time>
      </trkpt>
      <trkpt lat="50.4431" lon="5.32749">
        <ele>223.9</ele>
        <time>2020-08-18T13:58:47Z</time>
      </trkpt>
      <trkpt lat="50.4431" lon="5.32748">
        <ele>223.9</ele>
        <time>2020-08-18T13:58:48Z</time>
      </trkpt>
      <trkpt lat="50.44309" lon="5.32748">
        <ele>223.9</ele>
        <time>2020-08-18T13:58:48Z</time>
      </trkpt>
      <trkpt lat="50.44307" lon="5.32748">
        <ele>223.8</ele>
        <time>2020-08-18T13:58:49Z</time>
      </trkpt>
      <trkpt lat="50.44307" lon="5.32748">
        <ele>223.8</ele>
        <time>2020-08-18T13:58:50Z</time>
      </trkpt>
      <trkpt lat="50.44307" lon="5.32748">
        <ele>223.8</ele>
        <time>2020-08-18T13:58:51Z</time>
      </trkpt>
      <trkpt lat="50.44307" lon="5.32748">
        <ele>223.8</ele>
        <time>2020-08-18T13:58:52Z</time>
      </trkpt>
      <trkpt lat="50.44309" lon="5.32749">
        <ele>223.9</ele>
        <time>2020-08-18T13:58:53Z</time>
      </trkpt>
      <trkpt lat="50.44309" lon="5.32749">
        <ele>223.9</ele>
        <time>2020-08-18T13:58:54Z</time>
      </trkpt>
      <trkpt lat="50.44309" lon="5.32749">
        <ele>223.9</ele>
        <time>2020-08-18T13:58:55Z</time>
      </trkpt>
      <trkpt lat="50.44311" lon="5.3275">
        <ele>223.9</ele>
        <time>2020-08-18T13:58:58Z</time>
      </trkpt>
      <trkpt lat="50.4431" lon="5.3275">
        <ele>223.9</ele>
        <time>2020-08-18T13:58:59Z</time>
      </trkpt>
      <trkpt lat="50.4431" lon="5.3275">
        <ele>223.9</ele>
        <time>2020-08-18T13:59:00Z</time>
      </trkpt>
      <trkpt lat="50.4431" lon="5.3275">
        <ele>223.9</ele>
        <time>2020-08-18T13:59:01Z</time>
      </trkpt>
      <trkpt lat="50.4431" lon="5.3275">
        <ele>223.9</ele>
        <time>2020-08-18T13:59:02Z</time>
      </trkpt>
      <trkpt lat="50.44309" lon="5.3275">
        <ele>223.9</ele>
        <time>2020-08-18T13:59:03Z</time>
      </trkpt>
      <trkpt lat="50.44309" lon="5.32751">
        <ele>224.3</ele>
        <time>2020-08-18T13:59:04Z</time>
      </trkpt>
      <trkpt lat="50.44309" lon="5.32751">
        <ele>224.3</ele>
        <time>2020-08-18T13:59:05Z</time>
      </trkpt>
      <trkpt lat="50.44308" lon="5.32751">
        <ele>224.3</ele>
        <time>2020-08-18T13:59:06Z</time>
      </trkpt>
      <trkpt lat="50.44307" lon="5.32751">
        <ele>224.3</ele>
        <time>2020-08-18T13:59:07Z</time>
      </trkpt>
      <trkpt lat="50.44307" lon="5.3275">
        <ele>223.8</ele>
        <time>2020-08-18T13:59:08Z</time>
      </trkpt>
      <trkpt lat="50.44306" lon="5.3275">
        <ele>223.8</ele>
        <time>2020-08-18T13:59:09Z</time>
      </trkpt>
      <trkpt lat="50.44306" lon="5.3275">
        <ele>223.8</ele>
        <time>2020-08-18T13:59:10Z</time>
      </trkpt>
      <trkpt lat="50.44307" lon="5.32751">
        <ele>224.3</ele>
        <time>2020-08-18T13:59:11Z</time>
      </trkpt>
      <trkpt lat="50.44307" lon="5.32752">
        <ele>224.3</ele>
        <time>2020-08-18T13:59:12Z</time>
      </trkpt>
      <trkpt lat="50.44308" lon="5.32753">
        <ele>224.3</ele>
        <time>2020-08-18T13:59:13Z</time>
      </trkpt>
      <trkpt lat="50.44309" lon="5.32755">
        <ele>224.4</ele>
        <time>2020-08-18T13:59:14Z</time>
      </trkpt>
      <trkpt lat="50.4431" lon="5.32758">
        <ele>224.4</ele>
        <time>2020-08-18T13:59:16Z</time>
      </trkpt>
      <trkpt lat="50.4431" lon="5.32758">
        <ele>224.4</ele>
        <time>2020-08-18T13:59:17Z</time>
      </trkpt>
      <trkpt lat="50.4431" lon="5.32758">
        <ele>224.4</ele>
        <time>2020-08-18T13:59:18Z</time>
      </trkpt>
      <trkpt lat="50.4431" lon="5.32758">
        <ele>224.4</ele>
        <time>2020-08-18T13:59:19Z</time>
      </trkpt>
      <trkpt lat="50.4431" lon="5.32758">
        <ele>224.4</ele>
        <time>2020-08-18T13:59:20Z</time>
      </trkpt>
      <trkpt lat="50.4431" lon="5.32758">
        <ele>224.4</ele>
        <time>2020-08-18T13:59:21Z</time>
      </trkpt>
      <trkpt lat="50.4431" lon="5.32758">
        <ele>224.4</ele>
        <time>2020-08-18T13:59:22Z</time>
      </trkpt>
      <trkpt lat="50.4431" lon="5.32758">
        <ele>224.4</ele>
        <time>2020-08-18T13:59:23Z</time>
      </trkpt>
      <trkpt lat="50.4431" lon="5.32759">
        <ele>224.4</ele>
        <time>2020-08-18T13:59:24Z</time>
      </trkpt>
      <trkpt lat="50.44312" lon="5.32761">
        <ele>224.4</ele>
        <time>2020-08-18T13:59:25Z</time>
      </trkpt>
      <trkpt lat="50.44313" lon="5.32763">
        <ele>224.5</ele>
        <time>2020-08-18T13:59:26Z</time>
      </trkpt>
      <trkpt lat="50.44313" lon="5.32764">
        <ele>224.5</ele>
        <time>2020-08-18T13:59:27Z</time>
      </trkpt>
      <trkpt lat="50.44313" lon="5.32766">
        <ele>224.5</ele>
        <time>2020-08-18T13:59:28Z</time>
      </trkpt>
      <trkpt lat="50.44313" lon="5.32767">
        <ele>224.5</ele>
        <time>2020-08-18T13:59:29Z</time>
      </trkpt>
      <trkpt lat="50.44313" lon="5.32767">
        <ele>224.5</ele>
        <time>2020-08-18T13:59:30Z</time>
      </trkpt>
      <trkpt lat="50.44314" lon="5.32769">
        <ele>224.5</ele>
        <time>2020-08-18T13:59:31Z</time>
      </trkpt>
      <trkpt lat="50.44315" lon="5.32771">
        <ele>224.6</ele>
        <time>2020-08-18T13:59:32Z</time>
      </trkpt>
      <trkpt lat="50.44316" lon="5.32773">
        <ele>224.6</ele>
        <time>2020-08-18T13:59:33Z</time>
      </trkpt>
      <trkpt lat="50.44317" lon="5.32774">
        <ele>224.6</ele>
        <time>2020-08-18T13:59:34Z</time>
      </trkpt>
      <trkpt lat="50.44316" lon="5.32776">
        <ele>224.6</ele>
        <time>2020-08-18T13:59:35Z</time>
      </trkpt>
      <trkpt lat="50.44316" lon="5.32777">
        <ele>224.6</ele>
        <time>2020-08-18T13:59:36Z</time>
      </trkpt>
      <trkpt lat="50.44315" lon="5.32778">
        <ele>224.6</ele>
        <time>2020-08-18T13:59:37Z</time>
      </trkpt>
      <trkpt lat="50.44314" lon="5.32779">
        <ele>224.6</ele>
        <time>2020-08-18T13:59:38Z</time>
      </trkpt>
      <trkpt lat="50.44313" lon="5.3278">
        <ele>224.6</ele>
        <time>2020-08-18T13:59:39Z</time>
      </trkpt>
      <trkpt lat="50.44312" lon="5.32781">
        <ele>224.6</ele>
        <time>2020-08-18T13:59:40Z</time>
      </trkpt>
      <trkpt lat="50.4431" lon="5.32781">
        <ele>224.5</ele>
        <time>2020-08-18T13:59:41Z</time>
      </trkpt>
      <trkpt lat="50.4431" lon="5.32781">
        <ele>224.5</ele>
        <time>2020-08-18T13:59:42Z</time>
      </trkpt>
      <trkpt lat="50.44309" lon="5.32781">
        <ele>224.5</ele>
        <time>2020-08-18T13:59:43Z</time>
      </trkpt>
      <trkpt lat="50.44309" lon="5.32781">
        <ele>224.5</ele>
        <time>2020-08-18T13:59:44Z</time>
      </trkpt>
      <trkpt lat="50.44309" lon="5.32782">
        <ele>224.5</ele>
        <time>2020-08-18T13:59:45Z</time>
      </trkpt>
      <trkpt lat="50.44308" lon="5.32782">
        <ele>224.5</ele>
        <time>2020-08-18T13:59:46Z</time>
      </trkpt>
      <trkpt lat="50.44308" lon="5.32784">
        <ele>224.5</ele>
        <time>2020-08-18T13:59:47Z</time>
      </trkpt>
      <trkpt lat="50.44309" lon="5.32785">
        <ele>224.6</ele>
        <time>2020-08-18T13:59:48Z</time>
      </trkpt>
      <trkpt lat="50.44309" lon="5.32787">
        <ele>224.6</ele>
        <time>2020-08-18T13:59:49Z</time>
      </trkpt>
      <trkpt lat="50.4431" lon="5.32788">
        <ele>224.7</ele>
        <time>2020-08-18T13:59:50Z</time>
      </trkpt>
      <trkpt lat="50.4431" lon="5.3279">
        <ele>224.7</ele>
        <time>2020-08-18T13:59:51Z</time>
      </trkpt>
      <trkpt lat="50.4431" lon="5.3279">
        <ele>224.7</ele>
        <time>2020-08-18T13:59:52Z</time>
      </trkpt>
      <trkpt lat="50.4431" lon="5.32791">
        <ele>224.7</ele>
        <time>2020-08-18T13:59:53Z</time>
      </trkpt>
      <trkpt lat="50.4431" lon="5.32791">
        <ele>224.7</ele>
        <time>2020-08-18T13:59:54Z</time>
      </trkpt>
      <trkpt lat="50.4431" lon="5.32791">
        <ele>224.7</ele>
        <time>2020-08-18T13:59:55Z</time>
      </trkpt>
      <trkpt lat="50.44309" lon="5.32791">
        <ele>224.7</ele>
        <time>2020-08-18T13:59:56Z</time>
      </trkpt>
      <trkpt lat="50.44309" lon="5.32791">
        <ele>224.7</ele>
        <time>2020-08-18T13:59:57Z</time>
      </trkpt>
      <trkpt lat="50.44307" lon="5.32792">
        <ele>224.7</ele>
        <time>2020-08-18T13:59:58Z</time>
      </trkpt>
      <trkpt lat="50.44307" lon="5.32792">
        <ele>224.7</ele>
        <time>2020-08-18T13:59:59Z</time>
      </trkpt>
      <trkpt lat="50.44306" lon="5.32793">
        <ele>224.7</ele>
        <time>2020-08-18T14:00:00Z</time>
      </trkpt>
      <trkpt lat="50.44305" lon="5.32794">
        <ele>224.6</ele>
        <time>2020-08-18T14:00:01Z</time>
      </trkpt>
      <trkpt lat="50.44304" lon="5.32795">
        <ele>224.6</ele>
        <time>2020-08-18T14:00:02Z</time>
      </trkpt>
      <trkpt lat="50.44303" lon="5.32796">
        <ele>224.6</ele>
        <time>2020-08-18T14:00:03Z</time>
      </trkpt>
      <trkpt lat="50.44301" lon="5.32797">
        <ele>224.6</ele>
        <time>2020-08-18T14:00:04Z</time>
      </trkpt>
      <trkpt lat="50.443" lon="5.32798">
        <ele>224.6</ele>
        <time>2020-08-18T14:00:05Z</time>
      </trkpt>
      <trkpt lat="50.44298" lon="5.32798">
        <ele>224.5</ele>
        <time>2020-08-18T14:00:06Z</time>
      </trkpt>
      <trkpt lat="50.44298" lon="5.32799">
        <ele>224.5</ele>
        <time>2020-08-18T14:00:07Z</time>
      </trkpt>
      <trkpt lat="50.44297" lon="5.32799">
        <ele>224.5</ele>
        <time>2020-08-18T14:00:08Z</time>
      </trkpt>
      <trkpt lat="50.44295" lon="5.328">
        <ele>224.5</ele>
        <time>2020-08-18T14:00:09Z</time>
      </trkpt>
      <trkpt lat="50.44295" lon="5.32801">
        <ele>224.5</ele>
        <time>2020-08-18T14:00:10Z</time>
      </trkpt>
      <trkpt lat="50.44293" lon="5.32803">
        <ele>224.5</ele>
        <time>2020-08-18T14:00:11Z</time>
      </trkpt>
      <trkpt lat="50.44292" lon="5.32804">
        <ele>224.4</ele>
        <time>2020-08-18T14:00:12Z</time>
      </trkpt>
      <trkpt lat="50.44291" lon="5.32805">
        <ele>224.4</ele>
        <time>2020-08-18T14:00:13Z</time>
      </trkpt>
      <trkpt lat="50.4429" lon="5.32806">
        <ele>224.4</ele>
        <time>2020-08-18T14:00:14Z</time>
      </trkpt>
      <trkpt lat="50.44289" lon="5.32808">
        <ele>224.4</ele>
        <time>2020-08-18T14:00:15Z</time>
      </trkpt>
      <trkpt lat="50.44289" lon="5.3281">
        <ele>224.4</ele>
        <time>2020-08-18T14:00:16Z</time>
      </trkpt>
      <trkpt lat="50.44288" lon="5.32811">
        <ele>224.4</ele>
        <time>2020-08-18T14:00:17Z</time>
      </trkpt>
      <trkpt lat="50.44287" lon="5.32812">
        <ele>224.4</ele>
        <time>2020-08-18T14:00:18Z</time>
      </trkpt>
      <trkpt lat="50.44286" lon="5.32815">
        <ele>224.4</ele>
        <time>2020-08-18T14:00:19Z</time>
      </trkpt>
      <trkpt lat="50.44286" lon="5.32816">
        <ele>224.4</ele>
        <time>2020-08-18T14:00:20Z</time>
      </trkpt>
      <trkpt lat="50.44285" lon="5.32817">
        <ele>224.4</ele>
        <time>2020-08-18T14:00:21Z</time>
      </trkpt>
      <trkpt lat="50.44284" lon="5.32817">
        <ele>224.3</ele>
        <time>2020-08-18T14:00:22Z</time>
      </trkpt>
      <trkpt lat="50.44283" lon="5.32817">
        <ele>224.3</ele>
        <time>2020-08-18T14:00:23Z</time>
      </trkpt>
      <trkpt lat="50.44283" lon="5.32817">
        <ele>224.3</ele>
        <time>2020-08-18T14:00:24Z</time>
      </trkpt>
      <trkpt lat="50.44282" lon="5.32816">
        <ele>224.2</ele>
        <time>2020-08-18T14:00:25Z</time>
      </trkpt>
      <trkpt lat="50.44281" lon="5.32816">
        <ele>224.2</ele>
        <time>2020-08-18T14:00:26Z</time>
      </trkpt>
      <trkpt lat="50.4428" lon="5.32815">
        <ele>224.2</ele>
        <time>2020-08-18T14:00:27Z</time>
      </trkpt>
      <trkpt lat="50.44278" lon="5.32813">
        <ele>224.1</ele>
        <time>2020-08-18T14:00:28Z</time>
      </trkpt>
      <trkpt lat="50.44278" lon="5.32811">
        <ele>224.1</ele>
        <time>2020-08-18T14:00:29Z</time>
      </trkpt>
      <trkpt lat="50.44277" lon="5.32809">
        <ele>224.1</ele>
        <time>2020-08-18T14:00:30Z</time>
      </trkpt>
      <trkpt lat="50.44276" lon="5.32809">
        <ele>224</ele>
        <time>2020-08-18T14:00:31Z</time>
      </trkpt>
      <trkpt lat="50.44275" lon="5.32809">
        <ele>224</ele>
        <time>2020-08-18T14:00:32Z</time>
      </trkpt>
      <trkpt lat="50.44274" lon="5.32809">
        <ele>224</ele>
        <time>2020-08-18T14:00:33Z</time>
      </trkpt>
      <trkpt lat="50.44273" lon="5.3281">
        <ele>224</ele>
        <time>2020-08-18T14:00:34Z</time>
      </trkpt>
      <trkpt lat="50.44272" lon="5.32811">
        <ele>223.9</ele>
        <time>2020-08-18T14:00:35Z</time>
      </trkpt>
      <trkpt lat="50.4427" lon="5.32812">
        <ele>223.9</ele>
        <time>2020-08-18T14:00:36Z</time>
      </trkpt>
      <trkpt lat="50.44269" lon="5.32812">
        <ele>223.9</ele>
        <time>2020-08-18T14:00:37Z</time>
      </trkpt>
      <trkpt lat="50.44268" lon="5.32813">
        <ele>223.8</ele>
        <time>2020-08-18T14:00:38Z</time>
      </trkpt>
      <trkpt lat="50.44267" lon="5.32814">
        <ele>223.8</ele>
        <time>2020-08-18T14:00:39Z</time>
      </trkpt>
      <trkpt lat="50.44265" lon="5.32815">
        <ele>223.8</ele>
        <time>2020-08-18T14:00:40Z</time>
      </trkpt>
      <trkpt lat="50.44265" lon="5.32816">
        <ele>223.8</ele>
        <time>2020-08-18T14:00:41Z</time>
      </trkpt>
      <trkpt lat="50.44264" lon="5.32817">
        <ele>223.7</ele>
        <time>2020-08-18T14:00:42Z</time>
      </trkpt>
      <trkpt lat="50.44264" lon="5.32818">
        <ele>223.7</ele>
        <time>2020-08-18T14:00:43Z</time>
      </trkpt>
      <trkpt lat="50.44263" lon="5.32819">
        <ele>223.7</ele>
        <time>2020-08-18T14:00:44Z</time>
      </trkpt>
      <trkpt lat="50.44262" lon="5.32819">
        <ele>223.7</ele>
        <time>2020-08-18T14:00:45Z</time>
      </trkpt>
      <trkpt lat="50.44261" lon="5.3282">
        <ele>223.6</ele>
        <time>2020-08-18T14:00:46Z</time>
      </trkpt>
      <trkpt lat="50.4426" lon="5.32822">
        <ele>223.6</ele>
        <time>2020-08-18T14:00:47Z</time>
      </trkpt>
      <trkpt lat="50.44259" lon="5.32823">
        <ele>223.5</ele>
        <time>2020-08-18T14:00:48Z</time>
      </trkpt>
      <trkpt lat="50.44259" lon="5.32824">
        <ele>223.5</ele>
        <time>2020-08-18T14:00:49Z</time>
      </trkpt>
      <trkpt lat="50.44258" lon="5.32825">
        <ele>223.5</ele>
        <time>2020-08-18T14:00:50Z</time>
      </trkpt>
      <trkpt lat="50.44257" lon="5.32826">
        <ele>223.4</ele>
        <time>2020-08-18T14:00:51Z</time>
      </trkpt>
      <trkpt lat="50.44257" lon="5.32827">
        <ele>223.4</ele>
        <time>2020-08-18T14:00:52Z</time>
      </trkpt>
      <trkpt lat="50.44256" lon="5.32827">
        <ele>223.4</ele>
        <time>2020-08-18T14:00:53Z</time>
      </trkpt>
      <trkpt lat="50.44255" lon="5.32827">
        <ele>223.4</ele>
        <time>2020-08-18T14:00:54Z</time>
      </trkpt>
      <trkpt lat="50.44254" lon="5.32827">
        <ele>223.3</ele>
        <time>2020-08-18T14:00:55Z</time>
      </trkpt>
      <trkpt lat="50.44253" lon="5.32826">
        <ele>223.3</ele>
        <time>2020-08-18T14:00:56Z</time>
      </trkpt>
      <trkpt lat="50.44252" lon="5.32826">
        <ele>223.3</ele>
        <time>2020-08-18T14:00:57Z</time>
      </trkpt>
      <trkpt lat="50.44252" lon="5.32827">
        <ele>223.3</ele>
        <time>2020-08-18T14:00:58Z</time>
      </trkpt>
      <trkpt lat="50.44251" lon="5.32827">
        <ele>223.3</ele>
        <time>2020-08-18T14:00:59Z</time>
      </trkpt>
      <trkpt lat="50.4425" lon="5.32828">
        <ele>223.2</ele>
        <time>2020-08-18T14:01:00Z</time>
      </trkpt>
      <trkpt lat="50.44249" lon="5.32827">
        <ele>222.5</ele>
        <time>2020-08-18T14:01:01Z</time>
      </trkpt>
      <trkpt lat="50.44247" lon="5.32827">
        <ele>222.5</ele>
        <time>2020-08-18T14:01:02Z</time>
      </trkpt>
      <trkpt lat="50.44246" lon="5.32826">
        <ele>222.4</ele>
        <time>2020-08-18T14:01:03Z</time>
      </trkpt>
      <trkpt lat="50.44244" lon="5.32826">
        <ele>222.3</ele>
        <time>2020-08-18T14:01:04Z</time>
      </trkpt>
      <trkpt lat="50.44241" lon="5.32825">
        <ele>222.2</ele>
        <time>2020-08-18T14:01:05Z</time>
      </trkpt>
      <trkpt lat="50.44239" lon="5.32825">
        <ele>222.1</ele>
        <time>2020-08-18T14:01:06Z</time>
      </trkpt>
      <trkpt lat="50.44238" lon="5.32826">
        <ele>222.1</ele>
        <time>2020-08-18T14:01:07Z</time>
      </trkpt>
      <trkpt lat="50.44237" lon="5.32826">
        <ele>222.1</ele>
        <time>2020-08-18T14:01:08Z</time>
      </trkpt>
      <trkpt lat="50.44236" lon="5.32826">
        <ele>222</ele>
        <time>2020-08-18T14:01:09Z</time>
      </trkpt>
      <trkpt lat="50.44236" lon="5.32826">
        <ele>222</ele>
        <time>2020-08-18T14:01:10Z</time>
      </trkpt>
      <trkpt lat="50.44235" lon="5.32827">
        <ele>222</ele>
        <time>2020-08-18T14:01:11Z</time>
      </trkpt>
      <trkpt lat="50.44234" lon="5.32827">
        <ele>222</ele>
        <time>2020-08-18T14:01:12Z</time>
      </trkpt>
      <trkpt lat="50.44233" lon="5.32827">
        <ele>221.9</ele>
        <time>2020-08-18T14:01:13Z</time>
      </trkpt>
      <trkpt lat="50.44232" lon="5.32828">
        <ele>221.9</ele>
        <time>2020-08-18T14:01:14Z</time>
      </trkpt>
      <trkpt lat="50.44231" lon="5.32828">
        <ele>221.9</ele>
        <time>2020-08-18T14:01:15Z</time>
      </trkpt>
      <trkpt lat="50.44231" lon="5.32829">
        <ele>221.9</ele>
        <time>2020-08-18T14:01:16Z</time>
      </trkpt>
      <trkpt lat="50.4423" lon="5.3283">
        <ele>221.8</ele>
        <time>2020-08-18T14:01:17Z</time>
      </trkpt>
      <trkpt lat="50.4423" lon="5.32831">
        <ele>221.8</ele>
        <time>2020-08-18T14:01:18Z</time>
      </trkpt>
      <trkpt lat="50.4423" lon="5.32832">
        <ele>221.9</ele>
        <time>2020-08-18T14:01:19Z</time>
      </trkpt>
      <trkpt lat="50.4423" lon="5.32833">
        <ele>221.9</ele>
        <time>2020-08-18T14:01:20Z</time>
      </trkpt>
      <trkpt lat="50.44229" lon="5.32833">
        <ele>221.8</ele>
        <time>2020-08-18T14:01:21Z</time>
      </trkpt>
      <trkpt lat="50.44229" lon="5.32833">
        <ele>221.8</ele>
        <time>2020-08-18T14:01:22Z</time>
      </trkpt>
      <trkpt lat="50.44227" lon="5.32833">
        <ele>221.7</ele>
        <time>2020-08-18T14:01:23Z</time>
      </trkpt>
      <trkpt lat="50.44226" lon="5.32834">
        <ele>224.3</ele>
        <time>2020-08-18T14:01:24Z</time>
      </trkpt>
      <trkpt lat="50.44226" lon="5.32835">
        <ele>224.3</ele>
        <time>2020-08-18T14:01:25Z</time>
      </trkpt>
      <trkpt lat="50.44225" lon="5.32835">
        <ele>224.3</ele>
        <time>2020-08-18T14:01:26Z</time>
      </trkpt>
      <trkpt lat="50.44223" lon="5.32836">
        <ele>224.3</ele>
        <time>2020-08-18T14:01:27Z</time>
      </trkpt>
      <trkpt lat="50.44222" lon="5.32836">
        <ele>224.3</ele>
        <time>2020-08-18T14:01:28Z</time>
      </trkpt>
      <trkpt lat="50.44221" lon="5.32836">
        <ele>224.3</ele>
        <time>2020-08-18T14:01:29Z</time>
      </trkpt>
      <trkpt lat="50.4422" lon="5.32837">
        <ele>224.4</ele>
        <time>2020-08-18T14:01:30Z</time>
      </trkpt>
      <trkpt lat="50.44219" lon="5.32837">
        <ele>224.4</ele>
        <time>2020-08-18T14:01:31Z</time>
      </trkpt>
      <trkpt lat="50.44218" lon="5.32838">
        <ele>224.4</ele>
        <time>2020-08-18T14:01:32Z</time>
      </trkpt>
      <trkpt lat="50.44217" lon="5.32839">
        <ele>224.4</ele>
        <time>2020-08-18T14:01:33Z</time>
      </trkpt>
      <trkpt lat="50.44216" lon="5.3284">
        <ele>224.4</ele>
        <time>2020-08-18T14:01:34Z</time>
      </trkpt>
      <trkpt lat="50.44215" lon="5.32841">
        <ele>224.4</ele>
        <time>2020-08-18T14:01:35Z</time>
      </trkpt>
      <trkpt lat="50.44214" lon="5.32842">
        <ele>224.4</ele>
        <time>2020-08-18T14:01:36Z</time>
      </trkpt>
      <trkpt lat="50.44213" lon="5.32843">
        <ele>224.4</ele>
        <time>2020-08-18T14:01:37Z</time>
      </trkpt>
      <trkpt lat="50.44213" lon="5.32845">
        <ele>224.5</ele>
        <time>2020-08-18T14:01:38Z</time>
      </trkpt>
      <trkpt lat="50.44213" lon="5.32847">
        <ele>224.6</ele>
        <time>2020-08-18T14:01:39Z</time>
      </trkpt>
      <trkpt lat="50.44212" lon="5.32849">
        <ele>224.6</ele>
        <time>2020-08-18T14:01:40Z</time>
      </trkpt>
      <trkpt lat="50.44212" lon="5.3285">
        <ele>224.7</ele>
        <time>2020-08-18T14:01:41Z</time>
      </trkpt>
      <trkpt lat="50.44211" lon="5.32851">
        <ele>224.7</ele>
        <time>2020-08-18T14:01:42Z</time>
      </trkpt>
      <trkpt lat="50.4421" lon="5.32852">
        <ele>224.7</ele>
        <time>2020-08-18T14:01:43Z</time>
      </trkpt>
      <trkpt lat="50.44209" lon="5.32853">
        <ele>224.7</ele>
        <time>2020-08-18T14:01:44Z</time>
      </trkpt>
      <trkpt lat="50.44209" lon="5.32853">
        <ele>224.7</ele>
        <time>2020-08-18T14:01:45Z</time>
      </trkpt>
      <trkpt lat="50.44208" lon="5.32853">
        <ele>224.7</ele>
        <time>2020-08-18T14:01:46Z</time>
      </trkpt>
      <trkpt lat="50.44207" lon="5.32853">
        <ele>224.7</ele>
        <time>2020-08-18T14:01:47Z</time>
      </trkpt>
      <trkpt lat="50.44207" lon="5.32853">
        <ele>224.7</ele>
        <time>2020-08-18T14:01:48Z</time>
      </trkpt>
      <trkpt lat="50.44206" lon="5.32853">
        <ele>224.7</ele>
        <time>2020-08-18T14:01:49Z</time>
      </trkpt>
      <trkpt lat="50.44205" lon="5.32854">
        <ele>224.7</ele>
        <time>2020-08-18T14:01:50Z</time>
      </trkpt>
      <trkpt lat="50.44205" lon="5.32854">
        <ele>224.7</ele>
        <time>2020-08-18T14:01:51Z</time>
      </trkpt>
      <trkpt lat="50.44204" lon="5.32855">
        <ele>224.7</ele>
        <time>2020-08-18T14:01:52Z</time>
      </trkpt>
      <trkpt lat="50.44204" lon="5.32854">
        <ele>224.6</ele>
        <time>2020-08-18T14:01:53Z</time>
      </trkpt>
      <trkpt lat="50.44203" lon="5.32854">
        <ele>224.6</ele>
        <time>2020-08-18T14:01:54Z</time>
      </trkpt>
      <trkpt lat="50.44202" lon="5.32853">
        <ele>224.5</ele>
        <time>2020-08-18T14:01:55Z</time>
      </trkpt>
      <trkpt lat="50.44202" lon="5.32853">
        <ele>224.5</ele>
        <time>2020-08-18T14:01:56Z</time>
      </trkpt>
      <trkpt lat="50.44201" lon="5.32853">
        <ele>224.5</ele>
        <time>2020-08-18T14:01:57Z</time>
      </trkpt>
      <trkpt lat="50.44201" lon="5.32853">
        <ele>224.5</ele>
        <time>2020-08-18T14:01:58Z</time>
      </trkpt>
      <trkpt lat="50.442" lon="5.32853">
        <ele>224.5</ele>
        <time>2020-08-18T14:01:59Z</time>
      </trkpt>
      <trkpt lat="50.442" lon="5.32854">
        <ele>224.5</ele>
        <time>2020-08-18T14:02:00Z</time>
      </trkpt>
      <trkpt lat="50.442" lon="5.32854">
        <ele>224.5</ele>
        <time>2020-08-18T14:02:01Z</time>
      </trkpt>
      <trkpt lat="50.442" lon="5.32854">
        <ele>224.5</ele>
        <time>2020-08-18T14:02:02Z</time>
      </trkpt>
      <trkpt lat="50.44199" lon="5.32855">
        <ele>224.5</ele>
        <time>2020-08-18T14:02:03Z</time>
      </trkpt>
      <trkpt lat="50.44199" lon="5.32856">
        <ele>224.6</ele>
        <time>2020-08-18T14:02:04Z</time>
      </trkpt>
      <trkpt lat="50.44199" lon="5.32858">
        <ele>224.7</ele>
        <time>2020-08-18T14:02:05Z</time>
      </trkpt>
      <trkpt lat="50.44198" lon="5.3286">
        <ele>224.8</ele>
        <time>2020-08-18T14:02:06Z</time>
      </trkpt>
      <trkpt lat="50.44198" lon="5.32861">
        <ele>224.8</ele>
        <time>2020-08-18T14:02:07Z</time>
      </trkpt>
      <trkpt lat="50.44198" lon="5.32863">
        <ele>224.9</ele>
        <time>2020-08-18T14:02:08Z</time>
      </trkpt>
      <trkpt lat="50.44196" lon="5.32863">
        <ele>224.9</ele>
        <time>2020-08-18T14:02:09Z</time>
      </trkpt>
      <trkpt lat="50.44195" lon="5.32864">
        <ele>224.9</ele>
        <time>2020-08-18T14:02:10Z</time>
      </trkpt>
      <trkpt lat="50.44194" lon="5.32864">
        <ele>224.9</ele>
        <time>2020-08-18T14:02:11Z</time>
      </trkpt>
      <trkpt lat="50.44194" lon="5.32864">
        <ele>224.9</ele>
        <time>2020-08-18T14:02:12Z</time>
      </trkpt>
      <trkpt lat="50.44193" lon="5.32864">
        <ele>224.9</ele>
        <time>2020-08-18T14:02:13Z</time>
      </trkpt>
      <trkpt lat="50.44192" lon="5.32865">
        <ele>224.9</ele>
        <time>2020-08-18T14:02:14Z</time>
      </trkpt>
      <trkpt lat="50.44191" lon="5.32865">
        <ele>224.9</ele>
        <time>2020-08-18T14:02:15Z</time>
      </trkpt>
      <trkpt lat="50.44191" lon="5.32866">
        <ele>224.9</ele>
        <time>2020-08-18T14:02:16Z</time>
      </trkpt>
      <trkpt lat="50.4419" lon="5.32866">
        <ele>224.9</ele>
        <time>2020-08-18T14:02:17Z</time>
      </trkpt>
      <trkpt lat="50.44189" lon="5.32867">
        <ele>225</ele>
        <time>2020-08-18T14:02:18Z</time>
      </trkpt>
      <trkpt lat="50.44188" lon="5.32867">
        <ele>224.9</ele>
        <time>2020-08-18T14:02:19Z</time>
      </trkpt>
      <trkpt lat="50.44188" lon="5.32868">
        <ele>225</ele>
        <time>2020-08-18T14:02:20Z</time>
      </trkpt>
      <trkpt lat="50.44189" lon="5.3287">
        <ele>225.2</ele>
        <time>2020-08-18T14:02:21Z</time>
      </trkpt>
      <trkpt lat="50.44189" lon="5.32871">
        <ele>225.2</ele>
        <time>2020-08-18T14:02:22Z</time>
      </trkpt>
      <trkpt lat="50.44189" lon="5.32872">
        <ele>225.3</ele>
        <time>2020-08-18T14:02:23Z</time>
      </trkpt>
      <trkpt lat="50.44189" lon="5.32873">
        <ele>225.3</ele>
        <time>2020-08-18T14:02:24Z</time>
      </trkpt>
      <trkpt lat="50.44189" lon="5.32875">
        <ele>225.5</ele>
        <time>2020-08-18T14:02:25Z</time>
      </trkpt>
      <trkpt lat="50.4419" lon="5.32877">
        <ele>225.6</ele>
        <time>2020-08-18T14:02:26Z</time>
      </trkpt>
      <trkpt lat="50.44191" lon="5.3288">
        <ele>225.8</ele>
        <time>2020-08-18T14:02:27Z</time>
      </trkpt>
      <trkpt lat="50.44192" lon="5.32882">
        <ele>225.9</ele>
        <time>2020-08-18T14:02:28Z</time>
      </trkpt>
      <trkpt lat="50.44193" lon="5.32884">
        <ele>226</ele>
        <time>2020-08-18T14:02:29Z</time>
      </trkpt>
      <trkpt lat="50.44194" lon="5.32885">
        <ele>226.1</ele>
        <time>2020-08-18T14:02:30Z</time>
      </trkpt>
      <trkpt lat="50.44194" lon="5.32886">
        <ele>226.2</ele>
        <time>2020-08-18T14:02:32Z</time>
      </trkpt>
      <trkpt lat="50.44194" lon="5.32886">
        <ele>226.2</ele>
        <time>2020-08-18T14:02:33Z</time>
      </trkpt>
      <trkpt lat="50.44193" lon="5.32885">
        <ele>226.1</ele>
        <time>2020-08-18T14:02:34Z</time>
      </trkpt>
      <trkpt lat="50.44192" lon="5.32885">
        <ele>226.1</ele>
        <time>2020-08-18T14:02:35Z</time>
      </trkpt>
      <trkpt lat="50.44191" lon="5.32885">
        <ele>226.1</ele>
        <time>2020-08-18T14:02:36Z</time>
      </trkpt>
      <trkpt lat="50.44191" lon="5.32885">
        <ele>226.1</ele>
        <time>2020-08-18T14:02:37Z</time>
      </trkpt>
      <trkpt lat="50.4419" lon="5.32885">
        <ele>226.1</ele>
        <time>2020-08-18T14:02:38Z</time>
      </trkpt>
      <trkpt lat="50.4419" lon="5.32886">
        <ele>226.1</ele>
        <time>2020-08-18T14:02:39Z</time>
      </trkpt>
      <trkpt lat="50.4419" lon="5.32887">
        <ele>226.2</ele>
        <time>2020-08-18T14:02:40Z</time>
      </trkpt>
      <trkpt lat="50.44191" lon="5.32888">
        <ele>226.3</ele>
        <time>2020-08-18T14:02:41Z</time>
      </trkpt>
      <trkpt lat="50.44191" lon="5.3289">
        <ele>226.4</ele>
        <time>2020-08-18T14:02:42Z</time>
      </trkpt>
      <trkpt lat="50.44191" lon="5.32891">
        <ele>226.4</ele>
        <time>2020-08-18T14:02:43Z</time>
      </trkpt>
      <trkpt lat="50.44191" lon="5.32892">
        <ele>226.5</ele>
        <time>2020-08-18T14:02:44Z</time>
      </trkpt>
      <trkpt lat="50.44192" lon="5.32893">
        <ele>226.5</ele>
        <time>2020-08-18T14:02:45Z</time>
      </trkpt>
      <trkpt lat="50.44193" lon="5.32895">
        <ele>226.6</ele>
        <time>2020-08-18T14:02:46Z</time>
      </trkpt>
      <trkpt lat="50.44194" lon="5.32896">
        <ele>226.7</ele>
        <time>2020-08-18T14:02:47Z</time>
      </trkpt>
      <trkpt lat="50.44195" lon="5.32897">
        <ele>226.7</ele>
        <time>2020-08-18T14:02:48Z</time>
      </trkpt>
      <trkpt lat="50.44195" lon="5.32898">
        <ele>226.7</ele>
        <time>2020-08-18T14:02:49Z</time>
      </trkpt>
      <trkpt lat="50.44195" lon="5.32899">
        <ele>226.8</ele>
        <time>2020-08-18T14:02:50Z</time>
      </trkpt>
      <trkpt lat="50.44195" lon="5.32899">
        <ele>226.8</ele>
        <time>2020-08-18T14:02:51Z</time>
      </trkpt>
      <trkpt lat="50.44195" lon="5.32899">
        <ele>226.8</ele>
        <time>2020-08-18T14:02:52Z</time>
      </trkpt>
      <trkpt lat="50.44196" lon="5.32899">
        <ele>226.8</ele>
        <time>2020-08-18T14:02:53Z</time>
      </trkpt>
      <trkpt lat="50.44196" lon="5.32899">
        <ele>226.8</ele>
        <time>2020-08-18T14:02:54Z</time>
      </trkpt>
      <trkpt lat="50.44197" lon="5.32899">
        <ele>226.8</ele>
        <time>2020-08-18T14:02:55Z</time>
      </trkpt>
      <trkpt lat="50.44197" lon="5.32899">
        <ele>226.8</ele>
        <time>2020-08-18T14:02:56Z</time>
      </trkpt>
      <trkpt lat="50.44196" lon="5.32899">
        <ele>226.8</ele>
        <time>2020-08-18T14:02:57Z</time>
      </trkpt>
      <trkpt lat="50.44196" lon="5.329">
        <ele>226.8</ele>
        <time>2020-08-18T14:02:58Z</time>
      </trkpt>
      <trkpt lat="50.44196" lon="5.329">
        <ele>226.8</ele>
        <time>2020-08-18T14:02:59Z</time>
      </trkpt>
      <trkpt lat="50.44197" lon="5.32901">
        <ele>226.9</ele>
        <time>2020-08-18T14:03:00Z</time>
      </trkpt>
      <trkpt lat="50.44198" lon="5.32903">
        <ele>226.9</ele>
        <time>2020-08-18T14:03:01Z</time>
      </trkpt>
      <trkpt lat="50.44198" lon="5.32903">
        <ele>226.9</ele>
        <time>2020-08-18T14:03:02Z</time>
      </trkpt>
      <trkpt lat="50.44199" lon="5.32904">
        <ele>227</ele>
        <time>2020-08-18T14:03:03Z</time>
      </trkpt>
      <trkpt lat="50.44201" lon="5.32905">
        <ele>227</ele>
        <time>2020-08-18T14:03:03Z</time>
      </trkpt>
      <trkpt lat="50.44202" lon="5.32906">
        <ele>227</ele>
        <time>2020-08-18T14:03:04Z</time>
      </trkpt>
      <trkpt lat="50.44202" lon="5.32906">
        <ele>227</ele>
        <time>2020-08-18T14:03:05Z</time>
      </trkpt>
      <trkpt lat="50.44204" lon="5.32907">
        <ele>227.1</ele>
        <time>2020-08-18T14:03:06Z</time>
      </trkpt>
      <trkpt lat="50.44206" lon="5.32909">
        <ele>227.2</ele>
        <time>2020-08-18T14:03:07Z</time>
      </trkpt>
      <trkpt lat="50.44207" lon="5.3291">
        <ele>227.2</ele>
        <time>2020-08-18T14:03:08Z</time>
      </trkpt>
      <trkpt lat="50.44207" lon="5.3291">
        <ele>227.2</ele>
        <time>2020-08-18T14:03:09Z</time>
      </trkpt>
      <trkpt lat="50.44208" lon="5.3291">
        <ele>227.2</ele>
        <time>2020-08-18T14:03:10Z</time>
      </trkpt>
      <trkpt lat="50.44209" lon="5.3291">
        <ele>227.2</ele>
        <time>2020-08-18T14:03:11Z</time>
      </trkpt>
      <trkpt lat="50.4421" lon="5.3291">
        <ele>227.3</ele>
        <time>2020-08-18T14:03:12Z</time>
      </trkpt>
      <trkpt lat="50.44211" lon="5.3291">
        <ele>227.3</ele>
        <time>2020-08-18T14:03:13Z</time>
      </trkpt>
      <trkpt lat="50.44211" lon="5.32909">
        <ele>227.3</ele>
        <time>2020-08-18T14:03:14Z</time>
      </trkpt>
      <trkpt lat="50.44211" lon="5.32908">
        <ele>227.2</ele>
        <time>2020-08-18T14:03:15Z</time>
      </trkpt>
      <trkpt lat="50.44211" lon="5.32908">
        <ele>227.2</ele>
        <time>2020-08-18T14:03:16Z</time>
      </trkpt>
      <trkpt lat="50.44211" lon="5.32908">
        <ele>227.2</ele>
        <time>2020-08-18T14:03:17Z</time>
      </trkpt>
      <trkpt lat="50.44211" lon="5.32908">
        <ele>227.2</ele>
        <time>2020-08-18T14:03:18Z</time>
      </trkpt>
      <trkpt lat="50.4421" lon="5.32907">
        <ele>227.2</ele>
        <time>2020-08-18T14:03:19Z</time>
      </trkpt>
      <trkpt lat="50.44209" lon="5.32906">
        <ele>227.1</ele>
        <time>2020-08-18T14:03:20Z</time>
      </trkpt>
      <trkpt lat="50.44209" lon="5.32906">
        <ele>227.1</ele>
        <time>2020-08-18T14:03:21Z</time>
      </trkpt>
      <trkpt lat="50.44208" lon="5.32905">
        <ele>227.1</ele>
        <time>2020-08-18T14:03:22Z</time>
      </trkpt>
      <trkpt lat="50.44207" lon="5.32905">
        <ele>227.1</ele>
        <time>2020-08-18T14:03:23Z</time>
      </trkpt>
      <trkpt lat="50.44207" lon="5.32906">
        <ele>227.1</ele>
        <time>2020-08-18T14:03:24Z</time>
      </trkpt>
      <trkpt lat="50.44207" lon="5.32907">
        <ele>227.1</ele>
        <time>2020-08-18T14:03:25Z</time>
      </trkpt>
      <trkpt lat="50.44208" lon="5.32908">
        <ele>227.2</ele>
        <time>2020-08-18T14:03:26Z</time>
      </trkpt>
      <trkpt lat="50.44209" lon="5.3291">
        <ele>227.2</ele>
        <time>2020-08-18T14:03:27Z</time>
      </trkpt>
      <trkpt lat="50.4421" lon="5.32913">
        <ele>227.3</ele>
        <time>2020-08-18T14:03:28Z</time>
      </trkpt>
      <trkpt lat="50.44211" lon="5.32914">
        <ele>227.4</ele>
        <time>2020-08-18T14:03:29Z</time>
      </trkpt>
      <trkpt lat="50.44213" lon="5.32916">
        <ele>227.5</ele>
        <time>2020-08-18T14:03:30Z</time>
      </trkpt>
      <trkpt lat="50.44214" lon="5.32918">
        <ele>231</ele>
        <time>2020-08-18T14:03:31Z</time>
      </trkpt>
      <trkpt lat="50.44215" lon="5.32919">
        <ele>231</ele>
        <time>2020-08-18T14:03:32Z</time>
      </trkpt>
      <trkpt lat="50.44216" lon="5.3292">
        <ele>231.1</ele>
        <time>2020-08-18T14:03:33Z</time>
      </trkpt>
      <trkpt lat="50.44215" lon="5.32921">
        <ele>231</ele>
        <time>2020-08-18T14:03:34Z</time>
      </trkpt>
      <trkpt lat="50.44215" lon="5.32922">
        <ele>231.1</ele>
        <time>2020-08-18T14:03:35Z</time>
      </trkpt>
      <trkpt lat="50.44215" lon="5.32922">
        <ele>231.1</ele>
        <time>2020-08-18T14:03:36Z</time>
      </trkpt>
      <trkpt lat="50.44215" lon="5.32922">
        <ele>231.1</ele>
        <time>2020-08-18T14:03:37Z</time>
      </trkpt>
      <trkpt lat="50.44215" lon="5.32922">
        <ele>231.1</ele>
        <time>2020-08-18T14:03:38Z</time>
      </trkpt>
      <trkpt lat="50.44215" lon="5.32922">
        <ele>231.1</ele>
        <time>2020-08-18T14:03:39Z</time>
      </trkpt>
      <trkpt lat="50.44214" lon="5.32922">
        <ele>231</ele>
        <time>2020-08-18T14:03:40Z</time>
      </trkpt>
      <trkpt lat="50.44213" lon="5.32922">
        <ele>231</ele>
        <time>2020-08-18T14:03:41Z</time>
      </trkpt>
      <trkpt lat="50.44211" lon="5.32923">
        <ele>231</ele>
        <time>2020-08-18T14:03:42Z</time>
      </trkpt>
      <trkpt lat="50.4421" lon="5.32923">
        <ele>231</ele>
        <time>2020-08-18T14:03:43Z</time>
      </trkpt>
      <trkpt lat="50.4421" lon="5.32923">
        <ele>231</ele>
        <time>2020-08-18T14:03:44Z</time>
      </trkpt>
      <trkpt lat="50.44209" lon="5.32924">
        <ele>231</ele>
        <time>2020-08-18T14:03:45Z</time>
      </trkpt>
      <trkpt lat="50.44209" lon="5.32924">
        <ele>231</ele>
        <time>2020-08-18T14:03:46Z</time>
      </trkpt>
      <trkpt lat="50.44209" lon="5.32925">
        <ele>231</ele>
        <time>2020-08-18T14:03:47Z</time>
      </trkpt>
      <trkpt lat="50.44209" lon="5.32925">
        <ele>231</ele>
        <time>2020-08-18T14:03:48Z</time>
      </trkpt>
      <trkpt lat="50.44209" lon="5.32926">
        <ele>231</ele>
        <time>2020-08-18T14:03:49Z</time>
      </trkpt>
      <trkpt lat="50.4421" lon="5.32927">
        <ele>231</ele>
        <time>2020-08-18T14:03:50Z</time>
      </trkpt>
      <trkpt lat="50.44212" lon="5.32929">
        <ele>231.1</ele>
        <time>2020-08-18T14:03:51Z</time>
      </trkpt>
      <trkpt lat="50.44214" lon="5.32931">
        <ele>231.1</ele>
        <time>2020-08-18T14:03:52Z</time>
      </trkpt>
      <trkpt lat="50.44216" lon="5.32933">
        <ele>231.2</ele>
        <time>2020-08-18T14:03:53Z</time>
      </trkpt>
      <trkpt lat="50.44218" lon="5.32935">
        <ele>231.2</ele>
        <time>2020-08-18T14:03:54Z</time>
      </trkpt>
      <trkpt lat="50.4422" lon="5.32938">
        <ele>231.3</ele>
        <time>2020-08-18T14:03:55Z</time>
      </trkpt>
      <trkpt lat="50.44223" lon="5.3294">
        <ele>231.3</ele>
        <time>2020-08-18T14:03:56Z</time>
      </trkpt>
      <trkpt lat="50.44224" lon="5.32943">
        <ele>231.4</ele>
        <time>2020-08-18T14:03:57Z</time>
      </trkpt>
      <trkpt lat="50.44226" lon="5.32945">
        <ele>231.4</ele>
        <time>2020-08-18T14:03:58Z</time>
      </trkpt>
      <trkpt lat="50.44227" lon="5.32946">
        <ele>231.4</ele>
        <time>2020-08-18T14:03:59Z</time>
      </trkpt>
      <trkpt lat="50.44228" lon="5.32947">
        <ele>231.4</ele>
        <time>2020-08-18T14:04:00Z</time>
      </trkpt>
      <trkpt lat="50.44228" lon="5.32948">
        <ele>231.4</ele>
        <time>2020-08-18T14:04:01Z</time>
      </trkpt>
      <trkpt lat="50.44229" lon="5.32949">
        <ele>231.5</ele>
        <time>2020-08-18T14:04:02Z</time>
      </trkpt>
      <trkpt lat="50.44229" lon="5.32949">
        <ele>231.5</ele>
        <time>2020-08-18T14:04:03Z</time>
      </trkpt>
      <trkpt lat="50.44229" lon="5.32949">
        <ele>231.5</ele>
        <time>2020-08-18T14:04:04Z</time>
      </trkpt>
      <trkpt lat="50.44228" lon="5.32949">
        <ele>231.5</ele>
        <time>2020-08-18T14:04:05Z</time>
      </trkpt>
      <trkpt lat="50.44229" lon="5.32949">
        <ele>231.5</ele>
        <time>2020-08-18T14:04:06Z</time>
      </trkpt>
      <trkpt lat="50.44229" lon="5.3295">
        <ele>231.5</ele>
        <time>2020-08-18T14:04:07Z</time>
      </trkpt>
      <trkpt lat="50.44229" lon="5.3295">
        <ele>231.5</ele>
        <time>2020-08-18T14:04:08Z</time>
      </trkpt>
      <trkpt lat="50.4423" lon="5.32951">
        <ele>231.5</ele>
        <time>2020-08-18T14:04:09Z</time>
      </trkpt>
      <trkpt lat="50.44231" lon="5.32951">
        <ele>231.5</ele>
        <time>2020-08-18T14:04:10Z</time>
      </trkpt>
      <trkpt lat="50.44231" lon="5.3295">
        <ele>231.5</ele>
        <time>2020-08-18T14:04:11Z</time>
      </trkpt>
      <trkpt lat="50.44231" lon="5.32949">
        <ele>231.5</ele>
        <time>2020-08-18T14:04:12Z</time>
      </trkpt>
      <trkpt lat="50.44232" lon="5.32949">
        <ele>231.5</ele>
        <time>2020-08-18T14:04:13Z</time>
      </trkpt>
      <trkpt lat="50.44232" lon="5.32949">
        <ele>231.5</ele>
        <time>2020-08-18T14:04:14Z</time>
      </trkpt>
      <trkpt lat="50.44233" lon="5.3295">
        <ele>231.5</ele>
        <time>2020-08-18T14:04:15Z</time>
      </trkpt>
      <trkpt lat="50.44235" lon="5.32952">
        <ele>231.5</ele>
        <time>2020-08-18T14:04:16Z</time>
      </trkpt>
      <trkpt lat="50.44237" lon="5.32953">
        <ele>231.6</ele>
        <time>2020-08-18T14:04:17Z</time>
      </trkpt>
      <trkpt lat="50.44241" lon="5.32956">
        <ele>231.6</ele>
        <time>2020-08-18T14:04:18Z</time>
      </trkpt>
      <trkpt lat="50.44244" lon="5.32957">
        <ele>231.7</ele>
        <time>2020-08-18T14:04:19Z</time>
      </trkpt>
      <trkpt lat="50.44246" lon="5.32959">
        <ele>231.7</ele>
        <time>2020-08-18T14:04:20Z</time>
      </trkpt>
      <trkpt lat="50.44247" lon="5.3296">
        <ele>231.7</ele>
        <time>2020-08-18T14:04:21Z</time>
      </trkpt>
      <trkpt lat="50.44247" lon="5.32962">
        <ele>231.8</ele>
        <time>2020-08-18T14:04:22Z</time>
      </trkpt>
      <trkpt lat="50.44248" lon="5.32963">
        <ele>231.8</ele>
        <time>2020-08-18T14:04:23Z</time>
      </trkpt>
      <trkpt lat="50.44248" lon="5.32963">
        <ele>231.8</ele>
        <time>2020-08-18T14:04:24Z</time>
      </trkpt>
      <trkpt lat="50.44249" lon="5.32964">
        <ele>231.8</ele>
        <time>2020-08-18T14:04:25Z</time>
      </trkpt>
      <trkpt lat="50.44251" lon="5.32966">
        <ele>231.8</ele>
        <time>2020-08-18T14:04:26Z</time>
      </trkpt>
      <trkpt lat="50.44253" lon="5.32968">
        <ele>231.9</ele>
        <time>2020-08-18T14:04:27Z</time>
      </trkpt>
      <trkpt lat="50.44255" lon="5.3297">
        <ele>231.9</ele>
        <time>2020-08-18T14:04:28Z</time>
      </trkpt>
      <trkpt lat="50.44256" lon="5.32972">
        <ele>231.9</ele>
        <time>2020-08-18T14:04:29Z</time>
      </trkpt>
      <trkpt lat="50.44257" lon="5.32973">
        <ele>231.9</ele>
        <time>2020-08-18T14:04:30Z</time>
      </trkpt>
      <trkpt lat="50.44257" lon="5.32975">
        <ele>232</ele>
        <time>2020-08-18T14:04:31Z</time>
      </trkpt>
      <trkpt lat="50.44257" lon="5.32976">
        <ele>232</ele>
        <time>2020-08-18T14:04:32Z</time>
      </trkpt>
      <trkpt lat="50.44258" lon="5.32977">
        <ele>232</ele>
        <time>2020-08-18T14:04:34Z</time>
      </trkpt>
      <trkpt lat="50.44258" lon="5.32977">
        <ele>232</ele>
        <time>2020-08-18T14:04:35Z</time>
      </trkpt>
      <trkpt lat="50.44257" lon="5.32977">
        <ele>232</ele>
        <time>2020-08-18T14:04:36Z</time>
      </trkpt>
      <trkpt lat="50.44257" lon="5.32976">
        <ele>232</ele>
        <time>2020-08-18T14:04:37Z</time>
      </trkpt>
      <trkpt lat="50.44256" lon="5.32977">
        <ele>232</ele>
        <time>2020-08-18T14:04:38Z</time>
      </trkpt>
      <trkpt lat="50.44256" lon="5.32977">
        <ele>232</ele>
        <time>2020-08-18T14:04:39Z</time>
      </trkpt>
      <trkpt lat="50.44255" lon="5.32978">
        <ele>232.1</ele>
        <time>2020-08-18T14:04:40Z</time>
      </trkpt>
      <trkpt lat="50.44255" lon="5.32978">
        <ele>232.1</ele>
        <time>2020-08-18T14:04:41Z</time>
      </trkpt>
      <trkpt lat="50.44254" lon="5.32978">
        <ele>232.1</ele>
        <time>2020-08-18T14:04:42Z</time>
      </trkpt>
      <trkpt lat="50.44254" lon="5.32977">
        <ele>232.1</ele>
        <time>2020-08-18T14:04:43Z</time>
      </trkpt>
      <trkpt lat="50.44253" lon="5.32978">
        <ele>232.1</ele>
        <time>2020-08-18T14:04:44Z</time>
      </trkpt>
      <trkpt lat="50.44253" lon="5.32979">
        <ele>232.1</ele>
        <time>2020-08-18T14:04:45Z</time>
      </trkpt>
      <trkpt lat="50.44254" lon="5.3298">
        <ele>232.1</ele>
        <time>2020-08-18T14:04:46Z</time>
      </trkpt>
      <trkpt lat="50.44255" lon="5.32982">
        <ele>232.2</ele>
        <time>2020-08-18T14:04:47Z</time>
      </trkpt>
      <trkpt lat="50.44255" lon="5.32983">
        <ele>232.2</ele>
        <time>2020-08-18T14:04:48Z</time>
      </trkpt>
      <trkpt lat="50.44255" lon="5.32984">
        <ele>232.2</ele>
        <time>2020-08-18T14:04:49Z</time>
      </trkpt>
      <trkpt lat="50.44255" lon="5.32984">
        <ele>232.2</ele>
        <time>2020-08-18T14:04:50Z</time>
      </trkpt>
      <trkpt lat="50.44254" lon="5.32985">
        <ele>232.3</ele>
        <time>2020-08-18T14:04:52Z</time>
      </trkpt>
      <trkpt lat="50.44254" lon="5.32986">
        <ele>232.3</ele>
        <time>2020-08-18T14:04:54Z</time>
      </trkpt>
      <trkpt lat="50.44254" lon="5.32986">
        <ele>232.3</ele>
        <time>2020-08-18T14:04:55Z</time>
      </trkpt>
      <trkpt lat="50.44254" lon="5.32987">
        <ele>232.3</ele>
        <time>2020-08-18T14:04:56Z</time>
      </trkpt>
      <trkpt lat="50.44255" lon="5.32987">
        <ele>232.3</ele>
        <time>2020-08-18T14:04:57Z</time>
      </trkpt>
      <trkpt lat="50.44254" lon="5.32987">
        <ele>232.3</ele>
        <time>2020-08-18T14:04:58Z</time>
      </trkpt>
      <trkpt lat="50.44254" lon="5.32988">
        <ele>232.4</ele>
        <time>2020-08-18T14:04:59Z</time>
      </trkpt>
      <trkpt lat="50.44254" lon="5.32988">
        <ele>232.4</ele>
        <time>2020-08-18T14:05:00Z</time>
      </trkpt>
      <trkpt lat="50.44253" lon="5.32989">
        <ele>232.4</ele>
        <time>2020-08-18T14:05:01Z</time>
      </trkpt>
      <trkpt lat="50.44253" lon="5.32989">
        <ele>232.4</ele>
        <time>2020-08-18T14:05:02Z</time>
      </trkpt>
      <trkpt lat="50.44253" lon="5.3299">
        <ele>232.5</ele>
        <time>2020-08-18T14:05:03Z</time>
      </trkpt>
      <trkpt lat="50.44253" lon="5.3299">
        <ele>232.5</ele>
        <time>2020-08-18T14:05:04Z</time>
      </trkpt>
      <trkpt lat="50.44252" lon="5.32991">
        <ele>232.5</ele>
        <time>2020-08-18T14:05:05Z</time>
      </trkpt>
      <trkpt lat="50.44251" lon="5.32992">
        <ele>232.6</ele>
        <time>2020-08-18T14:05:07Z</time>
      </trkpt>
      <trkpt lat="50.44251" lon="5.32993">
        <ele>232.6</ele>
        <time>2020-08-18T14:05:08Z</time>
      </trkpt>
      <trkpt lat="50.44252" lon="5.32993">
        <ele>232.6</ele>
        <time>2020-08-18T14:05:09Z</time>
      </trkpt>
      <trkpt lat="50.44252" lon="5.32995">
        <ele>232.7</ele>
        <time>2020-08-18T14:05:10Z</time>
      </trkpt>
      <trkpt lat="50.44252" lon="5.32997">
        <ele>232.8</ele>
        <time>2020-08-18T14:05:11Z</time>
      </trkpt>
      <trkpt lat="50.44252" lon="5.32998">
        <ele>232.8</ele>
        <time>2020-08-18T14:05:12Z</time>
      </trkpt>
      <trkpt lat="50.44252" lon="5.32999">
        <ele>232.9</ele>
        <time>2020-08-18T14:05:13Z</time>
      </trkpt>
      <trkpt lat="50.44252" lon="5.32999">
        <ele>232.9</ele>
        <time>2020-08-18T14:05:14Z</time>
      </trkpt>
      <trkpt lat="50.44252" lon="5.33">
        <ele>232.9</ele>
        <time>2020-08-18T14:05:15Z</time>
      </trkpt>
      <trkpt lat="50.44252" lon="5.33">
        <ele>232.9</ele>
        <time>2020-08-18T14:05:16Z</time>
      </trkpt>
      <trkpt lat="50.44251" lon="5.33">
        <ele>232.9</ele>
        <time>2020-08-18T14:05:17Z</time>
      </trkpt>
      <trkpt lat="50.44251" lon="5.33">
        <ele>232.9</ele>
        <time>2020-08-18T14:05:18Z</time>
      </trkpt>
      <trkpt lat="50.4425" lon="5.33001">
        <ele>232.9</ele>
        <time>2020-08-18T14:05:19Z</time>
      </trkpt>
      <trkpt lat="50.4425" lon="5.33001">
        <ele>232.9</ele>
        <time>2020-08-18T14:05:20Z</time>
      </trkpt>
      <trkpt lat="50.44249" lon="5.33002">
        <ele>233</ele>
        <time>2020-08-18T14:05:21Z</time>
      </trkpt>
      <trkpt lat="50.44247" lon="5.33002">
        <ele>233</ele>
        <time>2020-08-18T14:05:22Z</time>
      </trkpt>
      <trkpt lat="50.44247" lon="5.33003">
        <ele>233</ele>
        <time>2020-08-18T14:05:23Z</time>
      </trkpt>
      <trkpt lat="50.44246" lon="5.33004">
        <ele>233</ele>
        <time>2020-08-18T14:05:24Z</time>
      </trkpt>
      <trkpt lat="50.44245" lon="5.33006">
        <ele>233</ele>
        <time>2020-08-18T14:05:25Z</time>
      </trkpt>
      <trkpt lat="50.44245" lon="5.33007">
        <ele>233</ele>
        <time>2020-08-18T14:05:26Z</time>
      </trkpt>
      <trkpt lat="50.44244" lon="5.33008">
        <ele>233</ele>
        <time>2020-08-18T14:05:27Z</time>
      </trkpt>
      <trkpt lat="50.44245" lon="5.33009">
        <ele>233</ele>
        <time>2020-08-18T14:05:28Z</time>
      </trkpt>
      <trkpt lat="50.44246" lon="5.33012">
        <ele>233</ele>
        <time>2020-08-18T14:05:29Z</time>
      </trkpt>
      <trkpt lat="50.44246" lon="5.33014">
        <ele>233</ele>
        <time>2020-08-18T14:05:30Z</time>
      </trkpt>
      <trkpt lat="50.44247" lon="5.33016">
        <ele>233</ele>
        <time>2020-08-18T14:05:31Z</time>
      </trkpt>
      <trkpt lat="50.44247" lon="5.33018">
        <ele>233</ele>
        <time>2020-08-18T14:05:32Z</time>
      </trkpt>
      <trkpt lat="50.44248" lon="5.33019">
        <ele>233</ele>
        <time>2020-08-18T14:05:33Z</time>
      </trkpt>
      <trkpt lat="50.4425" lon="5.33023">
        <ele>232.3</ele>
        <time>2020-08-18T14:05:35Z</time>
      </trkpt>
      <trkpt lat="50.4425" lon="5.33023">
        <ele>232.3</ele>
        <time>2020-08-18T14:05:36Z</time>
      </trkpt>
      <trkpt lat="50.4425" lon="5.33023">
        <ele>232.3</ele>
        <time>2020-08-18T14:05:37Z</time>
      </trkpt>
      <trkpt lat="50.4425" lon="5.33024">
        <ele>232.3</ele>
        <time>2020-08-18T14:05:38Z</time>
      </trkpt>
      <trkpt lat="50.4425" lon="5.33025">
        <ele>232.2</ele>
        <time>2020-08-18T14:05:39Z</time>
      </trkpt>
      <trkpt lat="50.4425" lon="5.33026">
        <ele>232.2</ele>
        <time>2020-08-18T14:05:40Z</time>
      </trkpt>
      <trkpt lat="50.4425" lon="5.33027">
        <ele>232.2</ele>
        <time>2020-08-18T14:05:41Z</time>
      </trkpt>
      <trkpt lat="50.44251" lon="5.33029">
        <ele>232.2</ele>
        <time>2020-08-18T14:05:42Z</time>
      </trkpt>
      <trkpt lat="50.44252" lon="5.3303">
        <ele>232.2</ele>
        <time>2020-08-18T14:05:43Z</time>
      </trkpt>
      <trkpt lat="50.44252" lon="5.33031">
        <ele>232.1</ele>
        <time>2020-08-18T14:05:44Z</time>
      </trkpt>
      <trkpt lat="50.44253" lon="5.33032">
        <ele>232.1</ele>
        <time>2020-08-18T14:05:45Z</time>
      </trkpt>
      <trkpt lat="50.44253" lon="5.33033">
        <ele>232.1</ele>
        <time>2020-08-18T14:05:46Z</time>
      </trkpt>
      <trkpt lat="50.44253" lon="5.33034">
        <ele>232.1</ele>
        <time>2020-08-18T14:05:47Z</time>
      </trkpt>
      <trkpt lat="50.44253" lon="5.33035">
        <ele>232.1</ele>
        <time>2020-08-18T14:05:48Z</time>
      </trkpt>
      <trkpt lat="50.44254" lon="5.33036">
        <ele>232.1</ele>
        <time>2020-08-18T14:05:49Z</time>
      </trkpt>
      <trkpt lat="50.44254" lon="5.33038">
        <ele>232.1</ele>
        <time>2020-08-18T14:05:50Z</time>
      </trkpt>
      <trkpt lat="50.44254" lon="5.33039">
        <ele>232</ele>
        <time>2020-08-18T14:05:51Z</time>
      </trkpt>
      <trkpt lat="50.44254" lon="5.3304">
        <ele>232</ele>
        <time>2020-08-18T14:05:52Z</time>
      </trkpt>
      <trkpt lat="50.44255" lon="5.33042">
        <ele>232</ele>
        <time>2020-08-18T14:05:53Z</time>
      </trkpt>
      <trkpt lat="50.44256" lon="5.33043">
        <ele>232</ele>
        <time>2020-08-18T14:05:54Z</time>
      </trkpt>
      <trkpt lat="50.44257" lon="5.33044">
        <ele>232</ele>
        <time>2020-08-18T14:05:55Z</time>
      </trkpt>
      <trkpt lat="50.44258" lon="5.33045">
        <ele>232</ele>
        <time>2020-08-18T14:05:56Z</time>
      </trkpt>
      <trkpt lat="50.44259" lon="5.33046">
        <ele>232</ele>
        <time>2020-08-18T14:05:57Z</time>
      </trkpt>
      <trkpt lat="50.44259" lon="5.33047">
        <ele>232</ele>
        <time>2020-08-18T14:05:58Z</time>
      </trkpt>
      <trkpt lat="50.4426" lon="5.33049">
        <ele>231.9</ele>
        <time>2020-08-18T14:05:59Z</time>
      </trkpt>
      <trkpt lat="50.44261" lon="5.33051">
        <ele>231.9</ele>
        <time>2020-08-18T14:06:00Z</time>
      </trkpt>
      <trkpt lat="50.44262" lon="5.33053">
        <ele>231.9</ele>
        <time>2020-08-18T14:06:01Z</time>
      </trkpt>
      <trkpt lat="50.44264" lon="5.33055">
        <ele>231.9</ele>
        <time>2020-08-18T14:06:02Z</time>
      </trkpt>
      <trkpt lat="50.44265" lon="5.33057">
        <ele>231.9</ele>
        <time>2020-08-18T14:06:03Z</time>
      </trkpt>
      <trkpt lat="50.44265" lon="5.33059">
        <ele>231.9</ele>
        <time>2020-08-18T14:06:04Z</time>
      </trkpt>
      <trkpt lat="50.44265" lon="5.33061">
        <ele>231.9</ele>
        <time>2020-08-18T14:06:05Z</time>
      </trkpt>
      <trkpt lat="50.44265" lon="5.33062">
        <ele>231.9</ele>
        <time>2020-08-18T14:06:06Z</time>
      </trkpt>
      <trkpt lat="50.44265" lon="5.33064">
        <ele>231.9</ele>
        <time>2020-08-18T14:06:07Z</time>
      </trkpt>
      <trkpt lat="50.44265" lon="5.33066">
        <ele>231.9</ele>
        <time>2020-08-18T14:06:08Z</time>
      </trkpt>
      <trkpt lat="50.44265" lon="5.33068">
        <ele>231.9</ele>
        <time>2020-08-18T14:06:09Z</time>
      </trkpt>
      <trkpt lat="50.44266" lon="5.33069">
        <ele>231.9</ele>
        <time>2020-08-18T14:06:10Z</time>
      </trkpt>
      <trkpt lat="50.44266" lon="5.3307">
        <ele>231.9</ele>
        <time>2020-08-18T14:06:11Z</time>
      </trkpt>
      <trkpt lat="50.44267" lon="5.33072">
        <ele>231.9</ele>
        <time>2020-08-18T14:06:12Z</time>
      </trkpt>
      <trkpt lat="50.44267" lon="5.33073">
        <ele>231.9</ele>
        <time>2020-08-18T14:06:13Z</time>
      </trkpt>
      <trkpt lat="50.44266" lon="5.33073">
        <ele>231.9</ele>
        <time>2020-08-18T14:06:14Z</time>
      </trkpt>
      <trkpt lat="50.44266" lon="5.33074">
        <ele>231.9</ele>
        <time>2020-08-18T14:06:15Z</time>
      </trkpt>
      <trkpt lat="50.44267" lon="5.33076">
        <ele>231.9</ele>
        <time>2020-08-18T14:06:16Z</time>
      </trkpt>
      <trkpt lat="50.44267" lon="5.33077">
        <ele>231.9</ele>
        <time>2020-08-18T14:06:17Z</time>
      </trkpt>
      <trkpt lat="50.44267" lon="5.33079">
        <ele>231.9</ele>
        <time>2020-08-18T14:06:18Z</time>
      </trkpt>
      <trkpt lat="50.44267" lon="5.33081">
        <ele>231.9</ele>
        <time>2020-08-18T14:06:19Z</time>
      </trkpt>
      <trkpt lat="50.44267" lon="5.33083">
        <ele>231.9</ele>
        <time>2020-08-18T14:06:20Z</time>
      </trkpt>
      <trkpt lat="50.44267" lon="5.33084">
        <ele>232.1</ele>
        <time>2020-08-18T14:06:21Z</time>
      </trkpt>
      <trkpt lat="50.44267" lon="5.33085">
        <ele>232.1</ele>
        <time>2020-08-18T14:06:22Z</time>
      </trkpt>
      <trkpt lat="50.44268" lon="5.33085">
        <ele>232.1</ele>
        <time>2020-08-18T14:06:23Z</time>
      </trkpt>
      <trkpt lat="50.44268" lon="5.33086">
        <ele>232.1</ele>
        <time>2020-08-18T14:06:25Z</time>
      </trkpt>
      <trkpt lat="50.44268" lon="5.33086">
        <ele>232.1</ele>
        <time>2020-08-18T14:06:27Z</time>
      </trkpt>
      <trkpt lat="50.44268" lon="5.33086">
        <ele>232.1</ele>
        <time>2020-08-18T14:06:28Z</time>
      </trkpt>
      <trkpt lat="50.44268" lon="5.33087">
        <ele>232.1</ele>
        <time>2020-08-18T14:06:30Z</time>
      </trkpt>
      <trkpt lat="50.44268" lon="5.33087">
        <ele>232.1</ele>
        <time>2020-08-18T14:06:31Z</time>
      </trkpt>
      <trkpt lat="50.44268" lon="5.33088">
        <ele>232.1</ele>
        <time>2020-08-18T14:06:32Z</time>
      </trkpt>
      <trkpt lat="50.44268" lon="5.33089">
        <ele>232.1</ele>
        <time>2020-08-18T14:06:33Z</time>
      </trkpt>
      <trkpt lat="50.44268" lon="5.3309">
        <ele>232.1</ele>
        <time>2020-08-18T14:06:34Z</time>
      </trkpt>
      <trkpt lat="50.44268" lon="5.33091">
        <ele>232.1</ele>
        <time>2020-08-18T14:06:35Z</time>
      </trkpt>
      <trkpt lat="50.44267" lon="5.33093">
        <ele>232.1</ele>
        <time>2020-08-18T14:06:36Z</time>
      </trkpt>
      <trkpt lat="50.44267" lon="5.33094">
        <ele>232.1</ele>
        <time>2020-08-18T14:06:37Z</time>
      </trkpt>
      <trkpt lat="50.44267" lon="5.33096">
        <ele>232.1</ele>
        <time>2020-08-18T14:06:38Z</time>
      </trkpt>
      <trkpt lat="50.44267" lon="5.33097">
        <ele>232.1</ele>
        <time>2020-08-18T14:06:39Z</time>
      </trkpt>
      <trkpt lat="50.44268" lon="5.33099">
        <ele>232.1</ele>
        <time>2020-08-18T14:06:40Z</time>
      </trkpt>
      <trkpt lat="50.44268" lon="5.331">
        <ele>232.1</ele>
        <time>2020-08-18T14:06:41Z</time>
      </trkpt>
      <trkpt lat="50.44268" lon="5.33101">
        <ele>232.1</ele>
        <time>2020-08-18T14:06:42Z</time>
      </trkpt>
      <trkpt lat="50.44268" lon="5.33102">
        <ele>232.1</ele>
        <time>2020-08-18T14:06:43Z</time>
      </trkpt>
      <trkpt lat="50.44268" lon="5.33103">
        <ele>232.1</ele>
        <time>2020-08-18T14:06:44Z</time>
      </trkpt>
      <trkpt lat="50.44268" lon="5.33104">
        <ele>232.2</ele>
        <time>2020-08-18T14:06:45Z</time>
      </trkpt>
      <trkpt lat="50.44269" lon="5.33106">
        <ele>232.2</ele>
        <time>2020-08-18T14:06:46Z</time>
      </trkpt>
      <trkpt lat="50.44269" lon="5.33108">
        <ele>232.2</ele>
        <time>2020-08-18T14:06:47Z</time>
      </trkpt>
      <trkpt lat="50.44269" lon="5.33109">
        <ele>232.2</ele>
        <time>2020-08-18T14:06:48Z</time>
      </trkpt>
      <trkpt lat="50.44269" lon="5.33111">
        <ele>232.2</ele>
        <time>2020-08-18T14:06:49Z</time>
      </trkpt>
      <trkpt lat="50.44269" lon="5.33112">
        <ele>232.2</ele>
        <time>2020-08-18T14:06:50Z</time>
      </trkpt>
      <trkpt lat="50.44269" lon="5.33113">
        <ele>232.2</ele>
        <time>2020-08-18T14:06:51Z</time>
      </trkpt>
      <trkpt lat="50.44269" lon="5.33114">
        <ele>232.2</ele>
        <time>2020-08-18T14:06:52Z</time>
      </trkpt>
      <trkpt lat="50.44269" lon="5.33115">
        <ele>232.2</ele>
        <time>2020-08-18T14:06:53Z</time>
      </trkpt>
      <trkpt lat="50.44269" lon="5.33116">
        <ele>232.2</ele>
        <time>2020-08-18T14:06:54Z</time>
      </trkpt>
      <trkpt lat="50.44268" lon="5.33117">
        <ele>232.2</ele>
        <time>2020-08-18T14:06:55Z</time>
      </trkpt>
      <trkpt lat="50.44268" lon="5.33118">
        <ele>232.3</ele>
        <time>2020-08-18T14:06:56Z</time>
      </trkpt>
      <trkpt lat="50.44268" lon="5.3312">
        <ele>232.3</ele>
        <time>2020-08-18T14:06:57Z</time>
      </trkpt>
      <trkpt lat="50.44269" lon="5.33121">
        <ele>232.3</ele>
        <time>2020-08-18T14:06:58Z</time>
      </trkpt>
      <trkpt lat="50.44269" lon="5.33122">
        <ele>232.3</ele>
        <time>2020-08-18T14:06:59Z</time>
      </trkpt>
      <trkpt lat="50.44269" lon="5.33124">
        <ele>232.3</ele>
        <time>2020-08-18T14:07:00Z</time>
      </trkpt>
      <trkpt lat="50.44269" lon="5.33125">
        <ele>232.3</ele>
        <time>2020-08-18T14:07:01Z</time>
      </trkpt>
      <trkpt lat="50.44269" lon="5.33126">
        <ele>232.3</ele>
        <time>2020-08-18T14:07:02Z</time>
      </trkpt>
      <trkpt lat="50.44269" lon="5.33128">
        <ele>232.3</ele>
        <time>2020-08-18T14:07:03Z</time>
      </trkpt>
      <trkpt lat="50.44269" lon="5.33129">
        <ele>232.3</ele>
        <time>2020-08-18T14:07:04Z</time>
      </trkpt>
      <trkpt lat="50.44269" lon="5.3313">
        <ele>232.4</ele>
        <time>2020-08-18T14:07:05Z</time>
      </trkpt>
      <trkpt lat="50.4427" lon="5.33132">
        <ele>232.4</ele>
        <time>2020-08-18T14:07:06Z</time>
      </trkpt>
      <trkpt lat="50.4427" lon="5.33133">
        <ele>232.4</ele>
        <time>2020-08-18T14:07:07Z</time>
      </trkpt>
      <trkpt lat="50.4427" lon="5.33135">
        <ele>232.4</ele>
        <time>2020-08-18T14:07:08Z</time>
      </trkpt>
      <trkpt lat="50.4427" lon="5.33136">
        <ele>232.4</ele>
        <time>2020-08-18T14:07:09Z</time>
      </trkpt>
      <trkpt lat="50.4427" lon="5.33137">
        <ele>232.4</ele>
        <time>2020-08-18T14:07:10Z</time>
      </trkpt>
      <trkpt lat="50.4427" lon="5.33138">
        <ele>232.4</ele>
        <time>2020-08-18T14:07:11Z</time>
      </trkpt>
      <trkpt lat="50.4427" lon="5.3314">
        <ele>232.4</ele>
        <time>2020-08-18T14:07:12Z</time>
      </trkpt>
      <trkpt lat="50.4427" lon="5.3314">
        <ele>232.4</ele>
        <time>2020-08-18T14:07:13Z</time>
      </trkpt>
      <trkpt lat="50.4427" lon="5.33141">
        <ele>232.5</ele>
        <time>2020-08-18T14:07:14Z</time>
      </trkpt>
      <trkpt lat="50.4427" lon="5.33142">
        <ele>232.5</ele>
        <time>2020-08-18T14:07:15Z</time>
      </trkpt>
      <trkpt lat="50.4427" lon="5.33142">
        <ele>232.5</ele>
        <time>2020-08-18T14:07:16Z</time>
      </trkpt>
      <trkpt lat="50.44271" lon="5.33144">
        <ele>232.5</ele>
        <time>2020-08-18T14:07:18Z</time>
      </trkpt>
      <trkpt lat="50.44271" lon="5.33144">
        <ele>232.5</ele>
        <time>2020-08-18T14:07:18Z</time>
      </trkpt>
      <trkpt lat="50.4427" lon="5.33145">
        <ele>232.5</ele>
        <time>2020-08-18T14:07:19Z</time>
      </trkpt>
      <trkpt lat="50.4427" lon="5.33146">
        <ele>232.5</ele>
        <time>2020-08-18T14:07:20Z</time>
      </trkpt>
      <trkpt lat="50.44269" lon="5.33148">
        <ele>232.5</ele>
        <time>2020-08-18T14:07:21Z</time>
      </trkpt>
      <trkpt lat="50.44268" lon="5.33149">
        <ele>232.5</ele>
        <time>2020-08-18T14:07:22Z</time>
      </trkpt>
      <trkpt lat="50.44267" lon="5.33149">
        <ele>232.6</ele>
        <time>2020-08-18T14:07:23Z</time>
      </trkpt>
      <trkpt lat="50.44267" lon="5.3315">
        <ele>232.6</ele>
        <time>2020-08-18T14:07:24Z</time>
      </trkpt>
      <trkpt lat="50.44266" lon="5.33151">
        <ele>232.6</ele>
        <time>2020-08-18T14:07:25Z</time>
      </trkpt>
      <trkpt lat="50.44266" lon="5.33152">
        <ele>232.6</ele>
        <time>2020-08-18T14:07:26Z</time>
      </trkpt>
      <trkpt lat="50.44265" lon="5.33153">
        <ele>232.6</ele>
        <time>2020-08-18T14:07:27Z</time>
      </trkpt>
      <trkpt lat="50.44266" lon="5.33154">
        <ele>232.6</ele>
        <time>2020-08-18T14:07:28Z</time>
      </trkpt>
      <trkpt lat="50.44266" lon="5.33155">
        <ele>232.6</ele>
        <time>2020-08-18T14:07:29Z</time>
      </trkpt>
      <trkpt lat="50.44267" lon="5.33157">
        <ele>232.6</ele>
        <time>2020-08-18T14:07:30Z</time>
      </trkpt>
      <trkpt lat="50.44267" lon="5.33158">
        <ele>232.6</ele>
        <time>2020-08-18T14:07:31Z</time>
      </trkpt>
      <trkpt lat="50.44267" lon="5.33159">
        <ele>232.6</ele>
        <time>2020-08-18T14:07:32Z</time>
      </trkpt>
      <trkpt lat="50.44267" lon="5.3316">
        <ele>232.6</ele>
        <time>2020-08-18T14:07:33Z</time>
      </trkpt>
      <trkpt lat="50.44268" lon="5.33161">
        <ele>232.6</ele>
        <time>2020-08-18T14:07:34Z</time>
      </trkpt>
      <trkpt lat="50.44268" lon="5.33163">
        <ele>232.7</ele>
        <time>2020-08-18T14:07:35Z</time>
      </trkpt>
      <trkpt lat="50.44268" lon="5.33164">
        <ele>232.7</ele>
        <time>2020-08-18T14:07:36Z</time>
      </trkpt>
      <trkpt lat="50.44268" lon="5.33165">
        <ele>232.7</ele>
        <time>2020-08-18T14:07:37Z</time>
      </trkpt>
      <trkpt lat="50.44268" lon="5.33166">
        <ele>232.7</ele>
        <time>2020-08-18T14:07:38Z</time>
      </trkpt>
      <trkpt lat="50.44269" lon="5.33167">
        <ele>233.3</ele>
        <time>2020-08-18T14:07:39Z</time>
      </trkpt>
      <trkpt lat="50.4427" lon="5.33168">
        <ele>233.4</ele>
        <time>2020-08-18T14:07:40Z</time>
      </trkpt>
      <trkpt lat="50.44271" lon="5.33169">
        <ele>233.4</ele>
        <time>2020-08-18T14:07:41Z</time>
      </trkpt>
      <trkpt lat="50.44271" lon="5.3317">
        <ele>233.4</ele>
        <time>2020-08-18T14:07:42Z</time>
      </trkpt>
      <trkpt lat="50.44271" lon="5.33171">
        <ele>233.4</ele>
        <time>2020-08-18T14:07:43Z</time>
      </trkpt>
      <trkpt lat="50.44271" lon="5.33172">
        <ele>233.4</ele>
        <time>2020-08-18T14:07:44Z</time>
      </trkpt>
      <trkpt lat="50.44271" lon="5.33173">
        <ele>233.4</ele>
        <time>2020-08-18T14:07:45Z</time>
      </trkpt>
      <trkpt lat="50.44272" lon="5.33174">
        <ele>233.4</ele>
        <time>2020-08-18T14:07:46Z</time>
      </trkpt>
      <trkpt lat="50.44272" lon="5.33176">
        <ele>233.4</ele>
        <time>2020-08-18T14:07:47Z</time>
      </trkpt>
      <trkpt lat="50.44272" lon="5.33177">
        <ele>233.4</ele>
        <time>2020-08-18T14:07:48Z</time>
      </trkpt>
      <trkpt lat="50.44272" lon="5.33177">
        <ele>233.4</ele>
        <time>2020-08-18T14:07:49Z</time>
      </trkpt>
      <trkpt lat="50.44272" lon="5.33178">
        <ele>233.4</ele>
        <time>2020-08-18T14:07:50Z</time>
      </trkpt>
      <trkpt lat="50.44272" lon="5.33178">
        <ele>233.4</ele>
        <time>2020-08-18T14:07:51Z</time>
      </trkpt>
      <trkpt lat="50.44271" lon="5.33178">
        <ele>233.4</ele>
        <time>2020-08-18T14:07:52Z</time>
      </trkpt>
      <trkpt lat="50.44271" lon="5.33178">
        <ele>233.4</ele>
        <time>2020-08-18T14:07:53Z</time>
      </trkpt>
      <trkpt lat="50.44271" lon="5.33179">
        <ele>233.4</ele>
        <time>2020-08-18T14:07:55Z</time>
      </trkpt>
      <trkpt lat="50.44271" lon="5.3318">
        <ele>233.4</ele>
        <time>2020-08-18T14:07:56Z</time>
      </trkpt>
      <trkpt lat="50.44271" lon="5.3318">
        <ele>233.4</ele>
        <time>2020-08-18T14:07:57Z</time>
      </trkpt>
      <trkpt lat="50.44271" lon="5.3318">
        <ele>233.4</ele>
        <time>2020-08-18T14:07:58Z</time>
      </trkpt>
      <trkpt lat="50.44272" lon="5.3318">
        <ele>233.4</ele>
        <time>2020-08-18T14:07:59Z</time>
      </trkpt>
      <trkpt lat="50.44272" lon="5.3318">
        <ele>233.4</ele>
        <time>2020-08-18T14:08:00Z</time>
      </trkpt>
      <trkpt lat="50.44272" lon="5.33181">
        <ele>233.5</ele>
        <time>2020-08-18T14:08:01Z</time>
      </trkpt>
      <trkpt lat="50.44272" lon="5.33181">
        <ele>233.5</ele>
        <time>2020-08-18T14:08:02Z</time>
      </trkpt>
      <trkpt lat="50.44272" lon="5.33181">
        <ele>233.5</ele>
        <time>2020-08-18T14:08:03Z</time>
      </trkpt>
      <trkpt lat="50.44272" lon="5.33182">
        <ele>233.5</ele>
        <time>2020-08-18T14:08:04Z</time>
      </trkpt>
      <trkpt lat="50.44272" lon="5.33182">
        <ele>233.5</ele>
        <time>2020-08-18T14:08:05Z</time>
      </trkpt>
      <trkpt lat="50.44272" lon="5.33183">
        <ele>233.5</ele>
        <time>2020-08-18T14:08:06Z</time>
      </trkpt>
      <trkpt lat="50.44272" lon="5.33183">
        <ele>233.5</ele>
        <time>2020-08-18T14:08:07Z</time>
      </trkpt>
      <trkpt lat="50.44271" lon="5.33182">
        <ele>233.5</ele>
        <time>2020-08-18T14:08:08Z</time>
      </trkpt>
      <trkpt lat="50.44271" lon="5.33182">
        <ele>233.5</ele>
        <time>2020-08-18T14:08:09Z</time>
      </trkpt>
      <trkpt lat="50.44269" lon="5.33181">
        <ele>233.4</ele>
        <time>2020-08-18T14:08:11Z</time>
      </trkpt>
      <trkpt lat="50.44268" lon="5.33181">
        <ele>233.4</ele>
        <time>2020-08-18T14:08:12Z</time>
      </trkpt>
      <trkpt lat="50.44268" lon="5.33181">
        <ele>233.4</ele>
        <time>2020-08-18T14:08:13Z</time>
      </trkpt>
      <trkpt lat="50.44268" lon="5.3318">
        <ele>233.4</ele>
        <time>2020-08-18T14:08:14Z</time>
      </trkpt>
      <trkpt lat="50.44269" lon="5.33179">
        <ele>233.4</ele>
        <time>2020-08-18T14:08:15Z</time>
      </trkpt>
      <trkpt lat="50.4427" lon="5.33178">
        <ele>233.4</ele>
        <time>2020-08-18T14:08:16Z</time>
      </trkpt>
      <trkpt lat="50.4427" lon="5.33178">
        <ele>233.4</ele>
        <time>2020-08-18T14:08:17Z</time>
      </trkpt>
      <trkpt lat="50.4427" lon="5.33177">
        <ele>233.4</ele>
        <time>2020-08-18T14:08:18Z</time>
      </trkpt>
      <trkpt lat="50.4427" lon="5.33176">
        <ele>233.4</ele>
        <time>2020-08-18T14:08:19Z</time>
      </trkpt>
    </trkseg>
  </trk>
</gpx>